<?xml version="1.0" encoding="UTF-8" standalone="no" ?>
<gpx xmlns="http://www.topografix.com/GPX/1/1" xmlns:xsi="http://www.w3.org/2001/XMLSchema-instance" xsi:schemaLocation="http://www.topografix.com/GPX/1/1 http://www.topografix.com/GPX/1/1/gpx.xsd" version="1.1" creator="VisuGPX - https://www.visugpx.com">
  <metadata>
    <name>Plateau d'Arbois le 7 mai 2025</name>
    <desc><![CDATA[Boucle de 12.5 km, dénivelé 250 m au départ du Parking de l'Arbois]]></desc>
  </metadata>
  <trk>
    <name><![CDATA[Plateau d'Arbois le 7 mai 2025]]></name>
    <trkseg>
      <trkpt lat="43.4885" lon="5.31683">
        <ele>131.8</ele>
        <time>2025-05-07T07:47:21.000Z</time>
      </trkpt>
      <trkpt lat="43.48849" lon="5.31684">
        <ele>131.7</ele>
        <time>2025-05-07T07:47:44.000Z</time>
      </trkpt>
      <trkpt lat="43.48847" lon="5.31685">
        <ele>131.6</ele>
        <time>2025-05-07T07:47:48.000Z</time>
      </trkpt>
      <trkpt lat="43.48848" lon="5.31687">
        <ele>131.8</ele>
        <time>2025-05-07T07:49:34.000Z</time>
      </trkpt>
      <trkpt lat="43.4885" lon="5.31685">
        <ele>131.9</ele>
        <time>2025-05-07T07:49:43.000Z</time>
      </trkpt>
      <trkpt lat="43.48852" lon="5.31683">
        <ele>131.9</ele>
        <time>2025-05-07T07:49:54.000Z</time>
      </trkpt>
      <trkpt lat="43.48851" lon="5.31685">
        <ele>131.9</ele>
        <time>2025-05-07T07:50:12.000Z</time>
      </trkpt>
      <trkpt lat="43.48848" lon="5.31686">
        <ele>131.8</ele>
        <time>2025-05-07T07:50:19.000Z</time>
      </trkpt>
      <trkpt lat="43.48847" lon="5.31687">
        <ele>131.7</ele>
        <time>2025-05-07T07:53:44.000Z</time>
      </trkpt>
      <trkpt lat="43.48848" lon="5.31688">
        <ele>131.8</ele>
        <time>2025-05-07T07:54:02.000Z</time>
      </trkpt>
      <trkpt lat="43.48851" lon="5.31686">
        <ele>131.9</ele>
        <time>2025-05-07T07:54:05.000Z</time>
      </trkpt>
      <trkpt lat="43.48852" lon="5.31685">
        <ele>132</ele>
        <time>2025-05-07T07:54:07.000Z</time>
      </trkpt>
      <trkpt lat="43.48855" lon="5.31683">
        <ele>132.1</ele>
        <time>2025-05-07T07:54:10.000Z</time>
      </trkpt>
      <trkpt lat="43.48857" lon="5.31682">
        <ele>132.2</ele>
        <time>2025-05-07T07:54:12.000Z</time>
      </trkpt>
      <trkpt lat="43.48859" lon="5.31681">
        <ele>132.3</ele>
        <time>2025-05-07T07:54:14.000Z</time>
      </trkpt>
      <trkpt lat="43.48861" lon="5.31679">
        <ele>132.4</ele>
        <time>2025-05-07T07:54:17.000Z</time>
      </trkpt>
      <trkpt lat="43.48863" lon="5.31678">
        <ele>132.4</ele>
        <time>2025-05-07T07:54:19.000Z</time>
      </trkpt>
      <trkpt lat="43.48864" lon="5.31674">
        <ele>132.4</ele>
        <time>2025-05-07T07:54:21.000Z</time>
      </trkpt>
      <trkpt lat="43.48864" lon="5.31671">
        <ele>132.3</ele>
        <time>2025-05-07T07:54:24.000Z</time>
      </trkpt>
      <trkpt lat="43.48864" lon="5.31668">
        <ele>132.2</ele>
        <time>2025-05-07T07:54:26.000Z</time>
      </trkpt>
      <trkpt lat="43.48862" lon="5.31665">
        <ele>131.9</ele>
        <time>2025-05-07T07:54:32.000Z</time>
      </trkpt>
      <trkpt lat="43.48861" lon="5.31663">
        <ele>131.7</ele>
        <time>2025-05-07T07:54:35.000Z</time>
      </trkpt>
      <trkpt lat="43.48859" lon="5.31661">
        <ele>131.5</ele>
        <time>2025-05-07T07:54:37.000Z</time>
      </trkpt>
      <trkpt lat="43.48858" lon="5.31659">
        <ele>131.2</ele>
        <time>2025-05-07T07:54:40.000Z</time>
      </trkpt>
      <trkpt lat="43.48856" lon="5.31656">
        <ele>130.9</ele>
        <time>2025-05-07T07:54:43.000Z</time>
      </trkpt>
      <trkpt lat="43.48856" lon="5.31653">
        <ele>130.7</ele>
        <time>2025-05-07T07:54:45.000Z</time>
      </trkpt>
      <trkpt lat="43.48855" lon="5.3165">
        <ele>130.4</ele>
        <time>2025-05-07T07:54:48.000Z</time>
      </trkpt>
      <trkpt lat="43.48853" lon="5.31649">
        <ele>130.1</ele>
        <time>2025-05-07T07:54:51.000Z</time>
      </trkpt>
      <trkpt lat="43.48851" lon="5.31645">
        <ele>129.7</ele>
        <time>2025-05-07T07:54:55.000Z</time>
      </trkpt>
      <trkpt lat="43.4885" lon="5.31642">
        <ele>129.4</ele>
        <time>2025-05-07T07:54:57.000Z</time>
      </trkpt>
      <trkpt lat="43.48849" lon="5.3164">
        <ele>129.2</ele>
        <time>2025-05-07T07:54:59.000Z</time>
      </trkpt>
      <trkpt lat="43.48848" lon="5.31637">
        <ele>129.1</ele>
        <time>2025-05-07T07:55:01.000Z</time>
      </trkpt>
      <trkpt lat="43.48846" lon="5.31635">
        <ele>129</ele>
        <time>2025-05-07T07:55:03.000Z</time>
      </trkpt>
      <trkpt lat="43.48845" lon="5.31632">
        <ele>129</ele>
        <time>2025-05-07T07:55:05.000Z</time>
      </trkpt>
      <trkpt lat="43.48844" lon="5.3163">
        <ele>129</ele>
        <time>2025-05-07T07:55:07.000Z</time>
      </trkpt>
      <trkpt lat="43.48842" lon="5.31628">
        <ele>128.9</ele>
        <time>2025-05-07T07:55:10.000Z</time>
      </trkpt>
      <trkpt lat="43.4884" lon="5.31626">
        <ele>128.8</ele>
        <time>2025-05-07T07:55:13.000Z</time>
      </trkpt>
      <trkpt lat="43.48838" lon="5.31624">
        <ele>128.8</ele>
        <time>2025-05-07T07:55:15.000Z</time>
      </trkpt>
      <trkpt lat="43.48836" lon="5.31621">
        <ele>128.8</ele>
        <time>2025-05-07T07:55:17.000Z</time>
      </trkpt>
      <trkpt lat="43.48835" lon="5.31619">
        <ele>128.8</ele>
        <time>2025-05-07T07:55:19.000Z</time>
      </trkpt>
      <trkpt lat="43.48833" lon="5.31617">
        <ele>128.8</ele>
        <time>2025-05-07T07:55:22.000Z</time>
      </trkpt>
      <trkpt lat="43.48832" lon="5.31615">
        <ele>128.8</ele>
        <time>2025-05-07T07:55:24.000Z</time>
      </trkpt>
      <trkpt lat="43.4883" lon="5.31613">
        <ele>128.8</ele>
        <time>2025-05-07T07:55:26.000Z</time>
      </trkpt>
      <trkpt lat="43.48829" lon="5.31611">
        <ele>128.9</ele>
        <time>2025-05-07T07:55:28.000Z</time>
      </trkpt>
      <trkpt lat="43.48827" lon="5.31609">
        <ele>128.8</ele>
        <time>2025-05-07T07:55:31.000Z</time>
      </trkpt>
      <trkpt lat="43.48826" lon="5.31608">
        <ele>128.8</ele>
        <time>2025-05-07T07:55:33.000Z</time>
      </trkpt>
      <trkpt lat="43.48825" lon="5.31605">
        <ele>128.8</ele>
        <time>2025-05-07T07:55:35.000Z</time>
      </trkpt>
      <trkpt lat="43.48823" lon="5.31603">
        <ele>128.8</ele>
        <time>2025-05-07T07:55:38.000Z</time>
      </trkpt>
      <trkpt lat="43.48821" lon="5.316">
        <ele>128.8</ele>
        <time>2025-05-07T07:55:41.000Z</time>
      </trkpt>
      <trkpt lat="43.48819" lon="5.31598">
        <ele>128.7</ele>
        <time>2025-05-07T07:55:44.000Z</time>
      </trkpt>
      <trkpt lat="43.48818" lon="5.31595">
        <ele>128.7</ele>
        <time>2025-05-07T07:55:49.000Z</time>
      </trkpt>
      <trkpt lat="43.4882" lon="5.31595">
        <ele>128.8</ele>
        <time>2025-05-07T07:56:00.000Z</time>
      </trkpt>
      <trkpt lat="43.48822" lon="5.31596">
        <ele>128.9</ele>
        <time>2025-05-07T07:56:02.000Z</time>
      </trkpt>
      <trkpt lat="43.48824" lon="5.31596">
        <ele>129</ele>
        <time>2025-05-07T07:56:04.000Z</time>
      </trkpt>
      <trkpt lat="43.4882" lon="5.31596">
        <ele>128.8</ele>
        <time>2025-05-07T07:56:39.000Z</time>
      </trkpt>
      <trkpt lat="43.48818" lon="5.31592">
        <ele>128.7</ele>
        <time>2025-05-07T07:57:04.000Z</time>
      </trkpt>
      <trkpt lat="43.48817" lon="5.3159">
        <ele>128.7</ele>
        <time>2025-05-07T07:57:07.000Z</time>
      </trkpt>
      <trkpt lat="43.48818" lon="5.31587">
        <ele>128.8</ele>
        <time>2025-05-07T07:57:10.000Z</time>
      </trkpt>
      <trkpt lat="43.48819" lon="5.31584">
        <ele>129</ele>
        <time>2025-05-07T07:57:13.000Z</time>
      </trkpt>
      <trkpt lat="43.4882" lon="5.31581">
        <ele>128.9</ele>
        <time>2025-05-07T07:57:15.000Z</time>
      </trkpt>
      <trkpt lat="43.4882" lon="5.31578">
        <ele>128.9</ele>
        <time>2025-05-07T07:57:18.000Z</time>
      </trkpt>
      <trkpt lat="43.4882" lon="5.31574">
        <ele>128.7</ele>
        <time>2025-05-07T07:57:21.000Z</time>
      </trkpt>
      <trkpt lat="43.4882" lon="5.31572">
        <ele>128.6</ele>
        <time>2025-05-07T07:57:23.000Z</time>
      </trkpt>
      <trkpt lat="43.4882" lon="5.31569">
        <ele>128.5</ele>
        <time>2025-05-07T07:57:25.000Z</time>
      </trkpt>
      <trkpt lat="43.4882" lon="5.31566">
        <ele>128.4</ele>
        <time>2025-05-07T07:57:27.000Z</time>
      </trkpt>
      <trkpt lat="43.4882" lon="5.31563">
        <ele>128.3</ele>
        <time>2025-05-07T07:57:29.000Z</time>
      </trkpt>
      <trkpt lat="43.48819" lon="5.3156">
        <ele>128.1</ele>
        <time>2025-05-07T07:57:31.000Z</time>
      </trkpt>
      <trkpt lat="43.48817" lon="5.31558">
        <ele>127.8</ele>
        <time>2025-05-07T07:57:34.000Z</time>
      </trkpt>
      <trkpt lat="43.48815" lon="5.31555">
        <ele>127.4</ele>
        <time>2025-05-07T07:57:37.000Z</time>
      </trkpt>
      <trkpt lat="43.48813" lon="5.31554">
        <ele>127.2</ele>
        <time>2025-05-07T07:57:39.000Z</time>
      </trkpt>
      <trkpt lat="43.48811" lon="5.31552">
        <ele>126.9</ele>
        <time>2025-05-07T07:57:42.000Z</time>
      </trkpt>
      <trkpt lat="43.48809" lon="5.31552">
        <ele>126.6</ele>
        <time>2025-05-07T07:57:44.000Z</time>
      </trkpt>
      <trkpt lat="43.48806" lon="5.31552">
        <ele>126.2</ele>
        <time>2025-05-07T07:57:49.000Z</time>
      </trkpt>
      <trkpt lat="43.48803" lon="5.3155">
        <ele>126.2</ele>
        <time>2025-05-07T07:57:51.000Z</time>
      </trkpt>
      <trkpt lat="43.48801" lon="5.31549">
        <ele>126.3</ele>
        <time>2025-05-07T07:57:53.000Z</time>
      </trkpt>
      <trkpt lat="43.48798" lon="5.31548">
        <ele>126.3</ele>
        <time>2025-05-07T07:57:55.000Z</time>
      </trkpt>
      <trkpt lat="43.48796" lon="5.31547">
        <ele>126.4</ele>
        <time>2025-05-07T07:57:57.000Z</time>
      </trkpt>
      <trkpt lat="43.48794" lon="5.31546">
        <ele>126.5</ele>
        <time>2025-05-07T07:58:00.000Z</time>
      </trkpt>
      <trkpt lat="43.48792" lon="5.31546">
        <ele>126.5</ele>
        <time>2025-05-07T07:58:02.000Z</time>
      </trkpt>
      <trkpt lat="43.4879" lon="5.31544">
        <ele>126.7</ele>
        <time>2025-05-07T07:58:05.000Z</time>
      </trkpt>
      <trkpt lat="43.48788" lon="5.31543">
        <ele>126.8</ele>
        <time>2025-05-07T07:58:07.000Z</time>
      </trkpt>
      <trkpt lat="43.48786" lon="5.31541">
        <ele>126.9</ele>
        <time>2025-05-07T07:58:09.000Z</time>
      </trkpt>
      <trkpt lat="43.48784" lon="5.3154">
        <ele>127</ele>
        <time>2025-05-07T07:58:13.000Z</time>
      </trkpt>
      <trkpt lat="43.48781" lon="5.31539">
        <ele>127.1</ele>
        <time>2025-05-07T07:58:15.000Z</time>
      </trkpt>
      <trkpt lat="43.48779" lon="5.31538">
        <ele>127.2</ele>
        <time>2025-05-07T07:58:17.000Z</time>
      </trkpt>
      <trkpt lat="43.48777" lon="5.31537">
        <ele>127.5</ele>
        <time>2025-05-07T07:58:19.000Z</time>
      </trkpt>
      <trkpt lat="43.48774" lon="5.31537">
        <ele>127.8</ele>
        <time>2025-05-07T07:58:21.000Z</time>
      </trkpt>
      <trkpt lat="43.48772" lon="5.31537">
        <ele>128.1</ele>
        <time>2025-05-07T07:58:23.000Z</time>
      </trkpt>
      <trkpt lat="43.48769" lon="5.31537">
        <ele>128.4</ele>
        <time>2025-05-07T07:58:25.000Z</time>
      </trkpt>
      <trkpt lat="43.48767" lon="5.31538">
        <ele>128.7</ele>
        <time>2025-05-07T07:58:27.000Z</time>
      </trkpt>
      <trkpt lat="43.48765" lon="5.31538">
        <ele>128.9</ele>
        <time>2025-05-07T07:58:29.000Z</time>
      </trkpt>
      <trkpt lat="43.48763" lon="5.31539">
        <ele>129.1</ele>
        <time>2025-05-07T07:58:31.000Z</time>
      </trkpt>
      <trkpt lat="43.48761" lon="5.31539">
        <ele>129.4</ele>
        <time>2025-05-07T07:58:33.000Z</time>
      </trkpt>
      <trkpt lat="43.48759" lon="5.31541">
        <ele>129.5</ele>
        <time>2025-05-07T07:58:35.000Z</time>
      </trkpt>
      <trkpt lat="43.48757" lon="5.31541">
        <ele>129.6</ele>
        <time>2025-05-07T07:58:38.000Z</time>
      </trkpt>
      <trkpt lat="43.48755" lon="5.31541">
        <ele>129.9</ele>
        <time>2025-05-07T07:58:40.000Z</time>
      </trkpt>
      <trkpt lat="43.48753" lon="5.3154">
        <ele>130.3</ele>
        <time>2025-05-07T07:58:43.000Z</time>
      </trkpt>
      <trkpt lat="43.48751" lon="5.31539">
        <ele>130.6</ele>
        <time>2025-05-07T07:58:45.000Z</time>
      </trkpt>
      <trkpt lat="43.48749" lon="5.31538">
        <ele>131</ele>
        <time>2025-05-07T07:58:48.000Z</time>
      </trkpt>
      <trkpt lat="43.48746" lon="5.31538">
        <ele>131.7</ele>
        <time>2025-05-07T07:58:51.000Z</time>
      </trkpt>
      <trkpt lat="43.48744" lon="5.31538">
        <ele>132.1</ele>
        <time>2025-05-07T07:58:53.000Z</time>
      </trkpt>
      <trkpt lat="43.48742" lon="5.31539">
        <ele>132.5</ele>
        <time>2025-05-07T07:58:55.000Z</time>
      </trkpt>
      <trkpt lat="43.4874" lon="5.31538">
        <ele>133</ele>
        <time>2025-05-07T07:58:58.000Z</time>
      </trkpt>
      <trkpt lat="43.48738" lon="5.31538">
        <ele>133.4</ele>
        <time>2025-05-07T07:59:01.000Z</time>
      </trkpt>
      <trkpt lat="43.48736" lon="5.31538">
        <ele>133.9</ele>
        <time>2025-05-07T07:59:04.000Z</time>
      </trkpt>
      <trkpt lat="43.48734" lon="5.31537">
        <ele>134.4</ele>
        <time>2025-05-07T07:59:07.000Z</time>
      </trkpt>
      <trkpt lat="43.48733" lon="5.31536">
        <ele>134.9</ele>
        <time>2025-05-07T07:59:11.000Z</time>
      </trkpt>
      <trkpt lat="43.4873" lon="5.31535">
        <ele>135.6</ele>
        <time>2025-05-07T07:59:15.000Z</time>
      </trkpt>
      <trkpt lat="43.48728" lon="5.31535">
        <ele>136.1</ele>
        <time>2025-05-07T07:59:18.000Z</time>
      </trkpt>
      <trkpt lat="43.48726" lon="5.31534">
        <ele>136.6</ele>
        <time>2025-05-07T07:59:23.000Z</time>
      </trkpt>
      <trkpt lat="43.48724" lon="5.31532">
        <ele>137.1</ele>
        <time>2025-05-07T07:59:28.000Z</time>
      </trkpt>
      <trkpt lat="43.48722" lon="5.31531">
        <ele>137.6</ele>
        <time>2025-05-07T07:59:31.000Z</time>
      </trkpt>
      <trkpt lat="43.48721" lon="5.31529">
        <ele>138.1</ele>
        <time>2025-05-07T07:59:36.000Z</time>
      </trkpt>
      <trkpt lat="43.48719" lon="5.31528">
        <ele>138.5</ele>
        <time>2025-05-07T07:59:40.000Z</time>
      </trkpt>
      <trkpt lat="43.48717" lon="5.31528">
        <ele>138.8</ele>
        <time>2025-05-07T07:59:42.000Z</time>
      </trkpt>
      <trkpt lat="43.48715" lon="5.31528">
        <ele>139.1</ele>
        <time>2025-05-07T07:59:46.000Z</time>
      </trkpt>
      <trkpt lat="43.48712" lon="5.31527">
        <ele>139.5</ele>
        <time>2025-05-07T07:59:49.000Z</time>
      </trkpt>
      <trkpt lat="43.4871" lon="5.31526">
        <ele>140.1</ele>
        <time>2025-05-07T07:59:53.000Z</time>
      </trkpt>
      <trkpt lat="43.48709" lon="5.31524">
        <ele>140.6</ele>
        <time>2025-05-07T07:59:55.000Z</time>
      </trkpt>
      <trkpt lat="43.48708" lon="5.31521">
        <ele>141.2</ele>
        <time>2025-05-07T08:00:01.000Z</time>
      </trkpt>
      <trkpt lat="43.48707" lon="5.31519">
        <ele>141.6</ele>
        <time>2025-05-07T08:00:04.000Z</time>
      </trkpt>
      <trkpt lat="43.48706" lon="5.31516">
        <ele>142.3</ele>
        <time>2025-05-07T08:00:08.000Z</time>
      </trkpt>
      <trkpt lat="43.48705" lon="5.31514">
        <ele>142.8</ele>
        <time>2025-05-07T08:00:11.000Z</time>
      </trkpt>
      <trkpt lat="43.48704" lon="5.3151">
        <ele>143.4</ele>
        <time>2025-05-07T08:00:14.000Z</time>
      </trkpt>
      <trkpt lat="43.48705" lon="5.31508">
        <ele>143.8</ele>
        <time>2025-05-07T08:00:19.000Z</time>
      </trkpt>
      <trkpt lat="43.48705" lon="5.31504">
        <ele>144.4</ele>
        <time>2025-05-07T08:00:26.000Z</time>
      </trkpt>
      <trkpt lat="43.48705" lon="5.31501">
        <ele>144.9</ele>
        <time>2025-05-07T08:00:32.000Z</time>
      </trkpt>
      <trkpt lat="43.48706" lon="5.31499">
        <ele>145.3</ele>
        <time>2025-05-07T08:00:38.000Z</time>
      </trkpt>
      <trkpt lat="43.48707" lon="5.31496">
        <ele>145.7</ele>
        <time>2025-05-07T08:00:41.000Z</time>
      </trkpt>
      <trkpt lat="43.48709" lon="5.31494">
        <ele>146.1</ele>
        <time>2025-05-07T08:00:46.000Z</time>
      </trkpt>
      <trkpt lat="43.4871" lon="5.31491">
        <ele>146.6</ele>
        <time>2025-05-07T08:00:50.000Z</time>
      </trkpt>
      <trkpt lat="43.48712" lon="5.31488">
        <ele>147.1</ele>
        <time>2025-05-07T08:00:55.000Z</time>
      </trkpt>
      <trkpt lat="43.48714" lon="5.31486">
        <ele>147.4</ele>
        <time>2025-05-07T08:00:57.000Z</time>
      </trkpt>
      <trkpt lat="43.48716" lon="5.31485">
        <ele>147.6</ele>
        <time>2025-05-07T08:01:00.000Z</time>
      </trkpt>
      <trkpt lat="43.48718" lon="5.31484">
        <ele>148</ele>
        <time>2025-05-07T08:01:03.000Z</time>
      </trkpt>
      <trkpt lat="43.4872" lon="5.31482">
        <ele>148.2</ele>
        <time>2025-05-07T08:01:05.000Z</time>
      </trkpt>
      <trkpt lat="43.48722" lon="5.31481">
        <ele>148.4</ele>
        <time>2025-05-07T08:01:08.000Z</time>
      </trkpt>
      <trkpt lat="43.48724" lon="5.3148">
        <ele>148.4</ele>
        <time>2025-05-07T08:01:10.000Z</time>
      </trkpt>
      <trkpt lat="43.48726" lon="5.31479">
        <ele>148.2</ele>
        <time>2025-05-07T08:01:12.000Z</time>
      </trkpt>
      <trkpt lat="43.48728" lon="5.31477">
        <ele>148.5</ele>
        <time>2025-05-07T08:01:15.000Z</time>
      </trkpt>
      <trkpt lat="43.4873" lon="5.31475">
        <ele>148.6</ele>
        <time>2025-05-07T08:01:18.000Z</time>
      </trkpt>
      <trkpt lat="43.48731" lon="5.31473">
        <ele>148.8</ele>
        <time>2025-05-07T08:01:21.000Z</time>
      </trkpt>
      <trkpt lat="43.48734" lon="5.31471">
        <ele>149</ele>
        <time>2025-05-07T08:01:24.000Z</time>
      </trkpt>
      <trkpt lat="43.48736" lon="5.3147">
        <ele>149</ele>
        <time>2025-05-07T08:01:27.000Z</time>
      </trkpt>
      <trkpt lat="43.48737" lon="5.31468">
        <ele>149.2</ele>
        <time>2025-05-07T08:01:29.000Z</time>
      </trkpt>
      <trkpt lat="43.48739" lon="5.31466">
        <ele>149.3</ele>
        <time>2025-05-07T08:01:31.000Z</time>
      </trkpt>
      <trkpt lat="43.48741" lon="5.31465">
        <ele>149.4</ele>
        <time>2025-05-07T08:01:34.000Z</time>
      </trkpt>
      <trkpt lat="43.48743" lon="5.31463">
        <ele>149.4</ele>
        <time>2025-05-07T08:01:37.000Z</time>
      </trkpt>
      <trkpt lat="43.48744" lon="5.3146">
        <ele>149.8</ele>
        <time>2025-05-07T08:01:40.000Z</time>
      </trkpt>
      <trkpt lat="43.48746" lon="5.31458">
        <ele>150</ele>
        <time>2025-05-07T08:01:42.000Z</time>
      </trkpt>
      <trkpt lat="43.48747" lon="5.31456">
        <ele>150.3</ele>
        <time>2025-05-07T08:01:44.000Z</time>
      </trkpt>
      <trkpt lat="43.48748" lon="5.31454">
        <ele>150.5</ele>
        <time>2025-05-07T08:01:46.000Z</time>
      </trkpt>
      <trkpt lat="43.48749" lon="5.31451">
        <ele>151</ele>
        <time>2025-05-07T08:01:49.000Z</time>
      </trkpt>
      <trkpt lat="43.4875" lon="5.31447">
        <ele>151.7</ele>
        <time>2025-05-07T08:01:53.000Z</time>
      </trkpt>
      <trkpt lat="43.48749" lon="5.31443">
        <ele>152</ele>
        <time>2025-05-07T08:01:56.000Z</time>
      </trkpt>
      <trkpt lat="43.4875" lon="5.3144">
        <ele>151.9</ele>
        <time>2025-05-07T08:01:59.000Z</time>
      </trkpt>
      <trkpt lat="43.48749" lon="5.31435">
        <ele>151.8</ele>
        <time>2025-05-07T08:02:03.000Z</time>
      </trkpt>
      <trkpt lat="43.48748" lon="5.31432">
        <ele>151.9</ele>
        <time>2025-05-07T08:02:06.000Z</time>
      </trkpt>
      <trkpt lat="43.48746" lon="5.3143">
        <ele>152</ele>
        <time>2025-05-07T08:02:09.000Z</time>
      </trkpt>
      <trkpt lat="43.48744" lon="5.31428">
        <ele>152.1</ele>
        <time>2025-05-07T08:02:11.000Z</time>
      </trkpt>
      <trkpt lat="43.48742" lon="5.31426">
        <ele>152.3</ele>
        <time>2025-05-07T08:02:13.000Z</time>
      </trkpt>
      <trkpt lat="43.48741" lon="5.31424">
        <ele>152.5</ele>
        <time>2025-05-07T08:02:16.000Z</time>
      </trkpt>
      <trkpt lat="43.48739" lon="5.31423">
        <ele>152.8</ele>
        <time>2025-05-07T08:02:18.000Z</time>
      </trkpt>
      <trkpt lat="43.48737" lon="5.31421">
        <ele>153</ele>
        <time>2025-05-07T08:02:20.000Z</time>
      </trkpt>
      <trkpt lat="43.48735" lon="5.31419">
        <ele>153.2</ele>
        <time>2025-05-07T08:02:23.000Z</time>
      </trkpt>
      <trkpt lat="43.48733" lon="5.31418">
        <ele>153.5</ele>
        <time>2025-05-07T08:02:25.000Z</time>
      </trkpt>
      <trkpt lat="43.48731" lon="5.31416">
        <ele>153.6</ele>
        <time>2025-05-07T08:02:27.000Z</time>
      </trkpt>
      <trkpt lat="43.48729" lon="5.31414">
        <ele>153.7</ele>
        <time>2025-05-07T08:02:29.000Z</time>
      </trkpt>
      <trkpt lat="43.48728" lon="5.31413">
        <ele>153.8</ele>
        <time>2025-05-07T08:02:31.000Z</time>
      </trkpt>
      <trkpt lat="43.48726" lon="5.3141">
        <ele>153.9</ele>
        <time>2025-05-07T08:02:33.000Z</time>
      </trkpt>
      <trkpt lat="43.48725" lon="5.31409">
        <ele>154.1</ele>
        <time>2025-05-07T08:02:35.000Z</time>
      </trkpt>
      <trkpt lat="43.48723" lon="5.31407">
        <ele>154.2</ele>
        <time>2025-05-07T08:02:37.000Z</time>
      </trkpt>
      <trkpt lat="43.4872" lon="5.31403">
        <ele>154.2</ele>
        <time>2025-05-07T08:02:41.000Z</time>
      </trkpt>
      <trkpt lat="43.48719" lon="5.31401">
        <ele>154.2</ele>
        <time>2025-05-07T08:02:43.000Z</time>
      </trkpt>
      <trkpt lat="43.48717" lon="5.31399">
        <ele>154.2</ele>
        <time>2025-05-07T08:02:45.000Z</time>
      </trkpt>
      <trkpt lat="43.48716" lon="5.31397">
        <ele>154.3</ele>
        <time>2025-05-07T08:02:48.000Z</time>
      </trkpt>
      <trkpt lat="43.48714" lon="5.31394">
        <ele>154.4</ele>
        <time>2025-05-07T08:02:51.000Z</time>
      </trkpt>
      <trkpt lat="43.48713" lon="5.3139">
        <ele>154.4</ele>
        <time>2025-05-07T08:02:54.000Z</time>
      </trkpt>
      <trkpt lat="43.48711" lon="5.31387">
        <ele>154.7</ele>
        <time>2025-05-07T08:02:57.000Z</time>
      </trkpt>
      <trkpt lat="43.4871" lon="5.31384">
        <ele>155</ele>
        <time>2025-05-07T08:03:00.000Z</time>
      </trkpt>
      <trkpt lat="43.48709" lon="5.31381">
        <ele>155.2</ele>
        <time>2025-05-07T08:03:02.000Z</time>
      </trkpt>
      <trkpt lat="43.48709" lon="5.31378">
        <ele>155.3</ele>
        <time>2025-05-07T08:03:04.000Z</time>
      </trkpt>
      <trkpt lat="43.48709" lon="5.31375">
        <ele>155.4</ele>
        <time>2025-05-07T08:03:06.000Z</time>
      </trkpt>
      <trkpt lat="43.48709" lon="5.31372">
        <ele>155.5</ele>
        <time>2025-05-07T08:03:08.000Z</time>
      </trkpt>
      <trkpt lat="43.4871" lon="5.3137">
        <ele>155.6</ele>
        <time>2025-05-07T08:03:10.000Z</time>
      </trkpt>
      <trkpt lat="43.4871" lon="5.31365">
        <ele>155.8</ele>
        <time>2025-05-07T08:03:13.000Z</time>
      </trkpt>
      <trkpt lat="43.4871" lon="5.31363">
        <ele>155.9</ele>
        <time>2025-05-07T08:03:15.000Z</time>
      </trkpt>
      <trkpt lat="43.48712" lon="5.3136">
        <ele>156</ele>
        <time>2025-05-07T08:03:18.000Z</time>
      </trkpt>
      <trkpt lat="43.48713" lon="5.31357">
        <ele>156.1</ele>
        <time>2025-05-07T08:03:20.000Z</time>
      </trkpt>
      <trkpt lat="43.48713" lon="5.31354">
        <ele>156.2</ele>
        <time>2025-05-07T08:03:22.000Z</time>
      </trkpt>
      <trkpt lat="43.48714" lon="5.31351">
        <ele>156.4</ele>
        <time>2025-05-07T08:03:24.000Z</time>
      </trkpt>
      <trkpt lat="43.48715" lon="5.31349">
        <ele>156.6</ele>
        <time>2025-05-07T08:03:26.000Z</time>
      </trkpt>
      <trkpt lat="43.48716" lon="5.31346">
        <ele>156.7</ele>
        <time>2025-05-07T08:03:28.000Z</time>
      </trkpt>
      <trkpt lat="43.48717" lon="5.31344">
        <ele>156.9</ele>
        <time>2025-05-07T08:03:30.000Z</time>
      </trkpt>
      <trkpt lat="43.48717" lon="5.31341">
        <ele>157</ele>
        <time>2025-05-07T08:03:32.000Z</time>
      </trkpt>
      <trkpt lat="43.48719" lon="5.31339">
        <ele>157.3</ele>
        <time>2025-05-07T08:03:34.000Z</time>
      </trkpt>
      <trkpt lat="43.4872" lon="5.31337">
        <ele>157.5</ele>
        <time>2025-05-07T08:03:36.000Z</time>
      </trkpt>
      <trkpt lat="43.48721" lon="5.31334">
        <ele>157.8</ele>
        <time>2025-05-07T08:03:38.000Z</time>
      </trkpt>
      <trkpt lat="43.48722" lon="5.31332">
        <ele>158.1</ele>
        <time>2025-05-07T08:03:40.000Z</time>
      </trkpt>
      <trkpt lat="43.48724" lon="5.31329">
        <ele>158.1</ele>
        <time>2025-05-07T08:03:42.000Z</time>
      </trkpt>
      <trkpt lat="43.48725" lon="5.31327">
        <ele>158.1</ele>
        <time>2025-05-07T08:03:44.000Z</time>
      </trkpt>
      <trkpt lat="43.48726" lon="5.31325">
        <ele>158.1</ele>
        <time>2025-05-07T08:03:46.000Z</time>
      </trkpt>
      <trkpt lat="43.48727" lon="5.31322">
        <ele>158.2</ele>
        <time>2025-05-07T08:03:48.000Z</time>
      </trkpt>
      <trkpt lat="43.48728" lon="5.3132">
        <ele>158.2</ele>
        <time>2025-05-07T08:03:50.000Z</time>
      </trkpt>
      <trkpt lat="43.48729" lon="5.31317">
        <ele>158.3</ele>
        <time>2025-05-07T08:03:52.000Z</time>
      </trkpt>
      <trkpt lat="43.4873" lon="5.31315">
        <ele>158.2</ele>
        <time>2025-05-07T08:03:54.000Z</time>
      </trkpt>
      <trkpt lat="43.48731" lon="5.31312">
        <ele>158.2</ele>
        <time>2025-05-07T08:03:56.000Z</time>
      </trkpt>
      <trkpt lat="43.48734" lon="5.31311">
        <ele>158</ele>
        <time>2025-05-07T08:03:58.000Z</time>
      </trkpt>
      <trkpt lat="43.48735" lon="5.31308">
        <ele>158</ele>
        <time>2025-05-07T08:04:01.000Z</time>
      </trkpt>
      <trkpt lat="43.48736" lon="5.31305">
        <ele>158.1</ele>
        <time>2025-05-07T08:04:03.000Z</time>
      </trkpt>
      <trkpt lat="43.48737" lon="5.31302">
        <ele>158.2</ele>
        <time>2025-05-07T08:04:06.000Z</time>
      </trkpt>
      <trkpt lat="43.48738" lon="5.313">
        <ele>158.4</ele>
        <time>2025-05-07T08:04:08.000Z</time>
      </trkpt>
      <trkpt lat="43.4874" lon="5.31297">
        <ele>158.6</ele>
        <time>2025-05-07T08:04:11.000Z</time>
      </trkpt>
      <trkpt lat="43.48741" lon="5.31295">
        <ele>158.8</ele>
        <time>2025-05-07T08:04:13.000Z</time>
      </trkpt>
      <trkpt lat="43.48742" lon="5.31292">
        <ele>159</ele>
        <time>2025-05-07T08:04:15.000Z</time>
      </trkpt>
      <trkpt lat="43.48744" lon="5.31289">
        <ele>159.1</ele>
        <time>2025-05-07T08:04:17.000Z</time>
      </trkpt>
      <trkpt lat="43.48745" lon="5.31286">
        <ele>159.4</ele>
        <time>2025-05-07T08:04:19.000Z</time>
      </trkpt>
      <trkpt lat="43.48746" lon="5.31284">
        <ele>159.6</ele>
        <time>2025-05-07T08:04:21.000Z</time>
      </trkpt>
      <trkpt lat="43.48746" lon="5.31281">
        <ele>159.9</ele>
        <time>2025-05-07T08:04:23.000Z</time>
      </trkpt>
      <trkpt lat="43.48747" lon="5.31278">
        <ele>160.2</ele>
        <time>2025-05-07T08:04:25.000Z</time>
      </trkpt>
      <trkpt lat="43.48748" lon="5.31276">
        <ele>160.4</ele>
        <time>2025-05-07T08:04:27.000Z</time>
      </trkpt>
      <trkpt lat="43.48749" lon="5.31273">
        <ele>160.6</ele>
        <time>2025-05-07T08:04:30.000Z</time>
      </trkpt>
      <trkpt lat="43.48751" lon="5.31269">
        <ele>160.8</ele>
        <time>2025-05-07T08:04:33.000Z</time>
      </trkpt>
      <trkpt lat="43.48752" lon="5.31267">
        <ele>160.8</ele>
        <time>2025-05-07T08:04:35.000Z</time>
      </trkpt>
      <trkpt lat="43.48752" lon="5.31264">
        <ele>161</ele>
        <time>2025-05-07T08:04:37.000Z</time>
      </trkpt>
      <trkpt lat="43.48754" lon="5.31261">
        <ele>161</ele>
        <time>2025-05-07T08:04:39.000Z</time>
      </trkpt>
      <trkpt lat="43.48755" lon="5.31258">
        <ele>161.1</ele>
        <time>2025-05-07T08:04:41.000Z</time>
      </trkpt>
      <trkpt lat="43.48756" lon="5.31254">
        <ele>161.3</ele>
        <time>2025-05-07T08:04:45.000Z</time>
      </trkpt>
      <trkpt lat="43.48757" lon="5.31252">
        <ele>161.2</ele>
        <time>2025-05-07T08:04:47.000Z</time>
      </trkpt>
      <trkpt lat="43.48759" lon="5.31249">
        <ele>161.2</ele>
        <time>2025-05-07T08:04:49.000Z</time>
      </trkpt>
      <trkpt lat="43.4876" lon="5.31246">
        <ele>161.2</ele>
        <time>2025-05-07T08:04:51.000Z</time>
      </trkpt>
      <trkpt lat="43.4876" lon="5.31244">
        <ele>161.2</ele>
        <time>2025-05-07T08:04:53.000Z</time>
      </trkpt>
      <trkpt lat="43.48761" lon="5.31241">
        <ele>161.2</ele>
        <time>2025-05-07T08:04:55.000Z</time>
      </trkpt>
      <trkpt lat="43.48762" lon="5.31239">
        <ele>161.3</ele>
        <time>2025-05-07T08:04:57.000Z</time>
      </trkpt>
      <trkpt lat="43.48763" lon="5.31236">
        <ele>161.4</ele>
        <time>2025-05-07T08:04:59.000Z</time>
      </trkpt>
      <trkpt lat="43.48764" lon="5.31232">
        <ele>161.6</ele>
        <time>2025-05-07T08:05:01.000Z</time>
      </trkpt>
      <trkpt lat="43.48765" lon="5.31229">
        <ele>161.8</ele>
        <time>2025-05-07T08:05:03.000Z</time>
      </trkpt>
      <trkpt lat="43.48766" lon="5.31226">
        <ele>162</ele>
        <time>2025-05-07T08:05:05.000Z</time>
      </trkpt>
      <trkpt lat="43.48768" lon="5.31223">
        <ele>162.3</ele>
        <time>2025-05-07T08:05:07.000Z</time>
      </trkpt>
      <trkpt lat="43.48769" lon="5.3122">
        <ele>162.3</ele>
        <time>2025-05-07T08:05:09.000Z</time>
      </trkpt>
      <trkpt lat="43.48771" lon="5.31217">
        <ele>162.3</ele>
        <time>2025-05-07T08:05:12.000Z</time>
      </trkpt>
      <trkpt lat="43.48773" lon="5.31215">
        <ele>162.4</ele>
        <time>2025-05-07T08:05:14.000Z</time>
      </trkpt>
      <trkpt lat="43.48774" lon="5.31213">
        <ele>162.5</ele>
        <time>2025-05-07T08:05:16.000Z</time>
      </trkpt>
      <trkpt lat="43.48776" lon="5.3121">
        <ele>162.7</ele>
        <time>2025-05-07T08:05:18.000Z</time>
      </trkpt>
      <trkpt lat="43.48777" lon="5.31207">
        <ele>163</ele>
        <time>2025-05-07T08:05:20.000Z</time>
      </trkpt>
      <trkpt lat="43.48779" lon="5.31205">
        <ele>163.1</ele>
        <time>2025-05-07T08:05:23.000Z</time>
      </trkpt>
      <trkpt lat="43.4878" lon="5.31202">
        <ele>163.2</ele>
        <time>2025-05-07T08:05:25.000Z</time>
      </trkpt>
      <trkpt lat="43.48781" lon="5.312">
        <ele>163.1</ele>
        <time>2025-05-07T08:05:27.000Z</time>
      </trkpt>
      <trkpt lat="43.48782" lon="5.31197">
        <ele>163.1</ele>
        <time>2025-05-07T08:05:29.000Z</time>
      </trkpt>
      <trkpt lat="43.48784" lon="5.31196">
        <ele>163</ele>
        <time>2025-05-07T08:05:31.000Z</time>
      </trkpt>
      <trkpt lat="43.48786" lon="5.31193">
        <ele>162.7</ele>
        <time>2025-05-07T08:05:33.000Z</time>
      </trkpt>
      <trkpt lat="43.48787" lon="5.3119">
        <ele>162.3</ele>
        <time>2025-05-07T08:05:35.000Z</time>
      </trkpt>
      <trkpt lat="43.48789" lon="5.31188">
        <ele>161.8</ele>
        <time>2025-05-07T08:05:38.000Z</time>
      </trkpt>
      <trkpt lat="43.4879" lon="5.31185">
        <ele>161.4</ele>
        <time>2025-05-07T08:05:40.000Z</time>
      </trkpt>
      <trkpt lat="43.48792" lon="5.31182">
        <ele>161.1</ele>
        <time>2025-05-07T08:05:42.000Z</time>
      </trkpt>
      <trkpt lat="43.48793" lon="5.31179">
        <ele>160.8</ele>
        <time>2025-05-07T08:05:44.000Z</time>
      </trkpt>
      <trkpt lat="43.48794" lon="5.31177">
        <ele>160.6</ele>
        <time>2025-05-07T08:05:46.000Z</time>
      </trkpt>
      <trkpt lat="43.48796" lon="5.31174">
        <ele>160.4</ele>
        <time>2025-05-07T08:05:48.000Z</time>
      </trkpt>
      <trkpt lat="43.48797" lon="5.31171">
        <ele>160.2</ele>
        <time>2025-05-07T08:05:50.000Z</time>
      </trkpt>
      <trkpt lat="43.48799" lon="5.31169">
        <ele>160.1</ele>
        <time>2025-05-07T08:05:52.000Z</time>
      </trkpt>
      <trkpt lat="43.488" lon="5.31167">
        <ele>160</ele>
        <time>2025-05-07T08:05:54.000Z</time>
      </trkpt>
      <trkpt lat="43.48801" lon="5.31165">
        <ele>160.2</ele>
        <time>2025-05-07T08:05:56.000Z</time>
      </trkpt>
      <trkpt lat="43.48804" lon="5.31162">
        <ele>160.6</ele>
        <time>2025-05-07T08:05:59.000Z</time>
      </trkpt>
      <trkpt lat="43.48805" lon="5.31159">
        <ele>161</ele>
        <time>2025-05-07T08:06:01.000Z</time>
      </trkpt>
      <trkpt lat="43.48806" lon="5.31157">
        <ele>161.4</ele>
        <time>2025-05-07T08:06:03.000Z</time>
      </trkpt>
      <trkpt lat="43.48808" lon="5.31154">
        <ele>161.8</ele>
        <time>2025-05-07T08:06:06.000Z</time>
      </trkpt>
      <trkpt lat="43.4881" lon="5.31151">
        <ele>162.1</ele>
        <time>2025-05-07T08:06:08.000Z</time>
      </trkpt>
      <trkpt lat="43.48812" lon="5.31148">
        <ele>162.4</ele>
        <time>2025-05-07T08:06:10.000Z</time>
      </trkpt>
      <trkpt lat="43.48813" lon="5.31146">
        <ele>162.7</ele>
        <time>2025-05-07T08:06:12.000Z</time>
      </trkpt>
      <trkpt lat="43.48814" lon="5.31144">
        <ele>162.9</ele>
        <time>2025-05-07T08:06:14.000Z</time>
      </trkpt>
      <trkpt lat="43.48816" lon="5.31142">
        <ele>163.2</ele>
        <time>2025-05-07T08:06:16.000Z</time>
      </trkpt>
      <trkpt lat="43.48818" lon="5.3114">
        <ele>163.5</ele>
        <time>2025-05-07T08:06:18.000Z</time>
      </trkpt>
      <trkpt lat="43.48819" lon="5.31138">
        <ele>163.4</ele>
        <time>2025-05-07T08:06:20.000Z</time>
      </trkpt>
      <trkpt lat="43.48821" lon="5.31136">
        <ele>163</ele>
        <time>2025-05-07T08:06:23.000Z</time>
      </trkpt>
      <trkpt lat="43.48822" lon="5.31134">
        <ele>162.8</ele>
        <time>2025-05-07T08:06:25.000Z</time>
      </trkpt>
      <trkpt lat="43.48825" lon="5.31132">
        <ele>162.8</ele>
        <time>2025-05-07T08:06:28.000Z</time>
      </trkpt>
      <trkpt lat="43.48826" lon="5.31129">
        <ele>162.7</ele>
        <time>2025-05-07T08:06:30.000Z</time>
      </trkpt>
      <trkpt lat="43.48828" lon="5.31128">
        <ele>162.8</ele>
        <time>2025-05-07T08:06:32.000Z</time>
      </trkpt>
      <trkpt lat="43.4883" lon="5.31126">
        <ele>163</ele>
        <time>2025-05-07T08:06:34.000Z</time>
      </trkpt>
      <trkpt lat="43.48832" lon="5.31123">
        <ele>163.3</ele>
        <time>2025-05-07T08:06:36.000Z</time>
      </trkpt>
      <trkpt lat="43.48834" lon="5.3112">
        <ele>163.6</ele>
        <time>2025-05-07T08:06:39.000Z</time>
      </trkpt>
      <trkpt lat="43.48835" lon="5.31117">
        <ele>163.5</ele>
        <time>2025-05-07T08:06:41.000Z</time>
      </trkpt>
      <trkpt lat="43.48836" lon="5.31115">
        <ele>163.5</ele>
        <time>2025-05-07T08:06:43.000Z</time>
      </trkpt>
      <trkpt lat="43.48838" lon="5.31113">
        <ele>163.4</ele>
        <time>2025-05-07T08:06:45.000Z</time>
      </trkpt>
      <trkpt lat="43.48839" lon="5.31111">
        <ele>163.3</ele>
        <time>2025-05-07T08:06:47.000Z</time>
      </trkpt>
      <trkpt lat="43.48841" lon="5.31108">
        <ele>163</ele>
        <time>2025-05-07T08:06:49.000Z</time>
      </trkpt>
      <trkpt lat="43.48842" lon="5.31106">
        <ele>162.8</ele>
        <time>2025-05-07T08:06:51.000Z</time>
      </trkpt>
      <trkpt lat="43.48843" lon="5.31104">
        <ele>162.6</ele>
        <time>2025-05-07T08:06:53.000Z</time>
      </trkpt>
      <trkpt lat="43.48845" lon="5.31102">
        <ele>162.5</ele>
        <time>2025-05-07T08:06:55.000Z</time>
      </trkpt>
      <trkpt lat="43.48847" lon="5.311">
        <ele>162.5</ele>
        <time>2025-05-07T08:06:57.000Z</time>
      </trkpt>
      <trkpt lat="43.48848" lon="5.31099">
        <ele>162.5</ele>
        <time>2025-05-07T08:06:59.000Z</time>
      </trkpt>
      <trkpt lat="43.4885" lon="5.31097">
        <ele>162.6</ele>
        <time>2025-05-07T08:07:01.000Z</time>
      </trkpt>
      <trkpt lat="43.48852" lon="5.31095">
        <ele>162.8</ele>
        <time>2025-05-07T08:07:03.000Z</time>
      </trkpt>
      <trkpt lat="43.48854" lon="5.31093">
        <ele>163</ele>
        <time>2025-05-07T08:07:05.000Z</time>
      </trkpt>
      <trkpt lat="43.48856" lon="5.31091">
        <ele>163.3</ele>
        <time>2025-05-07T08:07:07.000Z</time>
      </trkpt>
      <trkpt lat="43.48857" lon="5.3109">
        <ele>163.6</ele>
        <time>2025-05-07T08:07:09.000Z</time>
      </trkpt>
      <trkpt lat="43.48859" lon="5.31088">
        <ele>164</ele>
        <time>2025-05-07T08:07:11.000Z</time>
      </trkpt>
      <trkpt lat="43.48861" lon="5.31086">
        <ele>164.6</ele>
        <time>2025-05-07T08:07:13.000Z</time>
      </trkpt>
      <trkpt lat="43.48863" lon="5.31083">
        <ele>164.8</ele>
        <time>2025-05-07T08:07:15.000Z</time>
      </trkpt>
      <trkpt lat="43.48865" lon="5.31081">
        <ele>164.5</ele>
        <time>2025-05-07T08:07:17.000Z</time>
      </trkpt>
      <trkpt lat="43.48867" lon="5.3108">
        <ele>164.2</ele>
        <time>2025-05-07T08:07:19.000Z</time>
      </trkpt>
      <trkpt lat="43.48868" lon="5.31079">
        <ele>164</ele>
        <time>2025-05-07T08:07:21.000Z</time>
      </trkpt>
      <trkpt lat="43.4887" lon="5.31078">
        <ele>163.9</ele>
        <time>2025-05-07T08:07:23.000Z</time>
      </trkpt>
      <trkpt lat="43.48872" lon="5.31076">
        <ele>163.8</ele>
        <time>2025-05-07T08:07:25.000Z</time>
      </trkpt>
      <trkpt lat="43.48873" lon="5.31074">
        <ele>163.7</ele>
        <time>2025-05-07T08:07:27.000Z</time>
      </trkpt>
      <trkpt lat="43.48876" lon="5.31071">
        <ele>163.7</ele>
        <time>2025-05-07T08:07:29.000Z</time>
      </trkpt>
      <trkpt lat="43.48878" lon="5.31069">
        <ele>163.8</ele>
        <time>2025-05-07T08:07:32.000Z</time>
      </trkpt>
      <trkpt lat="43.4888" lon="5.31068">
        <ele>163.9</ele>
        <time>2025-05-07T08:07:34.000Z</time>
      </trkpt>
      <trkpt lat="43.48882" lon="5.31066">
        <ele>164.2</ele>
        <time>2025-05-07T08:07:37.000Z</time>
      </trkpt>
      <trkpt lat="43.48884" lon="5.31064">
        <ele>164.5</ele>
        <time>2025-05-07T08:07:39.000Z</time>
      </trkpt>
      <trkpt lat="43.48886" lon="5.31062">
        <ele>164.8</ele>
        <time>2025-05-07T08:07:41.000Z</time>
      </trkpt>
      <trkpt lat="43.48887" lon="5.3106">
        <ele>165.2</ele>
        <time>2025-05-07T08:07:43.000Z</time>
      </trkpt>
      <trkpt lat="43.48889" lon="5.31057">
        <ele>165.7</ele>
        <time>2025-05-07T08:07:45.000Z</time>
      </trkpt>
      <trkpt lat="43.48891" lon="5.31056">
        <ele>165.6</ele>
        <time>2025-05-07T08:07:47.000Z</time>
      </trkpt>
      <trkpt lat="43.48892" lon="5.31053">
        <ele>165.4</ele>
        <time>2025-05-07T08:07:49.000Z</time>
      </trkpt>
      <trkpt lat="43.48893" lon="5.3105">
        <ele>165.2</ele>
        <time>2025-05-07T08:07:51.000Z</time>
      </trkpt>
      <trkpt lat="43.48894" lon="5.31047">
        <ele>165</ele>
        <time>2025-05-07T08:07:53.000Z</time>
      </trkpt>
      <trkpt lat="43.48896" lon="5.31045">
        <ele>164.9</ele>
        <time>2025-05-07T08:07:55.000Z</time>
      </trkpt>
      <trkpt lat="43.48897" lon="5.31042">
        <ele>164.8</ele>
        <time>2025-05-07T08:07:57.000Z</time>
      </trkpt>
      <trkpt lat="43.48898" lon="5.31038">
        <ele>164.9</ele>
        <time>2025-05-07T08:07:59.000Z</time>
      </trkpt>
      <trkpt lat="43.48899" lon="5.31035">
        <ele>164.9</ele>
        <time>2025-05-07T08:08:01.000Z</time>
      </trkpt>
      <trkpt lat="43.48901" lon="5.31033">
        <ele>164.9</ele>
        <time>2025-05-07T08:08:03.000Z</time>
      </trkpt>
      <trkpt lat="43.48902" lon="5.3103">
        <ele>164.9</ele>
        <time>2025-05-07T08:08:05.000Z</time>
      </trkpt>
      <trkpt lat="43.48903" lon="5.31027">
        <ele>165</ele>
        <time>2025-05-07T08:08:08.000Z</time>
      </trkpt>
      <trkpt lat="43.48904" lon="5.31023">
        <ele>164.9</ele>
        <time>2025-05-07T08:08:11.000Z</time>
      </trkpt>
      <trkpt lat="43.48904" lon="5.3102">
        <ele>165</ele>
        <time>2025-05-07T08:08:13.000Z</time>
      </trkpt>
      <trkpt lat="43.48906" lon="5.31016">
        <ele>165</ele>
        <time>2025-05-07T08:08:16.000Z</time>
      </trkpt>
      <trkpt lat="43.48907" lon="5.31012">
        <ele>165</ele>
        <time>2025-05-07T08:08:18.000Z</time>
      </trkpt>
      <trkpt lat="43.48908" lon="5.3101">
        <ele>165.1</ele>
        <time>2025-05-07T08:08:20.000Z</time>
      </trkpt>
      <trkpt lat="43.48909" lon="5.31007">
        <ele>165.2</ele>
        <time>2025-05-07T08:08:23.000Z</time>
      </trkpt>
      <trkpt lat="43.4891" lon="5.31003">
        <ele>165.4</ele>
        <time>2025-05-07T08:08:25.000Z</time>
      </trkpt>
      <trkpt lat="43.48911" lon="5.31">
        <ele>165.6</ele>
        <time>2025-05-07T08:08:27.000Z</time>
      </trkpt>
      <trkpt lat="43.48912" lon="5.30997">
        <ele>165.7</ele>
        <time>2025-05-07T08:08:29.000Z</time>
      </trkpt>
      <trkpt lat="43.48914" lon="5.30994">
        <ele>165.9</ele>
        <time>2025-05-07T08:08:31.000Z</time>
      </trkpt>
      <trkpt lat="43.48914" lon="5.30991">
        <ele>166.1</ele>
        <time>2025-05-07T08:08:33.000Z</time>
      </trkpt>
      <trkpt lat="43.48915" lon="5.30988">
        <ele>166.2</ele>
        <time>2025-05-07T08:08:35.000Z</time>
      </trkpt>
      <trkpt lat="43.48916" lon="5.30986">
        <ele>166.4</ele>
        <time>2025-05-07T08:08:37.000Z</time>
      </trkpt>
      <trkpt lat="43.48917" lon="5.30983">
        <ele>166.5</ele>
        <time>2025-05-07T08:08:39.000Z</time>
      </trkpt>
      <trkpt lat="43.48919" lon="5.3098">
        <ele>166.4</ele>
        <time>2025-05-07T08:08:41.000Z</time>
      </trkpt>
      <trkpt lat="43.4892" lon="5.30978">
        <ele>166.3</ele>
        <time>2025-05-07T08:08:43.000Z</time>
      </trkpt>
      <trkpt lat="43.48921" lon="5.30976">
        <ele>166.3</ele>
        <time>2025-05-07T08:08:45.000Z</time>
      </trkpt>
      <trkpt lat="43.48923" lon="5.30973">
        <ele>166.3</ele>
        <time>2025-05-07T08:08:47.000Z</time>
      </trkpt>
      <trkpt lat="43.48924" lon="5.3097">
        <ele>166.3</ele>
        <time>2025-05-07T08:08:49.000Z</time>
      </trkpt>
      <trkpt lat="43.48924" lon="5.30968">
        <ele>166.4</ele>
        <time>2025-05-07T08:08:51.000Z</time>
      </trkpt>
      <trkpt lat="43.48925" lon="5.30965">
        <ele>166.4</ele>
        <time>2025-05-07T08:08:53.000Z</time>
      </trkpt>
      <trkpt lat="43.48926" lon="5.30962">
        <ele>166.5</ele>
        <time>2025-05-07T08:08:55.000Z</time>
      </trkpt>
      <trkpt lat="43.48927" lon="5.3096">
        <ele>166.6</ele>
        <time>2025-05-07T08:08:57.000Z</time>
      </trkpt>
      <trkpt lat="43.48928" lon="5.30957">
        <ele>166.7</ele>
        <time>2025-05-07T08:08:59.000Z</time>
      </trkpt>
      <trkpt lat="43.48928" lon="5.30954">
        <ele>166.9</ele>
        <time>2025-05-07T08:09:01.000Z</time>
      </trkpt>
      <trkpt lat="43.48928" lon="5.30951">
        <ele>167</ele>
        <time>2025-05-07T08:09:03.000Z</time>
      </trkpt>
      <trkpt lat="43.48929" lon="5.30948">
        <ele>167.2</ele>
        <time>2025-05-07T08:09:05.000Z</time>
      </trkpt>
      <trkpt lat="43.4893" lon="5.30945">
        <ele>167.5</ele>
        <time>2025-05-07T08:09:09.000Z</time>
      </trkpt>
      <trkpt lat="43.48931" lon="5.30942">
        <ele>167.6</ele>
        <time>2025-05-07T08:09:11.000Z</time>
      </trkpt>
      <trkpt lat="43.48932" lon="5.3094">
        <ele>167.7</ele>
        <time>2025-05-07T08:09:13.000Z</time>
      </trkpt>
      <trkpt lat="43.48933" lon="5.30937">
        <ele>167.9</ele>
        <time>2025-05-07T08:09:15.000Z</time>
      </trkpt>
      <trkpt lat="43.48935" lon="5.30934">
        <ele>168.2</ele>
        <time>2025-05-07T08:09:18.000Z</time>
      </trkpt>
      <trkpt lat="43.48936" lon="5.30931">
        <ele>168.4</ele>
        <time>2025-05-07T08:09:20.000Z</time>
      </trkpt>
      <trkpt lat="43.48937" lon="5.30929">
        <ele>168.6</ele>
        <time>2025-05-07T08:09:22.000Z</time>
      </trkpt>
      <trkpt lat="43.48938" lon="5.30926">
        <ele>168.8</ele>
        <time>2025-05-07T08:09:24.000Z</time>
      </trkpt>
      <trkpt lat="43.4894" lon="5.30924">
        <ele>169.1</ele>
        <time>2025-05-07T08:09:26.000Z</time>
      </trkpt>
      <trkpt lat="43.48941" lon="5.30922">
        <ele>169.3</ele>
        <time>2025-05-07T08:09:28.000Z</time>
      </trkpt>
      <trkpt lat="43.48943" lon="5.3092">
        <ele>169.6</ele>
        <time>2025-05-07T08:09:30.000Z</time>
      </trkpt>
      <trkpt lat="43.48946" lon="5.30919">
        <ele>169.8</ele>
        <time>2025-05-07T08:09:32.000Z</time>
      </trkpt>
      <trkpt lat="43.48947" lon="5.30917">
        <ele>170</ele>
        <time>2025-05-07T08:09:34.000Z</time>
      </trkpt>
      <trkpt lat="43.48949" lon="5.30915">
        <ele>169.8</ele>
        <time>2025-05-07T08:09:36.000Z</time>
      </trkpt>
      <trkpt lat="43.48951" lon="5.30912">
        <ele>169.6</ele>
        <time>2025-05-07T08:09:38.000Z</time>
      </trkpt>
      <trkpt lat="43.48953" lon="5.30911">
        <ele>169.5</ele>
        <time>2025-05-07T08:09:40.000Z</time>
      </trkpt>
      <trkpt lat="43.48955" lon="5.30909">
        <ele>169.4</ele>
        <time>2025-05-07T08:09:42.000Z</time>
      </trkpt>
      <trkpt lat="43.48958" lon="5.30906">
        <ele>169.4</ele>
        <time>2025-05-07T08:09:45.000Z</time>
      </trkpt>
      <trkpt lat="43.4896" lon="5.30904">
        <ele>169.4</ele>
        <time>2025-05-07T08:09:48.000Z</time>
      </trkpt>
      <trkpt lat="43.48962" lon="5.30903">
        <ele>169.6</ele>
        <time>2025-05-07T08:09:50.000Z</time>
      </trkpt>
      <trkpt lat="43.48963" lon="5.30901">
        <ele>169.6</ele>
        <time>2025-05-07T08:09:52.000Z</time>
      </trkpt>
      <trkpt lat="43.48965" lon="5.30898">
        <ele>169.8</ele>
        <time>2025-05-07T08:09:54.000Z</time>
      </trkpt>
      <trkpt lat="43.48966" lon="5.30896">
        <ele>170</ele>
        <time>2025-05-07T08:09:56.000Z</time>
      </trkpt>
      <trkpt lat="43.48968" lon="5.30894">
        <ele>170.2</ele>
        <time>2025-05-07T08:09:58.000Z</time>
      </trkpt>
      <trkpt lat="43.4897" lon="5.30891">
        <ele>170.5</ele>
        <time>2025-05-07T08:10:01.000Z</time>
      </trkpt>
      <trkpt lat="43.48971" lon="5.30888">
        <ele>170.8</ele>
        <time>2025-05-07T08:10:03.000Z</time>
      </trkpt>
      <trkpt lat="43.48973" lon="5.30886">
        <ele>170.9</ele>
        <time>2025-05-07T08:10:05.000Z</time>
      </trkpt>
      <trkpt lat="43.48974" lon="5.30884">
        <ele>170.8</ele>
        <time>2025-05-07T08:10:07.000Z</time>
      </trkpt>
      <trkpt lat="43.48976" lon="5.30882">
        <ele>170.8</ele>
        <time>2025-05-07T08:10:09.000Z</time>
      </trkpt>
      <trkpt lat="43.48977" lon="5.30879">
        <ele>170.7</ele>
        <time>2025-05-07T08:10:11.000Z</time>
      </trkpt>
      <trkpt lat="43.48978" lon="5.30876">
        <ele>170.6</ele>
        <time>2025-05-07T08:10:13.000Z</time>
      </trkpt>
      <trkpt lat="43.48979" lon="5.30873">
        <ele>170.6</ele>
        <time>2025-05-07T08:10:15.000Z</time>
      </trkpt>
      <trkpt lat="43.4898" lon="5.3087">
        <ele>170.5</ele>
        <time>2025-05-07T08:10:17.000Z</time>
      </trkpt>
      <trkpt lat="43.48981" lon="5.30867">
        <ele>170.4</ele>
        <time>2025-05-07T08:10:19.000Z</time>
      </trkpt>
      <trkpt lat="43.48982" lon="5.30862">
        <ele>170.4</ele>
        <time>2025-05-07T08:10:22.000Z</time>
      </trkpt>
      <trkpt lat="43.48983" lon="5.30859">
        <ele>170.4</ele>
        <time>2025-05-07T08:10:25.000Z</time>
      </trkpt>
      <trkpt lat="43.48986" lon="5.30857">
        <ele>170.6</ele>
        <time>2025-05-07T08:10:28.000Z</time>
      </trkpt>
      <trkpt lat="43.48987" lon="5.30855">
        <ele>170.6</ele>
        <time>2025-05-07T08:10:30.000Z</time>
      </trkpt>
      <trkpt lat="43.48989" lon="5.30853">
        <ele>170.7</ele>
        <time>2025-05-07T08:10:32.000Z</time>
      </trkpt>
      <trkpt lat="43.48991" lon="5.30852">
        <ele>170.8</ele>
        <time>2025-05-07T08:10:34.000Z</time>
      </trkpt>
      <trkpt lat="43.48993" lon="5.3085">
        <ele>170.8</ele>
        <time>2025-05-07T08:10:36.000Z</time>
      </trkpt>
      <trkpt lat="43.48995" lon="5.30848">
        <ele>170.9</ele>
        <time>2025-05-07T08:10:39.000Z</time>
      </trkpt>
      <trkpt lat="43.48997" lon="5.30848">
        <ele>170.9</ele>
        <time>2025-05-07T08:10:42.000Z</time>
      </trkpt>
      <trkpt lat="43.48999" lon="5.30846">
        <ele>171</ele>
        <time>2025-05-07T08:10:45.000Z</time>
      </trkpt>
      <trkpt lat="43.49" lon="5.30844">
        <ele>170.9</ele>
        <time>2025-05-07T08:10:48.000Z</time>
      </trkpt>
      <trkpt lat="43.49002" lon="5.30843">
        <ele>170.5</ele>
        <time>2025-05-07T08:10:51.000Z</time>
      </trkpt>
      <trkpt lat="43.49004" lon="5.30841">
        <ele>170.1</ele>
        <time>2025-05-07T08:10:54.000Z</time>
      </trkpt>
      <trkpt lat="43.49006" lon="5.3084">
        <ele>169.7</ele>
        <time>2025-05-07T08:10:57.000Z</time>
      </trkpt>
      <trkpt lat="43.49008" lon="5.3084">
        <ele>169.2</ele>
        <time>2025-05-07T08:10:59.000Z</time>
      </trkpt>
      <trkpt lat="43.49011" lon="5.3084">
        <ele>168.4</ele>
        <time>2025-05-07T08:11:05.000Z</time>
      </trkpt>
      <trkpt lat="43.49013" lon="5.3084">
        <ele>168</ele>
        <time>2025-05-07T08:11:08.000Z</time>
      </trkpt>
      <trkpt lat="43.49015" lon="5.30839">
        <ele>167.5</ele>
        <time>2025-05-07T08:11:15.000Z</time>
      </trkpt>
      <trkpt lat="43.49017" lon="5.30839">
        <ele>167</ele>
        <time>2025-05-07T08:11:20.000Z</time>
      </trkpt>
      <trkpt lat="43.4902" lon="5.3084">
        <ele>166.4</ele>
        <time>2025-05-07T08:11:23.000Z</time>
      </trkpt>
      <trkpt lat="43.49022" lon="5.3084">
        <ele>165.9</ele>
        <time>2025-05-07T08:11:26.000Z</time>
      </trkpt>
      <trkpt lat="43.49024" lon="5.30841">
        <ele>165.3</ele>
        <time>2025-05-07T08:11:30.000Z</time>
      </trkpt>
      <trkpt lat="43.49027" lon="5.30841">
        <ele>164.8</ele>
        <time>2025-05-07T08:11:34.000Z</time>
      </trkpt>
      <trkpt lat="43.49029" lon="5.30841">
        <ele>164.4</ele>
        <time>2025-05-07T08:11:37.000Z</time>
      </trkpt>
      <trkpt lat="43.49031" lon="5.30842">
        <ele>164.1</ele>
        <time>2025-05-07T08:11:40.000Z</time>
      </trkpt>
      <trkpt lat="43.49033" lon="5.30843">
        <ele>163.9</ele>
        <time>2025-05-07T08:11:42.000Z</time>
      </trkpt>
      <trkpt lat="43.49034" lon="5.30845">
        <ele>163.8</ele>
        <time>2025-05-07T08:11:45.000Z</time>
      </trkpt>
      <trkpt lat="43.49036" lon="5.30846">
        <ele>163.6</ele>
        <time>2025-05-07T08:11:47.000Z</time>
      </trkpt>
      <trkpt lat="43.49038" lon="5.30847">
        <ele>163.3</ele>
        <time>2025-05-07T08:11:50.000Z</time>
      </trkpt>
      <trkpt lat="43.4904" lon="5.30849">
        <ele>163</ele>
        <time>2025-05-07T08:11:53.000Z</time>
      </trkpt>
      <trkpt lat="43.49041" lon="5.30852">
        <ele>163</ele>
        <time>2025-05-07T08:11:56.000Z</time>
      </trkpt>
      <trkpt lat="43.49043" lon="5.30854">
        <ele>162.6</ele>
        <time>2025-05-07T08:11:59.000Z</time>
      </trkpt>
      <trkpt lat="43.49045" lon="5.30854">
        <ele>162.2</ele>
        <time>2025-05-07T08:12:01.000Z</time>
      </trkpt>
      <trkpt lat="43.49047" lon="5.30854">
        <ele>161.8</ele>
        <time>2025-05-07T08:12:03.000Z</time>
      </trkpt>
      <trkpt lat="43.49049" lon="5.30855">
        <ele>161.5</ele>
        <time>2025-05-07T08:12:05.000Z</time>
      </trkpt>
      <trkpt lat="43.49052" lon="5.30854">
        <ele>161</ele>
        <time>2025-05-07T08:12:08.000Z</time>
      </trkpt>
      <trkpt lat="43.49055" lon="5.30853">
        <ele>160.5</ele>
        <time>2025-05-07T08:12:11.000Z</time>
      </trkpt>
      <trkpt lat="43.49057" lon="5.30853">
        <ele>160.1</ele>
        <time>2025-05-07T08:12:14.000Z</time>
      </trkpt>
      <trkpt lat="43.4906" lon="5.30852">
        <ele>159.9</ele>
        <time>2025-05-07T08:12:17.000Z</time>
      </trkpt>
      <trkpt lat="43.49062" lon="5.30852">
        <ele>159.8</ele>
        <time>2025-05-07T08:12:19.000Z</time>
      </trkpt>
      <trkpt lat="43.49065" lon="5.30851">
        <ele>159.6</ele>
        <time>2025-05-07T08:12:26.000Z</time>
      </trkpt>
      <trkpt lat="43.49067" lon="5.3085">
        <ele>159.6</ele>
        <time>2025-05-07T08:12:29.000Z</time>
      </trkpt>
      <trkpt lat="43.49069" lon="5.30848">
        <ele>159.5</ele>
        <time>2025-05-07T08:12:32.000Z</time>
      </trkpt>
      <trkpt lat="43.49072" lon="5.30847">
        <ele>159.4</ele>
        <time>2025-05-07T08:12:34.000Z</time>
      </trkpt>
      <trkpt lat="43.49073" lon="5.30845">
        <ele>159.4</ele>
        <time>2025-05-07T08:12:36.000Z</time>
      </trkpt>
      <trkpt lat="43.49075" lon="5.30843">
        <ele>159.5</ele>
        <time>2025-05-07T08:12:38.000Z</time>
      </trkpt>
      <trkpt lat="43.49076" lon="5.30841">
        <ele>159.5</ele>
        <time>2025-05-07T08:12:40.000Z</time>
      </trkpt>
      <trkpt lat="43.49078" lon="5.3084">
        <ele>159.6</ele>
        <time>2025-05-07T08:12:42.000Z</time>
      </trkpt>
      <trkpt lat="43.49081" lon="5.30839">
        <ele>159.5</ele>
        <time>2025-05-07T08:12:45.000Z</time>
      </trkpt>
      <trkpt lat="43.49083" lon="5.30838">
        <ele>159.5</ele>
        <time>2025-05-07T08:12:47.000Z</time>
      </trkpt>
      <trkpt lat="43.49084" lon="5.30836">
        <ele>159.5</ele>
        <time>2025-05-07T08:12:49.000Z</time>
      </trkpt>
      <trkpt lat="43.49085" lon="5.30834">
        <ele>159.4</ele>
        <time>2025-05-07T08:12:51.000Z</time>
      </trkpt>
      <trkpt lat="43.49087" lon="5.30831">
        <ele>159</ele>
        <time>2025-05-07T08:12:53.000Z</time>
      </trkpt>
      <trkpt lat="43.49089" lon="5.30828">
        <ele>158.7</ele>
        <time>2025-05-07T08:12:55.000Z</time>
      </trkpt>
      <trkpt lat="43.49091" lon="5.30826">
        <ele>158.3</ele>
        <time>2025-05-07T08:12:57.000Z</time>
      </trkpt>
      <trkpt lat="43.49092" lon="5.30823">
        <ele>158.3</ele>
        <time>2025-05-07T08:12:59.000Z</time>
      </trkpt>
      <trkpt lat="43.49093" lon="5.3082">
        <ele>158.1</ele>
        <time>2025-05-07T08:13:01.000Z</time>
      </trkpt>
      <trkpt lat="43.49095" lon="5.30818">
        <ele>157.9</ele>
        <time>2025-05-07T08:13:04.000Z</time>
      </trkpt>
      <trkpt lat="43.49098" lon="5.30817">
        <ele>157.5</ele>
        <time>2025-05-07T08:13:06.000Z</time>
      </trkpt>
      <trkpt lat="43.49099" lon="5.30816">
        <ele>157.3</ele>
        <time>2025-05-07T08:13:08.000Z</time>
      </trkpt>
      <trkpt lat="43.49101" lon="5.30814">
        <ele>157.2</ele>
        <time>2025-05-07T08:13:10.000Z</time>
      </trkpt>
      <trkpt lat="43.49102" lon="5.30812">
        <ele>157.2</ele>
        <time>2025-05-07T08:13:12.000Z</time>
      </trkpt>
      <trkpt lat="43.49104" lon="5.30809">
        <ele>157.4</ele>
        <time>2025-05-07T08:13:15.000Z</time>
      </trkpt>
      <trkpt lat="43.49106" lon="5.30807">
        <ele>157.5</ele>
        <time>2025-05-07T08:13:17.000Z</time>
      </trkpt>
      <trkpt lat="43.49108" lon="5.30805">
        <ele>157.5</ele>
        <time>2025-05-07T08:13:19.000Z</time>
      </trkpt>
      <trkpt lat="43.4911" lon="5.30803">
        <ele>157.6</ele>
        <time>2025-05-07T08:13:21.000Z</time>
      </trkpt>
      <trkpt lat="43.49112" lon="5.30801">
        <ele>157.6</ele>
        <time>2025-05-07T08:13:23.000Z</time>
      </trkpt>
      <trkpt lat="43.49114" lon="5.308">
        <ele>157.2</ele>
        <time>2025-05-07T08:13:25.000Z</time>
      </trkpt>
      <trkpt lat="43.49115" lon="5.30798">
        <ele>157.1</ele>
        <time>2025-05-07T08:13:27.000Z</time>
      </trkpt>
      <trkpt lat="43.49117" lon="5.30797">
        <ele>156.7</ele>
        <time>2025-05-07T08:13:29.000Z</time>
      </trkpt>
      <trkpt lat="43.49119" lon="5.30796">
        <ele>156.3</ele>
        <time>2025-05-07T08:13:31.000Z</time>
      </trkpt>
      <trkpt lat="43.49121" lon="5.30794">
        <ele>156.1</ele>
        <time>2025-05-07T08:13:34.000Z</time>
      </trkpt>
      <trkpt lat="43.49123" lon="5.30792">
        <ele>155.9</ele>
        <time>2025-05-07T08:13:37.000Z</time>
      </trkpt>
      <trkpt lat="43.49125" lon="5.3079">
        <ele>155.9</ele>
        <time>2025-05-07T08:13:40.000Z</time>
      </trkpt>
      <trkpt lat="43.49126" lon="5.30787">
        <ele>156</ele>
        <time>2025-05-07T08:13:42.000Z</time>
      </trkpt>
      <trkpt lat="43.49129" lon="5.30786">
        <ele>155.8</ele>
        <time>2025-05-07T08:13:45.000Z</time>
      </trkpt>
      <trkpt lat="43.4913" lon="5.30783">
        <ele>156.1</ele>
        <time>2025-05-07T08:13:47.000Z</time>
      </trkpt>
      <trkpt lat="43.49131" lon="5.3078">
        <ele>156.5</ele>
        <time>2025-05-07T08:13:49.000Z</time>
      </trkpt>
      <trkpt lat="43.49132" lon="5.30778">
        <ele>156.9</ele>
        <time>2025-05-07T08:13:51.000Z</time>
      </trkpt>
      <trkpt lat="43.49132" lon="5.30774">
        <ele>157.2</ele>
        <time>2025-05-07T08:13:54.000Z</time>
      </trkpt>
      <trkpt lat="43.49133" lon="5.30772">
        <ele>157.4</ele>
        <time>2025-05-07T08:13:56.000Z</time>
      </trkpt>
      <trkpt lat="43.49134" lon="5.30769">
        <ele>157.8</ele>
        <time>2025-05-07T08:13:58.000Z</time>
      </trkpt>
      <trkpt lat="43.49134" lon="5.30766">
        <ele>158.2</ele>
        <time>2025-05-07T08:14:00.000Z</time>
      </trkpt>
      <trkpt lat="43.49136" lon="5.30763">
        <ele>158.2</ele>
        <time>2025-05-07T08:14:02.000Z</time>
      </trkpt>
      <trkpt lat="43.49137" lon="5.30761">
        <ele>158.2</ele>
        <time>2025-05-07T08:14:04.000Z</time>
      </trkpt>
      <trkpt lat="43.49138" lon="5.30758">
        <ele>158.1</ele>
        <time>2025-05-07T08:14:06.000Z</time>
      </trkpt>
      <trkpt lat="43.49139" lon="5.30755">
        <ele>158.2</ele>
        <time>2025-05-07T08:14:08.000Z</time>
      </trkpt>
      <trkpt lat="43.4914" lon="5.30752">
        <ele>158.6</ele>
        <time>2025-05-07T08:14:11.000Z</time>
      </trkpt>
      <trkpt lat="43.49141" lon="5.30749">
        <ele>158.5</ele>
        <time>2025-05-07T08:14:13.000Z</time>
      </trkpt>
      <trkpt lat="43.49143" lon="5.30746">
        <ele>158.4</ele>
        <time>2025-05-07T08:14:15.000Z</time>
      </trkpt>
      <trkpt lat="43.49145" lon="5.30744">
        <ele>158.2</ele>
        <time>2025-05-07T08:14:18.000Z</time>
      </trkpt>
      <trkpt lat="43.49147" lon="5.30742">
        <ele>158</ele>
        <time>2025-05-07T08:14:21.000Z</time>
      </trkpt>
      <trkpt lat="43.4915" lon="5.30741">
        <ele>157.5</ele>
        <time>2025-05-07T08:14:25.000Z</time>
      </trkpt>
      <trkpt lat="43.49153" lon="5.30741">
        <ele>156.9</ele>
        <time>2025-05-07T08:14:28.000Z</time>
      </trkpt>
      <trkpt lat="43.49156" lon="5.3074">
        <ele>156.4</ele>
        <time>2025-05-07T08:14:30.000Z</time>
      </trkpt>
      <trkpt lat="43.49158" lon="5.3074">
        <ele>156</ele>
        <time>2025-05-07T08:14:32.000Z</time>
      </trkpt>
      <trkpt lat="43.49161" lon="5.30741">
        <ele>155.3</ele>
        <time>2025-05-07T08:14:34.000Z</time>
      </trkpt>
      <trkpt lat="43.49163" lon="5.30741">
        <ele>154.8</ele>
        <time>2025-05-07T08:14:36.000Z</time>
      </trkpt>
      <trkpt lat="43.49166" lon="5.30741">
        <ele>154.3</ele>
        <time>2025-05-07T08:14:38.000Z</time>
      </trkpt>
      <trkpt lat="43.49168" lon="5.30741">
        <ele>154.1</ele>
        <time>2025-05-07T08:14:40.000Z</time>
      </trkpt>
      <trkpt lat="43.4917" lon="5.30741">
        <ele>154.4</ele>
        <time>2025-05-07T08:14:42.000Z</time>
      </trkpt>
      <trkpt lat="43.49172" lon="5.30742">
        <ele>154.7</ele>
        <time>2025-05-07T08:14:44.000Z</time>
      </trkpt>
      <trkpt lat="43.49174" lon="5.30743">
        <ele>155.1</ele>
        <time>2025-05-07T08:14:46.000Z</time>
      </trkpt>
      <trkpt lat="43.49176" lon="5.30743">
        <ele>155.4</ele>
        <time>2025-05-07T08:14:48.000Z</time>
      </trkpt>
      <trkpt lat="43.49178" lon="5.30744">
        <ele>155.7</ele>
        <time>2025-05-07T08:14:50.000Z</time>
      </trkpt>
      <trkpt lat="43.4918" lon="5.30744">
        <ele>156.1</ele>
        <time>2025-05-07T08:14:52.000Z</time>
      </trkpt>
      <trkpt lat="43.49182" lon="5.30745">
        <ele>156.7</ele>
        <time>2025-05-07T08:14:54.000Z</time>
      </trkpt>
      <trkpt lat="43.49184" lon="5.30745">
        <ele>157.1</ele>
        <time>2025-05-07T08:14:55.000Z</time>
      </trkpt>
      <trkpt lat="43.49187" lon="5.30745">
        <ele>157.7</ele>
        <time>2025-05-07T08:14:57.000Z</time>
      </trkpt>
      <trkpt lat="43.49189" lon="5.30746">
        <ele>158.3</ele>
        <time>2025-05-07T08:14:59.000Z</time>
      </trkpt>
      <trkpt lat="43.49192" lon="5.30747">
        <ele>158.9</ele>
        <time>2025-05-07T08:15:02.000Z</time>
      </trkpt>
      <trkpt lat="43.49194" lon="5.30747">
        <ele>159.5</ele>
        <time>2025-05-07T08:15:04.000Z</time>
      </trkpt>
      <trkpt lat="43.49196" lon="5.30747">
        <ele>159.7</ele>
        <time>2025-05-07T08:15:06.000Z</time>
      </trkpt>
      <trkpt lat="43.49198" lon="5.30747">
        <ele>159.8</ele>
        <time>2025-05-07T08:15:08.000Z</time>
      </trkpt>
      <trkpt lat="43.492" lon="5.30748">
        <ele>159.9</ele>
        <time>2025-05-07T08:15:10.000Z</time>
      </trkpt>
      <trkpt lat="43.49202" lon="5.30748">
        <ele>159.9</ele>
        <time>2025-05-07T08:15:12.000Z</time>
      </trkpt>
      <trkpt lat="43.49205" lon="5.30748">
        <ele>160</ele>
        <time>2025-05-07T08:15:14.000Z</time>
      </trkpt>
      <trkpt lat="43.49207" lon="5.30748">
        <ele>160</ele>
        <time>2025-05-07T08:15:16.000Z</time>
      </trkpt>
      <trkpt lat="43.49209" lon="5.30748">
        <ele>160</ele>
        <time>2025-05-07T08:15:18.000Z</time>
      </trkpt>
      <trkpt lat="43.4921" lon="5.30748">
        <ele>160.1</ele>
        <time>2025-05-07T08:15:20.000Z</time>
      </trkpt>
      <trkpt lat="43.49213" lon="5.30748">
        <ele>160.1</ele>
        <time>2025-05-07T08:15:22.000Z</time>
      </trkpt>
      <trkpt lat="43.49215" lon="5.30748">
        <ele>160.1</ele>
        <time>2025-05-07T08:15:24.000Z</time>
      </trkpt>
      <trkpt lat="43.49217" lon="5.30749">
        <ele>160.1</ele>
        <time>2025-05-07T08:15:27.000Z</time>
      </trkpt>
      <trkpt lat="43.49219" lon="5.3075">
        <ele>160.1</ele>
        <time>2025-05-07T08:15:30.000Z</time>
      </trkpt>
      <trkpt lat="43.49221" lon="5.3075">
        <ele>160</ele>
        <time>2025-05-07T08:15:35.000Z</time>
      </trkpt>
      <trkpt lat="43.49223" lon="5.3075">
        <ele>160</ele>
        <time>2025-05-07T08:15:39.000Z</time>
      </trkpt>
      <trkpt lat="43.49225" lon="5.30748">
        <ele>160.3</ele>
        <time>2025-05-07T08:15:41.000Z</time>
      </trkpt>
      <trkpt lat="43.49227" lon="5.30745">
        <ele>160.7</ele>
        <time>2025-05-07T08:15:43.000Z</time>
      </trkpt>
      <trkpt lat="43.49228" lon="5.30742">
        <ele>161.1</ele>
        <time>2025-05-07T08:15:45.000Z</time>
      </trkpt>
      <trkpt lat="43.49229" lon="5.3074">
        <ele>161.4</ele>
        <time>2025-05-07T08:15:47.000Z</time>
      </trkpt>
      <trkpt lat="43.49231" lon="5.30739">
        <ele>161.7</ele>
        <time>2025-05-07T08:15:50.000Z</time>
      </trkpt>
      <trkpt lat="43.49234" lon="5.30738">
        <ele>161.8</ele>
        <time>2025-05-07T08:15:53.000Z</time>
      </trkpt>
      <trkpt lat="43.49236" lon="5.30738">
        <ele>161.9</ele>
        <time>2025-05-07T08:15:56.000Z</time>
      </trkpt>
      <trkpt lat="43.49239" lon="5.30739">
        <ele>161.6</ele>
        <time>2025-05-07T08:15:59.000Z</time>
      </trkpt>
      <trkpt lat="43.49241" lon="5.3074">
        <ele>161.5</ele>
        <time>2025-05-07T08:16:01.000Z</time>
      </trkpt>
      <trkpt lat="43.49244" lon="5.30742">
        <ele>161.1</ele>
        <time>2025-05-07T08:16:03.000Z</time>
      </trkpt>
      <trkpt lat="43.49245" lon="5.30743">
        <ele>160.8</ele>
        <time>2025-05-07T08:16:11.000Z</time>
      </trkpt>
      <trkpt lat="43.49248" lon="5.30745">
        <ele>160.3</ele>
        <time>2025-05-07T08:16:14.000Z</time>
      </trkpt>
      <trkpt lat="43.4925" lon="5.30747">
        <ele>159.8</ele>
        <time>2025-05-07T08:16:16.000Z</time>
      </trkpt>
      <trkpt lat="43.49252" lon="5.30749">
        <ele>159.4</ele>
        <time>2025-05-07T08:16:18.000Z</time>
      </trkpt>
      <trkpt lat="43.49254" lon="5.3075">
        <ele>159.4</ele>
        <time>2025-05-07T08:16:20.000Z</time>
      </trkpt>
      <trkpt lat="43.49257" lon="5.3075">
        <ele>159.5</ele>
        <time>2025-05-07T08:16:22.000Z</time>
      </trkpt>
      <trkpt lat="43.49259" lon="5.30752">
        <ele>159.8</ele>
        <time>2025-05-07T08:16:24.000Z</time>
      </trkpt>
      <trkpt lat="43.49261" lon="5.30754">
        <ele>160.1</ele>
        <time>2025-05-07T08:16:26.000Z</time>
      </trkpt>
      <trkpt lat="43.49263" lon="5.30756">
        <ele>160.3</ele>
        <time>2025-05-07T08:16:29.000Z</time>
      </trkpt>
      <trkpt lat="43.49264" lon="5.30758">
        <ele>160.6</ele>
        <time>2025-05-07T08:16:31.000Z</time>
      </trkpt>
      <trkpt lat="43.49266" lon="5.3076">
        <ele>160.8</ele>
        <time>2025-05-07T08:16:33.000Z</time>
      </trkpt>
      <trkpt lat="43.49268" lon="5.30762">
        <ele>161.1</ele>
        <time>2025-05-07T08:16:35.000Z</time>
      </trkpt>
      <trkpt lat="43.49269" lon="5.30763">
        <ele>161.3</ele>
        <time>2025-05-07T08:16:37.000Z</time>
      </trkpt>
      <trkpt lat="43.4927" lon="5.30766">
        <ele>161.6</ele>
        <time>2025-05-07T08:16:40.000Z</time>
      </trkpt>
      <trkpt lat="43.49272" lon="5.30767">
        <ele>161.8</ele>
        <time>2025-05-07T08:16:44.000Z</time>
      </trkpt>
      <trkpt lat="43.49273" lon="5.30769">
        <ele>162.1</ele>
        <time>2025-05-07T08:16:47.000Z</time>
      </trkpt>
      <trkpt lat="43.49275" lon="5.30771">
        <ele>162.3</ele>
        <time>2025-05-07T08:16:56.000Z</time>
      </trkpt>
      <trkpt lat="43.49277" lon="5.30773">
        <ele>162.6</ele>
        <time>2025-05-07T08:17:01.000Z</time>
      </trkpt>
      <trkpt lat="43.4928" lon="5.30776">
        <ele>163.5</ele>
        <time>2025-05-07T08:17:10.000Z</time>
      </trkpt>
      <trkpt lat="43.49281" lon="5.30779">
        <ele>164.3</ele>
        <time>2025-05-07T08:17:15.000Z</time>
      </trkpt>
      <trkpt lat="43.49282" lon="5.30781">
        <ele>165.6</ele>
        <time>2025-05-07T08:17:18.000Z</time>
      </trkpt>
      <trkpt lat="43.49283" lon="5.30784">
        <ele>166.9</ele>
        <time>2025-05-07T08:17:23.000Z</time>
      </trkpt>
      <trkpt lat="43.49285" lon="5.30787">
        <ele>168.2</ele>
        <time>2025-05-07T08:17:28.000Z</time>
      </trkpt>
      <trkpt lat="43.49286" lon="5.3079">
        <ele>169.3</ele>
        <time>2025-05-07T08:17:35.000Z</time>
      </trkpt>
      <trkpt lat="43.49287" lon="5.30793">
        <ele>170.5</ele>
        <time>2025-05-07T08:17:41.000Z</time>
      </trkpt>
      <trkpt lat="43.49288" lon="5.30795">
        <ele>171.4</ele>
        <time>2025-05-07T08:17:48.000Z</time>
      </trkpt>
      <trkpt lat="43.49289" lon="5.30797">
        <ele>172.1</ele>
        <time>2025-05-07T08:17:50.000Z</time>
      </trkpt>
      <trkpt lat="43.49291" lon="5.308">
        <ele>172.9</ele>
        <time>2025-05-07T08:17:56.000Z</time>
      </trkpt>
      <trkpt lat="43.49291" lon="5.30802">
        <ele>173.6</ele>
        <time>2025-05-07T08:18:00.000Z</time>
      </trkpt>
      <trkpt lat="43.49292" lon="5.30804">
        <ele>174.2</ele>
        <time>2025-05-07T08:18:03.000Z</time>
      </trkpt>
      <trkpt lat="43.49293" lon="5.30806">
        <ele>174.7</ele>
        <time>2025-05-07T08:18:08.000Z</time>
      </trkpt>
      <trkpt lat="43.49294" lon="5.3081">
        <ele>174.8</ele>
        <time>2025-05-07T08:18:12.000Z</time>
      </trkpt>
      <trkpt lat="43.49294" lon="5.30813">
        <ele>174.8</ele>
        <time>2025-05-07T08:18:16.000Z</time>
      </trkpt>
      <trkpt lat="43.49295" lon="5.30817">
        <ele>174.8</ele>
        <time>2025-05-07T08:18:24.000Z</time>
      </trkpt>
      <trkpt lat="43.49295" lon="5.3082">
        <ele>174.8</ele>
        <time>2025-05-07T08:18:30.000Z</time>
      </trkpt>
      <trkpt lat="43.49295" lon="5.30822">
        <ele>174.8</ele>
        <time>2025-05-07T08:18:33.000Z</time>
      </trkpt>
      <trkpt lat="43.49296" lon="5.30825">
        <ele>174.8</ele>
        <time>2025-05-07T08:18:37.000Z</time>
      </trkpt>
      <trkpt lat="43.49297" lon="5.30827">
        <ele>174.7</ele>
        <time>2025-05-07T08:18:42.000Z</time>
      </trkpt>
      <trkpt lat="43.49298" lon="5.3083">
        <ele>174.6</ele>
        <time>2025-05-07T08:18:45.000Z</time>
      </trkpt>
      <trkpt lat="43.49299" lon="5.30832">
        <ele>174.5</ele>
        <time>2025-05-07T08:18:49.000Z</time>
      </trkpt>
      <trkpt lat="43.49302" lon="5.30834">
        <ele>174.1</ele>
        <time>2025-05-07T08:18:58.000Z</time>
      </trkpt>
      <trkpt lat="43.49304" lon="5.30838">
        <ele>173.3</ele>
        <time>2025-05-07T08:19:04.000Z</time>
      </trkpt>
      <trkpt lat="43.49305" lon="5.3084">
        <ele>172.8</ele>
        <time>2025-05-07T08:19:07.000Z</time>
      </trkpt>
      <trkpt lat="43.49307" lon="5.30843">
        <ele>172.2</ele>
        <time>2025-05-07T08:19:12.000Z</time>
      </trkpt>
      <trkpt lat="43.49308" lon="5.30844">
        <ele>171.8</ele>
        <time>2025-05-07T08:19:14.000Z</time>
      </trkpt>
      <trkpt lat="43.49311" lon="5.30845">
        <ele>171.4</ele>
        <time>2025-05-07T08:19:18.000Z</time>
      </trkpt>
      <trkpt lat="43.49313" lon="5.30846">
        <ele>171.1</ele>
        <time>2025-05-07T08:19:21.000Z</time>
      </trkpt>
      <trkpt lat="43.49315" lon="5.30848">
        <ele>170.8</ele>
        <time>2025-05-07T08:19:24.000Z</time>
      </trkpt>
      <trkpt lat="43.49317" lon="5.30849">
        <ele>170.5</ele>
        <time>2025-05-07T08:19:27.000Z</time>
      </trkpt>
      <trkpt lat="43.49318" lon="5.30851">
        <ele>170.2</ele>
        <time>2025-05-07T08:19:30.000Z</time>
      </trkpt>
      <trkpt lat="43.4932" lon="5.30852">
        <ele>170</ele>
        <time>2025-05-07T08:19:34.000Z</time>
      </trkpt>
      <trkpt lat="43.49322" lon="5.30854">
        <ele>169.7</ele>
        <time>2025-05-07T08:19:39.000Z</time>
      </trkpt>
      <trkpt lat="43.49324" lon="5.30857">
        <ele>169.4</ele>
        <time>2025-05-07T08:19:42.000Z</time>
      </trkpt>
      <trkpt lat="43.49325" lon="5.30859">
        <ele>169.2</ele>
        <time>2025-05-07T08:19:44.000Z</time>
      </trkpt>
      <trkpt lat="43.49327" lon="5.30861">
        <ele>169</ele>
        <time>2025-05-07T08:19:46.000Z</time>
      </trkpt>
      <trkpt lat="43.49329" lon="5.30863">
        <ele>169.2</ele>
        <time>2025-05-07T08:19:49.000Z</time>
      </trkpt>
      <trkpt lat="43.4933" lon="5.30866">
        <ele>169.5</ele>
        <time>2025-05-07T08:19:51.000Z</time>
      </trkpt>
      <trkpt lat="43.49331" lon="5.30869">
        <ele>169.9</ele>
        <time>2025-05-07T08:19:54.000Z</time>
      </trkpt>
      <trkpt lat="43.49332" lon="5.30871">
        <ele>170.4</ele>
        <time>2025-05-07T08:20:00.000Z</time>
      </trkpt>
      <trkpt lat="43.49333" lon="5.30874">
        <ele>170.8</ele>
        <time>2025-05-07T08:20:03.000Z</time>
      </trkpt>
      <trkpt lat="43.49334" lon="5.30878">
        <ele>171.5</ele>
        <time>2025-05-07T08:20:07.000Z</time>
      </trkpt>
      <trkpt lat="43.49334" lon="5.30881">
        <ele>171.9</ele>
        <time>2025-05-07T08:20:10.000Z</time>
      </trkpt>
      <trkpt lat="43.49335" lon="5.30884">
        <ele>172.5</ele>
        <time>2025-05-07T08:20:13.000Z</time>
      </trkpt>
      <trkpt lat="43.49335" lon="5.30887">
        <ele>173</ele>
        <time>2025-05-07T08:20:16.000Z</time>
      </trkpt>
      <trkpt lat="43.49337" lon="5.30889">
        <ele>173.5</ele>
        <time>2025-05-07T08:20:19.000Z</time>
      </trkpt>
      <trkpt lat="43.49338" lon="5.30892">
        <ele>173.8</ele>
        <time>2025-05-07T08:20:22.000Z</time>
      </trkpt>
      <trkpt lat="43.49339" lon="5.30895">
        <ele>174.1</ele>
        <time>2025-05-07T08:20:25.000Z</time>
      </trkpt>
      <trkpt lat="43.49339" lon="5.30898">
        <ele>174.3</ele>
        <time>2025-05-07T08:20:27.000Z</time>
      </trkpt>
      <trkpt lat="43.4934" lon="5.309">
        <ele>174.5</ele>
        <time>2025-05-07T08:20:29.000Z</time>
      </trkpt>
      <trkpt lat="43.49341" lon="5.30903">
        <ele>174.7</ele>
        <time>2025-05-07T08:20:32.000Z</time>
      </trkpt>
      <trkpt lat="43.49342" lon="5.30906">
        <ele>174.9</ele>
        <time>2025-05-07T08:20:34.000Z</time>
      </trkpt>
      <trkpt lat="43.49342" lon="5.30909">
        <ele>175</ele>
        <time>2025-05-07T08:20:36.000Z</time>
      </trkpt>
      <trkpt lat="43.49343" lon="5.30911">
        <ele>175.2</ele>
        <time>2025-05-07T08:20:38.000Z</time>
      </trkpt>
      <trkpt lat="43.49345" lon="5.30914">
        <ele>175.3</ele>
        <time>2025-05-07T08:20:41.000Z</time>
      </trkpt>
      <trkpt lat="43.49347" lon="5.30914">
        <ele>175.4</ele>
        <time>2025-05-07T08:20:44.000Z</time>
      </trkpt>
      <trkpt lat="43.49348" lon="5.30913">
        <ele>175.5</ele>
        <time>2025-05-07T08:20:46.000Z</time>
      </trkpt>
      <trkpt lat="43.4935" lon="5.30911">
        <ele>175.6</ele>
        <time>2025-05-07T08:20:48.000Z</time>
      </trkpt>
      <trkpt lat="43.49352" lon="5.30909">
        <ele>175.6</ele>
        <time>2025-05-07T08:20:50.000Z</time>
      </trkpt>
      <trkpt lat="43.49353" lon="5.30907">
        <ele>175.8</ele>
        <time>2025-05-07T08:20:53.000Z</time>
      </trkpt>
      <trkpt lat="43.49356" lon="5.30906">
        <ele>176</ele>
        <time>2025-05-07T08:20:56.000Z</time>
      </trkpt>
      <trkpt lat="43.49358" lon="5.30905">
        <ele>176.2</ele>
        <time>2025-05-07T08:21:02.000Z</time>
      </trkpt>
      <trkpt lat="43.4936" lon="5.30905">
        <ele>176.3</ele>
        <time>2025-05-07T08:21:40.000Z</time>
      </trkpt>
      <trkpt lat="43.49362" lon="5.30906">
        <ele>176.4</ele>
        <time>2025-05-07T08:21:42.000Z</time>
      </trkpt>
      <trkpt lat="43.49364" lon="5.30908">
        <ele>176.4</ele>
        <time>2025-05-07T08:21:44.000Z</time>
      </trkpt>
      <trkpt lat="43.49365" lon="5.30909">
        <ele>176.3</ele>
        <time>2025-05-07T08:21:46.000Z</time>
      </trkpt>
      <trkpt lat="43.49367" lon="5.30912">
        <ele>176.2</ele>
        <time>2025-05-07T08:21:48.000Z</time>
      </trkpt>
      <trkpt lat="43.49369" lon="5.30913">
        <ele>176.2</ele>
        <time>2025-05-07T08:21:50.000Z</time>
      </trkpt>
      <trkpt lat="43.49372" lon="5.30914">
        <ele>176.1</ele>
        <time>2025-05-07T08:21:52.000Z</time>
      </trkpt>
      <trkpt lat="43.49374" lon="5.30915">
        <ele>176.1</ele>
        <time>2025-05-07T08:21:54.000Z</time>
      </trkpt>
      <trkpt lat="43.49377" lon="5.30916">
        <ele>176.1</ele>
        <time>2025-05-07T08:21:57.000Z</time>
      </trkpt>
      <trkpt lat="43.49379" lon="5.30917">
        <ele>176</ele>
        <time>2025-05-07T08:22:00.000Z</time>
      </trkpt>
      <trkpt lat="43.49381" lon="5.30918">
        <ele>176</ele>
        <time>2025-05-07T08:22:02.000Z</time>
      </trkpt>
      <trkpt lat="43.49384" lon="5.30922">
        <ele>175.9</ele>
        <time>2025-05-07T08:22:06.000Z</time>
      </trkpt>
      <trkpt lat="43.49385" lon="5.30924">
        <ele>175.9</ele>
        <time>2025-05-07T08:22:08.000Z</time>
      </trkpt>
      <trkpt lat="43.49387" lon="5.30926">
        <ele>176</ele>
        <time>2025-05-07T08:22:10.000Z</time>
      </trkpt>
      <trkpt lat="43.49388" lon="5.30928">
        <ele>176</ele>
        <time>2025-05-07T08:22:12.000Z</time>
      </trkpt>
      <trkpt lat="43.4939" lon="5.30931">
        <ele>176.1</ele>
        <time>2025-05-07T08:22:14.000Z</time>
      </trkpt>
      <trkpt lat="43.49392" lon="5.30933">
        <ele>176.2</ele>
        <time>2025-05-07T08:22:16.000Z</time>
      </trkpt>
      <trkpt lat="43.49393" lon="5.30937">
        <ele>176.3</ele>
        <time>2025-05-07T08:22:19.000Z</time>
      </trkpt>
      <trkpt lat="43.49393" lon="5.30939">
        <ele>176.3</ele>
        <time>2025-05-07T08:22:21.000Z</time>
      </trkpt>
      <trkpt lat="43.49394" lon="5.30942">
        <ele>176.4</ele>
        <time>2025-05-07T08:22:23.000Z</time>
      </trkpt>
      <trkpt lat="43.49396" lon="5.30945">
        <ele>176.5</ele>
        <time>2025-05-07T08:22:26.000Z</time>
      </trkpt>
      <trkpt lat="43.49396" lon="5.30947">
        <ele>176.5</ele>
        <time>2025-05-07T08:22:28.000Z</time>
      </trkpt>
      <trkpt lat="43.49397" lon="5.3095">
        <ele>176.4</ele>
        <time>2025-05-07T08:22:30.000Z</time>
      </trkpt>
      <trkpt lat="43.49398" lon="5.30952">
        <ele>176.5</ele>
        <time>2025-05-07T08:22:33.000Z</time>
      </trkpt>
      <trkpt lat="43.49399" lon="5.30954">
        <ele>176.5</ele>
        <time>2025-05-07T08:22:36.000Z</time>
      </trkpt>
      <trkpt lat="43.494" lon="5.30957">
        <ele>176.5</ele>
        <time>2025-05-07T08:22:39.000Z</time>
      </trkpt>
      <trkpt lat="43.49402" lon="5.3096">
        <ele>176.4</ele>
        <time>2025-05-07T08:22:41.000Z</time>
      </trkpt>
      <trkpt lat="43.49403" lon="5.30962">
        <ele>176.4</ele>
        <time>2025-05-07T08:22:43.000Z</time>
      </trkpt>
      <trkpt lat="43.49405" lon="5.30964">
        <ele>176.3</ele>
        <time>2025-05-07T08:22:45.000Z</time>
      </trkpt>
      <trkpt lat="43.49406" lon="5.30967">
        <ele>176.2</ele>
        <time>2025-05-07T08:22:47.000Z</time>
      </trkpt>
      <trkpt lat="43.49408" lon="5.3097">
        <ele>176.1</ele>
        <time>2025-05-07T08:22:50.000Z</time>
      </trkpt>
      <trkpt lat="43.49409" lon="5.30973">
        <ele>176</ele>
        <time>2025-05-07T08:22:52.000Z</time>
      </trkpt>
      <trkpt lat="43.4941" lon="5.30975">
        <ele>175.9</ele>
        <time>2025-05-07T08:22:54.000Z</time>
      </trkpt>
      <trkpt lat="43.49411" lon="5.30977">
        <ele>175.8</ele>
        <time>2025-05-07T08:22:56.000Z</time>
      </trkpt>
      <trkpt lat="43.49412" lon="5.3098">
        <ele>175.7</ele>
        <time>2025-05-07T08:23:00.000Z</time>
      </trkpt>
      <trkpt lat="43.49413" lon="5.30982">
        <ele>175.6</ele>
        <time>2025-05-07T08:23:02.000Z</time>
      </trkpt>
      <trkpt lat="43.49414" lon="5.30985">
        <ele>175.6</ele>
        <time>2025-05-07T08:23:04.000Z</time>
      </trkpt>
      <trkpt lat="43.49416" lon="5.30987">
        <ele>175.5</ele>
        <time>2025-05-07T08:23:06.000Z</time>
      </trkpt>
      <trkpt lat="43.49417" lon="5.30989">
        <ele>175.4</ele>
        <time>2025-05-07T08:23:08.000Z</time>
      </trkpt>
      <trkpt lat="43.49419" lon="5.30992">
        <ele>175.4</ele>
        <time>2025-05-07T08:23:10.000Z</time>
      </trkpt>
      <trkpt lat="43.49421" lon="5.30994">
        <ele>175.4</ele>
        <time>2025-05-07T08:23:12.000Z</time>
      </trkpt>
      <trkpt lat="43.49422" lon="5.30997">
        <ele>175.3</ele>
        <time>2025-05-07T08:23:14.000Z</time>
      </trkpt>
      <trkpt lat="43.49424" lon="5.30999">
        <ele>175.3</ele>
        <time>2025-05-07T08:23:16.000Z</time>
      </trkpt>
      <trkpt lat="43.49426" lon="5.31001">
        <ele>175.3</ele>
        <time>2025-05-07T08:23:18.000Z</time>
      </trkpt>
      <trkpt lat="43.49427" lon="5.31004">
        <ele>175.3</ele>
        <time>2025-05-07T08:23:20.000Z</time>
      </trkpt>
      <trkpt lat="43.49428" lon="5.31006">
        <ele>175.3</ele>
        <time>2025-05-07T08:23:22.000Z</time>
      </trkpt>
      <trkpt lat="43.4943" lon="5.31009">
        <ele>175.3</ele>
        <time>2025-05-07T08:23:24.000Z</time>
      </trkpt>
      <trkpt lat="43.49431" lon="5.31011">
        <ele>175.3</ele>
        <time>2025-05-07T08:23:26.000Z</time>
      </trkpt>
      <trkpt lat="43.49433" lon="5.31012">
        <ele>175.3</ele>
        <time>2025-05-07T08:23:28.000Z</time>
      </trkpt>
      <trkpt lat="43.49434" lon="5.31014">
        <ele>175.3</ele>
        <time>2025-05-07T08:23:30.000Z</time>
      </trkpt>
      <trkpt lat="43.49436" lon="5.31016">
        <ele>175.3</ele>
        <time>2025-05-07T08:23:32.000Z</time>
      </trkpt>
      <trkpt lat="43.49437" lon="5.31018">
        <ele>175.3</ele>
        <time>2025-05-07T08:23:34.000Z</time>
      </trkpt>
      <trkpt lat="43.49439" lon="5.31019">
        <ele>175.2</ele>
        <time>2025-05-07T08:23:36.000Z</time>
      </trkpt>
      <trkpt lat="43.4944" lon="5.31021">
        <ele>175.2</ele>
        <time>2025-05-07T08:23:38.000Z</time>
      </trkpt>
      <trkpt lat="43.49442" lon="5.31023">
        <ele>175.2</ele>
        <time>2025-05-07T08:23:41.000Z</time>
      </trkpt>
      <trkpt lat="43.49443" lon="5.31026">
        <ele>175.1</ele>
        <time>2025-05-07T08:23:44.000Z</time>
      </trkpt>
      <trkpt lat="43.49446" lon="5.31028">
        <ele>174.9</ele>
        <time>2025-05-07T08:23:47.000Z</time>
      </trkpt>
      <trkpt lat="43.49448" lon="5.31029">
        <ele>174.6</ele>
        <time>2025-05-07T08:23:50.000Z</time>
      </trkpt>
      <trkpt lat="43.49449" lon="5.31031">
        <ele>174.2</ele>
        <time>2025-05-07T08:23:52.000Z</time>
      </trkpt>
      <trkpt lat="43.49452" lon="5.31033">
        <ele>173.8</ele>
        <time>2025-05-07T08:23:55.000Z</time>
      </trkpt>
      <trkpt lat="43.49453" lon="5.31034">
        <ele>173.4</ele>
        <time>2025-05-07T08:23:57.000Z</time>
      </trkpt>
      <trkpt lat="43.49456" lon="5.31035">
        <ele>173</ele>
        <time>2025-05-07T08:24:00.000Z</time>
      </trkpt>
      <trkpt lat="43.49457" lon="5.31037">
        <ele>172.6</ele>
        <time>2025-05-07T08:24:03.000Z</time>
      </trkpt>
      <trkpt lat="43.49459" lon="5.31039">
        <ele>172.2</ele>
        <time>2025-05-07T08:24:07.000Z</time>
      </trkpt>
      <trkpt lat="43.49461" lon="5.31041">
        <ele>171.8</ele>
        <time>2025-05-07T08:24:09.000Z</time>
      </trkpt>
      <trkpt lat="43.49462" lon="5.31043">
        <ele>171.4</ele>
        <time>2025-05-07T08:24:16.000Z</time>
      </trkpt>
      <trkpt lat="43.49464" lon="5.31045">
        <ele>170.8</ele>
        <time>2025-05-07T08:24:19.000Z</time>
      </trkpt>
      <trkpt lat="43.49466" lon="5.31047">
        <ele>170.3</ele>
        <time>2025-05-07T08:24:22.000Z</time>
      </trkpt>
      <trkpt lat="43.49468" lon="5.31048">
        <ele>169.8</ele>
        <time>2025-05-07T08:24:26.000Z</time>
      </trkpt>
      <trkpt lat="43.49469" lon="5.3105">
        <ele>169.3</ele>
        <time>2025-05-07T08:24:29.000Z</time>
      </trkpt>
      <trkpt lat="43.49471" lon="5.31051">
        <ele>168.8</ele>
        <time>2025-05-07T08:24:31.000Z</time>
      </trkpt>
      <trkpt lat="43.49473" lon="5.31054">
        <ele>168.3</ele>
        <time>2025-05-07T08:24:34.000Z</time>
      </trkpt>
      <trkpt lat="43.49475" lon="5.31055">
        <ele>168.2</ele>
        <time>2025-05-07T08:24:36.000Z</time>
      </trkpt>
      <trkpt lat="43.49477" lon="5.31058">
        <ele>168.2</ele>
        <time>2025-05-07T08:24:39.000Z</time>
      </trkpt>
      <trkpt lat="43.49479" lon="5.31059">
        <ele>168.1</ele>
        <time>2025-05-07T08:24:41.000Z</time>
      </trkpt>
      <trkpt lat="43.4948" lon="5.31062">
        <ele>168</ele>
        <time>2025-05-07T08:24:43.000Z</time>
      </trkpt>
      <trkpt lat="43.49482" lon="5.31064">
        <ele>167.9</ele>
        <time>2025-05-07T08:24:45.000Z</time>
      </trkpt>
      <trkpt lat="43.49484" lon="5.31066">
        <ele>167.9</ele>
        <time>2025-05-07T08:24:47.000Z</time>
      </trkpt>
      <trkpt lat="43.49486" lon="5.31068">
        <ele>167.8</ele>
        <time>2025-05-07T08:24:50.000Z</time>
      </trkpt>
      <trkpt lat="43.49487" lon="5.3107">
        <ele>167.7</ele>
        <time>2025-05-07T08:24:52.000Z</time>
      </trkpt>
      <trkpt lat="43.49489" lon="5.31073">
        <ele>167.7</ele>
        <time>2025-05-07T08:24:55.000Z</time>
      </trkpt>
      <trkpt lat="43.49491" lon="5.31075">
        <ele>167.8</ele>
        <time>2025-05-07T08:24:59.000Z</time>
      </trkpt>
      <trkpt lat="43.49493" lon="5.31076">
        <ele>167.9</ele>
        <time>2025-05-07T08:25:01.000Z</time>
      </trkpt>
      <trkpt lat="43.49495" lon="5.31077">
        <ele>168</ele>
        <time>2025-05-07T08:25:03.000Z</time>
      </trkpt>
      <trkpt lat="43.49497" lon="5.31079">
        <ele>168.1</ele>
        <time>2025-05-07T08:25:05.000Z</time>
      </trkpt>
      <trkpt lat="43.49499" lon="5.31081">
        <ele>168</ele>
        <time>2025-05-07T08:25:09.000Z</time>
      </trkpt>
      <trkpt lat="43.49501" lon="5.31085">
        <ele>167.7</ele>
        <time>2025-05-07T08:25:42.000Z</time>
      </trkpt>
      <trkpt lat="43.49502" lon="5.31087">
        <ele>167</ele>
        <time>2025-05-07T08:25:51.000Z</time>
      </trkpt>
      <trkpt lat="43.49503" lon="5.31089">
        <ele>166.5</ele>
        <time>2025-05-07T08:25:55.000Z</time>
      </trkpt>
      <trkpt lat="43.49505" lon="5.3109">
        <ele>166.1</ele>
        <time>2025-05-07T08:26:01.000Z</time>
      </trkpt>
      <trkpt lat="43.49506" lon="5.31093">
        <ele>165.7</ele>
        <time>2025-05-07T08:26:09.000Z</time>
      </trkpt>
      <trkpt lat="43.49507" lon="5.31095">
        <ele>165.2</ele>
        <time>2025-05-07T08:26:18.000Z</time>
      </trkpt>
      <trkpt lat="43.49508" lon="5.31098">
        <ele>164.8</ele>
        <time>2025-05-07T08:26:21.000Z</time>
      </trkpt>
      <trkpt lat="43.49509" lon="5.31101">
        <ele>164.4</ele>
        <time>2025-05-07T08:26:31.000Z</time>
      </trkpt>
      <trkpt lat="43.49511" lon="5.31101">
        <ele>164.1</ele>
        <time>2025-05-07T08:26:35.000Z</time>
      </trkpt>
      <trkpt lat="43.49513" lon="5.31102">
        <ele>163.7</ele>
        <time>2025-05-07T08:26:42.000Z</time>
      </trkpt>
      <trkpt lat="43.49515" lon="5.31104">
        <ele>163.4</ele>
        <time>2025-05-07T08:26:44.000Z</time>
      </trkpt>
      <trkpt lat="43.49517" lon="5.31105">
        <ele>163.1</ele>
        <time>2025-05-07T08:26:46.000Z</time>
      </trkpt>
      <trkpt lat="43.49518" lon="5.31107">
        <ele>162.9</ele>
        <time>2025-05-07T08:26:48.000Z</time>
      </trkpt>
      <trkpt lat="43.4952" lon="5.31109">
        <ele>162.6</ele>
        <time>2025-05-07T08:26:51.000Z</time>
      </trkpt>
      <trkpt lat="43.49522" lon="5.31112">
        <ele>162.4</ele>
        <time>2025-05-07T08:26:53.000Z</time>
      </trkpt>
      <trkpt lat="43.49521" lon="5.31114">
        <ele>162.5</ele>
        <time>2025-05-07T08:26:57.000Z</time>
      </trkpt>
      <trkpt lat="43.49519" lon="5.31116">
        <ele>162.6</ele>
        <time>2025-05-07T08:27:00.000Z</time>
      </trkpt>
      <trkpt lat="43.49518" lon="5.31119">
        <ele>162.6</ele>
        <time>2025-05-07T08:27:03.000Z</time>
      </trkpt>
      <trkpt lat="43.49518" lon="5.31122">
        <ele>162.5</ele>
        <time>2025-05-07T08:27:05.000Z</time>
      </trkpt>
      <trkpt lat="43.49518" lon="5.31125">
        <ele>162.5</ele>
        <time>2025-05-07T08:27:07.000Z</time>
      </trkpt>
      <trkpt lat="43.49517" lon="5.31128">
        <ele>162.3</ele>
        <time>2025-05-07T08:27:09.000Z</time>
      </trkpt>
      <trkpt lat="43.49516" lon="5.3113">
        <ele>162.2</ele>
        <time>2025-05-07T08:27:11.000Z</time>
      </trkpt>
      <trkpt lat="43.49515" lon="5.31133">
        <ele>162</ele>
        <time>2025-05-07T08:27:13.000Z</time>
      </trkpt>
      <trkpt lat="43.49513" lon="5.31136">
        <ele>161.6</ele>
        <time>2025-05-07T08:27:15.000Z</time>
      </trkpt>
      <trkpt lat="43.49512" lon="5.31139">
        <ele>161.1</ele>
        <time>2025-05-07T08:27:18.000Z</time>
      </trkpt>
      <trkpt lat="43.4951" lon="5.31141">
        <ele>160.8</ele>
        <time>2025-05-07T08:27:20.000Z</time>
      </trkpt>
      <trkpt lat="43.49509" lon="5.31144">
        <ele>160.5</ele>
        <time>2025-05-07T08:27:22.000Z</time>
      </trkpt>
      <trkpt lat="43.49508" lon="5.31147">
        <ele>160.3</ele>
        <time>2025-05-07T08:27:25.000Z</time>
      </trkpt>
      <trkpt lat="43.49508" lon="5.3115">
        <ele>160.2</ele>
        <time>2025-05-07T08:27:28.000Z</time>
      </trkpt>
      <trkpt lat="43.49507" lon="5.31153">
        <ele>159.9</ele>
        <time>2025-05-07T08:27:30.000Z</time>
      </trkpt>
      <trkpt lat="43.49505" lon="5.31155">
        <ele>159.7</ele>
        <time>2025-05-07T08:27:32.000Z</time>
      </trkpt>
      <trkpt lat="43.49504" lon="5.31158">
        <ele>159.5</ele>
        <time>2025-05-07T08:27:34.000Z</time>
      </trkpt>
      <trkpt lat="43.49503" lon="5.31161">
        <ele>159.4</ele>
        <time>2025-05-07T08:27:36.000Z</time>
      </trkpt>
      <trkpt lat="43.49503" lon="5.31165">
        <ele>159.3</ele>
        <time>2025-05-07T08:27:39.000Z</time>
      </trkpt>
      <trkpt lat="43.49503" lon="5.31168">
        <ele>159.4</ele>
        <time>2025-05-07T08:27:41.000Z</time>
      </trkpt>
      <trkpt lat="43.49504" lon="5.31172">
        <ele>159.5</ele>
        <time>2025-05-07T08:27:43.000Z</time>
      </trkpt>
      <trkpt lat="43.49503" lon="5.31174">
        <ele>159.5</ele>
        <time>2025-05-07T08:27:45.000Z</time>
      </trkpt>
      <trkpt lat="43.49504" lon="5.31177">
        <ele>159.7</ele>
        <time>2025-05-07T08:27:47.000Z</time>
      </trkpt>
      <trkpt lat="43.49505" lon="5.3118">
        <ele>159.8</ele>
        <time>2025-05-07T08:27:49.000Z</time>
      </trkpt>
      <trkpt lat="43.49506" lon="5.31182">
        <ele>159.8</ele>
        <time>2025-05-07T08:27:51.000Z</time>
      </trkpt>
      <trkpt lat="43.49507" lon="5.31185">
        <ele>159.9</ele>
        <time>2025-05-07T08:27:54.000Z</time>
      </trkpt>
      <trkpt lat="43.49508" lon="5.31188">
        <ele>160</ele>
        <time>2025-05-07T08:27:57.000Z</time>
      </trkpt>
      <trkpt lat="43.4951" lon="5.3119">
        <ele>160</ele>
        <time>2025-05-07T08:28:18.000Z</time>
      </trkpt>
      <trkpt lat="43.4951" lon="5.31193">
        <ele>160</ele>
        <time>2025-05-07T08:28:29.000Z</time>
      </trkpt>
      <trkpt lat="43.49509" lon="5.31196">
        <ele>160.1</ele>
        <time>2025-05-07T08:29:19.000Z</time>
      </trkpt>
      <trkpt lat="43.49511" lon="5.31196">
        <ele>160.2</ele>
        <time>2025-05-07T08:29:27.000Z</time>
      </trkpt>
      <trkpt lat="43.49513" lon="5.31197">
        <ele>160.3</ele>
        <time>2025-05-07T08:29:31.000Z</time>
      </trkpt>
      <trkpt lat="43.49515" lon="5.31197">
        <ele>160.3</ele>
        <time>2025-05-07T08:29:34.000Z</time>
      </trkpt>
      <trkpt lat="43.49516" lon="5.312">
        <ele>160.7</ele>
        <time>2025-05-07T08:29:37.000Z</time>
      </trkpt>
      <trkpt lat="43.49518" lon="5.31201">
        <ele>161</ele>
        <time>2025-05-07T08:29:39.000Z</time>
      </trkpt>
      <trkpt lat="43.4952" lon="5.31205">
        <ele>161.5</ele>
        <time>2025-05-07T08:29:42.000Z</time>
      </trkpt>
      <trkpt lat="43.49521" lon="5.31207">
        <ele>162</ele>
        <time>2025-05-07T08:29:46.000Z</time>
      </trkpt>
      <trkpt lat="43.49522" lon="5.3121">
        <ele>162.4</ele>
        <time>2025-05-07T08:29:48.000Z</time>
      </trkpt>
      <trkpt lat="43.49522" lon="5.31213">
        <ele>162.9</ele>
        <time>2025-05-07T08:29:52.000Z</time>
      </trkpt>
      <trkpt lat="43.49524" lon="5.31215">
        <ele>163.4</ele>
        <time>2025-05-07T08:29:56.000Z</time>
      </trkpt>
      <trkpt lat="43.49525" lon="5.31218">
        <ele>164</ele>
        <time>2025-05-07T08:30:00.000Z</time>
      </trkpt>
      <trkpt lat="43.49527" lon="5.31219">
        <ele>164.4</ele>
        <time>2025-05-07T08:30:02.000Z</time>
      </trkpt>
      <trkpt lat="43.49527" lon="5.31222">
        <ele>164.9</ele>
        <time>2025-05-07T08:30:05.000Z</time>
      </trkpt>
      <trkpt lat="43.49527" lon="5.31225">
        <ele>165.3</ele>
        <time>2025-05-07T08:30:08.000Z</time>
      </trkpt>
      <trkpt lat="43.49529" lon="5.31228">
        <ele>165.8</ele>
        <time>2025-05-07T08:30:11.000Z</time>
      </trkpt>
      <trkpt lat="43.4953" lon="5.3123">
        <ele>166.2</ele>
        <time>2025-05-07T08:30:14.000Z</time>
      </trkpt>
      <trkpt lat="43.49531" lon="5.31233">
        <ele>166.7</ele>
        <time>2025-05-07T08:30:17.000Z</time>
      </trkpt>
      <trkpt lat="43.49532" lon="5.31236">
        <ele>167.1</ele>
        <time>2025-05-07T08:30:20.000Z</time>
      </trkpt>
      <trkpt lat="43.49532" lon="5.31239">
        <ele>167.5</ele>
        <time>2025-05-07T08:30:23.000Z</time>
      </trkpt>
      <trkpt lat="43.49533" lon="5.31242">
        <ele>167.9</ele>
        <time>2025-05-07T08:30:25.000Z</time>
      </trkpt>
      <trkpt lat="43.49534" lon="5.31245">
        <ele>168.3</ele>
        <time>2025-05-07T08:30:28.000Z</time>
      </trkpt>
      <trkpt lat="43.49534" lon="5.31248">
        <ele>168.6</ele>
        <time>2025-05-07T08:30:32.000Z</time>
      </trkpt>
      <trkpt lat="43.49535" lon="5.31251">
        <ele>169.1</ele>
        <time>2025-05-07T08:30:36.000Z</time>
      </trkpt>
      <trkpt lat="43.49535" lon="5.31254">
        <ele>169.4</ele>
        <time>2025-05-07T08:30:39.000Z</time>
      </trkpt>
      <trkpt lat="43.49535" lon="5.31257">
        <ele>169.7</ele>
        <time>2025-05-07T08:30:42.000Z</time>
      </trkpt>
      <trkpt lat="43.49536" lon="5.31259">
        <ele>170</ele>
        <time>2025-05-07T08:30:44.000Z</time>
      </trkpt>
      <trkpt lat="43.49538" lon="5.31263">
        <ele>170.5</ele>
        <time>2025-05-07T08:30:50.000Z</time>
      </trkpt>
      <trkpt lat="43.49538" lon="5.31266">
        <ele>170.8</ele>
        <time>2025-05-07T08:30:53.000Z</time>
      </trkpt>
      <trkpt lat="43.4954" lon="5.31269">
        <ele>171.1</ele>
        <time>2025-05-07T08:30:56.000Z</time>
      </trkpt>
      <trkpt lat="43.4954" lon="5.31271">
        <ele>171.4</ele>
        <time>2025-05-07T08:30:59.000Z</time>
      </trkpt>
      <trkpt lat="43.49541" lon="5.31274">
        <ele>171.7</ele>
        <time>2025-05-07T08:31:01.000Z</time>
      </trkpt>
      <trkpt lat="43.49542" lon="5.31277">
        <ele>172</ele>
        <time>2025-05-07T08:31:04.000Z</time>
      </trkpt>
      <trkpt lat="43.49544" lon="5.31278">
        <ele>172.2</ele>
        <time>2025-05-07T08:31:07.000Z</time>
      </trkpt>
      <trkpt lat="43.49545" lon="5.31281">
        <ele>172.2</ele>
        <time>2025-05-07T08:31:10.000Z</time>
      </trkpt>
      <trkpt lat="43.49546" lon="5.31284">
        <ele>172.2</ele>
        <time>2025-05-07T08:31:13.000Z</time>
      </trkpt>
      <trkpt lat="43.49548" lon="5.31286">
        <ele>172.2</ele>
        <time>2025-05-07T08:31:15.000Z</time>
      </trkpt>
      <trkpt lat="43.49549" lon="5.31288">
        <ele>172.2</ele>
        <time>2025-05-07T08:31:19.000Z</time>
      </trkpt>
      <trkpt lat="43.4955" lon="5.3129">
        <ele>172.1</ele>
        <time>2025-05-07T08:31:25.000Z</time>
      </trkpt>
      <trkpt lat="43.49554" lon="5.31294">
        <ele>171.9</ele>
        <time>2025-05-07T08:32:30.000Z</time>
      </trkpt>
      <trkpt lat="43.49556" lon="5.31294">
        <ele>171.7</ele>
        <time>2025-05-07T08:32:33.000Z</time>
      </trkpt>
      <trkpt lat="43.49559" lon="5.31295">
        <ele>171.3</ele>
        <time>2025-05-07T08:32:36.000Z</time>
      </trkpt>
      <trkpt lat="43.49561" lon="5.31294">
        <ele>170.8</ele>
        <time>2025-05-07T08:32:42.000Z</time>
      </trkpt>
      <trkpt lat="43.49563" lon="5.31295">
        <ele>170.5</ele>
        <time>2025-05-07T08:33:06.000Z</time>
      </trkpt>
      <trkpt lat="43.49565" lon="5.31293">
        <ele>170.2</ele>
        <time>2025-05-07T08:33:08.000Z</time>
      </trkpt>
      <trkpt lat="43.49568" lon="5.31292">
        <ele>169.8</ele>
        <time>2025-05-07T08:33:14.000Z</time>
      </trkpt>
      <trkpt lat="43.49571" lon="5.31292">
        <ele>169.5</ele>
        <time>2025-05-07T08:33:17.000Z</time>
      </trkpt>
      <trkpt lat="43.49573" lon="5.31294">
        <ele>168.9</ele>
        <time>2025-05-07T08:33:20.000Z</time>
      </trkpt>
      <trkpt lat="43.49575" lon="5.31295">
        <ele>168.3</ele>
        <time>2025-05-07T08:33:23.000Z</time>
      </trkpt>
      <trkpt lat="43.49577" lon="5.31294">
        <ele>168.1</ele>
        <time>2025-05-07T08:33:25.000Z</time>
      </trkpt>
      <trkpt lat="43.4958" lon="5.31294">
        <ele>167.6</ele>
        <time>2025-05-07T08:33:28.000Z</time>
      </trkpt>
      <trkpt lat="43.49582" lon="5.31294">
        <ele>167.4</ele>
        <time>2025-05-07T08:33:30.000Z</time>
      </trkpt>
      <trkpt lat="43.49584" lon="5.31294">
        <ele>167</ele>
        <time>2025-05-07T08:33:33.000Z</time>
      </trkpt>
      <trkpt lat="43.49586" lon="5.31295">
        <ele>166.7</ele>
        <time>2025-05-07T08:33:35.000Z</time>
      </trkpt>
      <trkpt lat="43.49588" lon="5.31295">
        <ele>166.5</ele>
        <time>2025-05-07T08:33:38.000Z</time>
      </trkpt>
      <trkpt lat="43.4959" lon="5.31295">
        <ele>166.2</ele>
        <time>2025-05-07T08:33:40.000Z</time>
      </trkpt>
      <trkpt lat="43.49594" lon="5.31296">
        <ele>165.8</ele>
        <time>2025-05-07T08:33:44.000Z</time>
      </trkpt>
      <trkpt lat="43.49597" lon="5.31295">
        <ele>165.5</ele>
        <time>2025-05-07T08:33:47.000Z</time>
      </trkpt>
      <trkpt lat="43.49599" lon="5.31295">
        <ele>165.3</ele>
        <time>2025-05-07T08:33:49.000Z</time>
      </trkpt>
      <trkpt lat="43.49602" lon="5.31296">
        <ele>165</ele>
        <time>2025-05-07T08:33:51.000Z</time>
      </trkpt>
      <trkpt lat="43.49604" lon="5.31297">
        <ele>164.6</ele>
        <time>2025-05-07T08:33:54.000Z</time>
      </trkpt>
      <trkpt lat="43.49606" lon="5.31298">
        <ele>164.3</ele>
        <time>2025-05-07T08:33:56.000Z</time>
      </trkpt>
      <trkpt lat="43.49607" lon="5.31301">
        <ele>163.9</ele>
        <time>2025-05-07T08:33:59.000Z</time>
      </trkpt>
      <trkpt lat="43.49607" lon="5.31303">
        <ele>163.6</ele>
        <time>2025-05-07T08:34:01.000Z</time>
      </trkpt>
      <trkpt lat="43.49606" lon="5.31306">
        <ele>163.4</ele>
        <time>2025-05-07T08:34:03.000Z</time>
      </trkpt>
      <trkpt lat="43.49604" lon="5.31308">
        <ele>163.6</ele>
        <time>2025-05-07T08:34:05.000Z</time>
      </trkpt>
      <trkpt lat="43.49602" lon="5.31309">
        <ele>163.6</ele>
        <time>2025-05-07T08:34:07.000Z</time>
      </trkpt>
      <trkpt lat="43.496" lon="5.31311">
        <ele>163.6</ele>
        <time>2025-05-07T08:34:09.000Z</time>
      </trkpt>
      <trkpt lat="43.49599" lon="5.31314">
        <ele>163.6</ele>
        <time>2025-05-07T08:34:13.000Z</time>
      </trkpt>
      <trkpt lat="43.49597" lon="5.31317">
        <ele>163.4</ele>
        <time>2025-05-07T08:34:15.000Z</time>
      </trkpt>
      <trkpt lat="43.49595" lon="5.31319">
        <ele>163.2</ele>
        <time>2025-05-07T08:34:17.000Z</time>
      </trkpt>
      <trkpt lat="43.49593" lon="5.31321">
        <ele>162.9</ele>
        <time>2025-05-07T08:34:19.000Z</time>
      </trkpt>
      <trkpt lat="43.49591" lon="5.31323">
        <ele>162.6</ele>
        <time>2025-05-07T08:34:21.000Z</time>
      </trkpt>
      <trkpt lat="43.4959" lon="5.31326">
        <ele>162.1</ele>
        <time>2025-05-07T08:34:23.000Z</time>
      </trkpt>
      <trkpt lat="43.49589" lon="5.31328">
        <ele>161.6</ele>
        <time>2025-05-07T08:34:25.000Z</time>
      </trkpt>
      <trkpt lat="43.49587" lon="5.31332">
        <ele>161</ele>
        <time>2025-05-07T08:34:28.000Z</time>
      </trkpt>
      <trkpt lat="43.49588" lon="5.31335">
        <ele>160.7</ele>
        <time>2025-05-07T08:34:32.000Z</time>
      </trkpt>
      <trkpt lat="43.49589" lon="5.31338">
        <ele>160.6</ele>
        <time>2025-05-07T08:34:34.000Z</time>
      </trkpt>
      <trkpt lat="43.49591" lon="5.31342">
        <ele>160.5</ele>
        <time>2025-05-07T08:34:36.000Z</time>
      </trkpt>
      <trkpt lat="43.49594" lon="5.31345">
        <ele>160.4</ele>
        <time>2025-05-07T08:34:39.000Z</time>
      </trkpt>
      <trkpt lat="43.49596" lon="5.31347">
        <ele>160.4</ele>
        <time>2025-05-07T08:34:41.000Z</time>
      </trkpt>
      <trkpt lat="43.49598" lon="5.31348">
        <ele>160.4</ele>
        <time>2025-05-07T08:34:43.000Z</time>
      </trkpt>
      <trkpt lat="43.496" lon="5.3135">
        <ele>160.3</ele>
        <time>2025-05-07T08:34:45.000Z</time>
      </trkpt>
      <trkpt lat="43.49602" lon="5.31351">
        <ele>160.4</ele>
        <time>2025-05-07T08:34:47.000Z</time>
      </trkpt>
      <trkpt lat="43.49604" lon="5.31351">
        <ele>160.5</ele>
        <time>2025-05-07T08:34:49.000Z</time>
      </trkpt>
      <trkpt lat="43.49606" lon="5.31352">
        <ele>160.6</ele>
        <time>2025-05-07T08:34:51.000Z</time>
      </trkpt>
      <trkpt lat="43.49608" lon="5.31353">
        <ele>160.6</ele>
        <time>2025-05-07T08:34:53.000Z</time>
      </trkpt>
      <trkpt lat="43.49611" lon="5.31353">
        <ele>160.7</ele>
        <time>2025-05-07T08:34:55.000Z</time>
      </trkpt>
      <trkpt lat="43.49614" lon="5.31354">
        <ele>160.5</ele>
        <time>2025-05-07T08:34:57.000Z</time>
      </trkpt>
      <trkpt lat="43.49617" lon="5.31355">
        <ele>160.5</ele>
        <time>2025-05-07T08:34:59.000Z</time>
      </trkpt>
      <trkpt lat="43.4962" lon="5.31355">
        <ele>160.5</ele>
        <time>2025-05-07T08:35:01.000Z</time>
      </trkpt>
      <trkpt lat="43.49622" lon="5.31354">
        <ele>160.7</ele>
        <time>2025-05-07T08:35:03.000Z</time>
      </trkpt>
      <trkpt lat="43.49624" lon="5.31354">
        <ele>160.8</ele>
        <time>2025-05-07T08:35:05.000Z</time>
      </trkpt>
      <trkpt lat="43.49627" lon="5.31353">
        <ele>161.1</ele>
        <time>2025-05-07T08:35:07.000Z</time>
      </trkpt>
      <trkpt lat="43.49629" lon="5.31353">
        <ele>161.2</ele>
        <time>2025-05-07T08:35:09.000Z</time>
      </trkpt>
      <trkpt lat="43.49631" lon="5.31352">
        <ele>161.4</ele>
        <time>2025-05-07T08:35:11.000Z</time>
      </trkpt>
      <trkpt lat="43.49634" lon="5.31352">
        <ele>161.5</ele>
        <time>2025-05-07T08:35:13.000Z</time>
      </trkpt>
      <trkpt lat="43.49636" lon="5.31351">
        <ele>161.8</ele>
        <time>2025-05-07T08:35:15.000Z</time>
      </trkpt>
      <trkpt lat="43.49638" lon="5.31351">
        <ele>161.8</ele>
        <time>2025-05-07T08:35:17.000Z</time>
      </trkpt>
      <trkpt lat="43.4964" lon="5.31352">
        <ele>161.8</ele>
        <time>2025-05-07T08:35:19.000Z</time>
      </trkpt>
      <trkpt lat="43.49643" lon="5.31351">
        <ele>162</ele>
        <time>2025-05-07T08:35:21.000Z</time>
      </trkpt>
      <trkpt lat="43.49645" lon="5.31351">
        <ele>162</ele>
        <time>2025-05-07T08:35:23.000Z</time>
      </trkpt>
      <trkpt lat="43.49647" lon="5.31351">
        <ele>162</ele>
        <time>2025-05-07T08:35:25.000Z</time>
      </trkpt>
      <trkpt lat="43.4965" lon="5.31352">
        <ele>162</ele>
        <time>2025-05-07T08:35:27.000Z</time>
      </trkpt>
      <trkpt lat="43.49653" lon="5.31351">
        <ele>162.1</ele>
        <time>2025-05-07T08:35:30.000Z</time>
      </trkpt>
      <trkpt lat="43.49656" lon="5.31351">
        <ele>162.4</ele>
        <time>2025-05-07T08:35:32.000Z</time>
      </trkpt>
      <trkpt lat="43.49658" lon="5.3135">
        <ele>162.6</ele>
        <time>2025-05-07T08:35:34.000Z</time>
      </trkpt>
      <trkpt lat="43.4966" lon="5.31351">
        <ele>162.5</ele>
        <time>2025-05-07T08:35:36.000Z</time>
      </trkpt>
      <trkpt lat="43.49663" lon="5.31351">
        <ele>162.4</ele>
        <time>2025-05-07T08:35:38.000Z</time>
      </trkpt>
      <trkpt lat="43.49665" lon="5.31352">
        <ele>162.3</ele>
        <time>2025-05-07T08:35:40.000Z</time>
      </trkpt>
      <trkpt lat="43.49667" lon="5.31352">
        <ele>162.4</ele>
        <time>2025-05-07T08:35:42.000Z</time>
      </trkpt>
      <trkpt lat="43.4967" lon="5.31353">
        <ele>162.1</ele>
        <time>2025-05-07T08:35:44.000Z</time>
      </trkpt>
      <trkpt lat="43.49672" lon="5.31354">
        <ele>161.8</ele>
        <time>2025-05-07T08:35:46.000Z</time>
      </trkpt>
      <trkpt lat="43.49675" lon="5.31354">
        <ele>161.6</ele>
        <time>2025-05-07T08:35:49.000Z</time>
      </trkpt>
      <trkpt lat="43.49677" lon="5.31355">
        <ele>161.6</ele>
        <time>2025-05-07T08:35:51.000Z</time>
      </trkpt>
      <trkpt lat="43.49679" lon="5.31354">
        <ele>161.7</ele>
        <time>2025-05-07T08:35:54.000Z</time>
      </trkpt>
      <trkpt lat="43.49681" lon="5.31354">
        <ele>161.6</ele>
        <time>2025-05-07T08:35:56.000Z</time>
      </trkpt>
      <trkpt lat="43.49684" lon="5.31355">
        <ele>161.5</ele>
        <time>2025-05-07T08:35:58.000Z</time>
      </trkpt>
      <trkpt lat="43.49686" lon="5.31355">
        <ele>161.5</ele>
        <time>2025-05-07T08:36:01.000Z</time>
      </trkpt>
      <trkpt lat="43.49688" lon="5.31355">
        <ele>161.3</ele>
        <time>2025-05-07T08:36:03.000Z</time>
      </trkpt>
      <trkpt lat="43.49691" lon="5.31356">
        <ele>161.2</ele>
        <time>2025-05-07T08:36:05.000Z</time>
      </trkpt>
      <trkpt lat="43.49693" lon="5.31356">
        <ele>161</ele>
        <time>2025-05-07T08:36:07.000Z</time>
      </trkpt>
      <trkpt lat="43.49695" lon="5.31357">
        <ele>160.9</ele>
        <time>2025-05-07T08:36:09.000Z</time>
      </trkpt>
      <trkpt lat="43.49698" lon="5.31358">
        <ele>160.6</ele>
        <time>2025-05-07T08:36:11.000Z</time>
      </trkpt>
      <trkpt lat="43.49701" lon="5.31358">
        <ele>160.6</ele>
        <time>2025-05-07T08:36:13.000Z</time>
      </trkpt>
      <trkpt lat="43.49702" lon="5.31359">
        <ele>160.5</ele>
        <time>2025-05-07T08:36:15.000Z</time>
      </trkpt>
      <trkpt lat="43.49706" lon="5.31358">
        <ele>160.6</ele>
        <time>2025-05-07T08:36:18.000Z</time>
      </trkpt>
      <trkpt lat="43.49709" lon="5.31358">
        <ele>160.6</ele>
        <time>2025-05-07T08:36:20.000Z</time>
      </trkpt>
      <trkpt lat="43.49711" lon="5.31358">
        <ele>160.6</ele>
        <time>2025-05-07T08:36:22.000Z</time>
      </trkpt>
      <trkpt lat="43.49713" lon="5.31358">
        <ele>160.5</ele>
        <time>2025-05-07T08:36:24.000Z</time>
      </trkpt>
      <trkpt lat="43.49715" lon="5.31357">
        <ele>160.6</ele>
        <time>2025-05-07T08:36:26.000Z</time>
      </trkpt>
      <trkpt lat="43.49717" lon="5.31356">
        <ele>160.7</ele>
        <time>2025-05-07T08:36:28.000Z</time>
      </trkpt>
      <trkpt lat="43.49719" lon="5.31356">
        <ele>160.8</ele>
        <time>2025-05-07T08:36:30.000Z</time>
      </trkpt>
      <trkpt lat="43.49721" lon="5.31355">
        <ele>161</ele>
        <time>2025-05-07T08:36:32.000Z</time>
      </trkpt>
      <trkpt lat="43.49723" lon="5.31353">
        <ele>161.1</ele>
        <time>2025-05-07T08:36:34.000Z</time>
      </trkpt>
      <trkpt lat="43.49726" lon="5.31353">
        <ele>161</ele>
        <time>2025-05-07T08:36:36.000Z</time>
      </trkpt>
      <trkpt lat="43.49728" lon="5.31352">
        <ele>161</ele>
        <time>2025-05-07T08:36:38.000Z</time>
      </trkpt>
      <trkpt lat="43.4973" lon="5.31351">
        <ele>161</ele>
        <time>2025-05-07T08:36:40.000Z</time>
      </trkpt>
      <trkpt lat="43.49732" lon="5.3135">
        <ele>161</ele>
        <time>2025-05-07T08:36:42.000Z</time>
      </trkpt>
      <trkpt lat="43.49734" lon="5.31349">
        <ele>161</ele>
        <time>2025-05-07T08:36:45.000Z</time>
      </trkpt>
      <trkpt lat="43.49736" lon="5.31349">
        <ele>160.8</ele>
        <time>2025-05-07T08:36:47.000Z</time>
      </trkpt>
      <trkpt lat="43.49738" lon="5.31347">
        <ele>160.8</ele>
        <time>2025-05-07T08:36:49.000Z</time>
      </trkpt>
      <trkpt lat="43.49741" lon="5.31347">
        <ele>160.7</ele>
        <time>2025-05-07T08:36:51.000Z</time>
      </trkpt>
      <trkpt lat="43.49743" lon="5.31347">
        <ele>160.5</ele>
        <time>2025-05-07T08:36:53.000Z</time>
      </trkpt>
      <trkpt lat="43.49745" lon="5.31346">
        <ele>160.4</ele>
        <time>2025-05-07T08:36:55.000Z</time>
      </trkpt>
      <trkpt lat="43.49748" lon="5.31347">
        <ele>160.2</ele>
        <time>2025-05-07T08:36:57.000Z</time>
      </trkpt>
      <trkpt lat="43.4975" lon="5.31347">
        <ele>160</ele>
        <time>2025-05-07T08:36:59.000Z</time>
      </trkpt>
      <trkpt lat="43.49753" lon="5.31345">
        <ele>160.2</ele>
        <time>2025-05-07T08:37:02.000Z</time>
      </trkpt>
      <trkpt lat="43.49755" lon="5.31344">
        <ele>160.2</ele>
        <time>2025-05-07T08:37:04.000Z</time>
      </trkpt>
      <trkpt lat="43.49756" lon="5.31342">
        <ele>160.4</ele>
        <time>2025-05-07T08:37:05.000Z</time>
      </trkpt>
      <trkpt lat="43.49758" lon="5.31343">
        <ele>160.3</ele>
        <time>2025-05-07T08:37:07.000Z</time>
      </trkpt>
      <trkpt lat="43.4976" lon="5.31343">
        <ele>160.3</ele>
        <time>2025-05-07T08:37:09.000Z</time>
      </trkpt>
      <trkpt lat="43.49762" lon="5.31341">
        <ele>160.5</ele>
        <time>2025-05-07T08:37:12.000Z</time>
      </trkpt>
      <trkpt lat="43.49764" lon="5.31339">
        <ele>160.6</ele>
        <time>2025-05-07T08:37:15.000Z</time>
      </trkpt>
      <trkpt lat="43.49765" lon="5.31338">
        <ele>160.7</ele>
        <time>2025-05-07T08:37:17.000Z</time>
      </trkpt>
      <trkpt lat="43.49767" lon="5.31338">
        <ele>160.7</ele>
        <time>2025-05-07T08:37:19.000Z</time>
      </trkpt>
      <trkpt lat="43.4977" lon="5.31337">
        <ele>160.7</ele>
        <time>2025-05-07T08:37:22.000Z</time>
      </trkpt>
      <trkpt lat="43.49772" lon="5.31337">
        <ele>160.7</ele>
        <time>2025-05-07T08:37:24.000Z</time>
      </trkpt>
      <trkpt lat="43.49774" lon="5.31337">
        <ele>160.7</ele>
        <time>2025-05-07T08:37:26.000Z</time>
      </trkpt>
      <trkpt lat="43.49776" lon="5.31337">
        <ele>160.7</ele>
        <time>2025-05-07T08:37:28.000Z</time>
      </trkpt>
      <trkpt lat="43.49778" lon="5.31338">
        <ele>160.7</ele>
        <time>2025-05-07T08:37:30.000Z</time>
      </trkpt>
      <trkpt lat="43.49781" lon="5.31338">
        <ele>160.7</ele>
        <time>2025-05-07T08:37:32.000Z</time>
      </trkpt>
      <trkpt lat="43.49783" lon="5.31338">
        <ele>160.7</ele>
        <time>2025-05-07T08:37:34.000Z</time>
      </trkpt>
      <trkpt lat="43.49785" lon="5.31339">
        <ele>160.7</ele>
        <time>2025-05-07T08:37:36.000Z</time>
      </trkpt>
      <trkpt lat="43.49787" lon="5.3134">
        <ele>160.6</ele>
        <time>2025-05-07T08:37:38.000Z</time>
      </trkpt>
      <trkpt lat="43.4979" lon="5.31341">
        <ele>160.6</ele>
        <time>2025-05-07T08:37:41.000Z</time>
      </trkpt>
      <trkpt lat="43.49792" lon="5.31341">
        <ele>160.6</ele>
        <time>2025-05-07T08:37:43.000Z</time>
      </trkpt>
      <trkpt lat="43.49794" lon="5.31342">
        <ele>160.6</ele>
        <time>2025-05-07T08:37:45.000Z</time>
      </trkpt>
      <trkpt lat="43.49796" lon="5.31342">
        <ele>160.6</ele>
        <time>2025-05-07T08:37:47.000Z</time>
      </trkpt>
      <trkpt lat="43.49798" lon="5.31343">
        <ele>160.6</ele>
        <time>2025-05-07T08:37:49.000Z</time>
      </trkpt>
      <trkpt lat="43.498" lon="5.31343">
        <ele>160.6</ele>
        <time>2025-05-07T08:37:51.000Z</time>
      </trkpt>
      <trkpt lat="43.49802" lon="5.31343">
        <ele>160.6</ele>
        <time>2025-05-07T08:37:53.000Z</time>
      </trkpt>
      <trkpt lat="43.49805" lon="5.31344">
        <ele>160.6</ele>
        <time>2025-05-07T08:37:55.000Z</time>
      </trkpt>
      <trkpt lat="43.49808" lon="5.31343">
        <ele>160.6</ele>
        <time>2025-05-07T08:38:00.000Z</time>
      </trkpt>
      <trkpt lat="43.4981" lon="5.31343">
        <ele>160.6</ele>
        <time>2025-05-07T08:38:02.000Z</time>
      </trkpt>
      <trkpt lat="43.49813" lon="5.31344">
        <ele>160.6</ele>
        <time>2025-05-07T08:38:04.000Z</time>
      </trkpt>
      <trkpt lat="43.49815" lon="5.31344">
        <ele>160.6</ele>
        <time>2025-05-07T08:38:06.000Z</time>
      </trkpt>
      <trkpt lat="43.49817" lon="5.31345">
        <ele>160.6</ele>
        <time>2025-05-07T08:38:08.000Z</time>
      </trkpt>
      <trkpt lat="43.4982" lon="5.31345">
        <ele>160.6</ele>
        <time>2025-05-07T08:38:10.000Z</time>
      </trkpt>
      <trkpt lat="43.49822" lon="5.31343">
        <ele>160.6</ele>
        <time>2025-05-07T08:38:12.000Z</time>
      </trkpt>
      <trkpt lat="43.49825" lon="5.31343">
        <ele>160.6</ele>
        <time>2025-05-07T08:38:15.000Z</time>
      </trkpt>
      <trkpt lat="43.49827" lon="5.31343">
        <ele>160.7</ele>
        <time>2025-05-07T08:38:18.000Z</time>
      </trkpt>
      <trkpt lat="43.4983" lon="5.31342">
        <ele>160.7</ele>
        <time>2025-05-07T08:38:21.000Z</time>
      </trkpt>
      <trkpt lat="43.49832" lon="5.31343">
        <ele>160.7</ele>
        <time>2025-05-07T08:38:23.000Z</time>
      </trkpt>
      <trkpt lat="43.49836" lon="5.31344">
        <ele>160.6</ele>
        <time>2025-05-07T08:38:25.000Z</time>
      </trkpt>
      <trkpt lat="43.49839" lon="5.31344">
        <ele>160.6</ele>
        <time>2025-05-07T08:38:27.000Z</time>
      </trkpt>
      <trkpt lat="43.49843" lon="5.31343">
        <ele>160.6</ele>
        <time>2025-05-07T08:38:30.000Z</time>
      </trkpt>
      <trkpt lat="43.49845" lon="5.31344">
        <ele>160.6</ele>
        <time>2025-05-07T08:38:32.000Z</time>
      </trkpt>
      <trkpt lat="43.49848" lon="5.31343">
        <ele>160.7</ele>
        <time>2025-05-07T08:38:34.000Z</time>
      </trkpt>
      <trkpt lat="43.49851" lon="5.31342">
        <ele>160.7</ele>
        <time>2025-05-07T08:38:36.000Z</time>
      </trkpt>
      <trkpt lat="43.49854" lon="5.31342">
        <ele>160.7</ele>
        <time>2025-05-07T08:38:38.000Z</time>
      </trkpt>
      <trkpt lat="43.49856" lon="5.31342">
        <ele>160.7</ele>
        <time>2025-05-07T08:38:40.000Z</time>
      </trkpt>
      <trkpt lat="43.4986" lon="5.31342">
        <ele>160.7</ele>
        <time>2025-05-07T08:38:43.000Z</time>
      </trkpt>
      <trkpt lat="43.49862" lon="5.31343">
        <ele>160.7</ele>
        <time>2025-05-07T08:38:45.000Z</time>
      </trkpt>
      <trkpt lat="43.49865" lon="5.31343">
        <ele>160.7</ele>
        <time>2025-05-07T08:38:48.000Z</time>
      </trkpt>
      <trkpt lat="43.49867" lon="5.31343">
        <ele>160.7</ele>
        <time>2025-05-07T08:38:50.000Z</time>
      </trkpt>
      <trkpt lat="43.49871" lon="5.31343">
        <ele>160.8</ele>
        <time>2025-05-07T08:38:53.000Z</time>
      </trkpt>
      <trkpt lat="43.49873" lon="5.31342">
        <ele>160.8</ele>
        <time>2025-05-07T08:38:55.000Z</time>
      </trkpt>
      <trkpt lat="43.49875" lon="5.31342">
        <ele>160.8</ele>
        <time>2025-05-07T08:38:57.000Z</time>
      </trkpt>
      <trkpt lat="43.49878" lon="5.31342">
        <ele>160.9</ele>
        <time>2025-05-07T08:38:59.000Z</time>
      </trkpt>
      <trkpt lat="43.4988" lon="5.31341">
        <ele>160.9</ele>
        <time>2025-05-07T08:39:01.000Z</time>
      </trkpt>
      <trkpt lat="43.49882" lon="5.3134">
        <ele>160.9</ele>
        <time>2025-05-07T08:39:03.000Z</time>
      </trkpt>
      <trkpt lat="43.49884" lon="5.31339">
        <ele>161</ele>
        <time>2025-05-07T08:39:06.000Z</time>
      </trkpt>
      <trkpt lat="43.49887" lon="5.31338">
        <ele>161</ele>
        <time>2025-05-07T08:39:08.000Z</time>
      </trkpt>
      <trkpt lat="43.49889" lon="5.3134">
        <ele>161</ele>
        <time>2025-05-07T08:39:13.000Z</time>
      </trkpt>
      <trkpt lat="43.49891" lon="5.31341">
        <ele>161</ele>
        <time>2025-05-07T08:39:16.000Z</time>
      </trkpt>
      <trkpt lat="43.49892" lon="5.31343">
        <ele>161</ele>
        <time>2025-05-07T08:39:19.000Z</time>
      </trkpt>
      <trkpt lat="43.49892" lon="5.31346">
        <ele>161</ele>
        <time>2025-05-07T08:39:21.000Z</time>
      </trkpt>
      <trkpt lat="43.49894" lon="5.31351">
        <ele>161.1</ele>
        <time>2025-05-07T08:39:24.000Z</time>
      </trkpt>
      <trkpt lat="43.49895" lon="5.31355">
        <ele>161.1</ele>
        <time>2025-05-07T08:39:26.000Z</time>
      </trkpt>
      <trkpt lat="43.49896" lon="5.31357">
        <ele>161.2</ele>
        <time>2025-05-07T08:39:28.000Z</time>
      </trkpt>
      <trkpt lat="43.49898" lon="5.3136">
        <ele>161.3</ele>
        <time>2025-05-07T08:39:30.000Z</time>
      </trkpt>
      <trkpt lat="43.49899" lon="5.31363">
        <ele>161.5</ele>
        <time>2025-05-07T08:39:32.000Z</time>
      </trkpt>
      <trkpt lat="43.499" lon="5.31366">
        <ele>161.6</ele>
        <time>2025-05-07T08:39:34.000Z</time>
      </trkpt>
      <trkpt lat="43.49901" lon="5.31368">
        <ele>161.8</ele>
        <time>2025-05-07T08:39:36.000Z</time>
      </trkpt>
      <trkpt lat="43.49903" lon="5.31369">
        <ele>161.9</ele>
        <time>2025-05-07T08:39:38.000Z</time>
      </trkpt>
      <trkpt lat="43.49905" lon="5.31371">
        <ele>162.2</ele>
        <time>2025-05-07T08:39:41.000Z</time>
      </trkpt>
      <trkpt lat="43.49907" lon="5.31374">
        <ele>162.4</ele>
        <time>2025-05-07T08:39:44.000Z</time>
      </trkpt>
      <trkpt lat="43.49908" lon="5.31376">
        <ele>162.6</ele>
        <time>2025-05-07T08:39:46.000Z</time>
      </trkpt>
      <trkpt lat="43.4991" lon="5.31377">
        <ele>162.8</ele>
        <time>2025-05-07T08:39:48.000Z</time>
      </trkpt>
      <trkpt lat="43.49913" lon="5.3138">
        <ele>163.1</ele>
        <time>2025-05-07T08:39:51.000Z</time>
      </trkpt>
      <trkpt lat="43.49916" lon="5.3138">
        <ele>163.3</ele>
        <time>2025-05-07T08:39:54.000Z</time>
      </trkpt>
      <trkpt lat="43.49919" lon="5.3138">
        <ele>163</ele>
        <time>2025-05-07T08:39:57.000Z</time>
      </trkpt>
      <trkpt lat="43.49921" lon="5.31381">
        <ele>162.6</ele>
        <time>2025-05-07T08:40:00.000Z</time>
      </trkpt>
      <trkpt lat="43.49923" lon="5.3138">
        <ele>162.2</ele>
        <time>2025-05-07T08:40:03.000Z</time>
      </trkpt>
      <trkpt lat="43.49925" lon="5.3138">
        <ele>161.8</ele>
        <time>2025-05-07T08:40:05.000Z</time>
      </trkpt>
      <trkpt lat="43.49927" lon="5.3138">
        <ele>161.5</ele>
        <time>2025-05-07T08:40:07.000Z</time>
      </trkpt>
      <trkpt lat="43.4993" lon="5.31381">
        <ele>161</ele>
        <time>2025-05-07T08:40:09.000Z</time>
      </trkpt>
      <trkpt lat="43.49932" lon="5.31381">
        <ele>160.6</ele>
        <time>2025-05-07T08:40:12.000Z</time>
      </trkpt>
      <trkpt lat="43.49934" lon="5.31382">
        <ele>160.1</ele>
        <time>2025-05-07T08:40:21.000Z</time>
      </trkpt>
      <trkpt lat="43.49936" lon="5.31384">
        <ele>159.8</ele>
        <time>2025-05-07T08:40:26.000Z</time>
      </trkpt>
      <trkpt lat="43.49938" lon="5.31384">
        <ele>159.4</ele>
        <time>2025-05-07T08:40:30.000Z</time>
      </trkpt>
      <trkpt lat="43.4994" lon="5.31386">
        <ele>159</ele>
        <time>2025-05-07T08:40:32.000Z</time>
      </trkpt>
      <trkpt lat="43.49943" lon="5.31386">
        <ele>158.4</ele>
        <time>2025-05-07T08:40:36.000Z</time>
      </trkpt>
      <trkpt lat="43.49945" lon="5.31387">
        <ele>158</ele>
        <time>2025-05-07T08:40:38.000Z</time>
      </trkpt>
      <trkpt lat="43.49947" lon="5.31388">
        <ele>157.7</ele>
        <time>2025-05-07T08:40:42.000Z</time>
      </trkpt>
      <trkpt lat="43.49951" lon="5.31389">
        <ele>157.3</ele>
        <time>2025-05-07T08:40:58.000Z</time>
      </trkpt>
      <trkpt lat="43.49952" lon="5.31391">
        <ele>157.1</ele>
        <time>2025-05-07T08:41:05.000Z</time>
      </trkpt>
      <trkpt lat="43.49954" lon="5.31391">
        <ele>156.9</ele>
        <time>2025-05-07T08:41:08.000Z</time>
      </trkpt>
      <trkpt lat="43.49956" lon="5.31392">
        <ele>156.5</ele>
        <time>2025-05-07T08:41:12.000Z</time>
      </trkpt>
      <trkpt lat="43.49959" lon="5.31394">
        <ele>156</ele>
        <time>2025-05-07T08:41:31.000Z</time>
      </trkpt>
      <trkpt lat="43.4996" lon="5.31396">
        <ele>155.7</ele>
        <time>2025-05-07T08:41:49.000Z</time>
      </trkpt>
      <trkpt lat="43.49962" lon="5.31397">
        <ele>155.3</ele>
        <time>2025-05-07T08:41:57.000Z</time>
      </trkpt>
      <trkpt lat="43.49964" lon="5.31399">
        <ele>154.6</ele>
        <time>2025-05-07T08:42:02.000Z</time>
      </trkpt>
      <trkpt lat="43.49966" lon="5.314">
        <ele>154</ele>
        <time>2025-05-07T08:42:05.000Z</time>
      </trkpt>
      <trkpt lat="43.49967" lon="5.31402">
        <ele>153.3</ele>
        <time>2025-05-07T08:42:09.000Z</time>
      </trkpt>
      <trkpt lat="43.49969" lon="5.31406">
        <ele>152.2</ele>
        <time>2025-05-07T08:42:14.000Z</time>
      </trkpt>
      <trkpt lat="43.49971" lon="5.31408">
        <ele>151.3</ele>
        <time>2025-05-07T08:42:17.000Z</time>
      </trkpt>
      <trkpt lat="43.49973" lon="5.3141">
        <ele>150.4</ele>
        <time>2025-05-07T08:42:20.000Z</time>
      </trkpt>
      <trkpt lat="43.49974" lon="5.31412">
        <ele>149.9</ele>
        <time>2025-05-07T08:42:23.000Z</time>
      </trkpt>
      <trkpt lat="43.49975" lon="5.31415">
        <ele>149.1</ele>
        <time>2025-05-07T08:42:27.000Z</time>
      </trkpt>
      <trkpt lat="43.49978" lon="5.31417">
        <ele>148.4</ele>
        <time>2025-05-07T08:42:35.000Z</time>
      </trkpt>
      <trkpt lat="43.4998" lon="5.31418">
        <ele>148.1</ele>
        <time>2025-05-07T08:42:37.000Z</time>
      </trkpt>
      <trkpt lat="43.49981" lon="5.31421">
        <ele>147.6</ele>
        <time>2025-05-07T08:42:42.000Z</time>
      </trkpt>
      <trkpt lat="43.49981" lon="5.31424">
        <ele>147.4</ele>
        <time>2025-05-07T08:42:45.000Z</time>
      </trkpt>
      <trkpt lat="43.49982" lon="5.31427">
        <ele>146.9</ele>
        <time>2025-05-07T08:42:50.000Z</time>
      </trkpt>
      <trkpt lat="43.49983" lon="5.3143">
        <ele>146.3</ele>
        <time>2025-05-07T08:42:55.000Z</time>
      </trkpt>
      <trkpt lat="43.49986" lon="5.31434">
        <ele>145.3</ele>
        <time>2025-05-07T08:43:02.000Z</time>
      </trkpt>
      <trkpt lat="43.49987" lon="5.31436">
        <ele>144.8</ele>
        <time>2025-05-07T08:43:05.000Z</time>
      </trkpt>
      <trkpt lat="43.49989" lon="5.31438">
        <ele>144.1</ele>
        <time>2025-05-07T08:43:09.000Z</time>
      </trkpt>
      <trkpt lat="43.4999" lon="5.31441">
        <ele>143.5</ele>
        <time>2025-05-07T08:43:13.000Z</time>
      </trkpt>
      <trkpt lat="43.49991" lon="5.31443">
        <ele>142.9</ele>
        <time>2025-05-07T08:43:21.000Z</time>
      </trkpt>
      <trkpt lat="43.49991" lon="5.31446">
        <ele>142.1</ele>
        <time>2025-05-07T08:43:25.000Z</time>
      </trkpt>
      <trkpt lat="43.49993" lon="5.3145">
        <ele>141</ele>
        <time>2025-05-07T08:43:30.000Z</time>
      </trkpt>
      <trkpt lat="43.49994" lon="5.31452">
        <ele>140.3</ele>
        <time>2025-05-07T08:43:34.000Z</time>
      </trkpt>
      <trkpt lat="43.49996" lon="5.31454">
        <ele>139.3</ele>
        <time>2025-05-07T08:43:38.000Z</time>
      </trkpt>
      <trkpt lat="43.49997" lon="5.31456">
        <ele>138.5</ele>
        <time>2025-05-07T08:43:41.000Z</time>
      </trkpt>
      <trkpt lat="43.49999" lon="5.31455">
        <ele>138</ele>
        <time>2025-05-07T08:43:43.000Z</time>
      </trkpt>
      <trkpt lat="43.50001" lon="5.31457">
        <ele>137.3</ele>
        <time>2025-05-07T08:43:47.000Z</time>
      </trkpt>
      <trkpt lat="43.50001" lon="5.31459">
        <ele>136.8</ele>
        <time>2025-05-07T08:43:49.000Z</time>
      </trkpt>
      <trkpt lat="43.50003" lon="5.31461">
        <ele>136.2</ele>
        <time>2025-05-07T08:43:53.000Z</time>
      </trkpt>
      <trkpt lat="43.50006" lon="5.31462">
        <ele>135.7</ele>
        <time>2025-05-07T08:44:07.000Z</time>
      </trkpt>
      <trkpt lat="43.50008" lon="5.31462">
        <ele>135.5</ele>
        <time>2025-05-07T08:44:12.000Z</time>
      </trkpt>
      <trkpt lat="43.5001" lon="5.31464">
        <ele>135</ele>
        <time>2025-05-07T08:44:14.000Z</time>
      </trkpt>
      <trkpt lat="43.50013" lon="5.31464">
        <ele>134.7</ele>
        <time>2025-05-07T08:44:17.000Z</time>
      </trkpt>
      <trkpt lat="43.50014" lon="5.31467">
        <ele>134.2</ele>
        <time>2025-05-07T08:44:21.000Z</time>
      </trkpt>
      <trkpt lat="43.50014" lon="5.31472">
        <ele>133.5</ele>
        <time>2025-05-07T08:45:37.000Z</time>
      </trkpt>
      <trkpt lat="43.50017" lon="5.31472">
        <ele>133.4</ele>
        <time>2025-05-07T08:45:42.000Z</time>
      </trkpt>
      <trkpt lat="43.50019" lon="5.31471">
        <ele>133.4</ele>
        <time>2025-05-07T08:45:44.000Z</time>
      </trkpt>
      <trkpt lat="43.50022" lon="5.31473">
        <ele>133.2</ele>
        <time>2025-05-07T08:45:47.000Z</time>
      </trkpt>
      <trkpt lat="43.50024" lon="5.31472">
        <ele>133.1</ele>
        <time>2025-05-07T08:45:49.000Z</time>
      </trkpt>
      <trkpt lat="43.50026" lon="5.31471">
        <ele>133.1</ele>
        <time>2025-05-07T08:45:51.000Z</time>
      </trkpt>
      <trkpt lat="43.50029" lon="5.3147">
        <ele>133.2</ele>
        <time>2025-05-07T08:45:54.000Z</time>
      </trkpt>
      <trkpt lat="43.50031" lon="5.31471">
        <ele>133.4</ele>
        <time>2025-05-07T08:45:58.000Z</time>
      </trkpt>
      <trkpt lat="43.50033" lon="5.31473">
        <ele>133.6</ele>
        <time>2025-05-07T08:46:03.000Z</time>
      </trkpt>
      <trkpt lat="43.50036" lon="5.31474">
        <ele>134</ele>
        <time>2025-05-07T08:46:06.000Z</time>
      </trkpt>
      <trkpt lat="43.50038" lon="5.31475">
        <ele>134.3</ele>
        <time>2025-05-07T08:46:08.000Z</time>
      </trkpt>
      <trkpt lat="43.50041" lon="5.31475">
        <ele>134.7</ele>
        <time>2025-05-07T08:46:11.000Z</time>
      </trkpt>
      <trkpt lat="43.50043" lon="5.31474">
        <ele>134.8</ele>
        <time>2025-05-07T08:46:13.000Z</time>
      </trkpt>
      <trkpt lat="43.50045" lon="5.31474">
        <ele>135</ele>
        <time>2025-05-07T08:46:15.000Z</time>
      </trkpt>
      <trkpt lat="43.50047" lon="5.31474">
        <ele>135.2</ele>
        <time>2025-05-07T08:46:17.000Z</time>
      </trkpt>
      <trkpt lat="43.50049" lon="5.31472">
        <ele>135.3</ele>
        <time>2025-05-07T08:46:19.000Z</time>
      </trkpt>
      <trkpt lat="43.5005" lon="5.3147">
        <ele>135.3</ele>
        <time>2025-05-07T08:46:21.000Z</time>
      </trkpt>
      <trkpt lat="43.50052" lon="5.31468">
        <ele>135.3</ele>
        <time>2025-05-07T08:46:24.000Z</time>
      </trkpt>
      <trkpt lat="43.50053" lon="5.31465">
        <ele>135.3</ele>
        <time>2025-05-07T08:46:27.000Z</time>
      </trkpt>
      <trkpt lat="43.50054" lon="5.31462">
        <ele>135.2</ele>
        <time>2025-05-07T08:46:29.000Z</time>
      </trkpt>
      <trkpt lat="43.50055" lon="5.31459">
        <ele>135</ele>
        <time>2025-05-07T08:46:32.000Z</time>
      </trkpt>
      <trkpt lat="43.50056" lon="5.31456">
        <ele>134.9</ele>
        <time>2025-05-07T08:46:35.000Z</time>
      </trkpt>
      <trkpt lat="43.50057" lon="5.31454">
        <ele>134.8</ele>
        <time>2025-05-07T08:46:37.000Z</time>
      </trkpt>
      <trkpt lat="43.50059" lon="5.31451">
        <ele>134.7</ele>
        <time>2025-05-07T08:46:40.000Z</time>
      </trkpt>
      <trkpt lat="43.5006" lon="5.31449">
        <ele>134.6</ele>
        <time>2025-05-07T08:46:42.000Z</time>
      </trkpt>
      <trkpt lat="43.50061" lon="5.31446">
        <ele>134.4</ele>
        <time>2025-05-07T08:46:44.000Z</time>
      </trkpt>
      <trkpt lat="43.50061" lon="5.31443">
        <ele>134.3</ele>
        <time>2025-05-07T08:46:46.000Z</time>
      </trkpt>
      <trkpt lat="43.50063" lon="5.31442">
        <ele>134.5</ele>
        <time>2025-05-07T08:46:48.000Z</time>
      </trkpt>
      <trkpt lat="43.50064" lon="5.3144">
        <ele>134.8</ele>
        <time>2025-05-07T08:46:51.000Z</time>
      </trkpt>
      <trkpt lat="43.50065" lon="5.31437">
        <ele>135.1</ele>
        <time>2025-05-07T08:46:54.000Z</time>
      </trkpt>
      <trkpt lat="43.50067" lon="5.31434">
        <ele>135.3</ele>
        <time>2025-05-07T08:46:57.000Z</time>
      </trkpt>
      <trkpt lat="43.50068" lon="5.31432">
        <ele>135.6</ele>
        <time>2025-05-07T08:46:59.000Z</time>
      </trkpt>
      <trkpt lat="43.50068" lon="5.31429">
        <ele>135.9</ele>
        <time>2025-05-07T08:47:02.000Z</time>
      </trkpt>
      <trkpt lat="43.50069" lon="5.31427">
        <ele>136.1</ele>
        <time>2025-05-07T08:47:04.000Z</time>
      </trkpt>
      <trkpt lat="43.5007" lon="5.31424">
        <ele>136.3</ele>
        <time>2025-05-07T08:47:06.000Z</time>
      </trkpt>
      <trkpt lat="43.50073" lon="5.31422">
        <ele>136.5</ele>
        <time>2025-05-07T08:47:12.000Z</time>
      </trkpt>
      <trkpt lat="43.50074" lon="5.3142">
        <ele>136.7</ele>
        <time>2025-05-07T08:47:14.000Z</time>
      </trkpt>
      <trkpt lat="43.50075" lon="5.31418">
        <ele>136.9</ele>
        <time>2025-05-07T08:47:17.000Z</time>
      </trkpt>
      <trkpt lat="43.50077" lon="5.31416">
        <ele>137</ele>
        <time>2025-05-07T08:47:19.000Z</time>
      </trkpt>
      <trkpt lat="43.50079" lon="5.31415">
        <ele>137.2</ele>
        <time>2025-05-07T08:47:21.000Z</time>
      </trkpt>
      <trkpt lat="43.5008" lon="5.31412">
        <ele>137.4</ele>
        <time>2025-05-07T08:47:24.000Z</time>
      </trkpt>
      <trkpt lat="43.50082" lon="5.31411">
        <ele>137.5</ele>
        <time>2025-05-07T08:47:26.000Z</time>
      </trkpt>
      <trkpt lat="43.50084" lon="5.31408">
        <ele>137.6</ele>
        <time>2025-05-07T08:47:29.000Z</time>
      </trkpt>
      <trkpt lat="43.50085" lon="5.31407">
        <ele>137.7</ele>
        <time>2025-05-07T08:47:31.000Z</time>
      </trkpt>
      <trkpt lat="43.50087" lon="5.31404">
        <ele>137.8</ele>
        <time>2025-05-07T08:47:34.000Z</time>
      </trkpt>
      <trkpt lat="43.50089" lon="5.31401">
        <ele>138</ele>
        <time>2025-05-07T08:47:37.000Z</time>
      </trkpt>
      <trkpt lat="43.5009" lon="5.31399">
        <ele>138.1</ele>
        <time>2025-05-07T08:47:39.000Z</time>
      </trkpt>
      <trkpt lat="43.50092" lon="5.31397">
        <ele>138.2</ele>
        <time>2025-05-07T08:47:41.000Z</time>
      </trkpt>
      <trkpt lat="43.50094" lon="5.31395">
        <ele>138.3</ele>
        <time>2025-05-07T08:47:43.000Z</time>
      </trkpt>
      <trkpt lat="43.50095" lon="5.31393">
        <ele>138.3</ele>
        <time>2025-05-07T08:47:45.000Z</time>
      </trkpt>
      <trkpt lat="43.50097" lon="5.31389">
        <ele>138.5</ele>
        <time>2025-05-07T08:47:48.000Z</time>
      </trkpt>
      <trkpt lat="43.50098" lon="5.31386">
        <ele>138.8</ele>
        <time>2025-05-07T08:47:51.000Z</time>
      </trkpt>
      <trkpt lat="43.501" lon="5.31384">
        <ele>138.9</ele>
        <time>2025-05-07T08:47:53.000Z</time>
      </trkpt>
      <trkpt lat="43.50101" lon="5.31382">
        <ele>139</ele>
        <time>2025-05-07T08:47:55.000Z</time>
      </trkpt>
      <trkpt lat="43.50103" lon="5.3138">
        <ele>139.1</ele>
        <time>2025-05-07T08:47:57.000Z</time>
      </trkpt>
      <trkpt lat="43.50105" lon="5.31378">
        <ele>139.1</ele>
        <time>2025-05-07T08:47:59.000Z</time>
      </trkpt>
      <trkpt lat="43.50107" lon="5.31376">
        <ele>139.2</ele>
        <time>2025-05-07T08:48:01.000Z</time>
      </trkpt>
      <trkpt lat="43.50107" lon="5.31373">
        <ele>139.4</ele>
        <time>2025-05-07T08:48:03.000Z</time>
      </trkpt>
      <trkpt lat="43.50108" lon="5.3137">
        <ele>139.6</ele>
        <time>2025-05-07T08:48:05.000Z</time>
      </trkpt>
      <trkpt lat="43.50109" lon="5.31367">
        <ele>139.7</ele>
        <time>2025-05-07T08:48:07.000Z</time>
      </trkpt>
      <trkpt lat="43.5011" lon="5.31364">
        <ele>139.8</ele>
        <time>2025-05-07T08:48:09.000Z</time>
      </trkpt>
      <trkpt lat="43.50112" lon="5.31361">
        <ele>139.9</ele>
        <time>2025-05-07T08:48:11.000Z</time>
      </trkpt>
      <trkpt lat="43.50114" lon="5.31359">
        <ele>140.1</ele>
        <time>2025-05-07T08:48:13.000Z</time>
      </trkpt>
      <trkpt lat="43.50115" lon="5.31355">
        <ele>140.2</ele>
        <time>2025-05-07T08:48:15.000Z</time>
      </trkpt>
      <trkpt lat="43.50117" lon="5.31352">
        <ele>140.4</ele>
        <time>2025-05-07T08:48:17.000Z</time>
      </trkpt>
      <trkpt lat="43.50118" lon="5.31351">
        <ele>140.4</ele>
        <time>2025-05-07T08:48:19.000Z</time>
      </trkpt>
      <trkpt lat="43.5012" lon="5.31348">
        <ele>140.5</ele>
        <time>2025-05-07T08:48:21.000Z</time>
      </trkpt>
      <trkpt lat="43.50122" lon="5.31346">
        <ele>140.5</ele>
        <time>2025-05-07T08:48:23.000Z</time>
      </trkpt>
      <trkpt lat="43.50123" lon="5.31343">
        <ele>140.6</ele>
        <time>2025-05-07T08:48:25.000Z</time>
      </trkpt>
      <trkpt lat="43.50124" lon="5.31341">
        <ele>140.6</ele>
        <time>2025-05-07T08:48:27.000Z</time>
      </trkpt>
      <trkpt lat="43.50125" lon="5.31338">
        <ele>140.8</ele>
        <time>2025-05-07T08:48:31.000Z</time>
      </trkpt>
      <trkpt lat="43.50126" lon="5.31336">
        <ele>140.8</ele>
        <time>2025-05-07T08:48:33.000Z</time>
      </trkpt>
      <trkpt lat="43.50128" lon="5.31334">
        <ele>140.8</ele>
        <time>2025-05-07T08:48:35.000Z</time>
      </trkpt>
      <trkpt lat="43.50129" lon="5.31332">
        <ele>140.8</ele>
        <time>2025-05-07T08:48:37.000Z</time>
      </trkpt>
      <trkpt lat="43.50131" lon="5.3133">
        <ele>140.8</ele>
        <time>2025-05-07T08:48:40.000Z</time>
      </trkpt>
      <trkpt lat="43.50133" lon="5.31328">
        <ele>140.7</ele>
        <time>2025-05-07T08:48:42.000Z</time>
      </trkpt>
      <trkpt lat="43.50135" lon="5.31327">
        <ele>140.6</ele>
        <time>2025-05-07T08:48:44.000Z</time>
      </trkpt>
      <trkpt lat="43.50137" lon="5.31325">
        <ele>140.5</ele>
        <time>2025-05-07T08:48:47.000Z</time>
      </trkpt>
      <trkpt lat="43.50138" lon="5.31322">
        <ele>140.5</ele>
        <time>2025-05-07T08:48:49.000Z</time>
      </trkpt>
      <trkpt lat="43.5014" lon="5.3132">
        <ele>140.5</ele>
        <time>2025-05-07T08:48:51.000Z</time>
      </trkpt>
      <trkpt lat="43.5014" lon="5.31317">
        <ele>140.6</ele>
        <time>2025-05-07T08:48:53.000Z</time>
      </trkpt>
      <trkpt lat="43.50141" lon="5.31314">
        <ele>140.6</ele>
        <time>2025-05-07T08:48:55.000Z</time>
      </trkpt>
      <trkpt lat="43.50142" lon="5.31312">
        <ele>140.7</ele>
        <time>2025-05-07T08:48:57.000Z</time>
      </trkpt>
      <trkpt lat="43.50144" lon="5.3131">
        <ele>140.7</ele>
        <time>2025-05-07T08:48:59.000Z</time>
      </trkpt>
      <trkpt lat="43.50146" lon="5.31308">
        <ele>140.7</ele>
        <time>2025-05-07T08:49:01.000Z</time>
      </trkpt>
      <trkpt lat="43.50147" lon="5.31305">
        <ele>140.7</ele>
        <time>2025-05-07T08:49:03.000Z</time>
      </trkpt>
      <trkpt lat="43.50149" lon="5.31302">
        <ele>140.9</ele>
        <time>2025-05-07T08:49:05.000Z</time>
      </trkpt>
      <trkpt lat="43.50151" lon="5.31297">
        <ele>141.3</ele>
        <time>2025-05-07T08:49:08.000Z</time>
      </trkpt>
      <trkpt lat="43.50152" lon="5.31292">
        <ele>141.5</ele>
        <time>2025-05-07T08:49:11.000Z</time>
      </trkpt>
      <trkpt lat="43.50153" lon="5.3129">
        <ele>141.6</ele>
        <time>2025-05-07T08:49:13.000Z</time>
      </trkpt>
      <trkpt lat="43.50155" lon="5.31288">
        <ele>141.6</ele>
        <time>2025-05-07T08:49:16.000Z</time>
      </trkpt>
      <trkpt lat="43.50155" lon="5.31285">
        <ele>141.8</ele>
        <time>2025-05-07T08:49:18.000Z</time>
      </trkpt>
      <trkpt lat="43.50156" lon="5.31283">
        <ele>141.8</ele>
        <time>2025-05-07T08:49:20.000Z</time>
      </trkpt>
      <trkpt lat="43.50157" lon="5.3128">
        <ele>141.9</ele>
        <time>2025-05-07T08:49:23.000Z</time>
      </trkpt>
      <trkpt lat="43.50157" lon="5.31278">
        <ele>142</ele>
        <time>2025-05-07T08:49:26.000Z</time>
      </trkpt>
      <trkpt lat="43.50158" lon="5.31274">
        <ele>142.1</ele>
        <time>2025-05-07T08:49:28.000Z</time>
      </trkpt>
      <trkpt lat="43.50159" lon="5.31271">
        <ele>142.2</ele>
        <time>2025-05-07T08:49:30.000Z</time>
      </trkpt>
      <trkpt lat="43.50159" lon="5.31268">
        <ele>142.4</ele>
        <time>2025-05-07T08:49:33.000Z</time>
      </trkpt>
      <trkpt lat="43.50159" lon="5.31265">
        <ele>142.5</ele>
        <time>2025-05-07T08:49:35.000Z</time>
      </trkpt>
      <trkpt lat="43.5016" lon="5.31262">
        <ele>142.6</ele>
        <time>2025-05-07T08:49:37.000Z</time>
      </trkpt>
      <trkpt lat="43.5016" lon="5.31259">
        <ele>142.7</ele>
        <time>2025-05-07T08:49:40.000Z</time>
      </trkpt>
      <trkpt lat="43.5016" lon="5.31255">
        <ele>142.9</ele>
        <time>2025-05-07T08:49:43.000Z</time>
      </trkpt>
      <trkpt lat="43.50161" lon="5.31253">
        <ele>143</ele>
        <time>2025-05-07T08:49:46.000Z</time>
      </trkpt>
      <trkpt lat="43.5016" lon="5.31249">
        <ele>143.2</ele>
        <time>2025-05-07T08:49:49.000Z</time>
      </trkpt>
      <trkpt lat="43.5016" lon="5.31246">
        <ele>143.3</ele>
        <time>2025-05-07T08:49:52.000Z</time>
      </trkpt>
      <trkpt lat="43.5016" lon="5.31243">
        <ele>143.5</ele>
        <time>2025-05-07T08:49:57.000Z</time>
      </trkpt>
      <trkpt lat="43.50159" lon="5.31237">
        <ele>143.8</ele>
        <time>2025-05-07T08:50:01.000Z</time>
      </trkpt>
      <trkpt lat="43.50159" lon="5.31235">
        <ele>143.9</ele>
        <time>2025-05-07T08:50:03.000Z</time>
      </trkpt>
      <trkpt lat="43.50159" lon="5.31232">
        <ele>143.9</ele>
        <time>2025-05-07T08:50:05.000Z</time>
      </trkpt>
      <trkpt lat="43.50159" lon="5.31229">
        <ele>144.1</ele>
        <time>2025-05-07T08:50:07.000Z</time>
      </trkpt>
      <trkpt lat="43.50159" lon="5.31226">
        <ele>144.1</ele>
        <time>2025-05-07T08:50:09.000Z</time>
      </trkpt>
      <trkpt lat="43.50159" lon="5.31222">
        <ele>144.3</ele>
        <time>2025-05-07T08:50:11.000Z</time>
      </trkpt>
      <trkpt lat="43.50159" lon="5.31219">
        <ele>144.5</ele>
        <time>2025-05-07T08:50:13.000Z</time>
      </trkpt>
      <trkpt lat="43.50159" lon="5.31215">
        <ele>144.7</ele>
        <time>2025-05-07T08:50:15.000Z</time>
      </trkpt>
      <trkpt lat="43.50159" lon="5.3121">
        <ele>145.1</ele>
        <time>2025-05-07T08:50:18.000Z</time>
      </trkpt>
      <trkpt lat="43.50159" lon="5.31206">
        <ele>145.4</ele>
        <time>2025-05-07T08:50:20.000Z</time>
      </trkpt>
      <trkpt lat="43.5016" lon="5.31203">
        <ele>145.6</ele>
        <time>2025-05-07T08:50:22.000Z</time>
      </trkpt>
      <trkpt lat="43.5016" lon="5.312">
        <ele>145.9</ele>
        <time>2025-05-07T08:50:24.000Z</time>
      </trkpt>
      <trkpt lat="43.5016" lon="5.31197">
        <ele>146.2</ele>
        <time>2025-05-07T08:50:27.000Z</time>
      </trkpt>
      <trkpt lat="43.50161" lon="5.31193">
        <ele>146.5</ele>
        <time>2025-05-07T08:50:30.000Z</time>
      </trkpt>
      <trkpt lat="43.5016" lon="5.3119">
        <ele>146.6</ele>
        <time>2025-05-07T08:50:33.000Z</time>
      </trkpt>
      <trkpt lat="43.5016" lon="5.31187">
        <ele>146.8</ele>
        <time>2025-05-07T08:50:35.000Z</time>
      </trkpt>
      <trkpt lat="43.50159" lon="5.31185">
        <ele>146.8</ele>
        <time>2025-05-07T08:50:37.000Z</time>
      </trkpt>
      <trkpt lat="43.50159" lon="5.31182">
        <ele>146.9</ele>
        <time>2025-05-07T08:50:39.000Z</time>
      </trkpt>
      <trkpt lat="43.50159" lon="5.31179">
        <ele>147.1</ele>
        <time>2025-05-07T08:50:41.000Z</time>
      </trkpt>
      <trkpt lat="43.50159" lon="5.31176">
        <ele>147.3</ele>
        <time>2025-05-07T08:50:43.000Z</time>
      </trkpt>
      <trkpt lat="43.50158" lon="5.3117">
        <ele>147.6</ele>
        <time>2025-05-07T08:50:46.000Z</time>
      </trkpt>
      <trkpt lat="43.50158" lon="5.31167">
        <ele>147.7</ele>
        <time>2025-05-07T08:50:48.000Z</time>
      </trkpt>
      <trkpt lat="43.50157" lon="5.31164">
        <ele>148</ele>
        <time>2025-05-07T08:50:50.000Z</time>
      </trkpt>
      <trkpt lat="43.50157" lon="5.3116">
        <ele>148.5</ele>
        <time>2025-05-07T08:50:52.000Z</time>
      </trkpt>
      <trkpt lat="43.50157" lon="5.31157">
        <ele>148.8</ele>
        <time>2025-05-07T08:50:54.000Z</time>
      </trkpt>
      <trkpt lat="43.50157" lon="5.31154">
        <ele>149.1</ele>
        <time>2025-05-07T08:50:56.000Z</time>
      </trkpt>
      <trkpt lat="43.50157" lon="5.31151">
        <ele>149.5</ele>
        <time>2025-05-07T08:50:59.000Z</time>
      </trkpt>
      <trkpt lat="43.50157" lon="5.31148">
        <ele>149.7</ele>
        <time>2025-05-07T08:51:02.000Z</time>
      </trkpt>
      <trkpt lat="43.50157" lon="5.31145">
        <ele>150.2</ele>
        <time>2025-05-07T08:51:05.000Z</time>
      </trkpt>
      <trkpt lat="43.50156" lon="5.31142">
        <ele>150.5</ele>
        <time>2025-05-07T08:51:08.000Z</time>
      </trkpt>
      <trkpt lat="43.50156" lon="5.31139">
        <ele>150.7</ele>
        <time>2025-05-07T08:51:10.000Z</time>
      </trkpt>
      <trkpt lat="43.50155" lon="5.31136">
        <ele>150.9</ele>
        <time>2025-05-07T08:51:14.000Z</time>
      </trkpt>
      <trkpt lat="43.50154" lon="5.31133">
        <ele>151.1</ele>
        <time>2025-05-07T08:51:18.000Z</time>
      </trkpt>
      <trkpt lat="43.50153" lon="5.31131">
        <ele>151.2</ele>
        <time>2025-05-07T08:51:20.000Z</time>
      </trkpt>
      <trkpt lat="43.50154" lon="5.31128">
        <ele>151.5</ele>
        <time>2025-05-07T08:51:23.000Z</time>
      </trkpt>
      <trkpt lat="43.50153" lon="5.31125">
        <ele>151.8</ele>
        <time>2025-05-07T08:51:27.000Z</time>
      </trkpt>
      <trkpt lat="43.50151" lon="5.31122">
        <ele>151.9</ele>
        <time>2025-05-07T08:51:30.000Z</time>
      </trkpt>
      <trkpt lat="43.5015" lon="5.3112">
        <ele>152.1</ele>
        <time>2025-05-07T08:51:32.000Z</time>
      </trkpt>
      <trkpt lat="43.50148" lon="5.31117">
        <ele>152.4</ele>
        <time>2025-05-07T08:51:36.000Z</time>
      </trkpt>
      <trkpt lat="43.50147" lon="5.31114">
        <ele>152.7</ele>
        <time>2025-05-07T08:51:38.000Z</time>
      </trkpt>
      <trkpt lat="43.50147" lon="5.31111">
        <ele>153</ele>
        <time>2025-05-07T08:51:42.000Z</time>
      </trkpt>
      <trkpt lat="43.50147" lon="5.31107">
        <ele>153.3</ele>
        <time>2025-05-07T08:51:45.000Z</time>
      </trkpt>
      <trkpt lat="43.50145" lon="5.31105">
        <ele>153.4</ele>
        <time>2025-05-07T08:51:47.000Z</time>
      </trkpt>
      <trkpt lat="43.50144" lon="5.31104">
        <ele>153.5</ele>
        <time>2025-05-07T08:51:49.000Z</time>
      </trkpt>
      <trkpt lat="43.50142" lon="5.31102">
        <ele>153.7</ele>
        <time>2025-05-07T08:51:51.000Z</time>
      </trkpt>
      <trkpt lat="43.50142" lon="5.31099">
        <ele>153.9</ele>
        <time>2025-05-07T08:51:54.000Z</time>
      </trkpt>
      <trkpt lat="43.50142" lon="5.31096">
        <ele>154.1</ele>
        <time>2025-05-07T08:51:56.000Z</time>
      </trkpt>
      <trkpt lat="43.50141" lon="5.31093">
        <ele>154.3</ele>
        <time>2025-05-07T08:51:59.000Z</time>
      </trkpt>
      <trkpt lat="43.50141" lon="5.3109">
        <ele>154.5</ele>
        <time>2025-05-07T08:52:01.000Z</time>
      </trkpt>
      <trkpt lat="43.5014" lon="5.31087">
        <ele>154.7</ele>
        <time>2025-05-07T08:52:04.000Z</time>
      </trkpt>
      <trkpt lat="43.50139" lon="5.31085">
        <ele>154.9</ele>
        <time>2025-05-07T08:52:06.000Z</time>
      </trkpt>
      <trkpt lat="43.50139" lon="5.31081">
        <ele>155.2</ele>
        <time>2025-05-07T08:52:08.000Z</time>
      </trkpt>
      <trkpt lat="43.50138" lon="5.31079">
        <ele>155.4</ele>
        <time>2025-05-07T08:52:10.000Z</time>
      </trkpt>
      <trkpt lat="43.50138" lon="5.31076">
        <ele>155.7</ele>
        <time>2025-05-07T08:52:12.000Z</time>
      </trkpt>
      <trkpt lat="43.50138" lon="5.31073">
        <ele>155.9</ele>
        <time>2025-05-07T08:52:14.000Z</time>
      </trkpt>
      <trkpt lat="43.50138" lon="5.3107">
        <ele>156.1</ele>
        <time>2025-05-07T08:52:16.000Z</time>
      </trkpt>
      <trkpt lat="43.50137" lon="5.31067">
        <ele>156.3</ele>
        <time>2025-05-07T08:52:18.000Z</time>
      </trkpt>
      <trkpt lat="43.50137" lon="5.31065">
        <ele>156.5</ele>
        <time>2025-05-07T08:52:21.000Z</time>
      </trkpt>
      <trkpt lat="43.50137" lon="5.31061">
        <ele>156.7</ele>
        <time>2025-05-07T08:52:24.000Z</time>
      </trkpt>
      <trkpt lat="43.50137" lon="5.31058">
        <ele>156.9</ele>
        <time>2025-05-07T08:52:27.000Z</time>
      </trkpt>
      <trkpt lat="43.50138" lon="5.31055">
        <ele>157.1</ele>
        <time>2025-05-07T08:52:29.000Z</time>
      </trkpt>
      <trkpt lat="43.50138" lon="5.31052">
        <ele>157.1</ele>
        <time>2025-05-07T08:52:31.000Z</time>
      </trkpt>
      <trkpt lat="43.50139" lon="5.3105">
        <ele>157.2</ele>
        <time>2025-05-07T08:52:33.000Z</time>
      </trkpt>
      <trkpt lat="43.5014" lon="5.31047">
        <ele>157.3</ele>
        <time>2025-05-07T08:52:35.000Z</time>
      </trkpt>
      <trkpt lat="43.50141" lon="5.31044">
        <ele>157.5</ele>
        <time>2025-05-07T08:52:37.000Z</time>
      </trkpt>
      <trkpt lat="43.50141" lon="5.31041">
        <ele>157.6</ele>
        <time>2025-05-07T08:52:39.000Z</time>
      </trkpt>
      <trkpt lat="43.50142" lon="5.31038">
        <ele>157.8</ele>
        <time>2025-05-07T08:52:41.000Z</time>
      </trkpt>
      <trkpt lat="43.50144" lon="5.31034">
        <ele>158.1</ele>
        <time>2025-05-07T08:52:45.000Z</time>
      </trkpt>
      <trkpt lat="43.50146" lon="5.31031">
        <ele>158.3</ele>
        <time>2025-05-07T08:52:48.000Z</time>
      </trkpt>
      <trkpt lat="43.50147" lon="5.31028">
        <ele>158.6</ele>
        <time>2025-05-07T08:52:53.000Z</time>
      </trkpt>
      <trkpt lat="43.50147" lon="5.31024">
        <ele>158.6</ele>
        <time>2025-05-07T08:52:55.000Z</time>
      </trkpt>
      <trkpt lat="43.50148" lon="5.31021">
        <ele>158.8</ele>
        <time>2025-05-07T08:52:57.000Z</time>
      </trkpt>
      <trkpt lat="43.50149" lon="5.31019">
        <ele>159</ele>
        <time>2025-05-07T08:53:00.000Z</time>
      </trkpt>
      <trkpt lat="43.50151" lon="5.31016">
        <ele>159.1</ele>
        <time>2025-05-07T08:53:04.000Z</time>
      </trkpt>
      <trkpt lat="43.50153" lon="5.31012">
        <ele>159.3</ele>
        <time>2025-05-07T08:53:06.000Z</time>
      </trkpt>
      <trkpt lat="43.50154" lon="5.31008">
        <ele>159.4</ele>
        <time>2025-05-07T08:53:09.000Z</time>
      </trkpt>
      <trkpt lat="43.50154" lon="5.31005">
        <ele>159.5</ele>
        <time>2025-05-07T08:53:12.000Z</time>
      </trkpt>
      <trkpt lat="43.50156" lon="5.31002">
        <ele>159.6</ele>
        <time>2025-05-07T08:53:15.000Z</time>
      </trkpt>
      <trkpt lat="43.50157" lon="5.31001">
        <ele>159.6</ele>
        <time>2025-05-07T08:53:18.000Z</time>
      </trkpt>
      <trkpt lat="43.50158" lon="5.30998">
        <ele>159.8</ele>
        <time>2025-05-07T08:53:21.000Z</time>
      </trkpt>
      <trkpt lat="43.5016" lon="5.30996">
        <ele>160</ele>
        <time>2025-05-07T08:53:25.000Z</time>
      </trkpt>
      <trkpt lat="43.5016" lon="5.30993">
        <ele>160.2</ele>
        <time>2025-05-07T08:54:01.000Z</time>
      </trkpt>
      <trkpt lat="43.50161" lon="5.30991">
        <ele>160.4</ele>
        <time>2025-05-07T08:54:18.000Z</time>
      </trkpt>
      <trkpt lat="43.50163" lon="5.30988">
        <ele>160.7</ele>
        <time>2025-05-07T08:55:42.000Z</time>
      </trkpt>
      <trkpt lat="43.50165" lon="5.30988">
        <ele>160.8</ele>
        <time>2025-05-07T08:55:45.000Z</time>
      </trkpt>
      <trkpt lat="43.50167" lon="5.30989">
        <ele>160.9</ele>
        <time>2025-05-07T08:55:47.000Z</time>
      </trkpt>
      <trkpt lat="43.50168" lon="5.30992">
        <ele>160.9</ele>
        <time>2025-05-07T08:55:51.000Z</time>
      </trkpt>
      <trkpt lat="43.5017" lon="5.30994">
        <ele>161.1</ele>
        <time>2025-05-07T08:55:54.000Z</time>
      </trkpt>
      <trkpt lat="43.50171" lon="5.30996">
        <ele>161.2</ele>
        <time>2025-05-07T08:55:56.000Z</time>
      </trkpt>
      <trkpt lat="43.50173" lon="5.30998">
        <ele>161.2</ele>
        <time>2025-05-07T08:55:59.000Z</time>
      </trkpt>
      <trkpt lat="43.50174" lon="5.31">
        <ele>161.3</ele>
        <time>2025-05-07T08:56:02.000Z</time>
      </trkpt>
      <trkpt lat="43.50176" lon="5.31003">
        <ele>161.5</ele>
        <time>2025-05-07T08:56:04.000Z</time>
      </trkpt>
      <trkpt lat="43.50177" lon="5.31005">
        <ele>161.5</ele>
        <time>2025-05-07T08:56:06.000Z</time>
      </trkpt>
      <trkpt lat="43.50179" lon="5.31007">
        <ele>161.7</ele>
        <time>2025-05-07T08:56:09.000Z</time>
      </trkpt>
      <trkpt lat="43.5018" lon="5.3101">
        <ele>161.8</ele>
        <time>2025-05-07T08:56:11.000Z</time>
      </trkpt>
      <trkpt lat="43.50183" lon="5.31012">
        <ele>161.8</ele>
        <time>2025-05-07T08:56:14.000Z</time>
      </trkpt>
      <trkpt lat="43.50183" lon="5.31016">
        <ele>161.6</ele>
        <time>2025-05-07T08:56:16.000Z</time>
      </trkpt>
      <trkpt lat="43.50185" lon="5.31018">
        <ele>161.6</ele>
        <time>2025-05-07T08:56:18.000Z</time>
      </trkpt>
      <trkpt lat="43.50187" lon="5.31021">
        <ele>161.4</ele>
        <time>2025-05-07T08:56:20.000Z</time>
      </trkpt>
      <trkpt lat="43.50188" lon="5.31023">
        <ele>161.3</ele>
        <time>2025-05-07T08:56:22.000Z</time>
      </trkpt>
      <trkpt lat="43.5019" lon="5.31025">
        <ele>161.2</ele>
        <time>2025-05-07T08:56:24.000Z</time>
      </trkpt>
      <trkpt lat="43.50191" lon="5.31028">
        <ele>160.9</ele>
        <time>2025-05-07T08:56:26.000Z</time>
      </trkpt>
      <trkpt lat="43.50193" lon="5.3103">
        <ele>160.9</ele>
        <time>2025-05-07T08:56:28.000Z</time>
      </trkpt>
      <trkpt lat="43.50194" lon="5.31032">
        <ele>160.8</ele>
        <time>2025-05-07T08:56:30.000Z</time>
      </trkpt>
      <trkpt lat="43.50196" lon="5.31035">
        <ele>161</ele>
        <time>2025-05-07T08:56:32.000Z</time>
      </trkpt>
      <trkpt lat="43.50198" lon="5.31037">
        <ele>161.2</ele>
        <time>2025-05-07T08:56:34.000Z</time>
      </trkpt>
      <trkpt lat="43.50199" lon="5.31038">
        <ele>161.4</ele>
        <time>2025-05-07T08:56:36.000Z</time>
      </trkpt>
      <trkpt lat="43.50202" lon="5.3104">
        <ele>161.7</ele>
        <time>2025-05-07T08:56:38.000Z</time>
      </trkpt>
      <trkpt lat="43.50204" lon="5.31042">
        <ele>161.9</ele>
        <time>2025-05-07T08:56:40.000Z</time>
      </trkpt>
      <trkpt lat="43.50206" lon="5.31044">
        <ele>161.9</ele>
        <time>2025-05-07T08:56:42.000Z</time>
      </trkpt>
      <trkpt lat="43.50208" lon="5.31046">
        <ele>162</ele>
        <time>2025-05-07T08:56:44.000Z</time>
      </trkpt>
      <trkpt lat="43.5021" lon="5.31049">
        <ele>161.9</ele>
        <time>2025-05-07T08:56:47.000Z</time>
      </trkpt>
      <trkpt lat="43.50211" lon="5.3105">
        <ele>161.9</ele>
        <time>2025-05-07T08:56:49.000Z</time>
      </trkpt>
      <trkpt lat="43.50213" lon="5.31052">
        <ele>161.8</ele>
        <time>2025-05-07T08:56:51.000Z</time>
      </trkpt>
      <trkpt lat="43.50215" lon="5.31053">
        <ele>161.8</ele>
        <time>2025-05-07T08:56:54.000Z</time>
      </trkpt>
      <trkpt lat="43.50217" lon="5.31055">
        <ele>161.7</ele>
        <time>2025-05-07T08:56:56.000Z</time>
      </trkpt>
      <trkpt lat="43.50219" lon="5.31057">
        <ele>161.6</ele>
        <time>2025-05-07T08:56:58.000Z</time>
      </trkpt>
      <trkpt lat="43.50221" lon="5.31059">
        <ele>161.5</ele>
        <time>2025-05-07T08:57:00.000Z</time>
      </trkpt>
      <trkpt lat="43.50223" lon="5.3106">
        <ele>161.5</ele>
        <time>2025-05-07T08:57:02.000Z</time>
      </trkpt>
      <trkpt lat="43.50225" lon="5.31061">
        <ele>161.7</ele>
        <time>2025-05-07T08:57:04.000Z</time>
      </trkpt>
      <trkpt lat="43.50227" lon="5.31064">
        <ele>161.7</ele>
        <time>2025-05-07T08:57:07.000Z</time>
      </trkpt>
      <trkpt lat="43.50229" lon="5.31065">
        <ele>161.8</ele>
        <time>2025-05-07T08:57:09.000Z</time>
      </trkpt>
      <trkpt lat="43.50231" lon="5.31066">
        <ele>161.9</ele>
        <time>2025-05-07T08:57:11.000Z</time>
      </trkpt>
      <trkpt lat="43.50233" lon="5.31068">
        <ele>161.9</ele>
        <time>2025-05-07T08:57:13.000Z</time>
      </trkpt>
      <trkpt lat="43.50235" lon="5.3107">
        <ele>161.8</ele>
        <time>2025-05-07T08:57:16.000Z</time>
      </trkpt>
      <trkpt lat="43.50237" lon="5.31072">
        <ele>161.7</ele>
        <time>2025-05-07T08:57:19.000Z</time>
      </trkpt>
      <trkpt lat="43.50239" lon="5.31073">
        <ele>161.7</ele>
        <time>2025-05-07T08:57:21.000Z</time>
      </trkpt>
      <trkpt lat="43.50241" lon="5.31075">
        <ele>161.7</ele>
        <time>2025-05-07T08:57:23.000Z</time>
      </trkpt>
      <trkpt lat="43.50243" lon="5.31076">
        <ele>161.6</ele>
        <time>2025-05-07T08:57:25.000Z</time>
      </trkpt>
      <trkpt lat="43.50245" lon="5.31078">
        <ele>161.5</ele>
        <time>2025-05-07T08:57:27.000Z</time>
      </trkpt>
      <trkpt lat="43.50247" lon="5.31079">
        <ele>161.5</ele>
        <time>2025-05-07T08:57:29.000Z</time>
      </trkpt>
      <trkpt lat="43.50249" lon="5.31082">
        <ele>161.1</ele>
        <time>2025-05-07T08:57:31.000Z</time>
      </trkpt>
      <trkpt lat="43.50251" lon="5.31083">
        <ele>161</ele>
        <time>2025-05-07T08:57:33.000Z</time>
      </trkpt>
      <trkpt lat="43.50253" lon="5.31085">
        <ele>161.2</ele>
        <time>2025-05-07T08:57:35.000Z</time>
      </trkpt>
      <trkpt lat="43.50255" lon="5.31085">
        <ele>161.3</ele>
        <time>2025-05-07T08:57:37.000Z</time>
      </trkpt>
      <trkpt lat="43.50256" lon="5.31087">
        <ele>161.3</ele>
        <time>2025-05-07T08:57:39.000Z</time>
      </trkpt>
      <trkpt lat="43.50258" lon="5.31088">
        <ele>161.3</ele>
        <time>2025-05-07T08:57:41.000Z</time>
      </trkpt>
      <trkpt lat="43.5026" lon="5.3109">
        <ele>161.4</ele>
        <time>2025-05-07T08:57:43.000Z</time>
      </trkpt>
      <trkpt lat="43.50261" lon="5.31092">
        <ele>161.1</ele>
        <time>2025-05-07T08:57:45.000Z</time>
      </trkpt>
      <trkpt lat="43.50263" lon="5.31094">
        <ele>161</ele>
        <time>2025-05-07T08:57:47.000Z</time>
      </trkpt>
      <trkpt lat="43.50265" lon="5.31096">
        <ele>161</ele>
        <time>2025-05-07T08:57:49.000Z</time>
      </trkpt>
      <trkpt lat="43.50267" lon="5.31097">
        <ele>161</ele>
        <time>2025-05-07T08:57:51.000Z</time>
      </trkpt>
      <trkpt lat="43.5027" lon="5.31099">
        <ele>161.1</ele>
        <time>2025-05-07T08:57:53.000Z</time>
      </trkpt>
      <trkpt lat="43.50271" lon="5.311">
        <ele>161.1</ele>
        <time>2025-05-07T08:57:55.000Z</time>
      </trkpt>
      <trkpt lat="43.50274" lon="5.31101">
        <ele>161.1</ele>
        <time>2025-05-07T08:57:57.000Z</time>
      </trkpt>
      <trkpt lat="43.50275" lon="5.31102">
        <ele>161.1</ele>
        <time>2025-05-07T08:57:59.000Z</time>
      </trkpt>
      <trkpt lat="43.50277" lon="5.31103">
        <ele>161.1</ele>
        <time>2025-05-07T08:58:01.000Z</time>
      </trkpt>
      <trkpt lat="43.50279" lon="5.31105">
        <ele>161</ele>
        <time>2025-05-07T08:58:03.000Z</time>
      </trkpt>
      <trkpt lat="43.50281" lon="5.31107">
        <ele>161</ele>
        <time>2025-05-07T08:58:05.000Z</time>
      </trkpt>
      <trkpt lat="43.50283" lon="5.31109">
        <ele>160.9</ele>
        <time>2025-05-07T08:58:07.000Z</time>
      </trkpt>
      <trkpt lat="43.50285" lon="5.3111">
        <ele>160.9</ele>
        <time>2025-05-07T08:58:09.000Z</time>
      </trkpt>
      <trkpt lat="43.50287" lon="5.31112">
        <ele>160.9</ele>
        <time>2025-05-07T08:58:11.000Z</time>
      </trkpt>
      <trkpt lat="43.50289" lon="5.31113">
        <ele>161</ele>
        <time>2025-05-07T08:58:13.000Z</time>
      </trkpt>
      <trkpt lat="43.50292" lon="5.31115">
        <ele>161.2</ele>
        <time>2025-05-07T08:58:16.000Z</time>
      </trkpt>
      <trkpt lat="43.50294" lon="5.31117">
        <ele>161.3</ele>
        <time>2025-05-07T08:58:19.000Z</time>
      </trkpt>
      <trkpt lat="43.50296" lon="5.3112">
        <ele>161.3</ele>
        <time>2025-05-07T08:58:21.000Z</time>
      </trkpt>
      <trkpt lat="43.50297" lon="5.31123">
        <ele>161.2</ele>
        <time>2025-05-07T08:58:23.000Z</time>
      </trkpt>
      <trkpt lat="43.50298" lon="5.31126">
        <ele>161.2</ele>
        <time>2025-05-07T08:58:25.000Z</time>
      </trkpt>
      <trkpt lat="43.503" lon="5.3113">
        <ele>161</ele>
        <time>2025-05-07T08:58:28.000Z</time>
      </trkpt>
      <trkpt lat="43.50302" lon="5.31132">
        <ele>161.1</ele>
        <time>2025-05-07T08:58:30.000Z</time>
      </trkpt>
      <trkpt lat="43.50303" lon="5.31135">
        <ele>161</ele>
        <time>2025-05-07T08:58:32.000Z</time>
      </trkpt>
      <trkpt lat="43.50303" lon="5.31137">
        <ele>160.9</ele>
        <time>2025-05-07T08:58:34.000Z</time>
      </trkpt>
      <trkpt lat="43.50304" lon="5.31139">
        <ele>160.8</ele>
        <time>2025-05-07T08:58:36.000Z</time>
      </trkpt>
      <trkpt lat="43.50305" lon="5.31142">
        <ele>160.9</ele>
        <time>2025-05-07T08:58:39.000Z</time>
      </trkpt>
      <trkpt lat="43.50306" lon="5.31145">
        <ele>161</ele>
        <time>2025-05-07T08:58:41.000Z</time>
      </trkpt>
      <trkpt lat="43.50307" lon="5.31149">
        <ele>161.2</ele>
        <time>2025-05-07T08:58:43.000Z</time>
      </trkpt>
      <trkpt lat="43.50309" lon="5.31152">
        <ele>161.5</ele>
        <time>2025-05-07T08:58:46.000Z</time>
      </trkpt>
      <trkpt lat="43.5031" lon="5.31155">
        <ele>161.7</ele>
        <time>2025-05-07T08:58:49.000Z</time>
      </trkpt>
      <trkpt lat="43.50311" lon="5.31158">
        <ele>161.9</ele>
        <time>2025-05-07T08:58:51.000Z</time>
      </trkpt>
      <trkpt lat="43.50312" lon="5.31161">
        <ele>162.1</ele>
        <time>2025-05-07T08:58:53.000Z</time>
      </trkpt>
      <trkpt lat="43.50313" lon="5.31164">
        <ele>162.2</ele>
        <time>2025-05-07T08:58:55.000Z</time>
      </trkpt>
      <trkpt lat="43.50315" lon="5.31167">
        <ele>162.2</ele>
        <time>2025-05-07T08:58:58.000Z</time>
      </trkpt>
      <trkpt lat="43.50316" lon="5.3117">
        <ele>162.3</ele>
        <time>2025-05-07T08:59:00.000Z</time>
      </trkpt>
      <trkpt lat="43.50317" lon="5.31173">
        <ele>162.3</ele>
        <time>2025-05-07T08:59:02.000Z</time>
      </trkpt>
      <trkpt lat="43.50319" lon="5.31176">
        <ele>162.5</ele>
        <time>2025-05-07T08:59:04.000Z</time>
      </trkpt>
      <trkpt lat="43.5032" lon="5.3118">
        <ele>162.4</ele>
        <time>2025-05-07T08:59:07.000Z</time>
      </trkpt>
      <trkpt lat="43.50321" lon="5.31182">
        <ele>162.4</ele>
        <time>2025-05-07T08:59:09.000Z</time>
      </trkpt>
      <trkpt lat="43.50323" lon="5.31186">
        <ele>162.5</ele>
        <time>2025-05-07T08:59:11.000Z</time>
      </trkpt>
      <trkpt lat="43.50323" lon="5.31189">
        <ele>162.3</ele>
        <time>2025-05-07T08:59:13.000Z</time>
      </trkpt>
      <trkpt lat="43.50324" lon="5.31192">
        <ele>162.1</ele>
        <time>2025-05-07T08:59:15.000Z</time>
      </trkpt>
      <trkpt lat="43.50324" lon="5.31195">
        <ele>162</ele>
        <time>2025-05-07T08:59:17.000Z</time>
      </trkpt>
      <trkpt lat="43.50324" lon="5.31199">
        <ele>161.8</ele>
        <time>2025-05-07T08:59:19.000Z</time>
      </trkpt>
      <trkpt lat="43.50325" lon="5.31202">
        <ele>161.7</ele>
        <time>2025-05-07T08:59:21.000Z</time>
      </trkpt>
      <trkpt lat="43.50326" lon="5.31204">
        <ele>161.7</ele>
        <time>2025-05-07T08:59:23.000Z</time>
      </trkpt>
      <trkpt lat="43.50327" lon="5.31206">
        <ele>161.7</ele>
        <time>2025-05-07T08:59:25.000Z</time>
      </trkpt>
      <trkpt lat="43.50328" lon="5.31209">
        <ele>161.7</ele>
        <time>2025-05-07T08:59:27.000Z</time>
      </trkpt>
      <trkpt lat="43.50329" lon="5.31212">
        <ele>161.8</ele>
        <time>2025-05-07T08:59:29.000Z</time>
      </trkpt>
      <trkpt lat="43.50329" lon="5.31215">
        <ele>161.7</ele>
        <time>2025-05-07T08:59:31.000Z</time>
      </trkpt>
      <trkpt lat="43.5033" lon="5.31217">
        <ele>161.7</ele>
        <time>2025-05-07T08:59:33.000Z</time>
      </trkpt>
      <trkpt lat="43.50332" lon="5.3122">
        <ele>161.8</ele>
        <time>2025-05-07T08:59:35.000Z</time>
      </trkpt>
      <trkpt lat="43.50333" lon="5.31223">
        <ele>161.8</ele>
        <time>2025-05-07T08:59:37.000Z</time>
      </trkpt>
      <trkpt lat="43.50333" lon="5.31226">
        <ele>161.7</ele>
        <time>2025-05-07T08:59:39.000Z</time>
      </trkpt>
      <trkpt lat="43.50334" lon="5.31228">
        <ele>161.8</ele>
        <time>2025-05-07T08:59:41.000Z</time>
      </trkpt>
      <trkpt lat="43.50336" lon="5.31231">
        <ele>162</ele>
        <time>2025-05-07T08:59:44.000Z</time>
      </trkpt>
      <trkpt lat="43.50337" lon="5.31234">
        <ele>162.1</ele>
        <time>2025-05-07T08:59:46.000Z</time>
      </trkpt>
      <trkpt lat="43.50339" lon="5.31236">
        <ele>162.5</ele>
        <time>2025-05-07T08:59:48.000Z</time>
      </trkpt>
      <trkpt lat="43.5034" lon="5.31238">
        <ele>162.5</ele>
        <time>2025-05-07T08:59:50.000Z</time>
      </trkpt>
      <trkpt lat="43.50342" lon="5.31241">
        <ele>162.6</ele>
        <time>2025-05-07T08:59:52.000Z</time>
      </trkpt>
      <trkpt lat="43.50343" lon="5.31244">
        <ele>162.6</ele>
        <time>2025-05-07T08:59:54.000Z</time>
      </trkpt>
      <trkpt lat="43.50344" lon="5.31247">
        <ele>162.6</ele>
        <time>2025-05-07T08:59:56.000Z</time>
      </trkpt>
      <trkpt lat="43.50345" lon="5.31249">
        <ele>162.6</ele>
        <time>2025-05-07T08:59:58.000Z</time>
      </trkpt>
      <trkpt lat="43.50346" lon="5.31252">
        <ele>162.5</ele>
        <time>2025-05-07T09:00:00.000Z</time>
      </trkpt>
      <trkpt lat="43.50347" lon="5.31254">
        <ele>162.4</ele>
        <time>2025-05-07T09:00:02.000Z</time>
      </trkpt>
      <trkpt lat="43.50349" lon="5.31256">
        <ele>162.2</ele>
        <time>2025-05-07T09:00:04.000Z</time>
      </trkpt>
      <trkpt lat="43.5035" lon="5.31259">
        <ele>162</ele>
        <time>2025-05-07T09:00:06.000Z</time>
      </trkpt>
      <trkpt lat="43.50351" lon="5.31261">
        <ele>162</ele>
        <time>2025-05-07T09:00:08.000Z</time>
      </trkpt>
      <trkpt lat="43.50352" lon="5.31263">
        <ele>161.9</ele>
        <time>2025-05-07T09:00:10.000Z</time>
      </trkpt>
      <trkpt lat="43.50354" lon="5.31266">
        <ele>161.7</ele>
        <time>2025-05-07T09:00:12.000Z</time>
      </trkpt>
      <trkpt lat="43.50355" lon="5.31268">
        <ele>161.5</ele>
        <time>2025-05-07T09:00:14.000Z</time>
      </trkpt>
      <trkpt lat="43.50356" lon="5.3127">
        <ele>161.4</ele>
        <time>2025-05-07T09:00:16.000Z</time>
      </trkpt>
      <trkpt lat="43.50357" lon="5.31273">
        <ele>161.1</ele>
        <time>2025-05-07T09:00:18.000Z</time>
      </trkpt>
      <trkpt lat="43.50358" lon="5.31276">
        <ele>160.7</ele>
        <time>2025-05-07T09:00:20.000Z</time>
      </trkpt>
      <trkpt lat="43.50359" lon="5.31278">
        <ele>160.5</ele>
        <time>2025-05-07T09:00:22.000Z</time>
      </trkpt>
      <trkpt lat="43.5036" lon="5.31281">
        <ele>160.7</ele>
        <time>2025-05-07T09:00:24.000Z</time>
      </trkpt>
      <trkpt lat="43.50361" lon="5.31284">
        <ele>160.8</ele>
        <time>2025-05-07T09:00:26.000Z</time>
      </trkpt>
      <trkpt lat="43.50363" lon="5.31288">
        <ele>161.1</ele>
        <time>2025-05-07T09:00:29.000Z</time>
      </trkpt>
      <trkpt lat="43.50364" lon="5.31291">
        <ele>161.3</ele>
        <time>2025-05-07T09:00:31.000Z</time>
      </trkpt>
      <trkpt lat="43.50364" lon="5.31293">
        <ele>161.3</ele>
        <time>2025-05-07T09:00:33.000Z</time>
      </trkpt>
      <trkpt lat="43.50365" lon="5.31296">
        <ele>161.4</ele>
        <time>2025-05-07T09:00:35.000Z</time>
      </trkpt>
      <trkpt lat="43.50367" lon="5.31298">
        <ele>161.5</ele>
        <time>2025-05-07T09:00:37.000Z</time>
      </trkpt>
      <trkpt lat="43.50368" lon="5.31301">
        <ele>161.5</ele>
        <time>2025-05-07T09:00:39.000Z</time>
      </trkpt>
      <trkpt lat="43.50369" lon="5.31304">
        <ele>161.5</ele>
        <time>2025-05-07T09:00:41.000Z</time>
      </trkpt>
      <trkpt lat="43.50369" lon="5.31306">
        <ele>161.4</ele>
        <time>2025-05-07T09:00:43.000Z</time>
      </trkpt>
      <trkpt lat="43.50371" lon="5.31309">
        <ele>161.4</ele>
        <time>2025-05-07T09:00:45.000Z</time>
      </trkpt>
      <trkpt lat="43.50372" lon="5.31311">
        <ele>161.4</ele>
        <time>2025-05-07T09:00:47.000Z</time>
      </trkpt>
      <trkpt lat="43.50373" lon="5.31313">
        <ele>161.3</ele>
        <time>2025-05-07T09:00:49.000Z</time>
      </trkpt>
      <trkpt lat="43.50374" lon="5.31315">
        <ele>161.2</ele>
        <time>2025-05-07T09:00:51.000Z</time>
      </trkpt>
      <trkpt lat="43.50376" lon="5.31317">
        <ele>161.2</ele>
        <time>2025-05-07T09:00:53.000Z</time>
      </trkpt>
      <trkpt lat="43.50378" lon="5.3132">
        <ele>161</ele>
        <time>2025-05-07T09:00:56.000Z</time>
      </trkpt>
      <trkpt lat="43.5038" lon="5.31323">
        <ele>160.8</ele>
        <time>2025-05-07T09:00:58.000Z</time>
      </trkpt>
      <trkpt lat="43.50382" lon="5.31325">
        <ele>160.8</ele>
        <time>2025-05-07T09:01:00.000Z</time>
      </trkpt>
      <trkpt lat="43.50383" lon="5.31326">
        <ele>160.8</ele>
        <time>2025-05-07T09:01:02.000Z</time>
      </trkpt>
      <trkpt lat="43.50385" lon="5.31327">
        <ele>160.7</ele>
        <time>2025-05-07T09:01:04.000Z</time>
      </trkpt>
      <trkpt lat="43.50387" lon="5.3133">
        <ele>160.5</ele>
        <time>2025-05-07T09:01:06.000Z</time>
      </trkpt>
      <trkpt lat="43.50391" lon="5.3133">
        <ele>160.6</ele>
        <time>2025-05-07T09:01:09.000Z</time>
      </trkpt>
      <trkpt lat="43.50394" lon="5.31331">
        <ele>160.5</ele>
        <time>2025-05-07T09:01:12.000Z</time>
      </trkpt>
      <trkpt lat="43.50397" lon="5.31331">
        <ele>160.4</ele>
        <time>2025-05-07T09:01:15.000Z</time>
      </trkpt>
      <trkpt lat="43.50399" lon="5.31331">
        <ele>160.5</ele>
        <time>2025-05-07T09:01:17.000Z</time>
      </trkpt>
      <trkpt lat="43.50401" lon="5.31332">
        <ele>160.3</ele>
        <time>2025-05-07T09:01:20.000Z</time>
      </trkpt>
      <trkpt lat="43.50403" lon="5.31332">
        <ele>160.2</ele>
        <time>2025-05-07T09:01:22.000Z</time>
      </trkpt>
      <trkpt lat="43.50405" lon="5.31332">
        <ele>160.3</ele>
        <time>2025-05-07T09:01:24.000Z</time>
      </trkpt>
      <trkpt lat="43.50408" lon="5.31332">
        <ele>160.3</ele>
        <time>2025-05-07T09:01:27.000Z</time>
      </trkpt>
      <trkpt lat="43.5041" lon="5.31333">
        <ele>160.1</ele>
        <time>2025-05-07T09:01:29.000Z</time>
      </trkpt>
      <trkpt lat="43.50412" lon="5.31332">
        <ele>160.5</ele>
        <time>2025-05-07T09:01:32.000Z</time>
      </trkpt>
      <trkpt lat="43.50415" lon="5.31331">
        <ele>160.7</ele>
        <time>2025-05-07T09:01:34.000Z</time>
      </trkpt>
      <trkpt lat="43.50417" lon="5.31331">
        <ele>160.6</ele>
        <time>2025-05-07T09:01:36.000Z</time>
      </trkpt>
      <trkpt lat="43.50419" lon="5.31332">
        <ele>160.5</ele>
        <time>2025-05-07T09:01:38.000Z</time>
      </trkpt>
      <trkpt lat="43.50421" lon="5.31331">
        <ele>160.6</ele>
        <time>2025-05-07T09:01:40.000Z</time>
      </trkpt>
      <trkpt lat="43.50424" lon="5.31332">
        <ele>160.5</ele>
        <time>2025-05-07T09:01:42.000Z</time>
      </trkpt>
      <trkpt lat="43.50426" lon="5.31332">
        <ele>160.4</ele>
        <time>2025-05-07T09:01:44.000Z</time>
      </trkpt>
      <trkpt lat="43.50428" lon="5.31332">
        <ele>160.4</ele>
        <time>2025-05-07T09:01:46.000Z</time>
      </trkpt>
      <trkpt lat="43.5043" lon="5.31331">
        <ele>160.6</ele>
        <time>2025-05-07T09:01:48.000Z</time>
      </trkpt>
      <trkpt lat="43.50432" lon="5.3133">
        <ele>160.8</ele>
        <time>2025-05-07T09:01:50.000Z</time>
      </trkpt>
      <trkpt lat="43.50434" lon="5.3133">
        <ele>160.8</ele>
        <time>2025-05-07T09:01:52.000Z</time>
      </trkpt>
      <trkpt lat="43.50436" lon="5.3133">
        <ele>160.9</ele>
        <time>2025-05-07T09:01:54.000Z</time>
      </trkpt>
      <trkpt lat="43.50439" lon="5.31329">
        <ele>161</ele>
        <time>2025-05-07T09:01:56.000Z</time>
      </trkpt>
      <trkpt lat="43.50441" lon="5.31329">
        <ele>161.1</ele>
        <time>2025-05-07T09:01:58.000Z</time>
      </trkpt>
      <trkpt lat="43.50443" lon="5.31329">
        <ele>161.2</ele>
        <time>2025-05-07T09:02:00.000Z</time>
      </trkpt>
      <trkpt lat="43.50446" lon="5.31327">
        <ele>161.5</ele>
        <time>2025-05-07T09:02:03.000Z</time>
      </trkpt>
      <trkpt lat="43.50449" lon="5.31326">
        <ele>161.6</ele>
        <time>2025-05-07T09:02:05.000Z</time>
      </trkpt>
      <trkpt lat="43.50451" lon="5.31324">
        <ele>161.9</ele>
        <time>2025-05-07T09:02:08.000Z</time>
      </trkpt>
      <trkpt lat="43.50454" lon="5.31323">
        <ele>161.9</ele>
        <time>2025-05-07T09:02:10.000Z</time>
      </trkpt>
      <trkpt lat="43.50456" lon="5.31322">
        <ele>161.9</ele>
        <time>2025-05-07T09:02:12.000Z</time>
      </trkpt>
      <trkpt lat="43.50458" lon="5.31321">
        <ele>161.9</ele>
        <time>2025-05-07T09:02:14.000Z</time>
      </trkpt>
      <trkpt lat="43.5046" lon="5.31321">
        <ele>161.9</ele>
        <time>2025-05-07T09:02:16.000Z</time>
      </trkpt>
      <trkpt lat="43.50462" lon="5.3132">
        <ele>161.8</ele>
        <time>2025-05-07T09:02:18.000Z</time>
      </trkpt>
      <trkpt lat="43.50465" lon="5.3132">
        <ele>161.6</ele>
        <time>2025-05-07T09:02:20.000Z</time>
      </trkpt>
      <trkpt lat="43.50467" lon="5.31319">
        <ele>161.6</ele>
        <time>2025-05-07T09:02:22.000Z</time>
      </trkpt>
      <trkpt lat="43.5047" lon="5.31318">
        <ele>161.5</ele>
        <time>2025-05-07T09:02:24.000Z</time>
      </trkpt>
      <trkpt lat="43.50472" lon="5.31317">
        <ele>161.3</ele>
        <time>2025-05-07T09:02:26.000Z</time>
      </trkpt>
      <trkpt lat="43.50475" lon="5.31316">
        <ele>161.3</ele>
        <time>2025-05-07T09:02:28.000Z</time>
      </trkpt>
      <trkpt lat="43.50477" lon="5.31316">
        <ele>161.2</ele>
        <time>2025-05-07T09:02:30.000Z</time>
      </trkpt>
      <trkpt lat="43.50479" lon="5.31316">
        <ele>161</ele>
        <time>2025-05-07T09:02:32.000Z</time>
      </trkpt>
      <trkpt lat="43.50481" lon="5.31315">
        <ele>161</ele>
        <time>2025-05-07T09:02:34.000Z</time>
      </trkpt>
      <trkpt lat="43.50483" lon="5.31314">
        <ele>161</ele>
        <time>2025-05-07T09:02:36.000Z</time>
      </trkpt>
      <trkpt lat="43.50486" lon="5.31313">
        <ele>160.9</ele>
        <time>2025-05-07T09:02:39.000Z</time>
      </trkpt>
      <trkpt lat="43.50488" lon="5.31312">
        <ele>161</ele>
        <time>2025-05-07T09:02:41.000Z</time>
      </trkpt>
      <trkpt lat="43.5049" lon="5.3131">
        <ele>161</ele>
        <time>2025-05-07T09:02:43.000Z</time>
      </trkpt>
      <trkpt lat="43.50492" lon="5.31309">
        <ele>161.1</ele>
        <time>2025-05-07T09:02:45.000Z</time>
      </trkpt>
      <trkpt lat="43.50495" lon="5.3131">
        <ele>160.8</ele>
        <time>2025-05-07T09:02:47.000Z</time>
      </trkpt>
      <trkpt lat="43.50497" lon="5.3131">
        <ele>160.6</ele>
        <time>2025-05-07T09:02:49.000Z</time>
      </trkpt>
      <trkpt lat="43.50499" lon="5.31309">
        <ele>160.6</ele>
        <time>2025-05-07T09:02:51.000Z</time>
      </trkpt>
      <trkpt lat="43.50501" lon="5.31307">
        <ele>160.7</ele>
        <time>2025-05-07T09:02:53.000Z</time>
      </trkpt>
      <trkpt lat="43.50503" lon="5.31306">
        <ele>160.7</ele>
        <time>2025-05-07T09:02:55.000Z</time>
      </trkpt>
      <trkpt lat="43.50505" lon="5.31304">
        <ele>161</ele>
        <time>2025-05-07T09:02:57.000Z</time>
      </trkpt>
      <trkpt lat="43.50507" lon="5.31302">
        <ele>161.2</ele>
        <time>2025-05-07T09:02:59.000Z</time>
      </trkpt>
      <trkpt lat="43.50509" lon="5.313">
        <ele>161.4</ele>
        <time>2025-05-07T09:03:01.000Z</time>
      </trkpt>
      <trkpt lat="43.50511" lon="5.31299">
        <ele>161.4</ele>
        <time>2025-05-07T09:03:03.000Z</time>
      </trkpt>
      <trkpt lat="43.50513" lon="5.31297">
        <ele>161.6</ele>
        <time>2025-05-07T09:03:05.000Z</time>
      </trkpt>
      <trkpt lat="43.50515" lon="5.31296">
        <ele>161.5</ele>
        <time>2025-05-07T09:03:09.000Z</time>
      </trkpt>
      <trkpt lat="43.50518" lon="5.31295">
        <ele>161.5</ele>
        <time>2025-05-07T09:03:11.000Z</time>
      </trkpt>
      <trkpt lat="43.5052" lon="5.31294">
        <ele>161.2</ele>
        <time>2025-05-07T09:03:13.000Z</time>
      </trkpt>
      <trkpt lat="43.50522" lon="5.31293">
        <ele>161.2</ele>
        <time>2025-05-07T09:03:15.000Z</time>
      </trkpt>
      <trkpt lat="43.50524" lon="5.31291">
        <ele>161.2</ele>
        <time>2025-05-07T09:03:17.000Z</time>
      </trkpt>
      <trkpt lat="43.50526" lon="5.31289">
        <ele>161.1</ele>
        <time>2025-05-07T09:03:19.000Z</time>
      </trkpt>
      <trkpt lat="43.50528" lon="5.31287">
        <ele>161</ele>
        <time>2025-05-07T09:03:21.000Z</time>
      </trkpt>
      <trkpt lat="43.5053" lon="5.31285">
        <ele>161.1</ele>
        <time>2025-05-07T09:03:23.000Z</time>
      </trkpt>
      <trkpt lat="43.50532" lon="5.31283">
        <ele>161</ele>
        <time>2025-05-07T09:03:25.000Z</time>
      </trkpt>
      <trkpt lat="43.50534" lon="5.31282">
        <ele>161</ele>
        <time>2025-05-07T09:03:28.000Z</time>
      </trkpt>
      <trkpt lat="43.50534" lon="5.31279">
        <ele>161.2</ele>
        <time>2025-05-07T09:03:30.000Z</time>
      </trkpt>
      <trkpt lat="43.50536" lon="5.31275">
        <ele>161.4</ele>
        <time>2025-05-07T09:03:33.000Z</time>
      </trkpt>
      <trkpt lat="43.50538" lon="5.31272">
        <ele>161.4</ele>
        <time>2025-05-07T09:03:35.000Z</time>
      </trkpt>
      <trkpt lat="43.5054" lon="5.31269">
        <ele>161.6</ele>
        <time>2025-05-07T09:03:37.000Z</time>
      </trkpt>
      <trkpt lat="43.50541" lon="5.31267">
        <ele>161.6</ele>
        <time>2025-05-07T09:03:39.000Z</time>
      </trkpt>
      <trkpt lat="43.50543" lon="5.31264">
        <ele>161.6</ele>
        <time>2025-05-07T09:03:42.000Z</time>
      </trkpt>
      <trkpt lat="43.50544" lon="5.31261">
        <ele>161.6</ele>
        <time>2025-05-07T09:03:44.000Z</time>
      </trkpt>
      <trkpt lat="43.50546" lon="5.31259">
        <ele>161.5</ele>
        <time>2025-05-07T09:03:46.000Z</time>
      </trkpt>
      <trkpt lat="43.50546" lon="5.31255">
        <ele>161.6</ele>
        <time>2025-05-07T09:03:48.000Z</time>
      </trkpt>
      <trkpt lat="43.50547" lon="5.31253">
        <ele>161.6</ele>
        <time>2025-05-07T09:03:50.000Z</time>
      </trkpt>
      <trkpt lat="43.50549" lon="5.31251">
        <ele>161.4</ele>
        <time>2025-05-07T09:03:52.000Z</time>
      </trkpt>
      <trkpt lat="43.50551" lon="5.31248">
        <ele>161.2</ele>
        <time>2025-05-07T09:03:55.000Z</time>
      </trkpt>
      <trkpt lat="43.50552" lon="5.31245">
        <ele>160.9</ele>
        <time>2025-05-07T09:03:58.000Z</time>
      </trkpt>
      <trkpt lat="43.50554" lon="5.31241">
        <ele>160.6</ele>
        <time>2025-05-07T09:04:00.000Z</time>
      </trkpt>
      <trkpt lat="43.50556" lon="5.31238">
        <ele>160.4</ele>
        <time>2025-05-07T09:04:03.000Z</time>
      </trkpt>
      <trkpt lat="43.50559" lon="5.31238">
        <ele>160.4</ele>
        <time>2025-05-07T09:04:06.000Z</time>
      </trkpt>
      <trkpt lat="43.5056" lon="5.31235">
        <ele>160.4</ele>
        <time>2025-05-07T09:04:08.000Z</time>
      </trkpt>
      <trkpt lat="43.50562" lon="5.31234">
        <ele>160.5</ele>
        <time>2025-05-07T09:04:12.000Z</time>
      </trkpt>
      <trkpt lat="43.50564" lon="5.31233">
        <ele>160.4</ele>
        <time>2025-05-07T09:04:14.000Z</time>
      </trkpt>
      <trkpt lat="43.50566" lon="5.31231">
        <ele>160.4</ele>
        <time>2025-05-07T09:04:17.000Z</time>
      </trkpt>
      <trkpt lat="43.50568" lon="5.31229">
        <ele>160.4</ele>
        <time>2025-05-07T09:04:19.000Z</time>
      </trkpt>
      <trkpt lat="43.5057" lon="5.31227">
        <ele>160.4</ele>
        <time>2025-05-07T09:04:21.000Z</time>
      </trkpt>
      <trkpt lat="43.50572" lon="5.31225">
        <ele>160.4</ele>
        <time>2025-05-07T09:04:23.000Z</time>
      </trkpt>
      <trkpt lat="43.50574" lon="5.31224">
        <ele>160.3</ele>
        <time>2025-05-07T09:04:25.000Z</time>
      </trkpt>
      <trkpt lat="43.50577" lon="5.31222">
        <ele>160.2</ele>
        <time>2025-05-07T09:04:27.000Z</time>
      </trkpt>
      <trkpt lat="43.50579" lon="5.31221">
        <ele>160.2</ele>
        <time>2025-05-07T09:04:29.000Z</time>
      </trkpt>
      <trkpt lat="43.50581" lon="5.31219">
        <ele>160.2</ele>
        <time>2025-05-07T09:04:31.000Z</time>
      </trkpt>
      <trkpt lat="43.50583" lon="5.31218">
        <ele>160.2</ele>
        <time>2025-05-07T09:04:33.000Z</time>
      </trkpt>
      <trkpt lat="43.50585" lon="5.31218">
        <ele>160.2</ele>
        <time>2025-05-07T09:04:35.000Z</time>
      </trkpt>
      <trkpt lat="43.50587" lon="5.31217">
        <ele>160.2</ele>
        <time>2025-05-07T09:04:37.000Z</time>
      </trkpt>
      <trkpt lat="43.50589" lon="5.31217">
        <ele>160.2</ele>
        <time>2025-05-07T09:04:39.000Z</time>
      </trkpt>
      <trkpt lat="43.50591" lon="5.31216">
        <ele>160.2</ele>
        <time>2025-05-07T09:04:41.000Z</time>
      </trkpt>
      <trkpt lat="43.50594" lon="5.31217">
        <ele>160.1</ele>
        <time>2025-05-07T09:04:44.000Z</time>
      </trkpt>
      <trkpt lat="43.50597" lon="5.31219">
        <ele>160.1</ele>
        <time>2025-05-07T09:04:46.000Z</time>
      </trkpt>
      <trkpt lat="43.50599" lon="5.3122">
        <ele>160</ele>
        <time>2025-05-07T09:04:48.000Z</time>
      </trkpt>
      <trkpt lat="43.50601" lon="5.31221">
        <ele>160</ele>
        <time>2025-05-07T09:04:50.000Z</time>
      </trkpt>
      <trkpt lat="43.50604" lon="5.31223">
        <ele>160</ele>
        <time>2025-05-07T09:04:53.000Z</time>
      </trkpt>
      <trkpt lat="43.50606" lon="5.31223">
        <ele>160</ele>
        <time>2025-05-07T09:04:55.000Z</time>
      </trkpt>
      <trkpt lat="43.50608" lon="5.31225">
        <ele>159.9</ele>
        <time>2025-05-07T09:04:58.000Z</time>
      </trkpt>
      <trkpt lat="43.5061" lon="5.31227">
        <ele>159.8</ele>
        <time>2025-05-07T09:05:00.000Z</time>
      </trkpt>
      <trkpt lat="43.50612" lon="5.3123">
        <ele>159.7</ele>
        <time>2025-05-07T09:05:02.000Z</time>
      </trkpt>
      <trkpt lat="43.50613" lon="5.31233">
        <ele>159.6</ele>
        <time>2025-05-07T09:05:04.000Z</time>
      </trkpt>
      <trkpt lat="43.50615" lon="5.31235">
        <ele>159.5</ele>
        <time>2025-05-07T09:05:06.000Z</time>
      </trkpt>
      <trkpt lat="43.50617" lon="5.31237">
        <ele>159.5</ele>
        <time>2025-05-07T09:05:08.000Z</time>
      </trkpt>
      <trkpt lat="43.50618" lon="5.3124">
        <ele>159.4</ele>
        <time>2025-05-07T09:05:10.000Z</time>
      </trkpt>
      <trkpt lat="43.5062" lon="5.31242">
        <ele>159.4</ele>
        <time>2025-05-07T09:05:12.000Z</time>
      </trkpt>
      <trkpt lat="43.50621" lon="5.31244">
        <ele>159.4</ele>
        <time>2025-05-07T09:05:14.000Z</time>
      </trkpt>
      <trkpt lat="43.50623" lon="5.31246">
        <ele>159.4</ele>
        <time>2025-05-07T09:05:16.000Z</time>
      </trkpt>
      <trkpt lat="43.50624" lon="5.31249">
        <ele>159.5</ele>
        <time>2025-05-07T09:05:18.000Z</time>
      </trkpt>
      <trkpt lat="43.50625" lon="5.3125">
        <ele>159.5</ele>
        <time>2025-05-07T09:05:20.000Z</time>
      </trkpt>
      <trkpt lat="43.50627" lon="5.31252">
        <ele>159.6</ele>
        <time>2025-05-07T09:05:22.000Z</time>
      </trkpt>
      <trkpt lat="43.50629" lon="5.31255">
        <ele>159.7</ele>
        <time>2025-05-07T09:05:24.000Z</time>
      </trkpt>
      <trkpt lat="43.50631" lon="5.31257">
        <ele>159.8</ele>
        <time>2025-05-07T09:05:26.000Z</time>
      </trkpt>
      <trkpt lat="43.50633" lon="5.31259">
        <ele>159.9</ele>
        <time>2025-05-07T09:05:28.000Z</time>
      </trkpt>
      <trkpt lat="43.50635" lon="5.31261">
        <ele>159.9</ele>
        <time>2025-05-07T09:05:30.000Z</time>
      </trkpt>
      <trkpt lat="43.50636" lon="5.31263">
        <ele>159.9</ele>
        <time>2025-05-07T09:05:32.000Z</time>
      </trkpt>
      <trkpt lat="43.50638" lon="5.31265">
        <ele>160</ele>
        <time>2025-05-07T09:05:34.000Z</time>
      </trkpt>
      <trkpt lat="43.50637" lon="5.31267">
        <ele>160</ele>
        <time>2025-05-07T09:05:37.000Z</time>
      </trkpt>
      <trkpt lat="43.50638" lon="5.31271">
        <ele>160</ele>
        <time>2025-05-07T09:05:39.000Z</time>
      </trkpt>
      <trkpt lat="43.5064" lon="5.31274">
        <ele>160</ele>
        <time>2025-05-07T09:05:41.000Z</time>
      </trkpt>
      <trkpt lat="43.50641" lon="5.31277">
        <ele>160</ele>
        <time>2025-05-07T09:05:43.000Z</time>
      </trkpt>
      <trkpt lat="43.50643" lon="5.31279">
        <ele>160</ele>
        <time>2025-05-07T09:05:45.000Z</time>
      </trkpt>
      <trkpt lat="43.50645" lon="5.31281">
        <ele>159.9</ele>
        <time>2025-05-07T09:05:47.000Z</time>
      </trkpt>
      <trkpt lat="43.50647" lon="5.31283">
        <ele>159.9</ele>
        <time>2025-05-07T09:05:49.000Z</time>
      </trkpt>
      <trkpt lat="43.50648" lon="5.31285">
        <ele>159.8</ele>
        <time>2025-05-07T09:05:51.000Z</time>
      </trkpt>
      <trkpt lat="43.5065" lon="5.31287">
        <ele>159.8</ele>
        <time>2025-05-07T09:05:53.000Z</time>
      </trkpt>
      <trkpt lat="43.50652" lon="5.3129">
        <ele>159.8</ele>
        <time>2025-05-07T09:05:56.000Z</time>
      </trkpt>
      <trkpt lat="43.50653" lon="5.31292">
        <ele>159.7</ele>
        <time>2025-05-07T09:05:58.000Z</time>
      </trkpt>
      <trkpt lat="43.50656" lon="5.31294">
        <ele>159.8</ele>
        <time>2025-05-07T09:06:00.000Z</time>
      </trkpt>
      <trkpt lat="43.5066" lon="5.31296">
        <ele>159.8</ele>
        <time>2025-05-07T09:06:03.000Z</time>
      </trkpt>
      <trkpt lat="43.50661" lon="5.31297">
        <ele>159.9</ele>
        <time>2025-05-07T09:06:05.000Z</time>
      </trkpt>
      <trkpt lat="43.50663" lon="5.31298">
        <ele>159.9</ele>
        <time>2025-05-07T09:06:07.000Z</time>
      </trkpt>
      <trkpt lat="43.50666" lon="5.313">
        <ele>160</ele>
        <time>2025-05-07T09:06:10.000Z</time>
      </trkpt>
      <trkpt lat="43.50667" lon="5.31301">
        <ele>160.1</ele>
        <time>2025-05-07T09:06:12.000Z</time>
      </trkpt>
      <trkpt lat="43.50669" lon="5.31302">
        <ele>160.4</ele>
        <time>2025-05-07T09:06:14.000Z</time>
      </trkpt>
      <trkpt lat="43.50672" lon="5.31303">
        <ele>160.9</ele>
        <time>2025-05-07T09:06:17.000Z</time>
      </trkpt>
      <trkpt lat="43.50673" lon="5.31305">
        <ele>161.2</ele>
        <time>2025-05-07T09:06:20.000Z</time>
      </trkpt>
      <trkpt lat="43.50675" lon="5.31306">
        <ele>161.5</ele>
        <time>2025-05-07T09:06:22.000Z</time>
      </trkpt>
      <trkpt lat="43.50677" lon="5.31308">
        <ele>161.9</ele>
        <time>2025-05-07T09:06:25.000Z</time>
      </trkpt>
      <trkpt lat="43.5068" lon="5.31309">
        <ele>162.3</ele>
        <time>2025-05-07T09:06:30.000Z</time>
      </trkpt>
      <trkpt lat="43.50682" lon="5.3131">
        <ele>162.7</ele>
        <time>2025-05-07T09:06:33.000Z</time>
      </trkpt>
      <trkpt lat="43.50684" lon="5.31309">
        <ele>163.1</ele>
        <time>2025-05-07T09:06:36.000Z</time>
      </trkpt>
      <trkpt lat="43.50686" lon="5.3131">
        <ele>163.3</ele>
        <time>2025-05-07T09:06:39.000Z</time>
      </trkpt>
      <trkpt lat="43.50688" lon="5.31311">
        <ele>163.6</ele>
        <time>2025-05-07T09:06:42.000Z</time>
      </trkpt>
      <trkpt lat="43.5069" lon="5.31312">
        <ele>163.8</ele>
        <time>2025-05-07T09:06:45.000Z</time>
      </trkpt>
      <trkpt lat="43.50691" lon="5.31312">
        <ele>164.1</ele>
        <time>2025-05-07T09:06:47.000Z</time>
      </trkpt>
      <trkpt lat="43.50693" lon="5.31313">
        <ele>164.2</ele>
        <time>2025-05-07T09:06:50.000Z</time>
      </trkpt>
      <trkpt lat="43.50695" lon="5.31315">
        <ele>164.4</ele>
        <time>2025-05-07T09:06:54.000Z</time>
      </trkpt>
      <trkpt lat="43.50697" lon="5.31318">
        <ele>164.6</ele>
        <time>2025-05-07T09:06:57.000Z</time>
      </trkpt>
      <trkpt lat="43.50698" lon="5.31319">
        <ele>164.9</ele>
        <time>2025-05-07T09:07:01.000Z</time>
      </trkpt>
      <trkpt lat="43.507" lon="5.31321">
        <ele>165.2</ele>
        <time>2025-05-07T09:07:04.000Z</time>
      </trkpt>
      <trkpt lat="43.50702" lon="5.31323">
        <ele>165.5</ele>
        <time>2025-05-07T09:07:08.000Z</time>
      </trkpt>
      <trkpt lat="43.50705" lon="5.31326">
        <ele>166.1</ele>
        <time>2025-05-07T09:07:14.000Z</time>
      </trkpt>
      <trkpt lat="43.50707" lon="5.31326">
        <ele>166.6</ele>
        <time>2025-05-07T09:07:17.000Z</time>
      </trkpt>
      <trkpt lat="43.50709" lon="5.31329">
        <ele>166.9</ele>
        <time>2025-05-07T09:07:20.000Z</time>
      </trkpt>
      <trkpt lat="43.50711" lon="5.3133">
        <ele>167.3</ele>
        <time>2025-05-07T09:07:22.000Z</time>
      </trkpt>
      <trkpt lat="43.50713" lon="5.31332">
        <ele>167.8</ele>
        <time>2025-05-07T09:07:25.000Z</time>
      </trkpt>
      <trkpt lat="43.50716" lon="5.31332">
        <ele>168.4</ele>
        <time>2025-05-07T09:07:30.000Z</time>
      </trkpt>
      <trkpt lat="43.50717" lon="5.31334">
        <ele>168.8</ele>
        <time>2025-05-07T09:07:33.000Z</time>
      </trkpt>
      <trkpt lat="43.50718" lon="5.31337">
        <ele>169.4</ele>
        <time>2025-05-07T09:07:51.000Z</time>
      </trkpt>
      <trkpt lat="43.50719" lon="5.31339">
        <ele>169.8</ele>
        <time>2025-05-07T09:07:53.000Z</time>
      </trkpt>
      <trkpt lat="43.5072" lon="5.31342">
        <ele>170.5</ele>
        <time>2025-05-07T09:07:56.000Z</time>
      </trkpt>
      <trkpt lat="43.50721" lon="5.31344">
        <ele>171</ele>
        <time>2025-05-07T09:07:59.000Z</time>
      </trkpt>
      <trkpt lat="43.50725" lon="5.31346">
        <ele>171.6</ele>
        <time>2025-05-07T09:08:05.000Z</time>
      </trkpt>
      <trkpt lat="43.50727" lon="5.31347">
        <ele>172</ele>
        <time>2025-05-07T09:08:08.000Z</time>
      </trkpt>
      <trkpt lat="43.50729" lon="5.31348">
        <ele>172.2</ele>
        <time>2025-05-07T09:08:11.000Z</time>
      </trkpt>
      <trkpt lat="43.50731" lon="5.31349">
        <ele>172.4</ele>
        <time>2025-05-07T09:08:13.000Z</time>
      </trkpt>
      <trkpt lat="43.50733" lon="5.31351">
        <ele>172.7</ele>
        <time>2025-05-07T09:08:15.000Z</time>
      </trkpt>
      <trkpt lat="43.50734" lon="5.31353">
        <ele>172.9</ele>
        <time>2025-05-07T09:08:17.000Z</time>
      </trkpt>
      <trkpt lat="43.50735" lon="5.31355">
        <ele>173.1</ele>
        <time>2025-05-07T09:08:19.000Z</time>
      </trkpt>
      <trkpt lat="43.50737" lon="5.31357">
        <ele>173.3</ele>
        <time>2025-05-07T09:08:21.000Z</time>
      </trkpt>
      <trkpt lat="43.50738" lon="5.31359">
        <ele>173.5</ele>
        <time>2025-05-07T09:08:23.000Z</time>
      </trkpt>
      <trkpt lat="43.5074" lon="5.31361">
        <ele>173.6</ele>
        <time>2025-05-07T09:08:26.000Z</time>
      </trkpt>
      <trkpt lat="43.50742" lon="5.31363">
        <ele>173.8</ele>
        <time>2025-05-07T09:08:28.000Z</time>
      </trkpt>
      <trkpt lat="43.50744" lon="5.31365">
        <ele>173.9</ele>
        <time>2025-05-07T09:08:31.000Z</time>
      </trkpt>
      <trkpt lat="43.50746" lon="5.31365">
        <ele>174</ele>
        <time>2025-05-07T09:08:36.000Z</time>
      </trkpt>
      <trkpt lat="43.50747" lon="5.31367">
        <ele>174.1</ele>
        <time>2025-05-07T09:08:38.000Z</time>
      </trkpt>
      <trkpt lat="43.50749" lon="5.31369">
        <ele>174.2</ele>
        <time>2025-05-07T09:08:41.000Z</time>
      </trkpt>
      <trkpt lat="43.50751" lon="5.3137">
        <ele>174.3</ele>
        <time>2025-05-07T09:08:43.000Z</time>
      </trkpt>
      <trkpt lat="43.50752" lon="5.31372">
        <ele>174.4</ele>
        <time>2025-05-07T09:08:46.000Z</time>
      </trkpt>
      <trkpt lat="43.50754" lon="5.31374">
        <ele>174.4</ele>
        <time>2025-05-07T09:08:49.000Z</time>
      </trkpt>
      <trkpt lat="43.50755" lon="5.31376">
        <ele>174.4</ele>
        <time>2025-05-07T09:08:54.000Z</time>
      </trkpt>
      <trkpt lat="43.50757" lon="5.31378">
        <ele>174.4</ele>
        <time>2025-05-07T09:08:58.000Z</time>
      </trkpt>
      <trkpt lat="43.5076" lon="5.31378">
        <ele>174.3</ele>
        <time>2025-05-07T09:09:01.000Z</time>
      </trkpt>
      <trkpt lat="43.50763" lon="5.31379">
        <ele>174.2</ele>
        <time>2025-05-07T09:09:04.000Z</time>
      </trkpt>
      <trkpt lat="43.50765" lon="5.31381">
        <ele>174.1</ele>
        <time>2025-05-07T09:09:06.000Z</time>
      </trkpt>
      <trkpt lat="43.50767" lon="5.31382">
        <ele>174</ele>
        <time>2025-05-07T09:09:08.000Z</time>
      </trkpt>
      <trkpt lat="43.5077" lon="5.31382">
        <ele>173.9</ele>
        <time>2025-05-07T09:09:11.000Z</time>
      </trkpt>
      <trkpt lat="43.50772" lon="5.31383">
        <ele>173.7</ele>
        <time>2025-05-07T09:09:13.000Z</time>
      </trkpt>
      <trkpt lat="43.50774" lon="5.31383">
        <ele>173.6</ele>
        <time>2025-05-07T09:09:15.000Z</time>
      </trkpt>
      <trkpt lat="43.50776" lon="5.31383">
        <ele>173.5</ele>
        <time>2025-05-07T09:09:17.000Z</time>
      </trkpt>
      <trkpt lat="43.50778" lon="5.31384">
        <ele>173.4</ele>
        <time>2025-05-07T09:09:19.000Z</time>
      </trkpt>
      <trkpt lat="43.50781" lon="5.31383">
        <ele>173.4</ele>
        <time>2025-05-07T09:09:22.000Z</time>
      </trkpt>
      <trkpt lat="43.50783" lon="5.31382">
        <ele>173.4</ele>
        <time>2025-05-07T09:09:25.000Z</time>
      </trkpt>
      <trkpt lat="43.50785" lon="5.31383">
        <ele>173.4</ele>
        <time>2025-05-07T09:09:28.000Z</time>
      </trkpt>
      <trkpt lat="43.50787" lon="5.31385">
        <ele>173.2</ele>
        <time>2025-05-07T09:09:31.000Z</time>
      </trkpt>
      <trkpt lat="43.50789" lon="5.31387">
        <ele>173.1</ele>
        <time>2025-05-07T09:09:34.000Z</time>
      </trkpt>
      <trkpt lat="43.5079" lon="5.31389">
        <ele>173</ele>
        <time>2025-05-07T09:09:36.000Z</time>
      </trkpt>
      <trkpt lat="43.50792" lon="5.31391">
        <ele>172.9</ele>
        <time>2025-05-07T09:09:39.000Z</time>
      </trkpt>
      <trkpt lat="43.50794" lon="5.31393">
        <ele>172.8</ele>
        <time>2025-05-07T09:09:41.000Z</time>
      </trkpt>
      <trkpt lat="43.50795" lon="5.31395">
        <ele>172.7</ele>
        <time>2025-05-07T09:09:43.000Z</time>
      </trkpt>
      <trkpt lat="43.50797" lon="5.31395">
        <ele>172.7</ele>
        <time>2025-05-07T09:09:45.000Z</time>
      </trkpt>
      <trkpt lat="43.508" lon="5.31396">
        <ele>172.7</ele>
        <time>2025-05-07T09:09:47.000Z</time>
      </trkpt>
      <trkpt lat="43.50802" lon="5.31397">
        <ele>172.7</ele>
        <time>2025-05-07T09:09:49.000Z</time>
      </trkpt>
      <trkpt lat="43.50803" lon="5.31399">
        <ele>172.6</ele>
        <time>2025-05-07T09:09:51.000Z</time>
      </trkpt>
      <trkpt lat="43.50805" lon="5.31401">
        <ele>172.5</ele>
        <time>2025-05-07T09:09:53.000Z</time>
      </trkpt>
      <trkpt lat="43.50807" lon="5.31403">
        <ele>172.5</ele>
        <time>2025-05-07T09:09:56.000Z</time>
      </trkpt>
      <trkpt lat="43.50808" lon="5.31404">
        <ele>172.3</ele>
        <time>2025-05-07T09:09:58.000Z</time>
      </trkpt>
      <trkpt lat="43.5081" lon="5.31406">
        <ele>172.2</ele>
        <time>2025-05-07T09:10:00.000Z</time>
      </trkpt>
      <trkpt lat="43.50811" lon="5.31407">
        <ele>172</ele>
        <time>2025-05-07T09:10:02.000Z</time>
      </trkpt>
      <trkpt lat="43.50814" lon="5.31409">
        <ele>171.8</ele>
        <time>2025-05-07T09:10:04.000Z</time>
      </trkpt>
      <trkpt lat="43.50816" lon="5.3141">
        <ele>171.6</ele>
        <time>2025-05-07T09:10:06.000Z</time>
      </trkpt>
      <trkpt lat="43.50817" lon="5.31412">
        <ele>171.4</ele>
        <time>2025-05-07T09:10:08.000Z</time>
      </trkpt>
      <trkpt lat="43.50819" lon="5.31415">
        <ele>171.1</ele>
        <time>2025-05-07T09:10:11.000Z</time>
      </trkpt>
      <trkpt lat="43.50821" lon="5.31417">
        <ele>170.8</ele>
        <time>2025-05-07T09:10:14.000Z</time>
      </trkpt>
      <trkpt lat="43.50823" lon="5.31419">
        <ele>170.7</ele>
        <time>2025-05-07T09:10:17.000Z</time>
      </trkpt>
      <trkpt lat="43.50825" lon="5.31421">
        <ele>170.4</ele>
        <time>2025-05-07T09:10:23.000Z</time>
      </trkpt>
      <trkpt lat="43.50828" lon="5.31421">
        <ele>170.2</ele>
        <time>2025-05-07T09:10:25.000Z</time>
      </trkpt>
      <trkpt lat="43.5083" lon="5.31422">
        <ele>170</ele>
        <time>2025-05-07T09:10:27.000Z</time>
      </trkpt>
      <trkpt lat="43.50833" lon="5.31423">
        <ele>169.8</ele>
        <time>2025-05-07T09:10:30.000Z</time>
      </trkpt>
      <trkpt lat="43.50835" lon="5.31422">
        <ele>169.5</ele>
        <time>2025-05-07T09:10:32.000Z</time>
      </trkpt>
      <trkpt lat="43.50838" lon="5.31422">
        <ele>169.2</ele>
        <time>2025-05-07T09:10:34.000Z</time>
      </trkpt>
      <trkpt lat="43.5084" lon="5.31421">
        <ele>168.9</ele>
        <time>2025-05-07T09:10:36.000Z</time>
      </trkpt>
      <trkpt lat="43.50842" lon="5.3142">
        <ele>168.8</ele>
        <time>2025-05-07T09:10:38.000Z</time>
      </trkpt>
      <trkpt lat="43.50844" lon="5.31419">
        <ele>168.6</ele>
        <time>2025-05-07T09:10:41.000Z</time>
      </trkpt>
      <trkpt lat="43.50848" lon="5.3142">
        <ele>168.1</ele>
        <time>2025-05-07T09:10:45.000Z</time>
      </trkpt>
      <trkpt lat="43.5085" lon="5.31419">
        <ele>168</ele>
        <time>2025-05-07T09:10:47.000Z</time>
      </trkpt>
      <trkpt lat="43.50852" lon="5.31418">
        <ele>167.8</ele>
        <time>2025-05-07T09:10:50.000Z</time>
      </trkpt>
      <trkpt lat="43.50855" lon="5.31418">
        <ele>167.5</ele>
        <time>2025-05-07T09:10:53.000Z</time>
      </trkpt>
      <trkpt lat="43.50858" lon="5.31418">
        <ele>167.1</ele>
        <time>2025-05-07T09:10:56.000Z</time>
      </trkpt>
      <trkpt lat="43.5086" lon="5.31419">
        <ele>166.8</ele>
        <time>2025-05-07T09:10:58.000Z</time>
      </trkpt>
      <trkpt lat="43.50862" lon="5.31421">
        <ele>166.2</ele>
        <time>2025-05-07T09:11:01.000Z</time>
      </trkpt>
      <trkpt lat="43.50863" lon="5.31423">
        <ele>165.6</ele>
        <time>2025-05-07T09:11:04.000Z</time>
      </trkpt>
      <trkpt lat="43.50865" lon="5.31425">
        <ele>165.1</ele>
        <time>2025-05-07T09:11:06.000Z</time>
      </trkpt>
      <trkpt lat="43.50867" lon="5.31426">
        <ele>164.7</ele>
        <time>2025-05-07T09:11:09.000Z</time>
      </trkpt>
      <trkpt lat="43.50869" lon="5.31427">
        <ele>164.2</ele>
        <time>2025-05-07T09:11:12.000Z</time>
      </trkpt>
      <trkpt lat="43.50871" lon="5.31429">
        <ele>163.8</ele>
        <time>2025-05-07T09:11:15.000Z</time>
      </trkpt>
      <trkpt lat="43.50873" lon="5.31431">
        <ele>163.3</ele>
        <time>2025-05-07T09:11:18.000Z</time>
      </trkpt>
      <trkpt lat="43.50875" lon="5.31433">
        <ele>163</ele>
        <time>2025-05-07T09:11:20.000Z</time>
      </trkpt>
      <trkpt lat="43.50877" lon="5.31435">
        <ele>162.6</ele>
        <time>2025-05-07T09:11:22.000Z</time>
      </trkpt>
      <trkpt lat="43.50879" lon="5.31437">
        <ele>162.2</ele>
        <time>2025-05-07T09:11:25.000Z</time>
      </trkpt>
      <trkpt lat="43.50881" lon="5.31438">
        <ele>162</ele>
        <time>2025-05-07T09:11:28.000Z</time>
      </trkpt>
      <trkpt lat="43.50883" lon="5.31441">
        <ele>161.6</ele>
        <time>2025-05-07T09:11:34.000Z</time>
      </trkpt>
      <trkpt lat="43.50885" lon="5.31443">
        <ele>161.3</ele>
        <time>2025-05-07T09:11:37.000Z</time>
      </trkpt>
      <trkpt lat="43.50887" lon="5.31445">
        <ele>161.1</ele>
        <time>2025-05-07T09:11:40.000Z</time>
      </trkpt>
      <trkpt lat="43.50888" lon="5.31447">
        <ele>160.8</ele>
        <time>2025-05-07T09:11:43.000Z</time>
      </trkpt>
      <trkpt lat="43.50889" lon="5.31449">
        <ele>160.5</ele>
        <time>2025-05-07T09:11:46.000Z</time>
      </trkpt>
      <trkpt lat="43.50892" lon="5.31451">
        <ele>160.3</ele>
        <time>2025-05-07T09:11:48.000Z</time>
      </trkpt>
      <trkpt lat="43.50893" lon="5.31452">
        <ele>160.2</ele>
        <time>2025-05-07T09:11:50.000Z</time>
      </trkpt>
      <trkpt lat="43.50896" lon="5.31453">
        <ele>160</ele>
        <time>2025-05-07T09:11:52.000Z</time>
      </trkpt>
      <trkpt lat="43.50898" lon="5.31455">
        <ele>159.9</ele>
        <time>2025-05-07T09:11:54.000Z</time>
      </trkpt>
      <trkpt lat="43.509" lon="5.31457">
        <ele>159.8</ele>
        <time>2025-05-07T09:11:56.000Z</time>
      </trkpt>
      <trkpt lat="43.50902" lon="5.31458">
        <ele>159.7</ele>
        <time>2025-05-07T09:11:58.000Z</time>
      </trkpt>
      <trkpt lat="43.50904" lon="5.3146">
        <ele>159.7</ele>
        <time>2025-05-07T09:12:00.000Z</time>
      </trkpt>
      <trkpt lat="43.50906" lon="5.31461">
        <ele>159.7</ele>
        <time>2025-05-07T09:12:02.000Z</time>
      </trkpt>
      <trkpt lat="43.50908" lon="5.31462">
        <ele>159.7</ele>
        <time>2025-05-07T09:12:04.000Z</time>
      </trkpt>
      <trkpt lat="43.5091" lon="5.31463">
        <ele>159.7</ele>
        <time>2025-05-07T09:12:06.000Z</time>
      </trkpt>
      <trkpt lat="43.50912" lon="5.31464">
        <ele>159.8</ele>
        <time>2025-05-07T09:12:08.000Z</time>
      </trkpt>
      <trkpt lat="43.50914" lon="5.31466">
        <ele>159.9</ele>
        <time>2025-05-07T09:12:10.000Z</time>
      </trkpt>
      <trkpt lat="43.50916" lon="5.31467">
        <ele>160</ele>
        <time>2025-05-07T09:12:12.000Z</time>
      </trkpt>
      <trkpt lat="43.50919" lon="5.31467">
        <ele>160.1</ele>
        <time>2025-05-07T09:12:14.000Z</time>
      </trkpt>
      <trkpt lat="43.50921" lon="5.31467">
        <ele>160.2</ele>
        <time>2025-05-07T09:12:16.000Z</time>
      </trkpt>
      <trkpt lat="43.50923" lon="5.31468">
        <ele>160.3</ele>
        <time>2025-05-07T09:12:18.000Z</time>
      </trkpt>
      <trkpt lat="43.50925" lon="5.31469">
        <ele>160.4</ele>
        <time>2025-05-07T09:12:20.000Z</time>
      </trkpt>
      <trkpt lat="43.50928" lon="5.31469">
        <ele>160.5</ele>
        <time>2025-05-07T09:12:22.000Z</time>
      </trkpt>
      <trkpt lat="43.50931" lon="5.3147">
        <ele>160.6</ele>
        <time>2025-05-07T09:12:24.000Z</time>
      </trkpt>
      <trkpt lat="43.50933" lon="5.31472">
        <ele>160.6</ele>
        <time>2025-05-07T09:12:26.000Z</time>
      </trkpt>
      <trkpt lat="43.50935" lon="5.31472">
        <ele>160.7</ele>
        <time>2025-05-07T09:12:28.000Z</time>
      </trkpt>
      <trkpt lat="43.50938" lon="5.31473">
        <ele>160.7</ele>
        <time>2025-05-07T09:12:30.000Z</time>
      </trkpt>
      <trkpt lat="43.5094" lon="5.31473">
        <ele>160.8</ele>
        <time>2025-05-07T09:12:32.000Z</time>
      </trkpt>
      <trkpt lat="43.50942" lon="5.31473">
        <ele>160.9</ele>
        <time>2025-05-07T09:12:34.000Z</time>
      </trkpt>
      <trkpt lat="43.50944" lon="5.31474">
        <ele>160.9</ele>
        <time>2025-05-07T09:12:36.000Z</time>
      </trkpt>
      <trkpt lat="43.50946" lon="5.31474">
        <ele>160.9</ele>
        <time>2025-05-07T09:12:38.000Z</time>
      </trkpt>
      <trkpt lat="43.50948" lon="5.31475">
        <ele>160.9</ele>
        <time>2025-05-07T09:12:40.000Z</time>
      </trkpt>
      <trkpt lat="43.5095" lon="5.31475">
        <ele>160.9</ele>
        <time>2025-05-07T09:12:42.000Z</time>
      </trkpt>
      <trkpt lat="43.50952" lon="5.31475">
        <ele>160.9</ele>
        <time>2025-05-07T09:12:44.000Z</time>
      </trkpt>
      <trkpt lat="43.50954" lon="5.31477">
        <ele>160.8</ele>
        <time>2025-05-07T09:12:46.000Z</time>
      </trkpt>
      <trkpt lat="43.50957" lon="5.31477">
        <ele>160.8</ele>
        <time>2025-05-07T09:12:48.000Z</time>
      </trkpt>
      <trkpt lat="43.50959" lon="5.31477">
        <ele>160.8</ele>
        <time>2025-05-07T09:12:50.000Z</time>
      </trkpt>
      <trkpt lat="43.50961" lon="5.31478">
        <ele>160.8</ele>
        <time>2025-05-07T09:12:52.000Z</time>
      </trkpt>
      <trkpt lat="43.50963" lon="5.31479">
        <ele>160.7</ele>
        <time>2025-05-07T09:12:54.000Z</time>
      </trkpt>
      <trkpt lat="43.50965" lon="5.3148">
        <ele>160.7</ele>
        <time>2025-05-07T09:12:56.000Z</time>
      </trkpt>
      <trkpt lat="43.50967" lon="5.3148">
        <ele>160.7</ele>
        <time>2025-05-07T09:12:58.000Z</time>
      </trkpt>
      <trkpt lat="43.50969" lon="5.31481">
        <ele>160.7</ele>
        <time>2025-05-07T09:13:00.000Z</time>
      </trkpt>
      <trkpt lat="43.50971" lon="5.31482">
        <ele>160.6</ele>
        <time>2025-05-07T09:13:02.000Z</time>
      </trkpt>
      <trkpt lat="43.50973" lon="5.31483">
        <ele>160.6</ele>
        <time>2025-05-07T09:13:04.000Z</time>
      </trkpt>
      <trkpt lat="43.50975" lon="5.31483">
        <ele>160.6</ele>
        <time>2025-05-07T09:13:06.000Z</time>
      </trkpt>
      <trkpt lat="43.50978" lon="5.31484">
        <ele>160.6</ele>
        <time>2025-05-07T09:13:08.000Z</time>
      </trkpt>
      <trkpt lat="43.5098" lon="5.31484">
        <ele>160.6</ele>
        <time>2025-05-07T09:13:10.000Z</time>
      </trkpt>
      <trkpt lat="43.50983" lon="5.31484">
        <ele>160.6</ele>
        <time>2025-05-07T09:13:12.000Z</time>
      </trkpt>
      <trkpt lat="43.50985" lon="5.31484">
        <ele>160.6</ele>
        <time>2025-05-07T09:13:14.000Z</time>
      </trkpt>
      <trkpt lat="43.50987" lon="5.31483">
        <ele>160.6</ele>
        <time>2025-05-07T09:13:16.000Z</time>
      </trkpt>
      <trkpt lat="43.50989" lon="5.31483">
        <ele>160.6</ele>
        <time>2025-05-07T09:13:18.000Z</time>
      </trkpt>
      <trkpt lat="43.50991" lon="5.31482">
        <ele>160.6</ele>
        <time>2025-05-07T09:13:20.000Z</time>
      </trkpt>
      <trkpt lat="43.50994" lon="5.31482">
        <ele>160.7</ele>
        <time>2025-05-07T09:13:22.000Z</time>
      </trkpt>
      <trkpt lat="43.50996" lon="5.3148">
        <ele>160.7</ele>
        <time>2025-05-07T09:13:24.000Z</time>
      </trkpt>
      <trkpt lat="43.50998" lon="5.31479">
        <ele>160.8</ele>
        <time>2025-05-07T09:13:26.000Z</time>
      </trkpt>
      <trkpt lat="43.51" lon="5.31478">
        <ele>160.8</ele>
        <time>2025-05-07T09:13:28.000Z</time>
      </trkpt>
      <trkpt lat="43.51002" lon="5.31477">
        <ele>160.7</ele>
        <time>2025-05-07T09:13:30.000Z</time>
      </trkpt>
      <trkpt lat="43.51004" lon="5.31477">
        <ele>160.6</ele>
        <time>2025-05-07T09:13:32.000Z</time>
      </trkpt>
      <trkpt lat="43.51006" lon="5.31475">
        <ele>160.6</ele>
        <time>2025-05-07T09:13:34.000Z</time>
      </trkpt>
      <trkpt lat="43.51008" lon="5.31474">
        <ele>160.6</ele>
        <time>2025-05-07T09:13:36.000Z</time>
      </trkpt>
      <trkpt lat="43.51011" lon="5.31473">
        <ele>160.6</ele>
        <time>2025-05-07T09:13:38.000Z</time>
      </trkpt>
      <trkpt lat="43.51013" lon="5.31472">
        <ele>160.6</ele>
        <time>2025-05-07T09:13:40.000Z</time>
      </trkpt>
      <trkpt lat="43.51015" lon="5.31469">
        <ele>160.6</ele>
        <time>2025-05-07T09:13:42.000Z</time>
      </trkpt>
      <trkpt lat="43.51017" lon="5.31468">
        <ele>160.6</ele>
        <time>2025-05-07T09:13:44.000Z</time>
      </trkpt>
      <trkpt lat="43.51018" lon="5.31466">
        <ele>160.6</ele>
        <time>2025-05-07T09:13:46.000Z</time>
      </trkpt>
      <trkpt lat="43.51021" lon="5.31464">
        <ele>160.6</ele>
        <time>2025-05-07T09:13:48.000Z</time>
      </trkpt>
      <trkpt lat="43.51022" lon="5.31463">
        <ele>160.6</ele>
        <time>2025-05-07T09:13:50.000Z</time>
      </trkpt>
      <trkpt lat="43.51024" lon="5.31461">
        <ele>160.6</ele>
        <time>2025-05-07T09:13:52.000Z</time>
      </trkpt>
      <trkpt lat="43.51025" lon="5.3146">
        <ele>160.6</ele>
        <time>2025-05-07T09:13:54.000Z</time>
      </trkpt>
      <trkpt lat="43.51027" lon="5.31458">
        <ele>160.5</ele>
        <time>2025-05-07T09:13:56.000Z</time>
      </trkpt>
      <trkpt lat="43.5103" lon="5.31457">
        <ele>160.5</ele>
        <time>2025-05-07T09:13:58.000Z</time>
      </trkpt>
      <trkpt lat="43.51032" lon="5.31456">
        <ele>160.5</ele>
        <time>2025-05-07T09:14:00.000Z</time>
      </trkpt>
      <trkpt lat="43.51034" lon="5.31456">
        <ele>160.5</ele>
        <time>2025-05-07T09:14:02.000Z</time>
      </trkpt>
      <trkpt lat="43.51036" lon="5.31455">
        <ele>160.5</ele>
        <time>2025-05-07T09:14:04.000Z</time>
      </trkpt>
      <trkpt lat="43.51038" lon="5.31454">
        <ele>160.5</ele>
        <time>2025-05-07T09:14:06.000Z</time>
      </trkpt>
      <trkpt lat="43.51041" lon="5.31454">
        <ele>160.5</ele>
        <time>2025-05-07T09:14:08.000Z</time>
      </trkpt>
      <trkpt lat="43.51043" lon="5.31453">
        <ele>160.5</ele>
        <time>2025-05-07T09:14:10.000Z</time>
      </trkpt>
      <trkpt lat="43.51046" lon="5.31452">
        <ele>160.5</ele>
        <time>2025-05-07T09:14:13.000Z</time>
      </trkpt>
      <trkpt lat="43.51048" lon="5.31452">
        <ele>160.5</ele>
        <time>2025-05-07T09:14:15.000Z</time>
      </trkpt>
      <trkpt lat="43.5105" lon="5.31452">
        <ele>160.5</ele>
        <time>2025-05-07T09:14:17.000Z</time>
      </trkpt>
      <trkpt lat="43.51053" lon="5.31451">
        <ele>160.6</ele>
        <time>2025-05-07T09:14:19.000Z</time>
      </trkpt>
      <trkpt lat="43.51055" lon="5.3145">
        <ele>160.6</ele>
        <time>2025-05-07T09:14:21.000Z</time>
      </trkpt>
      <trkpt lat="43.51057" lon="5.3145">
        <ele>160.6</ele>
        <time>2025-05-07T09:14:23.000Z</time>
      </trkpt>
      <trkpt lat="43.5106" lon="5.3145">
        <ele>160.6</ele>
        <time>2025-05-07T09:14:25.000Z</time>
      </trkpt>
      <trkpt lat="43.51062" lon="5.31448">
        <ele>160.7</ele>
        <time>2025-05-07T09:14:27.000Z</time>
      </trkpt>
      <trkpt lat="43.51064" lon="5.31448">
        <ele>160.7</ele>
        <time>2025-05-07T09:14:29.000Z</time>
      </trkpt>
      <trkpt lat="43.51067" lon="5.31448">
        <ele>160.7</ele>
        <time>2025-05-07T09:14:31.000Z</time>
      </trkpt>
      <trkpt lat="43.51069" lon="5.31448">
        <ele>160.7</ele>
        <time>2025-05-07T09:14:33.000Z</time>
      </trkpt>
      <trkpt lat="43.51071" lon="5.31447">
        <ele>160.8</ele>
        <time>2025-05-07T09:14:35.000Z</time>
      </trkpt>
      <trkpt lat="43.51073" lon="5.31447">
        <ele>160.8</ele>
        <time>2025-05-07T09:14:37.000Z</time>
      </trkpt>
      <trkpt lat="43.51076" lon="5.31447">
        <ele>160.8</ele>
        <time>2025-05-07T09:14:39.000Z</time>
      </trkpt>
      <trkpt lat="43.51078" lon="5.31446">
        <ele>160.8</ele>
        <time>2025-05-07T09:14:42.000Z</time>
      </trkpt>
      <trkpt lat="43.5108" lon="5.31446">
        <ele>160.8</ele>
        <time>2025-05-07T09:14:44.000Z</time>
      </trkpt>
      <trkpt lat="43.51082" lon="5.31446">
        <ele>160.9</ele>
        <time>2025-05-07T09:14:46.000Z</time>
      </trkpt>
      <trkpt lat="43.51084" lon="5.31445">
        <ele>160.9</ele>
        <time>2025-05-07T09:14:48.000Z</time>
      </trkpt>
      <trkpt lat="43.51086" lon="5.31445">
        <ele>160.8</ele>
        <time>2025-05-07T09:14:50.000Z</time>
      </trkpt>
      <trkpt lat="43.51089" lon="5.31444">
        <ele>160.8</ele>
        <time>2025-05-07T09:14:52.000Z</time>
      </trkpt>
      <trkpt lat="43.51091" lon="5.31443">
        <ele>160.8</ele>
        <time>2025-05-07T09:14:55.000Z</time>
      </trkpt>
      <trkpt lat="43.51093" lon="5.31443">
        <ele>160.8</ele>
        <time>2025-05-07T09:14:57.000Z</time>
      </trkpt>
      <trkpt lat="43.51095" lon="5.31442">
        <ele>160.8</ele>
        <time>2025-05-07T09:14:59.000Z</time>
      </trkpt>
      <trkpt lat="43.51097" lon="5.31441">
        <ele>160.8</ele>
        <time>2025-05-07T09:15:02.000Z</time>
      </trkpt>
      <trkpt lat="43.51099" lon="5.3144">
        <ele>160.9</ele>
        <time>2025-05-07T09:15:04.000Z</time>
      </trkpt>
      <trkpt lat="43.51102" lon="5.3144">
        <ele>160.9</ele>
        <time>2025-05-07T09:15:06.000Z</time>
      </trkpt>
      <trkpt lat="43.51104" lon="5.3144">
        <ele>160.9</ele>
        <time>2025-05-07T09:15:08.000Z</time>
      </trkpt>
      <trkpt lat="43.51107" lon="5.3144">
        <ele>160.8</ele>
        <time>2025-05-07T09:15:10.000Z</time>
      </trkpt>
      <trkpt lat="43.51109" lon="5.3144">
        <ele>160.7</ele>
        <time>2025-05-07T09:15:12.000Z</time>
      </trkpt>
      <trkpt lat="43.51112" lon="5.31439">
        <ele>160.7</ele>
        <time>2025-05-07T09:15:14.000Z</time>
      </trkpt>
      <trkpt lat="43.51114" lon="5.31439">
        <ele>160.8</ele>
        <time>2025-05-07T09:15:16.000Z</time>
      </trkpt>
      <trkpt lat="43.51117" lon="5.31439">
        <ele>160.9</ele>
        <time>2025-05-07T09:15:18.000Z</time>
      </trkpt>
      <trkpt lat="43.51119" lon="5.31439">
        <ele>160.9</ele>
        <time>2025-05-07T09:15:20.000Z</time>
      </trkpt>
      <trkpt lat="43.51121" lon="5.31438">
        <ele>161</ele>
        <time>2025-05-07T09:15:22.000Z</time>
      </trkpt>
      <trkpt lat="43.51123" lon="5.31437">
        <ele>161.1</ele>
        <time>2025-05-07T09:15:24.000Z</time>
      </trkpt>
      <trkpt lat="43.51125" lon="5.31437">
        <ele>161.1</ele>
        <time>2025-05-07T09:15:26.000Z</time>
      </trkpt>
      <trkpt lat="43.51128" lon="5.31437">
        <ele>161.1</ele>
        <time>2025-05-07T09:15:28.000Z</time>
      </trkpt>
      <trkpt lat="43.5113" lon="5.31437">
        <ele>161.1</ele>
        <time>2025-05-07T09:15:31.000Z</time>
      </trkpt>
      <trkpt lat="43.51132" lon="5.31436">
        <ele>161.3</ele>
        <time>2025-05-07T09:15:33.000Z</time>
      </trkpt>
      <trkpt lat="43.51135" lon="5.31435">
        <ele>161.4</ele>
        <time>2025-05-07T09:15:35.000Z</time>
      </trkpt>
      <trkpt lat="43.51137" lon="5.31434">
        <ele>161.6</ele>
        <time>2025-05-07T09:15:37.000Z</time>
      </trkpt>
      <trkpt lat="43.5114" lon="5.31434">
        <ele>161.5</ele>
        <time>2025-05-07T09:15:39.000Z</time>
      </trkpt>
      <trkpt lat="43.51142" lon="5.31434">
        <ele>161.5</ele>
        <time>2025-05-07T09:15:41.000Z</time>
      </trkpt>
      <trkpt lat="43.51144" lon="5.31434">
        <ele>161.5</ele>
        <time>2025-05-07T09:15:43.000Z</time>
      </trkpt>
      <trkpt lat="43.51147" lon="5.31432">
        <ele>161.6</ele>
        <time>2025-05-07T09:15:46.000Z</time>
      </trkpt>
      <trkpt lat="43.51149" lon="5.31433">
        <ele>161.5</ele>
        <time>2025-05-07T09:15:48.000Z</time>
      </trkpt>
      <trkpt lat="43.51152" lon="5.31432">
        <ele>161.6</ele>
        <time>2025-05-07T09:15:50.000Z</time>
      </trkpt>
      <trkpt lat="43.51154" lon="5.31432">
        <ele>161.6</ele>
        <time>2025-05-07T09:15:52.000Z</time>
      </trkpt>
      <trkpt lat="43.51157" lon="5.31431">
        <ele>161.6</ele>
        <time>2025-05-07T09:15:54.000Z</time>
      </trkpt>
      <trkpt lat="43.51159" lon="5.31431">
        <ele>161.6</ele>
        <time>2025-05-07T09:15:56.000Z</time>
      </trkpt>
      <trkpt lat="43.51161" lon="5.31432">
        <ele>161.4</ele>
        <time>2025-05-07T09:15:58.000Z</time>
      </trkpt>
      <trkpt lat="43.51164" lon="5.31431">
        <ele>161.5</ele>
        <time>2025-05-07T09:16:00.000Z</time>
      </trkpt>
      <trkpt lat="43.51166" lon="5.3143">
        <ele>161.6</ele>
        <time>2025-05-07T09:16:02.000Z</time>
      </trkpt>
      <trkpt lat="43.51168" lon="5.31429">
        <ele>161.7</ele>
        <time>2025-05-07T09:16:04.000Z</time>
      </trkpt>
      <trkpt lat="43.5117" lon="5.31428">
        <ele>161.6</ele>
        <time>2025-05-07T09:16:06.000Z</time>
      </trkpt>
      <trkpt lat="43.51172" lon="5.31428">
        <ele>161.5</ele>
        <time>2025-05-07T09:16:08.000Z</time>
      </trkpt>
      <trkpt lat="43.51175" lon="5.31426">
        <ele>161.5</ele>
        <time>2025-05-07T09:16:10.000Z</time>
      </trkpt>
      <trkpt lat="43.51177" lon="5.31425">
        <ele>161.5</ele>
        <time>2025-05-07T09:16:12.000Z</time>
      </trkpt>
      <trkpt lat="43.51179" lon="5.31424">
        <ele>161.5</ele>
        <time>2025-05-07T09:16:14.000Z</time>
      </trkpt>
      <trkpt lat="43.51181" lon="5.31423">
        <ele>161.4</ele>
        <time>2025-05-07T09:16:16.000Z</time>
      </trkpt>
      <trkpt lat="43.51183" lon="5.31422">
        <ele>161.3</ele>
        <time>2025-05-07T09:16:18.000Z</time>
      </trkpt>
      <trkpt lat="43.51185" lon="5.31421">
        <ele>161.3</ele>
        <time>2025-05-07T09:16:20.000Z</time>
      </trkpt>
      <trkpt lat="43.51188" lon="5.31421">
        <ele>161.1</ele>
        <time>2025-05-07T09:16:22.000Z</time>
      </trkpt>
      <trkpt lat="43.5119" lon="5.31419">
        <ele>161.2</ele>
        <time>2025-05-07T09:16:24.000Z</time>
      </trkpt>
      <trkpt lat="43.51192" lon="5.31417">
        <ele>161.2</ele>
        <time>2025-05-07T09:16:26.000Z</time>
      </trkpt>
      <trkpt lat="43.51194" lon="5.31416">
        <ele>161.1</ele>
        <time>2025-05-07T09:16:28.000Z</time>
      </trkpt>
      <trkpt lat="43.51196" lon="5.31415">
        <ele>161.1</ele>
        <time>2025-05-07T09:16:30.000Z</time>
      </trkpt>
      <trkpt lat="43.51198" lon="5.31414">
        <ele>161</ele>
        <time>2025-05-07T09:16:32.000Z</time>
      </trkpt>
      <trkpt lat="43.512" lon="5.31412">
        <ele>161</ele>
        <time>2025-05-07T09:16:34.000Z</time>
      </trkpt>
      <trkpt lat="43.51202" lon="5.31411">
        <ele>161</ele>
        <time>2025-05-07T09:16:36.000Z</time>
      </trkpt>
      <trkpt lat="43.51204" lon="5.31409">
        <ele>161</ele>
        <time>2025-05-07T09:16:38.000Z</time>
      </trkpt>
      <trkpt lat="43.51205" lon="5.31408">
        <ele>161</ele>
        <time>2025-05-07T09:16:40.000Z</time>
      </trkpt>
      <trkpt lat="43.51207" lon="5.31406">
        <ele>161.1</ele>
        <time>2025-05-07T09:16:42.000Z</time>
      </trkpt>
      <trkpt lat="43.51209" lon="5.31404">
        <ele>161</ele>
        <time>2025-05-07T09:16:44.000Z</time>
      </trkpt>
      <trkpt lat="43.51211" lon="5.31403">
        <ele>160.9</ele>
        <time>2025-05-07T09:16:46.000Z</time>
      </trkpt>
      <trkpt lat="43.51213" lon="5.31401">
        <ele>160.9</ele>
        <time>2025-05-07T09:16:48.000Z</time>
      </trkpt>
      <trkpt lat="43.51216" lon="5.31399">
        <ele>160.8</ele>
        <time>2025-05-07T09:16:52.000Z</time>
      </trkpt>
      <trkpt lat="43.51218" lon="5.31398">
        <ele>160.6</ele>
        <time>2025-05-07T09:16:54.000Z</time>
      </trkpt>
      <trkpt lat="43.5122" lon="5.31396">
        <ele>160.6</ele>
        <time>2025-05-07T09:16:56.000Z</time>
      </trkpt>
      <trkpt lat="43.51222" lon="5.31394">
        <ele>160.6</ele>
        <time>2025-05-07T09:16:59.000Z</time>
      </trkpt>
      <trkpt lat="43.51223" lon="5.31391">
        <ele>160.7</ele>
        <time>2025-05-07T09:17:01.000Z</time>
      </trkpt>
      <trkpt lat="43.51226" lon="5.3139">
        <ele>160.8</ele>
        <time>2025-05-07T09:17:03.000Z</time>
      </trkpt>
      <trkpt lat="43.51228" lon="5.31388">
        <ele>160.9</ele>
        <time>2025-05-07T09:17:05.000Z</time>
      </trkpt>
      <trkpt lat="43.5123" lon="5.31386">
        <ele>160.9</ele>
        <time>2025-05-07T09:17:07.000Z</time>
      </trkpt>
      <trkpt lat="43.51232" lon="5.31384">
        <ele>161</ele>
        <time>2025-05-07T09:17:09.000Z</time>
      </trkpt>
      <trkpt lat="43.51233" lon="5.31383">
        <ele>161.1</ele>
        <time>2025-05-07T09:17:11.000Z</time>
      </trkpt>
      <trkpt lat="43.51236" lon="5.31381">
        <ele>161.1</ele>
        <time>2025-05-07T09:17:13.000Z</time>
      </trkpt>
      <trkpt lat="43.51239" lon="5.31379">
        <ele>161.1</ele>
        <time>2025-05-07T09:17:16.000Z</time>
      </trkpt>
      <trkpt lat="43.51241" lon="5.31378">
        <ele>161.1</ele>
        <time>2025-05-07T09:17:18.000Z</time>
      </trkpt>
      <trkpt lat="43.51243" lon="5.31377">
        <ele>161.1</ele>
        <time>2025-05-07T09:17:20.000Z</time>
      </trkpt>
      <trkpt lat="43.51245" lon="5.31375">
        <ele>161.1</ele>
        <time>2025-05-07T09:17:22.000Z</time>
      </trkpt>
      <trkpt lat="43.51248" lon="5.31375">
        <ele>161.1</ele>
        <time>2025-05-07T09:17:24.000Z</time>
      </trkpt>
      <trkpt lat="43.5125" lon="5.31373">
        <ele>161.1</ele>
        <time>2025-05-07T09:17:27.000Z</time>
      </trkpt>
      <trkpt lat="43.51252" lon="5.31372">
        <ele>161.1</ele>
        <time>2025-05-07T09:17:29.000Z</time>
      </trkpt>
      <trkpt lat="43.51255" lon="5.31371">
        <ele>161.1</ele>
        <time>2025-05-07T09:17:31.000Z</time>
      </trkpt>
      <trkpt lat="43.51257" lon="5.31369">
        <ele>161.2</ele>
        <time>2025-05-07T09:17:34.000Z</time>
      </trkpt>
      <trkpt lat="43.51259" lon="5.31368">
        <ele>161.2</ele>
        <time>2025-05-07T09:17:36.000Z</time>
      </trkpt>
      <trkpt lat="43.51261" lon="5.31368">
        <ele>161.1</ele>
        <time>2025-05-07T09:17:38.000Z</time>
      </trkpt>
      <trkpt lat="43.51264" lon="5.31368">
        <ele>161.1</ele>
        <time>2025-05-07T09:17:40.000Z</time>
      </trkpt>
      <trkpt lat="43.51266" lon="5.31367">
        <ele>161</ele>
        <time>2025-05-07T09:17:42.000Z</time>
      </trkpt>
      <trkpt lat="43.51268" lon="5.31366">
        <ele>161</ele>
        <time>2025-05-07T09:17:45.000Z</time>
      </trkpt>
      <trkpt lat="43.51271" lon="5.31365">
        <ele>161</ele>
        <time>2025-05-07T09:17:47.000Z</time>
      </trkpt>
      <trkpt lat="43.51274" lon="5.31364">
        <ele>160.9</ele>
        <time>2025-05-07T09:17:49.000Z</time>
      </trkpt>
      <trkpt lat="43.51276" lon="5.31365">
        <ele>160.8</ele>
        <time>2025-05-07T09:17:52.000Z</time>
      </trkpt>
      <trkpt lat="43.51278" lon="5.31366">
        <ele>160.6</ele>
        <time>2025-05-07T09:17:55.000Z</time>
      </trkpt>
      <trkpt lat="43.5128" lon="5.31366">
        <ele>160.6</ele>
        <time>2025-05-07T09:18:04.000Z</time>
      </trkpt>
      <trkpt lat="43.51281" lon="5.3137">
        <ele>160.3</ele>
        <time>2025-05-07T09:18:20.000Z</time>
      </trkpt>
      <trkpt lat="43.51281" lon="5.31373">
        <ele>160.1</ele>
        <time>2025-05-07T09:18:23.000Z</time>
      </trkpt>
      <trkpt lat="43.51281" lon="5.31376">
        <ele>159.9</ele>
        <time>2025-05-07T09:19:20.000Z</time>
      </trkpt>
      <trkpt lat="43.51281" lon="5.31379">
        <ele>159.7</ele>
        <time>2025-05-07T09:20:20.000Z</time>
      </trkpt>
      <trkpt lat="43.51283" lon="5.31379">
        <ele>159.6</ele>
        <time>2025-05-07T09:20:27.000Z</time>
      </trkpt>
      <trkpt lat="43.51284" lon="5.31382">
        <ele>159.3</ele>
        <time>2025-05-07T09:21:13.000Z</time>
      </trkpt>
      <trkpt lat="43.51285" lon="5.31385">
        <ele>159.1</ele>
        <time>2025-05-07T09:21:17.000Z</time>
      </trkpt>
      <trkpt lat="43.51285" lon="5.31388">
        <ele>158.8</ele>
        <time>2025-05-07T09:21:20.000Z</time>
      </trkpt>
      <trkpt lat="43.51286" lon="5.31391">
        <ele>158.5</ele>
        <time>2025-05-07T09:21:27.000Z</time>
      </trkpt>
      <trkpt lat="43.51287" lon="5.31394">
        <ele>158.4</ele>
        <time>2025-05-07T09:21:29.000Z</time>
      </trkpt>
      <trkpt lat="43.51287" lon="5.31397">
        <ele>158.2</ele>
        <time>2025-05-07T09:21:32.000Z</time>
      </trkpt>
      <trkpt lat="43.51288" lon="5.31399">
        <ele>158.1</ele>
        <time>2025-05-07T09:21:35.000Z</time>
      </trkpt>
      <trkpt lat="43.51288" lon="5.31402">
        <ele>157.9</ele>
        <time>2025-05-07T09:21:39.000Z</time>
      </trkpt>
      <trkpt lat="43.5129" lon="5.31405">
        <ele>157.8</ele>
        <time>2025-05-07T09:21:41.000Z</time>
      </trkpt>
      <trkpt lat="43.51291" lon="5.31407">
        <ele>157.8</ele>
        <time>2025-05-07T09:21:43.000Z</time>
      </trkpt>
      <trkpt lat="43.51293" lon="5.3141">
        <ele>157.9</ele>
        <time>2025-05-07T09:21:47.000Z</time>
      </trkpt>
      <trkpt lat="43.51295" lon="5.31411">
        <ele>158</ele>
        <time>2025-05-07T09:21:49.000Z</time>
      </trkpt>
      <trkpt lat="43.51298" lon="5.31412">
        <ele>158.2</ele>
        <time>2025-05-07T09:21:51.000Z</time>
      </trkpt>
      <trkpt lat="43.51302" lon="5.31412">
        <ele>158.5</ele>
        <time>2025-05-07T09:21:53.000Z</time>
      </trkpt>
      <trkpt lat="43.51304" lon="5.31413">
        <ele>158.7</ele>
        <time>2025-05-07T09:21:55.000Z</time>
      </trkpt>
      <trkpt lat="43.51307" lon="5.31413">
        <ele>158.8</ele>
        <time>2025-05-07T09:21:57.000Z</time>
      </trkpt>
      <trkpt lat="43.51309" lon="5.31413">
        <ele>158.7</ele>
        <time>2025-05-07T09:21:59.000Z</time>
      </trkpt>
      <trkpt lat="43.51312" lon="5.31413">
        <ele>158.7</ele>
        <time>2025-05-07T09:22:01.000Z</time>
      </trkpt>
      <trkpt lat="43.51315" lon="5.31414">
        <ele>158.6</ele>
        <time>2025-05-07T09:22:03.000Z</time>
      </trkpt>
      <trkpt lat="43.51318" lon="5.31414">
        <ele>158.5</ele>
        <time>2025-05-07T09:22:05.000Z</time>
      </trkpt>
      <trkpt lat="43.5132" lon="5.31416">
        <ele>158.5</ele>
        <time>2025-05-07T09:22:07.000Z</time>
      </trkpt>
      <trkpt lat="43.51322" lon="5.31417">
        <ele>158.4</ele>
        <time>2025-05-07T09:22:09.000Z</time>
      </trkpt>
      <trkpt lat="43.51324" lon="5.31418">
        <ele>158.2</ele>
        <time>2025-05-07T09:22:11.000Z</time>
      </trkpt>
      <trkpt lat="43.51325" lon="5.3142">
        <ele>158</ele>
        <time>2025-05-07T09:22:13.000Z</time>
      </trkpt>
      <trkpt lat="43.51327" lon="5.31423">
        <ele>157.6</ele>
        <time>2025-05-07T09:22:16.000Z</time>
      </trkpt>
      <trkpt lat="43.51328" lon="5.31426">
        <ele>157.3</ele>
        <time>2025-05-07T09:22:18.000Z</time>
      </trkpt>
      <trkpt lat="43.51331" lon="5.31428">
        <ele>157</ele>
        <time>2025-05-07T09:22:25.000Z</time>
      </trkpt>
      <trkpt lat="43.51333" lon="5.31429">
        <ele>156.7</ele>
        <time>2025-05-07T09:22:28.000Z</time>
      </trkpt>
      <trkpt lat="43.51335" lon="5.31432">
        <ele>156.4</ele>
        <time>2025-05-07T09:22:32.000Z</time>
      </trkpt>
      <trkpt lat="43.51336" lon="5.31433">
        <ele>156.2</ele>
        <time>2025-05-07T09:22:35.000Z</time>
      </trkpt>
      <trkpt lat="43.51338" lon="5.31435">
        <ele>156</ele>
        <time>2025-05-07T09:22:37.000Z</time>
      </trkpt>
      <trkpt lat="43.51339" lon="5.31439">
        <ele>155.7</ele>
        <time>2025-05-07T09:22:39.000Z</time>
      </trkpt>
      <trkpt lat="43.5134" lon="5.31441">
        <ele>155.5</ele>
        <time>2025-05-07T09:22:41.000Z</time>
      </trkpt>
      <trkpt lat="43.51342" lon="5.31444">
        <ele>155.4</ele>
        <time>2025-05-07T09:22:44.000Z</time>
      </trkpt>
      <trkpt lat="43.51342" lon="5.31448">
        <ele>155.1</ele>
        <time>2025-05-07T09:22:47.000Z</time>
      </trkpt>
      <trkpt lat="43.51343" lon="5.31451">
        <ele>154.9</ele>
        <time>2025-05-07T09:22:50.000Z</time>
      </trkpt>
      <trkpt lat="43.51343" lon="5.31454">
        <ele>154.7</ele>
        <time>2025-05-07T09:22:52.000Z</time>
      </trkpt>
      <trkpt lat="43.51344" lon="5.31457">
        <ele>154.5</ele>
        <time>2025-05-07T09:22:55.000Z</time>
      </trkpt>
      <trkpt lat="43.51345" lon="5.3146">
        <ele>154.4</ele>
        <time>2025-05-07T09:22:57.000Z</time>
      </trkpt>
      <trkpt lat="43.51346" lon="5.31463">
        <ele>154.3</ele>
        <time>2025-05-07T09:22:59.000Z</time>
      </trkpt>
      <trkpt lat="43.51347" lon="5.31466">
        <ele>154.3</ele>
        <time>2025-05-07T09:23:01.000Z</time>
      </trkpt>
      <trkpt lat="43.51348" lon="5.31469">
        <ele>154.2</ele>
        <time>2025-05-07T09:23:03.000Z</time>
      </trkpt>
      <trkpt lat="43.5135" lon="5.31471">
        <ele>154.5</ele>
        <time>2025-05-07T09:23:05.000Z</time>
      </trkpt>
      <trkpt lat="43.51352" lon="5.31473">
        <ele>154.6</ele>
        <time>2025-05-07T09:23:07.000Z</time>
      </trkpt>
      <trkpt lat="43.51353" lon="5.31477">
        <ele>154.7</ele>
        <time>2025-05-07T09:23:10.000Z</time>
      </trkpt>
      <trkpt lat="43.51353" lon="5.31479">
        <ele>154.7</ele>
        <time>2025-05-07T09:23:12.000Z</time>
      </trkpt>
      <trkpt lat="43.51353" lon="5.31482">
        <ele>154.6</ele>
        <time>2025-05-07T09:23:14.000Z</time>
      </trkpt>
      <trkpt lat="43.51354" lon="5.31486">
        <ele>154.6</ele>
        <time>2025-05-07T09:23:16.000Z</time>
      </trkpt>
      <trkpt lat="43.51354" lon="5.31489">
        <ele>154.5</ele>
        <time>2025-05-07T09:23:18.000Z</time>
      </trkpt>
      <trkpt lat="43.51354" lon="5.31494">
        <ele>154.4</ele>
        <time>2025-05-07T09:23:21.000Z</time>
      </trkpt>
      <trkpt lat="43.51355" lon="5.31497">
        <ele>154.4</ele>
        <time>2025-05-07T09:23:23.000Z</time>
      </trkpt>
      <trkpt lat="43.51356" lon="5.315">
        <ele>154.4</ele>
        <time>2025-05-07T09:23:25.000Z</time>
      </trkpt>
      <trkpt lat="43.51357" lon="5.31504">
        <ele>154.4</ele>
        <time>2025-05-07T09:23:27.000Z</time>
      </trkpt>
      <trkpt lat="43.51359" lon="5.31507">
        <ele>154.5</ele>
        <time>2025-05-07T09:23:29.000Z</time>
      </trkpt>
      <trkpt lat="43.5136" lon="5.31509">
        <ele>154.6</ele>
        <time>2025-05-07T09:23:31.000Z</time>
      </trkpt>
      <trkpt lat="43.51361" lon="5.31512">
        <ele>154.6</ele>
        <time>2025-05-07T09:23:33.000Z</time>
      </trkpt>
      <trkpt lat="43.51362" lon="5.31516">
        <ele>154.5</ele>
        <time>2025-05-07T09:23:35.000Z</time>
      </trkpt>
      <trkpt lat="43.51362" lon="5.31519">
        <ele>154.4</ele>
        <time>2025-05-07T09:23:37.000Z</time>
      </trkpt>
      <trkpt lat="43.51364" lon="5.31522">
        <ele>154.4</ele>
        <time>2025-05-07T09:23:39.000Z</time>
      </trkpt>
      <trkpt lat="43.51365" lon="5.31525">
        <ele>154.4</ele>
        <time>2025-05-07T09:23:41.000Z</time>
      </trkpt>
      <trkpt lat="43.51366" lon="5.31529">
        <ele>154.3</ele>
        <time>2025-05-07T09:23:43.000Z</time>
      </trkpt>
      <trkpt lat="43.51367" lon="5.31532">
        <ele>154.3</ele>
        <time>2025-05-07T09:23:45.000Z</time>
      </trkpt>
      <trkpt lat="43.51369" lon="5.31534">
        <ele>154.2</ele>
        <time>2025-05-07T09:23:47.000Z</time>
      </trkpt>
      <trkpt lat="43.51371" lon="5.31537">
        <ele>154.1</ele>
        <time>2025-05-07T09:23:50.000Z</time>
      </trkpt>
      <trkpt lat="43.51373" lon="5.31539">
        <ele>154.1</ele>
        <time>2025-05-07T09:23:52.000Z</time>
      </trkpt>
      <trkpt lat="43.51374" lon="5.31542">
        <ele>153.9</ele>
        <time>2025-05-07T09:23:55.000Z</time>
      </trkpt>
      <trkpt lat="43.51375" lon="5.31543">
        <ele>153.9</ele>
        <time>2025-05-07T09:23:57.000Z</time>
      </trkpt>
      <trkpt lat="43.51377" lon="5.31546">
        <ele>153.7</ele>
        <time>2025-05-07T09:23:59.000Z</time>
      </trkpt>
      <trkpt lat="43.51378" lon="5.31549">
        <ele>153.6</ele>
        <time>2025-05-07T09:24:01.000Z</time>
      </trkpt>
      <trkpt lat="43.51378" lon="5.31551">
        <ele>153.4</ele>
        <time>2025-05-07T09:24:03.000Z</time>
      </trkpt>
      <trkpt lat="43.51379" lon="5.31554">
        <ele>153.1</ele>
        <time>2025-05-07T09:24:05.000Z</time>
      </trkpt>
      <trkpt lat="43.51379" lon="5.31557">
        <ele>152.9</ele>
        <time>2025-05-07T09:24:08.000Z</time>
      </trkpt>
      <trkpt lat="43.5138" lon="5.3156">
        <ele>152.7</ele>
        <time>2025-05-07T09:24:10.000Z</time>
      </trkpt>
      <trkpt lat="43.51381" lon="5.31563">
        <ele>152.4</ele>
        <time>2025-05-07T09:24:12.000Z</time>
      </trkpt>
      <trkpt lat="43.51381" lon="5.31567">
        <ele>152.2</ele>
        <time>2025-05-07T09:24:15.000Z</time>
      </trkpt>
      <trkpt lat="43.51384" lon="5.31569">
        <ele>152</ele>
        <time>2025-05-07T09:24:20.000Z</time>
      </trkpt>
      <trkpt lat="43.51386" lon="5.31572">
        <ele>151.8</ele>
        <time>2025-05-07T09:24:23.000Z</time>
      </trkpt>
      <trkpt lat="43.51388" lon="5.31574">
        <ele>151.7</ele>
        <time>2025-05-07T09:24:26.000Z</time>
      </trkpt>
      <trkpt lat="43.5139" lon="5.31576">
        <ele>151.5</ele>
        <time>2025-05-07T09:24:30.000Z</time>
      </trkpt>
      <trkpt lat="43.51392" lon="5.3158">
        <ele>151.1</ele>
        <time>2025-05-07T09:24:35.000Z</time>
      </trkpt>
      <trkpt lat="43.51393" lon="5.31583">
        <ele>150.9</ele>
        <time>2025-05-07T09:24:37.000Z</time>
      </trkpt>
      <trkpt lat="43.51395" lon="5.31585">
        <ele>150.7</ele>
        <time>2025-05-07T09:24:39.000Z</time>
      </trkpt>
      <trkpt lat="43.51396" lon="5.31587">
        <ele>150.5</ele>
        <time>2025-05-07T09:24:41.000Z</time>
      </trkpt>
      <trkpt lat="43.51397" lon="5.31589">
        <ele>150.3</ele>
        <time>2025-05-07T09:24:43.000Z</time>
      </trkpt>
      <trkpt lat="43.51398" lon="5.31592">
        <ele>150.2</ele>
        <time>2025-05-07T09:24:45.000Z</time>
      </trkpt>
      <trkpt lat="43.514" lon="5.31594">
        <ele>150</ele>
        <time>2025-05-07T09:24:49.000Z</time>
      </trkpt>
      <trkpt lat="43.51402" lon="5.31595">
        <ele>149.9</ele>
        <time>2025-05-07T09:24:51.000Z</time>
      </trkpt>
      <trkpt lat="43.51404" lon="5.31595">
        <ele>149.8</ele>
        <time>2025-05-07T09:24:54.000Z</time>
      </trkpt>
      <trkpt lat="43.51407" lon="5.31597">
        <ele>149.7</ele>
        <time>2025-05-07T09:24:57.000Z</time>
      </trkpt>
      <trkpt lat="43.5141" lon="5.31598">
        <ele>149.6</ele>
        <time>2025-05-07T09:24:59.000Z</time>
      </trkpt>
      <trkpt lat="43.51411" lon="5.316">
        <ele>149.5</ele>
        <time>2025-05-07T09:25:01.000Z</time>
      </trkpt>
      <trkpt lat="43.51413" lon="5.31602">
        <ele>149.4</ele>
        <time>2025-05-07T09:25:04.000Z</time>
      </trkpt>
      <trkpt lat="43.51416" lon="5.31603">
        <ele>149.3</ele>
        <time>2025-05-07T09:25:07.000Z</time>
      </trkpt>
      <trkpt lat="43.51418" lon="5.31605">
        <ele>149.2</ele>
        <time>2025-05-07T09:25:09.000Z</time>
      </trkpt>
      <trkpt lat="43.5142" lon="5.31607">
        <ele>149.1</ele>
        <time>2025-05-07T09:25:11.000Z</time>
      </trkpt>
      <trkpt lat="43.51423" lon="5.31609">
        <ele>149</ele>
        <time>2025-05-07T09:25:13.000Z</time>
      </trkpt>
      <trkpt lat="43.51425" lon="5.31611">
        <ele>149</ele>
        <time>2025-05-07T09:25:15.000Z</time>
      </trkpt>
      <trkpt lat="43.51427" lon="5.31613">
        <ele>148.8</ele>
        <time>2025-05-07T09:25:17.000Z</time>
      </trkpt>
      <trkpt lat="43.51429" lon="5.31614">
        <ele>148.7</ele>
        <time>2025-05-07T09:25:19.000Z</time>
      </trkpt>
      <trkpt lat="43.51431" lon="5.31614">
        <ele>148.7</ele>
        <time>2025-05-07T09:25:21.000Z</time>
      </trkpt>
      <trkpt lat="43.51434" lon="5.31615">
        <ele>148.7</ele>
        <time>2025-05-07T09:25:23.000Z</time>
      </trkpt>
      <trkpt lat="43.51436" lon="5.31617">
        <ele>148.7</ele>
        <time>2025-05-07T09:25:25.000Z</time>
      </trkpt>
      <trkpt lat="43.51438" lon="5.31621">
        <ele>148.6</ele>
        <time>2025-05-07T09:25:28.000Z</time>
      </trkpt>
      <trkpt lat="43.5144" lon="5.31621">
        <ele>148.7</ele>
        <time>2025-05-07T09:25:47.000Z</time>
      </trkpt>
      <trkpt lat="43.51442" lon="5.31622">
        <ele>148.8</ele>
        <time>2025-05-07T09:25:49.000Z</time>
      </trkpt>
      <trkpt lat="43.51444" lon="5.31624">
        <ele>148.9</ele>
        <time>2025-05-07T09:25:52.000Z</time>
      </trkpt>
      <trkpt lat="43.51445" lon="5.31627">
        <ele>149</ele>
        <time>2025-05-07T09:25:55.000Z</time>
      </trkpt>
      <trkpt lat="43.51448" lon="5.31628">
        <ele>149</ele>
        <time>2025-05-07T09:25:57.000Z</time>
      </trkpt>
      <trkpt lat="43.51449" lon="5.31631">
        <ele>149</ele>
        <time>2025-05-07T09:26:00.000Z</time>
      </trkpt>
      <trkpt lat="43.51451" lon="5.31633">
        <ele>149.1</ele>
        <time>2025-05-07T09:26:02.000Z</time>
      </trkpt>
      <trkpt lat="43.51452" lon="5.31636">
        <ele>149.2</ele>
        <time>2025-05-07T09:26:04.000Z</time>
      </trkpt>
      <trkpt lat="43.51454" lon="5.31639">
        <ele>149.3</ele>
        <time>2025-05-07T09:26:07.000Z</time>
      </trkpt>
      <trkpt lat="43.51455" lon="5.31641">
        <ele>149.1</ele>
        <time>2025-05-07T09:26:09.000Z</time>
      </trkpt>
      <trkpt lat="43.51456" lon="5.31644">
        <ele>148.9</ele>
        <time>2025-05-07T09:26:11.000Z</time>
      </trkpt>
      <trkpt lat="43.51457" lon="5.31647">
        <ele>148.7</ele>
        <time>2025-05-07T09:26:13.000Z</time>
      </trkpt>
      <trkpt lat="43.51458" lon="5.3165">
        <ele>148.5</ele>
        <time>2025-05-07T09:26:15.000Z</time>
      </trkpt>
      <trkpt lat="43.51459" lon="5.31653">
        <ele>148.3</ele>
        <time>2025-05-07T09:26:17.000Z</time>
      </trkpt>
      <trkpt lat="43.51461" lon="5.31655">
        <ele>148.3</ele>
        <time>2025-05-07T09:26:19.000Z</time>
      </trkpt>
      <trkpt lat="43.51462" lon="5.31657">
        <ele>148.3</ele>
        <time>2025-05-07T09:26:21.000Z</time>
      </trkpt>
      <trkpt lat="43.51464" lon="5.31659">
        <ele>148.3</ele>
        <time>2025-05-07T09:26:23.000Z</time>
      </trkpt>
      <trkpt lat="43.51465" lon="5.31662">
        <ele>148.3</ele>
        <time>2025-05-07T09:26:25.000Z</time>
      </trkpt>
      <trkpt lat="43.51467" lon="5.31662">
        <ele>148.5</ele>
        <time>2025-05-07T09:26:27.000Z</time>
      </trkpt>
      <trkpt lat="43.51469" lon="5.31663">
        <ele>148.7</ele>
        <time>2025-05-07T09:26:30.000Z</time>
      </trkpt>
      <trkpt lat="43.5147" lon="5.31666">
        <ele>148.7</ele>
        <time>2025-05-07T09:26:33.000Z</time>
      </trkpt>
      <trkpt lat="43.51471" lon="5.31668">
        <ele>147.4</ele>
        <time>2025-05-07T09:26:35.000Z</time>
      </trkpt>
      <trkpt lat="43.5147" lon="5.31672">
        <ele>144.7</ele>
        <time>2025-05-07T09:26:38.000Z</time>
      </trkpt>
      <trkpt lat="43.5147" lon="5.31675">
        <ele>142.3</ele>
        <time>2025-05-07T09:26:41.000Z</time>
      </trkpt>
      <trkpt lat="43.51472" lon="5.31676">
        <ele>141.1</ele>
        <time>2025-05-07T09:26:44.000Z</time>
      </trkpt>
      <trkpt lat="43.51475" lon="5.31679">
        <ele>137.2</ele>
        <time>2025-05-07T09:26:57.000Z</time>
      </trkpt>
      <trkpt lat="43.51476" lon="5.3168">
        <ele>135</ele>
        <time>2025-05-07T09:26:59.000Z</time>
      </trkpt>
      <trkpt lat="43.51479" lon="5.31681">
        <ele>133.1</ele>
        <time>2025-05-07T09:27:03.000Z</time>
      </trkpt>
      <trkpt lat="43.51479" lon="5.31684">
        <ele>130.5</ele>
        <time>2025-05-07T09:28:37.000Z</time>
      </trkpt>
      <trkpt lat="43.51479" lon="5.31681">
        <ele>132.8</ele>
        <time>2025-05-07T09:30:45.000Z</time>
      </trkpt>
      <trkpt lat="43.51479" lon="5.31678">
        <ele>134.9</ele>
        <time>2025-05-07T09:30:57.000Z</time>
      </trkpt>
      <trkpt lat="43.51477" lon="5.31679">
        <ele>135.7</ele>
        <time>2025-05-07T09:31:19.000Z</time>
      </trkpt>
      <trkpt lat="43.51475" lon="5.31677">
        <ele>138.7</ele>
        <time>2025-05-07T09:31:23.000Z</time>
      </trkpt>
      <trkpt lat="43.51474" lon="5.31674">
        <ele>141.3</ele>
        <time>2025-05-07T09:31:26.000Z</time>
      </trkpt>
      <trkpt lat="43.51475" lon="5.31671">
        <ele>143.4</ele>
        <time>2025-05-07T09:31:32.000Z</time>
      </trkpt>
      <trkpt lat="43.51474" lon="5.31668">
        <ele>146.5</ele>
        <time>2025-05-07T09:31:36.000Z</time>
      </trkpt>
      <trkpt lat="43.51473" lon="5.31665">
        <ele>148.7</ele>
        <time>2025-05-07T09:31:39.000Z</time>
      </trkpt>
      <trkpt lat="43.51471" lon="5.31663">
        <ele>149</ele>
        <time>2025-05-07T09:31:41.000Z</time>
      </trkpt>
      <trkpt lat="43.51469" lon="5.3166">
        <ele>148.9</ele>
        <time>2025-05-07T09:31:43.000Z</time>
      </trkpt>
      <trkpt lat="43.51468" lon="5.31658">
        <ele>148.9</ele>
        <time>2025-05-07T09:31:45.000Z</time>
      </trkpt>
      <trkpt lat="43.51466" lon="5.31656">
        <ele>148.8</ele>
        <time>2025-05-07T09:31:47.000Z</time>
      </trkpt>
      <trkpt lat="43.51465" lon="5.31654">
        <ele>148.8</ele>
        <time>2025-05-07T09:31:49.000Z</time>
      </trkpt>
      <trkpt lat="43.51464" lon="5.31652">
        <ele>148.8</ele>
        <time>2025-05-07T09:31:51.000Z</time>
      </trkpt>
      <trkpt lat="43.51462" lon="5.31649">
        <ele>148.9</ele>
        <time>2025-05-07T09:31:53.000Z</time>
      </trkpt>
      <trkpt lat="43.51462" lon="5.31647">
        <ele>149</ele>
        <time>2025-05-07T09:31:55.000Z</time>
      </trkpt>
      <trkpt lat="43.51461" lon="5.31644">
        <ele>149.2</ele>
        <time>2025-05-07T09:31:57.000Z</time>
      </trkpt>
      <trkpt lat="43.5146" lon="5.31641">
        <ele>149.4</ele>
        <time>2025-05-07T09:31:59.000Z</time>
      </trkpt>
      <trkpt lat="43.5146" lon="5.31639">
        <ele>149.5</ele>
        <time>2025-05-07T09:32:02.000Z</time>
      </trkpt>
      <trkpt lat="43.51459" lon="5.31635">
        <ele>149.3</ele>
        <time>2025-05-07T09:32:05.000Z</time>
      </trkpt>
      <trkpt lat="43.51458" lon="5.31634">
        <ele>149.2</ele>
        <time>2025-05-07T09:32:07.000Z</time>
      </trkpt>
      <trkpt lat="43.51456" lon="5.31632">
        <ele>149.1</ele>
        <time>2025-05-07T09:32:10.000Z</time>
      </trkpt>
      <trkpt lat="43.51454" lon="5.3163">
        <ele>149</ele>
        <time>2025-05-07T09:32:12.000Z</time>
      </trkpt>
      <trkpt lat="43.51452" lon="5.31628">
        <ele>149</ele>
        <time>2025-05-07T09:32:15.000Z</time>
      </trkpt>
      <trkpt lat="43.5145" lon="5.31627">
        <ele>148.9</ele>
        <time>2025-05-07T09:32:18.000Z</time>
      </trkpt>
      <trkpt lat="43.51447" lon="5.31626">
        <ele>149</ele>
        <time>2025-05-07T09:32:20.000Z</time>
      </trkpt>
      <trkpt lat="43.51445" lon="5.31623">
        <ele>149</ele>
        <time>2025-05-07T09:32:23.000Z</time>
      </trkpt>
      <trkpt lat="43.51443" lon="5.31622">
        <ele>148.9</ele>
        <time>2025-05-07T09:32:25.000Z</time>
      </trkpt>
      <trkpt lat="43.51441" lon="5.3162">
        <ele>148.8</ele>
        <time>2025-05-07T09:32:27.000Z</time>
      </trkpt>
      <trkpt lat="43.51439" lon="5.31618">
        <ele>148.8</ele>
        <time>2025-05-07T09:32:29.000Z</time>
      </trkpt>
      <trkpt lat="43.51437" lon="5.31616">
        <ele>148.8</ele>
        <time>2025-05-07T09:32:31.000Z</time>
      </trkpt>
      <trkpt lat="43.51436" lon="5.31614">
        <ele>148.8</ele>
        <time>2025-05-07T09:32:33.000Z</time>
      </trkpt>
      <trkpt lat="43.51434" lon="5.31613">
        <ele>148.9</ele>
        <time>2025-05-07T09:32:35.000Z</time>
      </trkpt>
      <trkpt lat="43.51433" lon="5.31611">
        <ele>149</ele>
        <time>2025-05-07T09:32:37.000Z</time>
      </trkpt>
      <trkpt lat="43.51432" lon="5.31609">
        <ele>149</ele>
        <time>2025-05-07T09:32:39.000Z</time>
      </trkpt>
      <trkpt lat="43.51429" lon="5.31607">
        <ele>148.9</ele>
        <time>2025-05-07T09:32:42.000Z</time>
      </trkpt>
      <trkpt lat="43.51427" lon="5.31605">
        <ele>149</ele>
        <time>2025-05-07T09:32:45.000Z</time>
      </trkpt>
      <trkpt lat="43.51425" lon="5.31604">
        <ele>149</ele>
        <time>2025-05-07T09:32:48.000Z</time>
      </trkpt>
      <trkpt lat="43.51423" lon="5.31601">
        <ele>149.1</ele>
        <time>2025-05-07T09:32:50.000Z</time>
      </trkpt>
      <trkpt lat="43.51422" lon="5.316">
        <ele>149.2</ele>
        <time>2025-05-07T09:32:52.000Z</time>
      </trkpt>
      <trkpt lat="43.5142" lon="5.31598">
        <ele>149.3</ele>
        <time>2025-05-07T09:32:55.000Z</time>
      </trkpt>
      <trkpt lat="43.51419" lon="5.31596">
        <ele>149.4</ele>
        <time>2025-05-07T09:32:57.000Z</time>
      </trkpt>
      <trkpt lat="43.5142" lon="5.31594">
        <ele>149.4</ele>
        <time>2025-05-07T09:33:00.000Z</time>
      </trkpt>
      <trkpt lat="43.51421" lon="5.31591">
        <ele>149.4</ele>
        <time>2025-05-07T09:33:04.000Z</time>
      </trkpt>
      <trkpt lat="43.5142" lon="5.31588">
        <ele>149.5</ele>
        <time>2025-05-07T09:33:08.000Z</time>
      </trkpt>
      <trkpt lat="43.5142" lon="5.31585">
        <ele>149.6</ele>
        <time>2025-05-07T09:33:13.000Z</time>
      </trkpt>
      <trkpt lat="43.51422" lon="5.31584">
        <ele>149.4</ele>
        <time>2025-05-07T09:33:16.000Z</time>
      </trkpt>
      <trkpt lat="43.51424" lon="5.31583">
        <ele>149.3</ele>
        <time>2025-05-07T09:33:18.000Z</time>
      </trkpt>
      <trkpt lat="43.51426" lon="5.31581">
        <ele>149.2</ele>
        <time>2025-05-07T09:33:20.000Z</time>
      </trkpt>
      <trkpt lat="43.51426" lon="5.31578">
        <ele>149.4</ele>
        <time>2025-05-07T09:33:23.000Z</time>
      </trkpt>
      <trkpt lat="43.51426" lon="5.31574">
        <ele>149.7</ele>
        <time>2025-05-07T09:33:26.000Z</time>
      </trkpt>
      <trkpt lat="43.51426" lon="5.31571">
        <ele>149.9</ele>
        <time>2025-05-07T09:33:29.000Z</time>
      </trkpt>
      <trkpt lat="43.51429" lon="5.31568">
        <ele>149.8</ele>
        <time>2025-05-07T09:33:35.000Z</time>
      </trkpt>
      <trkpt lat="43.51431" lon="5.31568">
        <ele>149.6</ele>
        <time>2025-05-07T09:33:38.000Z</time>
      </trkpt>
      <trkpt lat="43.51433" lon="5.31568">
        <ele>149.4</ele>
        <time>2025-05-07T09:33:40.000Z</time>
      </trkpt>
      <trkpt lat="43.51434" lon="5.31566">
        <ele>149.3</ele>
        <time>2025-05-07T09:33:44.000Z</time>
      </trkpt>
      <trkpt lat="43.51436" lon="5.31564">
        <ele>149.3</ele>
        <time>2025-05-07T09:33:47.000Z</time>
      </trkpt>
      <trkpt lat="43.51438" lon="5.31563">
        <ele>149.2</ele>
        <time>2025-05-07T09:33:49.000Z</time>
      </trkpt>
      <trkpt lat="43.51439" lon="5.31559">
        <ele>149.4</ele>
        <time>2025-05-07T09:33:57.000Z</time>
      </trkpt>
      <trkpt lat="43.51437" lon="5.31557">
        <ele>149.7</ele>
        <time>2025-05-07T09:34:16.000Z</time>
      </trkpt>
      <trkpt lat="43.51437" lon="5.31555">
        <ele>149.8</ele>
        <time>2025-05-07T09:35:13.000Z</time>
      </trkpt>
      <trkpt lat="43.51435" lon="5.31555">
        <ele>150</ele>
        <time>2025-05-07T09:35:58.000Z</time>
      </trkpt>
      <trkpt lat="43.51433" lon="5.31557">
        <ele>150.2</ele>
        <time>2025-05-07T09:36:03.000Z</time>
      </trkpt>
      <trkpt lat="43.5143" lon="5.31557">
        <ele>150.5</ele>
        <time>2025-05-07T09:36:06.000Z</time>
      </trkpt>
      <trkpt lat="43.51428" lon="5.31557">
        <ele>150.7</ele>
        <time>2025-05-07T09:36:09.000Z</time>
      </trkpt>
      <trkpt lat="43.51427" lon="5.31559">
        <ele>150.6</ele>
        <time>2025-05-07T09:36:12.000Z</time>
      </trkpt>
      <trkpt lat="43.51427" lon="5.31562">
        <ele>150.5</ele>
        <time>2025-05-07T09:36:15.000Z</time>
      </trkpt>
      <trkpt lat="43.51426" lon="5.31565">
        <ele>150.3</ele>
        <time>2025-05-07T09:36:17.000Z</time>
      </trkpt>
      <trkpt lat="43.51426" lon="5.31568">
        <ele>150.2</ele>
        <time>2025-05-07T09:36:19.000Z</time>
      </trkpt>
      <trkpt lat="43.51426" lon="5.31571">
        <ele>150</ele>
        <time>2025-05-07T09:36:22.000Z</time>
      </trkpt>
      <trkpt lat="43.51424" lon="5.31574">
        <ele>149.9</ele>
        <time>2025-05-07T09:36:24.000Z</time>
      </trkpt>
      <trkpt lat="43.51422" lon="5.31575">
        <ele>150</ele>
        <time>2025-05-07T09:36:26.000Z</time>
      </trkpt>
      <trkpt lat="43.5142" lon="5.31577">
        <ele>150.1</ele>
        <time>2025-05-07T09:36:28.000Z</time>
      </trkpt>
      <trkpt lat="43.51418" lon="5.31579">
        <ele>150.1</ele>
        <time>2025-05-07T09:36:31.000Z</time>
      </trkpt>
      <trkpt lat="43.51418" lon="5.31582">
        <ele>149.9</ele>
        <time>2025-05-07T09:36:34.000Z</time>
      </trkpt>
      <trkpt lat="43.51419" lon="5.31585">
        <ele>149.8</ele>
        <time>2025-05-07T09:36:36.000Z</time>
      </trkpt>
      <trkpt lat="43.51419" lon="5.31588">
        <ele>149.7</ele>
        <time>2025-05-07T09:36:39.000Z</time>
      </trkpt>
      <trkpt lat="43.51419" lon="5.31591">
        <ele>149.6</ele>
        <time>2025-05-07T09:36:42.000Z</time>
      </trkpt>
      <trkpt lat="43.51417" lon="5.31594">
        <ele>149.6</ele>
        <time>2025-05-07T09:36:45.000Z</time>
      </trkpt>
      <trkpt lat="43.51416" lon="5.31596">
        <ele>149.5</ele>
        <time>2025-05-07T09:36:47.000Z</time>
      </trkpt>
      <trkpt lat="43.51415" lon="5.31598">
        <ele>149.5</ele>
        <time>2025-05-07T09:36:50.000Z</time>
      </trkpt>
      <trkpt lat="43.51413" lon="5.31599">
        <ele>149.5</ele>
        <time>2025-05-07T09:37:13.000Z</time>
      </trkpt>
      <trkpt lat="43.51411" lon="5.31599">
        <ele>149.5</ele>
        <time>2025-05-07T09:37:17.000Z</time>
      </trkpt>
      <trkpt lat="43.51409" lon="5.316">
        <ele>149.5</ele>
        <time>2025-05-07T09:37:20.000Z</time>
      </trkpt>
      <trkpt lat="43.51406" lon="5.31599">
        <ele>149.6</ele>
        <time>2025-05-07T09:37:22.000Z</time>
      </trkpt>
      <trkpt lat="43.51405" lon="5.31597">
        <ele>149.7</ele>
        <time>2025-05-07T09:37:24.000Z</time>
      </trkpt>
      <trkpt lat="43.51403" lon="5.31596">
        <ele>149.8</ele>
        <time>2025-05-07T09:37:26.000Z</time>
      </trkpt>
      <trkpt lat="43.51401" lon="5.31594">
        <ele>150</ele>
        <time>2025-05-07T09:37:29.000Z</time>
      </trkpt>
      <trkpt lat="43.514" lon="5.31592">
        <ele>150.1</ele>
        <time>2025-05-07T09:37:31.000Z</time>
      </trkpt>
      <trkpt lat="43.51398" lon="5.31589">
        <ele>150.3</ele>
        <time>2025-05-07T09:37:34.000Z</time>
      </trkpt>
      <trkpt lat="43.51397" lon="5.31587">
        <ele>150.5</ele>
        <time>2025-05-07T09:37:37.000Z</time>
      </trkpt>
      <trkpt lat="43.51396" lon="5.31584">
        <ele>150.7</ele>
        <time>2025-05-07T09:37:40.000Z</time>
      </trkpt>
      <trkpt lat="43.51394" lon="5.31582">
        <ele>150.9</ele>
        <time>2025-05-07T09:37:42.000Z</time>
      </trkpt>
      <trkpt lat="43.51392" lon="5.3158">
        <ele>151.1</ele>
        <time>2025-05-07T09:37:45.000Z</time>
      </trkpt>
      <trkpt lat="43.51391" lon="5.31577">
        <ele>151.4</ele>
        <time>2025-05-07T09:37:48.000Z</time>
      </trkpt>
      <trkpt lat="43.5139" lon="5.31574">
        <ele>151.6</ele>
        <time>2025-05-07T09:37:51.000Z</time>
      </trkpt>
      <trkpt lat="43.51388" lon="5.31572">
        <ele>151.8</ele>
        <time>2025-05-07T09:37:54.000Z</time>
      </trkpt>
      <trkpt lat="43.51387" lon="5.3157">
        <ele>151.9</ele>
        <time>2025-05-07T09:37:56.000Z</time>
      </trkpt>
      <trkpt lat="43.51386" lon="5.31568">
        <ele>152.1</ele>
        <time>2025-05-07T09:37:59.000Z</time>
      </trkpt>
      <trkpt lat="43.51385" lon="5.31565">
        <ele>152.3</ele>
        <time>2025-05-07T09:38:02.000Z</time>
      </trkpt>
      <trkpt lat="43.51384" lon="5.31562">
        <ele>152.6</ele>
        <time>2025-05-07T09:38:06.000Z</time>
      </trkpt>
      <trkpt lat="43.51383" lon="5.3156">
        <ele>152.7</ele>
        <time>2025-05-07T09:38:08.000Z</time>
      </trkpt>
      <trkpt lat="43.51382" lon="5.31557">
        <ele>152.9</ele>
        <time>2025-05-07T09:38:10.000Z</time>
      </trkpt>
      <trkpt lat="43.51381" lon="5.31555">
        <ele>153.1</ele>
        <time>2025-05-07T09:38:15.000Z</time>
      </trkpt>
      <trkpt lat="43.5138" lon="5.31552">
        <ele>153.3</ele>
        <time>2025-05-07T09:38:17.000Z</time>
      </trkpt>
      <trkpt lat="43.5138" lon="5.31549">
        <ele>153.5</ele>
        <time>2025-05-07T09:38:19.000Z</time>
      </trkpt>
      <trkpt lat="43.51379" lon="5.31547">
        <ele>153.7</ele>
        <time>2025-05-07T09:38:21.000Z</time>
      </trkpt>
      <trkpt lat="43.51378" lon="5.31544">
        <ele>153.9</ele>
        <time>2025-05-07T09:38:23.000Z</time>
      </trkpt>
      <trkpt lat="43.51376" lon="5.31542">
        <ele>154.1</ele>
        <time>2025-05-07T09:38:25.000Z</time>
      </trkpt>
      <trkpt lat="43.51375" lon="5.3154">
        <ele>154.2</ele>
        <time>2025-05-07T09:38:27.000Z</time>
      </trkpt>
      <trkpt lat="43.51373" lon="5.31538">
        <ele>154.2</ele>
        <time>2025-05-07T09:38:29.000Z</time>
      </trkpt>
      <trkpt lat="43.51371" lon="5.31535">
        <ele>154.3</ele>
        <time>2025-05-07T09:38:31.000Z</time>
      </trkpt>
      <trkpt lat="43.5137" lon="5.31533">
        <ele>154.3</ele>
        <time>2025-05-07T09:38:33.000Z</time>
      </trkpt>
      <trkpt lat="43.51368" lon="5.31531">
        <ele>154.4</ele>
        <time>2025-05-07T09:38:35.000Z</time>
      </trkpt>
      <trkpt lat="43.51368" lon="5.31528">
        <ele>154.5</ele>
        <time>2025-05-07T09:38:37.000Z</time>
      </trkpt>
      <trkpt lat="43.51367" lon="5.31525">
        <ele>154.5</ele>
        <time>2025-05-07T09:38:39.000Z</time>
      </trkpt>
      <trkpt lat="43.51367" lon="5.31521">
        <ele>154.6</ele>
        <time>2025-05-07T09:38:41.000Z</time>
      </trkpt>
      <trkpt lat="43.51366" lon="5.31518">
        <ele>154.7</ele>
        <time>2025-05-07T09:38:43.000Z</time>
      </trkpt>
      <trkpt lat="43.51366" lon="5.31515">
        <ele>154.8</ele>
        <time>2025-05-07T09:38:45.000Z</time>
      </trkpt>
      <trkpt lat="43.51365" lon="5.31513">
        <ele>154.8</ele>
        <time>2025-05-07T09:38:47.000Z</time>
      </trkpt>
      <trkpt lat="43.51364" lon="5.3151">
        <ele>154.8</ele>
        <time>2025-05-07T09:38:50.000Z</time>
      </trkpt>
      <trkpt lat="43.51363" lon="5.31508">
        <ele>154.8</ele>
        <time>2025-05-07T09:38:52.000Z</time>
      </trkpt>
      <trkpt lat="43.51361" lon="5.31505">
        <ele>154.8</ele>
        <time>2025-05-07T09:38:55.000Z</time>
      </trkpt>
      <trkpt lat="43.5136" lon="5.31502">
        <ele>154.7</ele>
        <time>2025-05-07T09:38:57.000Z</time>
      </trkpt>
      <trkpt lat="43.51358" lon="5.315">
        <ele>154.7</ele>
        <time>2025-05-07T09:38:59.000Z</time>
      </trkpt>
      <trkpt lat="43.51357" lon="5.31496">
        <ele>154.7</ele>
        <time>2025-05-07T09:39:01.000Z</time>
      </trkpt>
      <trkpt lat="43.51356" lon="5.31494">
        <ele>154.7</ele>
        <time>2025-05-07T09:39:05.000Z</time>
      </trkpt>
      <trkpt lat="43.51356" lon="5.31491">
        <ele>154.7</ele>
        <time>2025-05-07T09:39:07.000Z</time>
      </trkpt>
      <trkpt lat="43.51356" lon="5.31487">
        <ele>154.9</ele>
        <time>2025-05-07T09:39:10.000Z</time>
      </trkpt>
      <trkpt lat="43.51356" lon="5.31485">
        <ele>154.9</ele>
        <time>2025-05-07T09:39:12.000Z</time>
      </trkpt>
      <trkpt lat="43.51356" lon="5.31482">
        <ele>155</ele>
        <time>2025-05-07T09:39:14.000Z</time>
      </trkpt>
      <trkpt lat="43.51356" lon="5.31479">
        <ele>155.1</ele>
        <time>2025-05-07T09:39:16.000Z</time>
      </trkpt>
      <trkpt lat="43.51355" lon="5.31476">
        <ele>155</ele>
        <time>2025-05-07T09:39:18.000Z</time>
      </trkpt>
      <trkpt lat="43.51354" lon="5.31474">
        <ele>155</ele>
        <time>2025-05-07T09:39:20.000Z</time>
      </trkpt>
      <trkpt lat="43.51353" lon="5.31471">
        <ele>154.9</ele>
        <time>2025-05-07T09:39:22.000Z</time>
      </trkpt>
      <trkpt lat="43.51352" lon="5.31469">
        <ele>154.8</ele>
        <time>2025-05-07T09:39:24.000Z</time>
      </trkpt>
      <trkpt lat="43.51351" lon="5.31466">
        <ele>154.8</ele>
        <time>2025-05-07T09:39:26.000Z</time>
      </trkpt>
      <trkpt lat="43.51351" lon="5.31463">
        <ele>154.9</ele>
        <time>2025-05-07T09:39:29.000Z</time>
      </trkpt>
      <trkpt lat="43.5135" lon="5.3146">
        <ele>154.9</ele>
        <time>2025-05-07T09:39:31.000Z</time>
      </trkpt>
      <trkpt lat="43.51349" lon="5.31457">
        <ele>155</ele>
        <time>2025-05-07T09:39:33.000Z</time>
      </trkpt>
      <trkpt lat="43.5135" lon="5.31453">
        <ele>155.2</ele>
        <time>2025-05-07T09:39:36.000Z</time>
      </trkpt>
      <trkpt lat="43.5135" lon="5.3145">
        <ele>155.3</ele>
        <time>2025-05-07T09:39:38.000Z</time>
      </trkpt>
      <trkpt lat="43.51349" lon="5.31447">
        <ele>155.4</ele>
        <time>2025-05-07T09:39:40.000Z</time>
      </trkpt>
      <trkpt lat="43.51347" lon="5.31445">
        <ele>155.5</ele>
        <time>2025-05-07T09:39:42.000Z</time>
      </trkpt>
      <trkpt lat="43.51345" lon="5.3144">
        <ele>155.8</ele>
        <time>2025-05-07T09:39:46.000Z</time>
      </trkpt>
      <trkpt lat="43.51344" lon="5.31438">
        <ele>155.9</ele>
        <time>2025-05-07T09:39:48.000Z</time>
      </trkpt>
      <trkpt lat="43.51343" lon="5.31435">
        <ele>156.1</ele>
        <time>2025-05-07T09:39:50.000Z</time>
      </trkpt>
      <trkpt lat="43.51341" lon="5.31433">
        <ele>156.3</ele>
        <time>2025-05-07T09:39:52.000Z</time>
      </trkpt>
      <trkpt lat="43.51339" lon="5.31431">
        <ele>156.4</ele>
        <time>2025-05-07T09:39:54.000Z</time>
      </trkpt>
      <trkpt lat="43.51337" lon="5.3143">
        <ele>156.6</ele>
        <time>2025-05-07T09:39:56.000Z</time>
      </trkpt>
      <trkpt lat="43.51335" lon="5.31428">
        <ele>156.8</ele>
        <time>2025-05-07T09:39:59.000Z</time>
      </trkpt>
      <trkpt lat="43.51333" lon="5.31426">
        <ele>157.1</ele>
        <time>2025-05-07T09:40:01.000Z</time>
      </trkpt>
      <trkpt lat="43.51331" lon="5.31424">
        <ele>157.3</ele>
        <time>2025-05-07T09:40:03.000Z</time>
      </trkpt>
      <trkpt lat="43.5133" lon="5.31423">
        <ele>157.5</ele>
        <time>2025-05-07T09:40:05.000Z</time>
      </trkpt>
      <trkpt lat="43.51328" lon="5.31421">
        <ele>157.8</ele>
        <time>2025-05-07T09:40:07.000Z</time>
      </trkpt>
      <trkpt lat="43.51326" lon="5.3142">
        <ele>158</ele>
        <time>2025-05-07T09:40:09.000Z</time>
      </trkpt>
      <trkpt lat="43.51325" lon="5.31418">
        <ele>158.2</ele>
        <time>2025-05-07T09:40:11.000Z</time>
      </trkpt>
      <trkpt lat="43.51322" lon="5.31417">
        <ele>158.4</ele>
        <time>2025-05-07T09:40:13.000Z</time>
      </trkpt>
      <trkpt lat="43.5132" lon="5.31416">
        <ele>158.5</ele>
        <time>2025-05-07T09:40:15.000Z</time>
      </trkpt>
      <trkpt lat="43.51318" lon="5.31415">
        <ele>158.5</ele>
        <time>2025-05-07T09:40:17.000Z</time>
      </trkpt>
      <trkpt lat="43.51316" lon="5.31416">
        <ele>158.6</ele>
        <time>2025-05-07T09:40:19.000Z</time>
      </trkpt>
      <trkpt lat="43.51314" lon="5.31416">
        <ele>158.7</ele>
        <time>2025-05-07T09:40:21.000Z</time>
      </trkpt>
      <trkpt lat="43.5131" lon="5.31414">
        <ele>158.8</ele>
        <time>2025-05-07T09:40:24.000Z</time>
      </trkpt>
      <trkpt lat="43.51308" lon="5.31413">
        <ele>158.8</ele>
        <time>2025-05-07T09:40:26.000Z</time>
      </trkpt>
      <trkpt lat="43.51306" lon="5.31413">
        <ele>158.8</ele>
        <time>2025-05-07T09:40:28.000Z</time>
      </trkpt>
      <trkpt lat="43.51304" lon="5.31412">
        <ele>158.7</ele>
        <time>2025-05-07T09:40:30.000Z</time>
      </trkpt>
      <trkpt lat="43.51302" lon="5.31411">
        <ele>158.5</ele>
        <time>2025-05-07T09:40:32.000Z</time>
      </trkpt>
      <trkpt lat="43.51299" lon="5.3141">
        <ele>158.3</ele>
        <time>2025-05-07T09:40:34.000Z</time>
      </trkpt>
      <trkpt lat="43.51297" lon="5.31409">
        <ele>158.1</ele>
        <time>2025-05-07T09:40:36.000Z</time>
      </trkpt>
      <trkpt lat="43.51295" lon="5.31408">
        <ele>158</ele>
        <time>2025-05-07T09:40:38.000Z</time>
      </trkpt>
      <trkpt lat="43.51293" lon="5.31407">
        <ele>158</ele>
        <time>2025-05-07T09:40:40.000Z</time>
      </trkpt>
      <trkpt lat="43.51291" lon="5.31405">
        <ele>157.9</ele>
        <time>2025-05-07T09:40:42.000Z</time>
      </trkpt>
      <trkpt lat="43.5129" lon="5.31403">
        <ele>157.9</ele>
        <time>2025-05-07T09:40:44.000Z</time>
      </trkpt>
      <trkpt lat="43.51289" lon="5.31401">
        <ele>158</ele>
        <time>2025-05-07T09:40:46.000Z</time>
      </trkpt>
      <trkpt lat="43.51289" lon="5.31398">
        <ele>158.1</ele>
        <time>2025-05-07T09:40:49.000Z</time>
      </trkpt>
      <trkpt lat="43.51288" lon="5.31395">
        <ele>158.3</ele>
        <time>2025-05-07T09:40:52.000Z</time>
      </trkpt>
      <trkpt lat="43.51287" lon="5.31392">
        <ele>158.5</ele>
        <time>2025-05-07T09:40:55.000Z</time>
      </trkpt>
      <trkpt lat="43.51286" lon="5.31389">
        <ele>158.7</ele>
        <time>2025-05-07T09:40:58.000Z</time>
      </trkpt>
      <trkpt lat="43.51286" lon="5.31386">
        <ele>159</ele>
        <time>2025-05-07T09:41:00.000Z</time>
      </trkpt>
      <trkpt lat="43.51284" lon="5.31384">
        <ele>159.2</ele>
        <time>2025-05-07T09:41:03.000Z</time>
      </trkpt>
      <trkpt lat="43.51284" lon="5.31381">
        <ele>159.4</ele>
        <time>2025-05-07T09:41:06.000Z</time>
      </trkpt>
      <trkpt lat="43.51283" lon="5.31378">
        <ele>159.7</ele>
        <time>2025-05-07T09:41:09.000Z</time>
      </trkpt>
      <trkpt lat="43.51282" lon="5.31375">
        <ele>159.9</ele>
        <time>2025-05-07T09:41:11.000Z</time>
      </trkpt>
      <trkpt lat="43.51282" lon="5.31372">
        <ele>160.1</ele>
        <time>2025-05-07T09:41:13.000Z</time>
      </trkpt>
      <trkpt lat="43.51281" lon="5.31369">
        <ele>160.4</ele>
        <time>2025-05-07T09:41:16.000Z</time>
      </trkpt>
      <trkpt lat="43.51281" lon="5.31366">
        <ele>160.6</ele>
        <time>2025-05-07T09:41:18.000Z</time>
      </trkpt>
      <trkpt lat="43.51281" lon="5.31363">
        <ele>160.9</ele>
        <time>2025-05-07T09:41:22.000Z</time>
      </trkpt>
      <trkpt lat="43.51284" lon="5.31361">
        <ele>161</ele>
        <time>2025-05-07T09:41:24.000Z</time>
      </trkpt>
      <trkpt lat="43.51286" lon="5.31361">
        <ele>161</ele>
        <time>2025-05-07T09:41:27.000Z</time>
      </trkpt>
      <trkpt lat="43.51288" lon="5.31361">
        <ele>161</ele>
        <time>2025-05-07T09:41:29.000Z</time>
      </trkpt>
      <trkpt lat="43.51291" lon="5.3136">
        <ele>161</ele>
        <time>2025-05-07T09:41:33.000Z</time>
      </trkpt>
      <trkpt lat="43.51293" lon="5.31359">
        <ele>161.1</ele>
        <time>2025-05-07T09:41:35.000Z</time>
      </trkpt>
      <trkpt lat="43.51295" lon="5.31358">
        <ele>161.1</ele>
        <time>2025-05-07T09:41:38.000Z</time>
      </trkpt>
      <trkpt lat="43.51297" lon="5.31357">
        <ele>161.2</ele>
        <time>2025-05-07T09:41:40.000Z</time>
      </trkpt>
      <trkpt lat="43.51301" lon="5.31358">
        <ele>161.2</ele>
        <time>2025-05-07T09:41:43.000Z</time>
      </trkpt>
      <trkpt lat="43.51303" lon="5.31357">
        <ele>161.3</ele>
        <time>2025-05-07T09:41:45.000Z</time>
      </trkpt>
      <trkpt lat="43.51305" lon="5.31357">
        <ele>161.3</ele>
        <time>2025-05-07T09:41:48.000Z</time>
      </trkpt>
      <trkpt lat="43.51307" lon="5.31356">
        <ele>161.3</ele>
        <time>2025-05-07T09:41:50.000Z</time>
      </trkpt>
      <trkpt lat="43.51309" lon="5.31356">
        <ele>161.2</ele>
        <time>2025-05-07T09:41:52.000Z</time>
      </trkpt>
      <trkpt lat="43.51311" lon="5.31355">
        <ele>161.2</ele>
        <time>2025-05-07T09:41:54.000Z</time>
      </trkpt>
      <trkpt lat="43.51313" lon="5.31354">
        <ele>161.1</ele>
        <time>2025-05-07T09:41:57.000Z</time>
      </trkpt>
      <trkpt lat="43.51315" lon="5.31354">
        <ele>161.1</ele>
        <time>2025-05-07T09:41:59.000Z</time>
      </trkpt>
      <trkpt lat="43.51318" lon="5.31352">
        <ele>161.1</ele>
        <time>2025-05-07T09:42:01.000Z</time>
      </trkpt>
      <trkpt lat="43.5132" lon="5.31353">
        <ele>160.9</ele>
        <time>2025-05-07T09:42:03.000Z</time>
      </trkpt>
      <trkpt lat="43.51322" lon="5.31353">
        <ele>160.8</ele>
        <time>2025-05-07T09:42:05.000Z</time>
      </trkpt>
      <trkpt lat="43.51326" lon="5.31351">
        <ele>160.7</ele>
        <time>2025-05-07T09:42:09.000Z</time>
      </trkpt>
      <trkpt lat="43.51328" lon="5.31349">
        <ele>160.7</ele>
        <time>2025-05-07T09:42:12.000Z</time>
      </trkpt>
      <trkpt lat="43.5133" lon="5.31347">
        <ele>160.7</ele>
        <time>2025-05-07T09:42:14.000Z</time>
      </trkpt>
      <trkpt lat="43.51332" lon="5.31346">
        <ele>160.6</ele>
        <time>2025-05-07T09:42:16.000Z</time>
      </trkpt>
      <trkpt lat="43.51334" lon="5.31345">
        <ele>160.6</ele>
        <time>2025-05-07T09:42:18.000Z</time>
      </trkpt>
      <trkpt lat="43.51336" lon="5.31344">
        <ele>160.6</ele>
        <time>2025-05-07T09:42:21.000Z</time>
      </trkpt>
      <trkpt lat="43.51338" lon="5.31342">
        <ele>160.7</ele>
        <time>2025-05-07T09:42:23.000Z</time>
      </trkpt>
      <trkpt lat="43.51341" lon="5.3134">
        <ele>160.8</ele>
        <time>2025-05-07T09:42:25.000Z</time>
      </trkpt>
      <trkpt lat="43.51343" lon="5.31339">
        <ele>160.8</ele>
        <time>2025-05-07T09:42:28.000Z</time>
      </trkpt>
      <trkpt lat="43.51345" lon="5.31338">
        <ele>160.8</ele>
        <time>2025-05-07T09:42:30.000Z</time>
      </trkpt>
      <trkpt lat="43.51347" lon="5.31337">
        <ele>160.9</ele>
        <time>2025-05-07T09:42:32.000Z</time>
      </trkpt>
      <trkpt lat="43.51349" lon="5.31336">
        <ele>160.9</ele>
        <time>2025-05-07T09:42:34.000Z</time>
      </trkpt>
      <trkpt lat="43.51351" lon="5.31334">
        <ele>161</ele>
        <time>2025-05-07T09:42:36.000Z</time>
      </trkpt>
      <trkpt lat="43.51353" lon="5.31332">
        <ele>161.1</ele>
        <time>2025-05-07T09:42:38.000Z</time>
      </trkpt>
      <trkpt lat="43.51355" lon="5.31331">
        <ele>161.2</ele>
        <time>2025-05-07T09:42:40.000Z</time>
      </trkpt>
      <trkpt lat="43.51357" lon="5.3133">
        <ele>161.3</ele>
        <time>2025-05-07T09:42:42.000Z</time>
      </trkpt>
      <trkpt lat="43.51358" lon="5.31329">
        <ele>161.4</ele>
        <time>2025-05-07T09:42:44.000Z</time>
      </trkpt>
      <trkpt lat="43.5136" lon="5.31327">
        <ele>161.4</ele>
        <time>2025-05-07T09:42:46.000Z</time>
      </trkpt>
      <trkpt lat="43.51362" lon="5.31326">
        <ele>161.4</ele>
        <time>2025-05-07T09:42:49.000Z</time>
      </trkpt>
      <trkpt lat="43.51364" lon="5.31324">
        <ele>161.4</ele>
        <time>2025-05-07T09:42:51.000Z</time>
      </trkpt>
      <trkpt lat="43.51366" lon="5.31322">
        <ele>161.3</ele>
        <time>2025-05-07T09:42:54.000Z</time>
      </trkpt>
      <trkpt lat="43.51368" lon="5.31321">
        <ele>161.3</ele>
        <time>2025-05-07T09:42:56.000Z</time>
      </trkpt>
      <trkpt lat="43.51369" lon="5.31319">
        <ele>161.3</ele>
        <time>2025-05-07T09:42:58.000Z</time>
      </trkpt>
      <trkpt lat="43.51372" lon="5.31316">
        <ele>161.3</ele>
        <time>2025-05-07T09:43:01.000Z</time>
      </trkpt>
      <trkpt lat="43.51374" lon="5.31315">
        <ele>161.2</ele>
        <time>2025-05-07T09:43:03.000Z</time>
      </trkpt>
      <trkpt lat="43.51376" lon="5.31314">
        <ele>161.2</ele>
        <time>2025-05-07T09:43:05.000Z</time>
      </trkpt>
      <trkpt lat="43.51378" lon="5.31313">
        <ele>161.1</ele>
        <time>2025-05-07T09:43:07.000Z</time>
      </trkpt>
      <trkpt lat="43.5138" lon="5.31311">
        <ele>161.1</ele>
        <time>2025-05-07T09:43:10.000Z</time>
      </trkpt>
      <trkpt lat="43.51382" lon="5.31309">
        <ele>161.2</ele>
        <time>2025-05-07T09:43:12.000Z</time>
      </trkpt>
      <trkpt lat="43.51384" lon="5.31308">
        <ele>161.2</ele>
        <time>2025-05-07T09:43:15.000Z</time>
      </trkpt>
      <trkpt lat="43.51385" lon="5.31306">
        <ele>161.2</ele>
        <time>2025-05-07T09:43:17.000Z</time>
      </trkpt>
      <trkpt lat="43.51387" lon="5.31305">
        <ele>161.2</ele>
        <time>2025-05-07T09:43:19.000Z</time>
      </trkpt>
      <trkpt lat="43.51388" lon="5.31303">
        <ele>161.1</ele>
        <time>2025-05-07T09:43:21.000Z</time>
      </trkpt>
      <trkpt lat="43.5139" lon="5.31301">
        <ele>161.2</ele>
        <time>2025-05-07T09:43:23.000Z</time>
      </trkpt>
      <trkpt lat="43.51392" lon="5.31299">
        <ele>161.3</ele>
        <time>2025-05-07T09:43:25.000Z</time>
      </trkpt>
      <trkpt lat="43.51394" lon="5.31297">
        <ele>161.4</ele>
        <time>2025-05-07T09:43:27.000Z</time>
      </trkpt>
      <trkpt lat="43.51395" lon="5.31296">
        <ele>161.5</ele>
        <time>2025-05-07T09:43:29.000Z</time>
      </trkpt>
      <trkpt lat="43.51398" lon="5.31295">
        <ele>161.6</ele>
        <time>2025-05-07T09:43:33.000Z</time>
      </trkpt>
      <trkpt lat="43.514" lon="5.31293">
        <ele>161.7</ele>
        <time>2025-05-07T09:43:35.000Z</time>
      </trkpt>
      <trkpt lat="43.51402" lon="5.31291">
        <ele>161.7</ele>
        <time>2025-05-07T09:43:37.000Z</time>
      </trkpt>
      <trkpt lat="43.51404" lon="5.3129">
        <ele>161.8</ele>
        <time>2025-05-07T09:43:39.000Z</time>
      </trkpt>
      <trkpt lat="43.51406" lon="5.31288">
        <ele>161.9</ele>
        <time>2025-05-07T09:43:41.000Z</time>
      </trkpt>
      <trkpt lat="43.51407" lon="5.31286">
        <ele>161.9</ele>
        <time>2025-05-07T09:43:43.000Z</time>
      </trkpt>
      <trkpt lat="43.5141" lon="5.31283">
        <ele>161.9</ele>
        <time>2025-05-07T09:43:46.000Z</time>
      </trkpt>
      <trkpt lat="43.51412" lon="5.31282">
        <ele>162</ele>
        <time>2025-05-07T09:43:48.000Z</time>
      </trkpt>
      <trkpt lat="43.51414" lon="5.3128">
        <ele>162</ele>
        <time>2025-05-07T09:43:51.000Z</time>
      </trkpt>
      <trkpt lat="43.51415" lon="5.31277">
        <ele>161.9</ele>
        <time>2025-05-07T09:43:53.000Z</time>
      </trkpt>
      <trkpt lat="43.51417" lon="5.31275">
        <ele>161.5</ele>
        <time>2025-05-07T09:43:55.000Z</time>
      </trkpt>
      <trkpt lat="43.51418" lon="5.31273">
        <ele>161.1</ele>
        <time>2025-05-07T09:43:57.000Z</time>
      </trkpt>
      <trkpt lat="43.51421" lon="5.31272">
        <ele>160.8</ele>
        <time>2025-05-07T09:43:59.000Z</time>
      </trkpt>
      <trkpt lat="43.51423" lon="5.31271">
        <ele>160.5</ele>
        <time>2025-05-07T09:44:01.000Z</time>
      </trkpt>
      <trkpt lat="43.51425" lon="5.3127">
        <ele>160.3</ele>
        <time>2025-05-07T09:44:03.000Z</time>
      </trkpt>
      <trkpt lat="43.51427" lon="5.31269">
        <ele>160.1</ele>
        <time>2025-05-07T09:44:05.000Z</time>
      </trkpt>
      <trkpt lat="43.51429" lon="5.31267">
        <ele>159.9</ele>
        <time>2025-05-07T09:44:08.000Z</time>
      </trkpt>
      <trkpt lat="43.5143" lon="5.31264">
        <ele>159.7</ele>
        <time>2025-05-07T09:44:11.000Z</time>
      </trkpt>
      <trkpt lat="43.51431" lon="5.31262">
        <ele>159.7</ele>
        <time>2025-05-07T09:44:13.000Z</time>
      </trkpt>
      <trkpt lat="43.51433" lon="5.3126">
        <ele>159.7</ele>
        <time>2025-05-07T09:44:15.000Z</time>
      </trkpt>
      <trkpt lat="43.51434" lon="5.31257">
        <ele>159.7</ele>
        <time>2025-05-07T09:44:18.000Z</time>
      </trkpt>
      <trkpt lat="43.51435" lon="5.31256">
        <ele>159.8</ele>
        <time>2025-05-07T09:44:20.000Z</time>
      </trkpt>
      <trkpt lat="43.51437" lon="5.31255">
        <ele>159.9</ele>
        <time>2025-05-07T09:44:24.000Z</time>
      </trkpt>
      <trkpt lat="43.51439" lon="5.31254">
        <ele>160.1</ele>
        <time>2025-05-07T09:44:27.000Z</time>
      </trkpt>
      <trkpt lat="43.51441" lon="5.31254">
        <ele>160.3</ele>
        <time>2025-05-07T09:44:30.000Z</time>
      </trkpt>
      <trkpt lat="43.51442" lon="5.31252">
        <ele>160.6</ele>
        <time>2025-05-07T09:44:35.000Z</time>
      </trkpt>
      <trkpt lat="43.51444" lon="5.3125">
        <ele>160.9</ele>
        <time>2025-05-07T09:44:38.000Z</time>
      </trkpt>
      <trkpt lat="43.51446" lon="5.31248">
        <ele>160</ele>
        <time>2025-05-07T09:44:42.000Z</time>
      </trkpt>
      <trkpt lat="43.51448" lon="5.31247">
        <ele>159.2</ele>
        <time>2025-05-07T09:44:45.000Z</time>
      </trkpt>
      <trkpt lat="43.51447" lon="5.31245">
        <ele>158.9</ele>
        <time>2025-05-07T09:45:04.000Z</time>
      </trkpt>
      <trkpt lat="43.51445" lon="5.31243">
        <ele>159</ele>
        <time>2025-05-07T09:47:35.000Z</time>
      </trkpt>
      <trkpt lat="43.51443" lon="5.31242">
        <ele>158.6</ele>
        <time>2025-05-07T09:47:52.000Z</time>
      </trkpt>
      <trkpt lat="43.51441" lon="5.31243">
        <ele>158.5</ele>
        <time>2025-05-07T09:47:54.000Z</time>
      </trkpt>
      <trkpt lat="43.51438" lon="5.31244">
        <ele>158.3</ele>
        <time>2025-05-07T09:47:59.000Z</time>
      </trkpt>
      <trkpt lat="43.51436" lon="5.31245">
        <ele>158.4</ele>
        <time>2025-05-07T09:48:02.000Z</time>
      </trkpt>
      <trkpt lat="43.51435" lon="5.31247">
        <ele>158.6</ele>
        <time>2025-05-07T09:48:06.000Z</time>
      </trkpt>
      <trkpt lat="43.51433" lon="5.31248">
        <ele>158.8</ele>
        <time>2025-05-07T09:48:09.000Z</time>
      </trkpt>
      <trkpt lat="43.5143" lon="5.31251">
        <ele>159</ele>
        <time>2025-05-07T09:48:16.000Z</time>
      </trkpt>
      <trkpt lat="43.51428" lon="5.31253">
        <ele>158.9</ele>
        <time>2025-05-07T09:48:20.000Z</time>
      </trkpt>
      <trkpt lat="43.51426" lon="5.31255">
        <ele>158.8</ele>
        <time>2025-05-07T09:48:26.000Z</time>
      </trkpt>
      <trkpt lat="43.51424" lon="5.31257">
        <ele>158.9</ele>
        <time>2025-05-07T09:48:29.000Z</time>
      </trkpt>
      <trkpt lat="43.51423" lon="5.31259">
        <ele>158.9</ele>
        <time>2025-05-07T09:48:32.000Z</time>
      </trkpt>
      <trkpt lat="43.5142" lon="5.31261">
        <ele>159.1</ele>
        <time>2025-05-07T09:48:36.000Z</time>
      </trkpt>
      <trkpt lat="43.51418" lon="5.31263">
        <ele>159.4</ele>
        <time>2025-05-07T09:48:38.000Z</time>
      </trkpt>
      <trkpt lat="43.51416" lon="5.31265">
        <ele>159.7</ele>
        <time>2025-05-07T09:48:40.000Z</time>
      </trkpt>
      <trkpt lat="43.51415" lon="5.31267">
        <ele>159.9</ele>
        <time>2025-05-07T09:48:42.000Z</time>
      </trkpt>
      <trkpt lat="43.51413" lon="5.31269">
        <ele>160.2</ele>
        <time>2025-05-07T09:48:45.000Z</time>
      </trkpt>
      <trkpt lat="43.51412" lon="5.3127">
        <ele>160.4</ele>
        <time>2025-05-07T09:48:48.000Z</time>
      </trkpt>
      <trkpt lat="43.5141" lon="5.31273">
        <ele>160.9</ele>
        <time>2025-05-07T09:48:51.000Z</time>
      </trkpt>
      <trkpt lat="43.51408" lon="5.31275">
        <ele>161.3</ele>
        <time>2025-05-07T09:48:53.000Z</time>
      </trkpt>
      <trkpt lat="43.51406" lon="5.31276">
        <ele>161.7</ele>
        <time>2025-05-07T09:48:55.000Z</time>
      </trkpt>
      <trkpt lat="43.51405" lon="5.31278">
        <ele>162</ele>
        <time>2025-05-07T09:48:57.000Z</time>
      </trkpt>
      <trkpt lat="43.51403" lon="5.31281">
        <ele>162</ele>
        <time>2025-05-07T09:48:59.000Z</time>
      </trkpt>
      <trkpt lat="43.51401" lon="5.31282">
        <ele>161.9</ele>
        <time>2025-05-07T09:49:02.000Z</time>
      </trkpt>
      <trkpt lat="43.51398" lon="5.31283">
        <ele>161.9</ele>
        <time>2025-05-07T09:49:05.000Z</time>
      </trkpt>
      <trkpt lat="43.51396" lon="5.31285">
        <ele>161.8</ele>
        <time>2025-05-07T09:49:07.000Z</time>
      </trkpt>
      <trkpt lat="43.51395" lon="5.31287">
        <ele>161.7</ele>
        <time>2025-05-07T09:49:10.000Z</time>
      </trkpt>
      <trkpt lat="43.51393" lon="5.31289">
        <ele>161.7</ele>
        <time>2025-05-07T09:49:12.000Z</time>
      </trkpt>
      <trkpt lat="43.51392" lon="5.31291">
        <ele>161.6</ele>
        <time>2025-05-07T09:49:14.000Z</time>
      </trkpt>
      <trkpt lat="43.5139" lon="5.31292">
        <ele>161.5</ele>
        <time>2025-05-07T09:49:16.000Z</time>
      </trkpt>
      <trkpt lat="43.51388" lon="5.31295">
        <ele>161.4</ele>
        <time>2025-05-07T09:49:18.000Z</time>
      </trkpt>
      <trkpt lat="43.51386" lon="5.31297">
        <ele>161.5</ele>
        <time>2025-05-07T09:49:21.000Z</time>
      </trkpt>
      <trkpt lat="43.51384" lon="5.31299">
        <ele>161.5</ele>
        <time>2025-05-07T09:49:24.000Z</time>
      </trkpt>
      <trkpt lat="43.51382" lon="5.31301">
        <ele>161.6</ele>
        <time>2025-05-07T09:49:26.000Z</time>
      </trkpt>
      <trkpt lat="43.5138" lon="5.31303">
        <ele>161.7</ele>
        <time>2025-05-07T09:49:29.000Z</time>
      </trkpt>
      <trkpt lat="43.51378" lon="5.31304">
        <ele>161.8</ele>
        <time>2025-05-07T09:49:32.000Z</time>
      </trkpt>
      <trkpt lat="43.51376" lon="5.31307">
        <ele>161.8</ele>
        <time>2025-05-07T09:49:35.000Z</time>
      </trkpt>
      <trkpt lat="43.51374" lon="5.31308">
        <ele>161.8</ele>
        <time>2025-05-07T09:49:37.000Z</time>
      </trkpt>
      <trkpt lat="43.51372" lon="5.31311">
        <ele>161.8</ele>
        <time>2025-05-07T09:49:40.000Z</time>
      </trkpt>
      <trkpt lat="43.5137" lon="5.31312">
        <ele>161.8</ele>
        <time>2025-05-07T09:49:42.000Z</time>
      </trkpt>
      <trkpt lat="43.51369" lon="5.31313">
        <ele>161.9</ele>
        <time>2025-05-07T09:49:44.000Z</time>
      </trkpt>
      <trkpt lat="43.51367" lon="5.31315">
        <ele>161.8</ele>
        <time>2025-05-07T09:49:46.000Z</time>
      </trkpt>
      <trkpt lat="43.51365" lon="5.31317">
        <ele>161.9</ele>
        <time>2025-05-07T09:49:48.000Z</time>
      </trkpt>
      <trkpt lat="43.51363" lon="5.31318">
        <ele>161.9</ele>
        <time>2025-05-07T09:49:50.000Z</time>
      </trkpt>
      <trkpt lat="43.51361" lon="5.31321">
        <ele>161.9</ele>
        <time>2025-05-07T09:49:52.000Z</time>
      </trkpt>
      <trkpt lat="43.51359" lon="5.31323">
        <ele>161.8</ele>
        <time>2025-05-07T09:49:54.000Z</time>
      </trkpt>
      <trkpt lat="43.51357" lon="5.31324">
        <ele>161.7</ele>
        <time>2025-05-07T09:49:56.000Z</time>
      </trkpt>
      <trkpt lat="43.51355" lon="5.31325">
        <ele>161.6</ele>
        <time>2025-05-07T09:49:58.000Z</time>
      </trkpt>
      <trkpt lat="43.51353" lon="5.31326">
        <ele>161.6</ele>
        <time>2025-05-07T09:50:00.000Z</time>
      </trkpt>
      <trkpt lat="43.51352" lon="5.31328">
        <ele>161.5</ele>
        <time>2025-05-07T09:50:02.000Z</time>
      </trkpt>
      <trkpt lat="43.5135" lon="5.31329">
        <ele>161.4</ele>
        <time>2025-05-07T09:50:04.000Z</time>
      </trkpt>
      <trkpt lat="43.51347" lon="5.31329">
        <ele>161.4</ele>
        <time>2025-05-07T09:50:06.000Z</time>
      </trkpt>
      <trkpt lat="43.51346" lon="5.31331">
        <ele>161.3</ele>
        <time>2025-05-07T09:50:09.000Z</time>
      </trkpt>
      <trkpt lat="43.51343" lon="5.31333">
        <ele>161</ele>
        <time>2025-05-07T09:50:12.000Z</time>
      </trkpt>
      <trkpt lat="43.51341" lon="5.31334">
        <ele>161</ele>
        <time>2025-05-07T09:50:14.000Z</time>
      </trkpt>
      <trkpt lat="43.51339" lon="5.31335">
        <ele>160.9</ele>
        <time>2025-05-07T09:50:16.000Z</time>
      </trkpt>
      <trkpt lat="43.51337" lon="5.31337">
        <ele>160.9</ele>
        <time>2025-05-07T09:50:19.000Z</time>
      </trkpt>
      <trkpt lat="43.51334" lon="5.31339">
        <ele>160.8</ele>
        <time>2025-05-07T09:50:21.000Z</time>
      </trkpt>
      <trkpt lat="43.51332" lon="5.31341">
        <ele>160.8</ele>
        <time>2025-05-07T09:50:23.000Z</time>
      </trkpt>
      <trkpt lat="43.5133" lon="5.31342">
        <ele>160.9</ele>
        <time>2025-05-07T09:50:26.000Z</time>
      </trkpt>
      <trkpt lat="43.51328" lon="5.31344">
        <ele>161</ele>
        <time>2025-05-07T09:50:28.000Z</time>
      </trkpt>
      <trkpt lat="43.51325" lon="5.31345">
        <ele>161</ele>
        <time>2025-05-07T09:50:31.000Z</time>
      </trkpt>
      <trkpt lat="43.51323" lon="5.31346">
        <ele>161.2</ele>
        <time>2025-05-07T09:50:34.000Z</time>
      </trkpt>
      <trkpt lat="43.51321" lon="5.31347">
        <ele>161.2</ele>
        <time>2025-05-07T09:50:36.000Z</time>
      </trkpt>
      <trkpt lat="43.51319" lon="5.31348">
        <ele>161.3</ele>
        <time>2025-05-07T09:50:38.000Z</time>
      </trkpt>
      <trkpt lat="43.51316" lon="5.31349">
        <ele>161.4</ele>
        <time>2025-05-07T09:50:41.000Z</time>
      </trkpt>
      <trkpt lat="43.51313" lon="5.3135">
        <ele>161.4</ele>
        <time>2025-05-07T09:50:43.000Z</time>
      </trkpt>
      <trkpt lat="43.51311" lon="5.3135">
        <ele>161.5</ele>
        <time>2025-05-07T09:50:45.000Z</time>
      </trkpt>
      <trkpt lat="43.51309" lon="5.31351">
        <ele>161.5</ele>
        <time>2025-05-07T09:50:47.000Z</time>
      </trkpt>
      <trkpt lat="43.51307" lon="5.31353">
        <ele>161.5</ele>
        <time>2025-05-07T09:50:49.000Z</time>
      </trkpt>
      <trkpt lat="43.51305" lon="5.31353">
        <ele>161.6</ele>
        <time>2025-05-07T09:50:52.000Z</time>
      </trkpt>
      <trkpt lat="43.51303" lon="5.31354">
        <ele>161.5</ele>
        <time>2025-05-07T09:50:54.000Z</time>
      </trkpt>
      <trkpt lat="43.51301" lon="5.31354">
        <ele>161.4</ele>
        <time>2025-05-07T09:50:56.000Z</time>
      </trkpt>
      <trkpt lat="43.51298" lon="5.31354">
        <ele>161.4</ele>
        <time>2025-05-07T09:50:58.000Z</time>
      </trkpt>
      <trkpt lat="43.51295" lon="5.31354">
        <ele>161.3</ele>
        <time>2025-05-07T09:51:00.000Z</time>
      </trkpt>
      <trkpt lat="43.51293" lon="5.31354">
        <ele>161.3</ele>
        <time>2025-05-07T09:51:02.000Z</time>
      </trkpt>
      <trkpt lat="43.51291" lon="5.31354">
        <ele>161.2</ele>
        <time>2025-05-07T09:51:04.000Z</time>
      </trkpt>
      <trkpt lat="43.51289" lon="5.31353">
        <ele>161.2</ele>
        <time>2025-05-07T09:51:06.000Z</time>
      </trkpt>
      <trkpt lat="43.51286" lon="5.31353">
        <ele>161.2</ele>
        <time>2025-05-07T09:51:08.000Z</time>
      </trkpt>
      <trkpt lat="43.51284" lon="5.31353">
        <ele>161.1</ele>
        <time>2025-05-07T09:51:10.000Z</time>
      </trkpt>
      <trkpt lat="43.51281" lon="5.31353">
        <ele>161.1</ele>
        <time>2025-05-07T09:51:15.000Z</time>
      </trkpt>
      <trkpt lat="43.5128" lon="5.31352">
        <ele>161</ele>
        <time>2025-05-07T09:51:17.000Z</time>
      </trkpt>
      <trkpt lat="43.51277" lon="5.31352">
        <ele>161</ele>
        <time>2025-05-07T09:51:20.000Z</time>
      </trkpt>
      <trkpt lat="43.51276" lon="5.31352">
        <ele>161</ele>
        <time>2025-05-07T09:51:22.000Z</time>
      </trkpt>
      <trkpt lat="43.51273" lon="5.31353">
        <ele>161</ele>
        <time>2025-05-07T09:51:24.000Z</time>
      </trkpt>
      <trkpt lat="43.51272" lon="5.31354">
        <ele>161</ele>
        <time>2025-05-07T09:51:26.000Z</time>
      </trkpt>
      <trkpt lat="43.5127" lon="5.31354">
        <ele>161</ele>
        <time>2025-05-07T09:51:28.000Z</time>
      </trkpt>
      <trkpt lat="43.51267" lon="5.31354">
        <ele>161</ele>
        <time>2025-05-07T09:51:30.000Z</time>
      </trkpt>
      <trkpt lat="43.51265" lon="5.31355">
        <ele>161</ele>
        <time>2025-05-07T09:51:32.000Z</time>
      </trkpt>
      <trkpt lat="43.51262" lon="5.31356">
        <ele>161.1</ele>
        <time>2025-05-07T09:51:35.000Z</time>
      </trkpt>
      <trkpt lat="43.5126" lon="5.31357">
        <ele>161.2</ele>
        <time>2025-05-07T09:51:37.000Z</time>
      </trkpt>
      <trkpt lat="43.51258" lon="5.31357">
        <ele>161.3</ele>
        <time>2025-05-07T09:51:39.000Z</time>
      </trkpt>
      <trkpt lat="43.51256" lon="5.31357">
        <ele>161.3</ele>
        <time>2025-05-07T09:51:41.000Z</time>
      </trkpt>
      <trkpt lat="43.51253" lon="5.31357">
        <ele>161.4</ele>
        <time>2025-05-07T09:51:43.000Z</time>
      </trkpt>
      <trkpt lat="43.51251" lon="5.31358">
        <ele>161.5</ele>
        <time>2025-05-07T09:51:46.000Z</time>
      </trkpt>
      <trkpt lat="43.51248" lon="5.31358">
        <ele>161.5</ele>
        <time>2025-05-07T09:51:49.000Z</time>
      </trkpt>
      <trkpt lat="43.51246" lon="5.31358">
        <ele>161.7</ele>
        <time>2025-05-07T09:51:51.000Z</time>
      </trkpt>
      <trkpt lat="43.51244" lon="5.31359">
        <ele>161.9</ele>
        <time>2025-05-07T09:51:53.000Z</time>
      </trkpt>
      <trkpt lat="43.51242" lon="5.31359">
        <ele>162</ele>
        <time>2025-05-07T09:51:55.000Z</time>
      </trkpt>
      <trkpt lat="43.5124" lon="5.3136">
        <ele>162.1</ele>
        <time>2025-05-07T09:51:57.000Z</time>
      </trkpt>
      <trkpt lat="43.51237" lon="5.3136">
        <ele>162.2</ele>
        <time>2025-05-07T09:52:00.000Z</time>
      </trkpt>
      <trkpt lat="43.51235" lon="5.3136">
        <ele>162.4</ele>
        <time>2025-05-07T09:52:03.000Z</time>
      </trkpt>
      <trkpt lat="43.51232" lon="5.31361">
        <ele>162.5</ele>
        <time>2025-05-07T09:52:06.000Z</time>
      </trkpt>
      <trkpt lat="43.5123" lon="5.3136">
        <ele>162.6</ele>
        <time>2025-05-07T09:52:09.000Z</time>
      </trkpt>
      <trkpt lat="43.51228" lon="5.3136">
        <ele>162.7</ele>
        <time>2025-05-07T09:52:11.000Z</time>
      </trkpt>
      <trkpt lat="43.51225" lon="5.31361">
        <ele>162.8</ele>
        <time>2025-05-07T09:52:14.000Z</time>
      </trkpt>
      <trkpt lat="43.51223" lon="5.31362">
        <ele>162.9</ele>
        <time>2025-05-07T09:52:17.000Z</time>
      </trkpt>
      <trkpt lat="43.5122" lon="5.31363">
        <ele>163.1</ele>
        <time>2025-05-07T09:52:20.000Z</time>
      </trkpt>
      <trkpt lat="43.51217" lon="5.31363">
        <ele>163.3</ele>
        <time>2025-05-07T09:52:23.000Z</time>
      </trkpt>
      <trkpt lat="43.51215" lon="5.31363">
        <ele>163.4</ele>
        <time>2025-05-07T09:52:26.000Z</time>
      </trkpt>
      <trkpt lat="43.51213" lon="5.31364">
        <ele>163.5</ele>
        <time>2025-05-07T09:52:28.000Z</time>
      </trkpt>
      <trkpt lat="43.51211" lon="5.31364">
        <ele>163.7</ele>
        <time>2025-05-07T09:52:31.000Z</time>
      </trkpt>
      <trkpt lat="43.51209" lon="5.31365">
        <ele>163.8</ele>
        <time>2025-05-07T09:52:33.000Z</time>
      </trkpt>
      <trkpt lat="43.51207" lon="5.31366">
        <ele>164</ele>
        <time>2025-05-07T09:52:36.000Z</time>
      </trkpt>
      <trkpt lat="43.51204" lon="5.31368">
        <ele>164.1</ele>
        <time>2025-05-07T09:52:39.000Z</time>
      </trkpt>
      <trkpt lat="43.51202" lon="5.31369">
        <ele>164.3</ele>
        <time>2025-05-07T09:52:42.000Z</time>
      </trkpt>
      <trkpt lat="43.51199" lon="5.31371">
        <ele>164.6</ele>
        <time>2025-05-07T09:52:46.000Z</time>
      </trkpt>
      <trkpt lat="43.51197" lon="5.31372">
        <ele>164.7</ele>
        <time>2025-05-07T09:52:48.000Z</time>
      </trkpt>
      <trkpt lat="43.51195" lon="5.31373">
        <ele>165</ele>
        <time>2025-05-07T09:52:51.000Z</time>
      </trkpt>
      <trkpt lat="43.51192" lon="5.31374">
        <ele>165.2</ele>
        <time>2025-05-07T09:52:54.000Z</time>
      </trkpt>
      <trkpt lat="43.5119" lon="5.31376">
        <ele>165.4</ele>
        <time>2025-05-07T09:52:57.000Z</time>
      </trkpt>
      <trkpt lat="43.51187" lon="5.31378">
        <ele>165.8</ele>
        <time>2025-05-07T09:53:00.000Z</time>
      </trkpt>
      <trkpt lat="43.51185" lon="5.31379">
        <ele>166</ele>
        <time>2025-05-07T09:53:03.000Z</time>
      </trkpt>
      <trkpt lat="43.51183" lon="5.3138">
        <ele>166.3</ele>
        <time>2025-05-07T09:53:05.000Z</time>
      </trkpt>
      <trkpt lat="43.5118" lon="5.31381">
        <ele>166.5</ele>
        <time>2025-05-07T09:53:08.000Z</time>
      </trkpt>
      <trkpt lat="43.51178" lon="5.31382">
        <ele>166.8</ele>
        <time>2025-05-07T09:53:11.000Z</time>
      </trkpt>
      <trkpt lat="43.51176" lon="5.31382">
        <ele>167</ele>
        <time>2025-05-07T09:53:13.000Z</time>
      </trkpt>
      <trkpt lat="43.51174" lon="5.31382">
        <ele>167.2</ele>
        <time>2025-05-07T09:53:15.000Z</time>
      </trkpt>
      <trkpt lat="43.51171" lon="5.31383">
        <ele>167.5</ele>
        <time>2025-05-07T09:53:18.000Z</time>
      </trkpt>
      <trkpt lat="43.51169" lon="5.31383">
        <ele>167.8</ele>
        <time>2025-05-07T09:53:20.000Z</time>
      </trkpt>
      <trkpt lat="43.51166" lon="5.31383">
        <ele>168</ele>
        <time>2025-05-07T09:53:22.000Z</time>
      </trkpt>
      <trkpt lat="43.51164" lon="5.31384">
        <ele>168</ele>
        <time>2025-05-07T09:53:24.000Z</time>
      </trkpt>
      <trkpt lat="43.51163" lon="5.31384">
        <ele>168</ele>
        <time>2025-05-07T09:53:26.000Z</time>
      </trkpt>
      <trkpt lat="43.5116" lon="5.31384">
        <ele>168</ele>
        <time>2025-05-07T09:53:28.000Z</time>
      </trkpt>
      <trkpt lat="43.51158" lon="5.31383">
        <ele>168.1</ele>
        <time>2025-05-07T09:53:31.000Z</time>
      </trkpt>
      <trkpt lat="43.51156" lon="5.31381">
        <ele>168.1</ele>
        <time>2025-05-07T09:53:36.000Z</time>
      </trkpt>
      <trkpt lat="43.51154" lon="5.3138">
        <ele>168.1</ele>
        <time>2025-05-07T09:53:39.000Z</time>
      </trkpt>
      <trkpt lat="43.51151" lon="5.31379">
        <ele>168.2</ele>
        <time>2025-05-07T09:53:41.000Z</time>
      </trkpt>
      <trkpt lat="43.51149" lon="5.31379">
        <ele>168.2</ele>
        <time>2025-05-07T09:53:43.000Z</time>
      </trkpt>
      <trkpt lat="43.51148" lon="5.31376">
        <ele>168.3</ele>
        <time>2025-05-07T09:53:46.000Z</time>
      </trkpt>
      <trkpt lat="43.51146" lon="5.31374">
        <ele>168.4</ele>
        <time>2025-05-07T09:53:49.000Z</time>
      </trkpt>
      <trkpt lat="43.51146" lon="5.31371">
        <ele>168.5</ele>
        <time>2025-05-07T09:53:51.000Z</time>
      </trkpt>
      <trkpt lat="43.51145" lon="5.31369">
        <ele>168.6</ele>
        <time>2025-05-07T09:53:53.000Z</time>
      </trkpt>
      <trkpt lat="43.51143" lon="5.31367">
        <ele>168.7</ele>
        <time>2025-05-07T09:53:55.000Z</time>
      </trkpt>
      <trkpt lat="43.51141" lon="5.31365">
        <ele>168.8</ele>
        <time>2025-05-07T09:53:57.000Z</time>
      </trkpt>
      <trkpt lat="43.51139" lon="5.31363">
        <ele>168.9</ele>
        <time>2025-05-07T09:53:59.000Z</time>
      </trkpt>
      <trkpt lat="43.51137" lon="5.31362">
        <ele>169</ele>
        <time>2025-05-07T09:54:01.000Z</time>
      </trkpt>
      <trkpt lat="43.51135" lon="5.3136">
        <ele>168.9</ele>
        <time>2025-05-07T09:54:04.000Z</time>
      </trkpt>
      <trkpt lat="43.51132" lon="5.31358">
        <ele>168.7</ele>
        <time>2025-05-07T09:54:07.000Z</time>
      </trkpt>
      <trkpt lat="43.51129" lon="5.31355">
        <ele>168.5</ele>
        <time>2025-05-07T09:54:11.000Z</time>
      </trkpt>
      <trkpt lat="43.51127" lon="5.31353">
        <ele>168.4</ele>
        <time>2025-05-07T09:54:13.000Z</time>
      </trkpt>
      <trkpt lat="43.51126" lon="5.31351">
        <ele>168.4</ele>
        <time>2025-05-07T09:54:15.000Z</time>
      </trkpt>
      <trkpt lat="43.51124" lon="5.31349">
        <ele>168.4</ele>
        <time>2025-05-07T09:54:17.000Z</time>
      </trkpt>
      <trkpt lat="43.51123" lon="5.31347">
        <ele>168.4</ele>
        <time>2025-05-07T09:54:19.000Z</time>
      </trkpt>
      <trkpt lat="43.51121" lon="5.31345">
        <ele>168.5</ele>
        <time>2025-05-07T09:54:21.000Z</time>
      </trkpt>
      <trkpt lat="43.5112" lon="5.31343">
        <ele>168.7</ele>
        <time>2025-05-07T09:54:24.000Z</time>
      </trkpt>
      <trkpt lat="43.51118" lon="5.31341">
        <ele>168.9</ele>
        <time>2025-05-07T09:54:26.000Z</time>
      </trkpt>
      <trkpt lat="43.51115" lon="5.31339">
        <ele>169.2</ele>
        <time>2025-05-07T09:54:29.000Z</time>
      </trkpt>
      <trkpt lat="43.51114" lon="5.31336">
        <ele>169.4</ele>
        <time>2025-05-07T09:54:32.000Z</time>
      </trkpt>
      <trkpt lat="43.51112" lon="5.31335">
        <ele>169.7</ele>
        <time>2025-05-07T09:54:34.000Z</time>
      </trkpt>
      <trkpt lat="43.5111" lon="5.31334">
        <ele>170</ele>
        <time>2025-05-07T09:54:36.000Z</time>
      </trkpt>
      <trkpt lat="43.51108" lon="5.31333">
        <ele>170.2</ele>
        <time>2025-05-07T09:54:39.000Z</time>
      </trkpt>
      <trkpt lat="43.51105" lon="5.31331">
        <ele>170.4</ele>
        <time>2025-05-07T09:54:42.000Z</time>
      </trkpt>
      <trkpt lat="43.51103" lon="5.31329">
        <ele>170.6</ele>
        <time>2025-05-07T09:54:45.000Z</time>
      </trkpt>
      <trkpt lat="43.51101" lon="5.31328">
        <ele>170.8</ele>
        <time>2025-05-07T09:54:47.000Z</time>
      </trkpt>
      <trkpt lat="43.511" lon="5.31327">
        <ele>171</ele>
        <time>2025-05-07T09:54:49.000Z</time>
      </trkpt>
      <trkpt lat="43.51098" lon="5.31327">
        <ele>171.1</ele>
        <time>2025-05-07T09:54:51.000Z</time>
      </trkpt>
      <trkpt lat="43.51096" lon="5.31326">
        <ele>171.3</ele>
        <time>2025-05-07T09:54:54.000Z</time>
      </trkpt>
      <trkpt lat="43.51094" lon="5.31325">
        <ele>171.4</ele>
        <time>2025-05-07T09:54:56.000Z</time>
      </trkpt>
      <trkpt lat="43.51092" lon="5.31323">
        <ele>171.7</ele>
        <time>2025-05-07T09:54:58.000Z</time>
      </trkpt>
      <trkpt lat="43.5109" lon="5.31322">
        <ele>171.9</ele>
        <time>2025-05-07T09:55:00.000Z</time>
      </trkpt>
      <trkpt lat="43.51088" lon="5.3132">
        <ele>172.2</ele>
        <time>2025-05-07T09:55:03.000Z</time>
      </trkpt>
      <trkpt lat="43.51086" lon="5.31318">
        <ele>172.5</ele>
        <time>2025-05-07T09:55:06.000Z</time>
      </trkpt>
      <trkpt lat="43.51085" lon="5.31317">
        <ele>172.7</ele>
        <time>2025-05-07T09:55:08.000Z</time>
      </trkpt>
      <trkpt lat="43.51083" lon="5.31315">
        <ele>172.9</ele>
        <time>2025-05-07T09:55:10.000Z</time>
      </trkpt>
      <trkpt lat="43.51081" lon="5.31314">
        <ele>173</ele>
        <time>2025-05-07T09:55:12.000Z</time>
      </trkpt>
      <trkpt lat="43.5108" lon="5.31313">
        <ele>173.2</ele>
        <time>2025-05-07T09:55:14.000Z</time>
      </trkpt>
      <trkpt lat="43.51077" lon="5.31311">
        <ele>173.4</ele>
        <time>2025-05-07T09:55:17.000Z</time>
      </trkpt>
      <trkpt lat="43.51076" lon="5.3131">
        <ele>173.4</ele>
        <time>2025-05-07T09:55:19.000Z</time>
      </trkpt>
      <trkpt lat="43.51074" lon="5.31309">
        <ele>173.6</ele>
        <time>2025-05-07T09:55:21.000Z</time>
      </trkpt>
      <trkpt lat="43.51072" lon="5.31307">
        <ele>173.8</ele>
        <time>2025-05-07T09:55:23.000Z</time>
      </trkpt>
      <trkpt lat="43.5107" lon="5.31305">
        <ele>174</ele>
        <time>2025-05-07T09:55:25.000Z</time>
      </trkpt>
      <trkpt lat="43.51068" lon="5.31302">
        <ele>174.3</ele>
        <time>2025-05-07T09:55:28.000Z</time>
      </trkpt>
      <trkpt lat="43.51067" lon="5.313">
        <ele>174.5</ele>
        <time>2025-05-07T09:55:30.000Z</time>
      </trkpt>
      <trkpt lat="43.51066" lon="5.31298">
        <ele>174.7</ele>
        <time>2025-05-07T09:55:33.000Z</time>
      </trkpt>
      <trkpt lat="43.51064" lon="5.31297">
        <ele>174.9</ele>
        <time>2025-05-07T09:55:36.000Z</time>
      </trkpt>
      <trkpt lat="43.51061" lon="5.31294">
        <ele>175.2</ele>
        <time>2025-05-07T09:55:40.000Z</time>
      </trkpt>
      <trkpt lat="43.5106" lon="5.31292">
        <ele>175.4</ele>
        <time>2025-05-07T09:55:42.000Z</time>
      </trkpt>
      <trkpt lat="43.51058" lon="5.3129">
        <ele>175.7</ele>
        <time>2025-05-07T09:55:45.000Z</time>
      </trkpt>
      <trkpt lat="43.51055" lon="5.31288">
        <ele>175.9</ele>
        <time>2025-05-07T09:55:48.000Z</time>
      </trkpt>
      <trkpt lat="43.51054" lon="5.31287">
        <ele>176</ele>
        <time>2025-05-07T09:55:50.000Z</time>
      </trkpt>
      <trkpt lat="43.51052" lon="5.31285">
        <ele>176.2</ele>
        <time>2025-05-07T09:55:52.000Z</time>
      </trkpt>
      <trkpt lat="43.51049" lon="5.31284">
        <ele>176.3</ele>
        <time>2025-05-07T09:55:54.000Z</time>
      </trkpt>
      <trkpt lat="43.51047" lon="5.31282">
        <ele>176.5</ele>
        <time>2025-05-07T09:55:56.000Z</time>
      </trkpt>
      <trkpt lat="43.51046" lon="5.3128">
        <ele>176.7</ele>
        <time>2025-05-07T09:55:59.000Z</time>
      </trkpt>
      <trkpt lat="43.51044" lon="5.31279">
        <ele>176.9</ele>
        <time>2025-05-07T09:56:01.000Z</time>
      </trkpt>
      <trkpt lat="43.51043" lon="5.31276">
        <ele>177.1</ele>
        <time>2025-05-07T09:56:04.000Z</time>
      </trkpt>
      <trkpt lat="43.51042" lon="5.31274">
        <ele>177.3</ele>
        <time>2025-05-07T09:56:07.000Z</time>
      </trkpt>
      <trkpt lat="43.5104" lon="5.31271">
        <ele>177.5</ele>
        <time>2025-05-07T09:56:10.000Z</time>
      </trkpt>
      <trkpt lat="43.51038" lon="5.3127">
        <ele>177.6</ele>
        <time>2025-05-07T09:56:12.000Z</time>
      </trkpt>
      <trkpt lat="43.51036" lon="5.31268">
        <ele>177.7</ele>
        <time>2025-05-07T09:56:14.000Z</time>
      </trkpt>
      <trkpt lat="43.51034" lon="5.31267">
        <ele>177.8</ele>
        <time>2025-05-07T09:56:16.000Z</time>
      </trkpt>
      <trkpt lat="43.51032" lon="5.31265">
        <ele>178</ele>
        <time>2025-05-07T09:56:19.000Z</time>
      </trkpt>
      <trkpt lat="43.51029" lon="5.31262">
        <ele>178.1</ele>
        <time>2025-05-07T09:56:22.000Z</time>
      </trkpt>
      <trkpt lat="43.51027" lon="5.3126">
        <ele>178.3</ele>
        <time>2025-05-07T09:56:25.000Z</time>
      </trkpt>
      <trkpt lat="43.51026" lon="5.31259">
        <ele>178.5</ele>
        <time>2025-05-07T09:56:28.000Z</time>
      </trkpt>
      <trkpt lat="43.51024" lon="5.31256">
        <ele>178.7</ele>
        <time>2025-05-07T09:56:31.000Z</time>
      </trkpt>
      <trkpt lat="43.51023" lon="5.31254">
        <ele>178.9</ele>
        <time>2025-05-07T09:56:33.000Z</time>
      </trkpt>
      <trkpt lat="43.5102" lon="5.31252">
        <ele>179.1</ele>
        <time>2025-05-07T09:56:36.000Z</time>
      </trkpt>
      <trkpt lat="43.51018" lon="5.31251">
        <ele>179.3</ele>
        <time>2025-05-07T09:56:38.000Z</time>
      </trkpt>
      <trkpt lat="43.51016" lon="5.3125">
        <ele>179.4</ele>
        <time>2025-05-07T09:56:40.000Z</time>
      </trkpt>
      <trkpt lat="43.51014" lon="5.31249">
        <ele>179.5</ele>
        <time>2025-05-07T09:56:42.000Z</time>
      </trkpt>
      <trkpt lat="43.51012" lon="5.31247">
        <ele>179.7</ele>
        <time>2025-05-07T09:56:44.000Z</time>
      </trkpt>
      <trkpt lat="43.5101" lon="5.31246">
        <ele>179.8</ele>
        <time>2025-05-07T09:56:46.000Z</time>
      </trkpt>
      <trkpt lat="43.51008" lon="5.31246">
        <ele>179.9</ele>
        <time>2025-05-07T09:56:48.000Z</time>
      </trkpt>
      <trkpt lat="43.51006" lon="5.31244">
        <ele>180</ele>
        <time>2025-05-07T09:56:50.000Z</time>
      </trkpt>
      <trkpt lat="43.51003" lon="5.31243">
        <ele>180.1</ele>
        <time>2025-05-07T09:56:52.000Z</time>
      </trkpt>
      <trkpt lat="43.51" lon="5.31241">
        <ele>180.3</ele>
        <time>2025-05-07T09:56:55.000Z</time>
      </trkpt>
      <trkpt lat="43.50998" lon="5.31239">
        <ele>180.3</ele>
        <time>2025-05-07T09:56:58.000Z</time>
      </trkpt>
      <trkpt lat="43.50996" lon="5.31238">
        <ele>180.3</ele>
        <time>2025-05-07T09:57:01.000Z</time>
      </trkpt>
      <trkpt lat="43.50994" lon="5.31237">
        <ele>180.3</ele>
        <time>2025-05-07T09:57:03.000Z</time>
      </trkpt>
      <trkpt lat="43.50992" lon="5.31236">
        <ele>180.2</ele>
        <time>2025-05-07T09:57:06.000Z</time>
      </trkpt>
      <trkpt lat="43.50989" lon="5.31234">
        <ele>180.2</ele>
        <time>2025-05-07T09:57:09.000Z</time>
      </trkpt>
      <trkpt lat="43.50987" lon="5.31233">
        <ele>180.2</ele>
        <time>2025-05-07T09:57:11.000Z</time>
      </trkpt>
      <trkpt lat="43.50985" lon="5.31232">
        <ele>180.1</ele>
        <time>2025-05-07T09:57:13.000Z</time>
      </trkpt>
      <trkpt lat="43.50983" lon="5.3123">
        <ele>180.1</ele>
        <time>2025-05-07T09:57:15.000Z</time>
      </trkpt>
      <trkpt lat="43.5098" lon="5.31229">
        <ele>180.1</ele>
        <time>2025-05-07T09:57:17.000Z</time>
      </trkpt>
      <trkpt lat="43.50977" lon="5.31227">
        <ele>180</ele>
        <time>2025-05-07T09:57:20.000Z</time>
      </trkpt>
      <trkpt lat="43.50976" lon="5.31226">
        <ele>180</ele>
        <time>2025-05-07T09:57:22.000Z</time>
      </trkpt>
      <trkpt lat="43.50974" lon="5.31224">
        <ele>180</ele>
        <time>2025-05-07T09:57:25.000Z</time>
      </trkpt>
      <trkpt lat="43.50972" lon="5.31223">
        <ele>180</ele>
        <time>2025-05-07T09:57:27.000Z</time>
      </trkpt>
      <trkpt lat="43.5097" lon="5.31221">
        <ele>180</ele>
        <time>2025-05-07T09:57:29.000Z</time>
      </trkpt>
      <trkpt lat="43.50969" lon="5.31218">
        <ele>180.2</ele>
        <time>2025-05-07T09:57:31.000Z</time>
      </trkpt>
      <trkpt lat="43.50967" lon="5.31216">
        <ele>180.3</ele>
        <time>2025-05-07T09:57:33.000Z</time>
      </trkpt>
      <trkpt lat="43.50965" lon="5.31214">
        <ele>180.3</ele>
        <time>2025-05-07T09:57:35.000Z</time>
      </trkpt>
      <trkpt lat="43.50964" lon="5.31212">
        <ele>180.4</ele>
        <time>2025-05-07T09:57:37.000Z</time>
      </trkpt>
      <trkpt lat="43.50962" lon="5.31209">
        <ele>180.6</ele>
        <time>2025-05-07T09:57:39.000Z</time>
      </trkpt>
      <trkpt lat="43.5096" lon="5.31207">
        <ele>180.7</ele>
        <time>2025-05-07T09:57:41.000Z</time>
      </trkpt>
      <trkpt lat="43.50959" lon="5.31205">
        <ele>180.7</ele>
        <time>2025-05-07T09:57:43.000Z</time>
      </trkpt>
      <trkpt lat="43.50956" lon="5.31203">
        <ele>180.8</ele>
        <time>2025-05-07T09:57:46.000Z</time>
      </trkpt>
      <trkpt lat="43.50954" lon="5.312">
        <ele>180.9</ele>
        <time>2025-05-07T09:57:48.000Z</time>
      </trkpt>
      <trkpt lat="43.50952" lon="5.31198">
        <ele>181</ele>
        <time>2025-05-07T09:57:50.000Z</time>
      </trkpt>
      <trkpt lat="43.5095" lon="5.31196">
        <ele>181.1</ele>
        <time>2025-05-07T09:57:52.000Z</time>
      </trkpt>
      <trkpt lat="43.50947" lon="5.31194">
        <ele>181.1</ele>
        <time>2025-05-07T09:57:56.000Z</time>
      </trkpt>
      <trkpt lat="43.50944" lon="5.31192">
        <ele>181.2</ele>
        <time>2025-05-07T09:57:59.000Z</time>
      </trkpt>
      <trkpt lat="43.50943" lon="5.3119">
        <ele>181.4</ele>
        <time>2025-05-07T09:58:01.000Z</time>
      </trkpt>
      <trkpt lat="43.5094" lon="5.31188">
        <ele>181.6</ele>
        <time>2025-05-07T09:58:04.000Z</time>
      </trkpt>
      <trkpt lat="43.50938" lon="5.31187">
        <ele>181.7</ele>
        <time>2025-05-07T09:58:06.000Z</time>
      </trkpt>
      <trkpt lat="43.50935" lon="5.31188">
        <ele>181.7</ele>
        <time>2025-05-07T09:58:08.000Z</time>
      </trkpt>
      <trkpt lat="43.50933" lon="5.31187">
        <ele>181.9</ele>
        <time>2025-05-07T09:58:10.000Z</time>
      </trkpt>
      <trkpt lat="43.50931" lon="5.31185">
        <ele>182</ele>
        <time>2025-05-07T09:58:12.000Z</time>
      </trkpt>
      <trkpt lat="43.50928" lon="5.31184">
        <ele>182.1</ele>
        <time>2025-05-07T09:58:14.000Z</time>
      </trkpt>
      <trkpt lat="43.50926" lon="5.31182">
        <ele>182.3</ele>
        <time>2025-05-07T09:58:17.000Z</time>
      </trkpt>
      <trkpt lat="43.50923" lon="5.3118">
        <ele>182.4</ele>
        <time>2025-05-07T09:58:19.000Z</time>
      </trkpt>
      <trkpt lat="43.50921" lon="5.31181">
        <ele>182.4</ele>
        <time>2025-05-07T09:58:21.000Z</time>
      </trkpt>
      <trkpt lat="43.50919" lon="5.31179">
        <ele>182.5</ele>
        <time>2025-05-07T09:58:23.000Z</time>
      </trkpt>
      <trkpt lat="43.50917" lon="5.31179">
        <ele>182.6</ele>
        <time>2025-05-07T09:58:25.000Z</time>
      </trkpt>
      <trkpt lat="43.50915" lon="5.31178">
        <ele>182.6</ele>
        <time>2025-05-07T09:58:27.000Z</time>
      </trkpt>
      <trkpt lat="43.50912" lon="5.31178">
        <ele>182.6</ele>
        <time>2025-05-07T09:58:29.000Z</time>
      </trkpt>
      <trkpt lat="43.50909" lon="5.31178">
        <ele>182.5</ele>
        <time>2025-05-07T09:58:31.000Z</time>
      </trkpt>
      <trkpt lat="43.50907" lon="5.31178">
        <ele>182.5</ele>
        <time>2025-05-07T09:58:33.000Z</time>
      </trkpt>
      <trkpt lat="43.50905" lon="5.31178">
        <ele>182.5</ele>
        <time>2025-05-07T09:58:35.000Z</time>
      </trkpt>
      <trkpt lat="43.50903" lon="5.31177">
        <ele>182.5</ele>
        <time>2025-05-07T09:58:37.000Z</time>
      </trkpt>
      <trkpt lat="43.50901" lon="5.31176">
        <ele>182.5</ele>
        <time>2025-05-07T09:58:39.000Z</time>
      </trkpt>
      <trkpt lat="43.50899" lon="5.31176">
        <ele>182.4</ele>
        <time>2025-05-07T09:58:41.000Z</time>
      </trkpt>
      <trkpt lat="43.50897" lon="5.31175">
        <ele>182.4</ele>
        <time>2025-05-07T09:58:43.000Z</time>
      </trkpt>
      <trkpt lat="43.50894" lon="5.31176">
        <ele>182.4</ele>
        <time>2025-05-07T09:58:46.000Z</time>
      </trkpt>
      <trkpt lat="43.50892" lon="5.31175">
        <ele>182.3</ele>
        <time>2025-05-07T09:58:49.000Z</time>
      </trkpt>
      <trkpt lat="43.50889" lon="5.31175">
        <ele>182.3</ele>
        <time>2025-05-07T09:58:52.000Z</time>
      </trkpt>
      <trkpt lat="43.50887" lon="5.31175">
        <ele>182.3</ele>
        <time>2025-05-07T09:58:54.000Z</time>
      </trkpt>
      <trkpt lat="43.50885" lon="5.31173">
        <ele>182.1</ele>
        <time>2025-05-07T09:58:57.000Z</time>
      </trkpt>
      <trkpt lat="43.50884" lon="5.31172">
        <ele>182</ele>
        <time>2025-05-07T09:58:59.000Z</time>
      </trkpt>
      <trkpt lat="43.50881" lon="5.31169">
        <ele>181.8</ele>
        <time>2025-05-07T09:59:01.000Z</time>
      </trkpt>
      <trkpt lat="43.5088" lon="5.31167">
        <ele>181.7</ele>
        <time>2025-05-07T09:59:04.000Z</time>
      </trkpt>
      <trkpt lat="43.50878" lon="5.31164">
        <ele>181.8</ele>
        <time>2025-05-07T09:59:07.000Z</time>
      </trkpt>
      <trkpt lat="43.50877" lon="5.31162">
        <ele>181.9</ele>
        <time>2025-05-07T09:59:10.000Z</time>
      </trkpt>
      <trkpt lat="43.50876" lon="5.31159">
        <ele>182</ele>
        <time>2025-05-07T09:59:13.000Z</time>
      </trkpt>
      <trkpt lat="43.50874" lon="5.31157">
        <ele>182</ele>
        <time>2025-05-07T09:59:15.000Z</time>
      </trkpt>
      <trkpt lat="43.50873" lon="5.31154">
        <ele>182.1</ele>
        <time>2025-05-07T09:59:17.000Z</time>
      </trkpt>
      <trkpt lat="43.50872" lon="5.31152">
        <ele>182.2</ele>
        <time>2025-05-07T09:59:19.000Z</time>
      </trkpt>
      <trkpt lat="43.50871" lon="5.31149">
        <ele>182.2</ele>
        <time>2025-05-07T09:59:21.000Z</time>
      </trkpt>
      <trkpt lat="43.5087" lon="5.31147">
        <ele>182.3</ele>
        <time>2025-05-07T09:59:23.000Z</time>
      </trkpt>
      <trkpt lat="43.50869" lon="5.31144">
        <ele>182.3</ele>
        <time>2025-05-07T09:59:25.000Z</time>
      </trkpt>
      <trkpt lat="43.50868" lon="5.31142">
        <ele>182.4</ele>
        <time>2025-05-07T09:59:27.000Z</time>
      </trkpt>
      <trkpt lat="43.50866" lon="5.31139">
        <ele>182.4</ele>
        <time>2025-05-07T09:59:29.000Z</time>
      </trkpt>
      <trkpt lat="43.50866" lon="5.31136">
        <ele>182.5</ele>
        <time>2025-05-07T09:59:31.000Z</time>
      </trkpt>
      <trkpt lat="43.50865" lon="5.31133">
        <ele>182.7</ele>
        <time>2025-05-07T09:59:33.000Z</time>
      </trkpt>
      <trkpt lat="43.50865" lon="5.31131">
        <ele>182.9</ele>
        <time>2025-05-07T09:59:35.000Z</time>
      </trkpt>
      <trkpt lat="43.50864" lon="5.31127">
        <ele>183</ele>
        <time>2025-05-07T09:59:38.000Z</time>
      </trkpt>
      <trkpt lat="43.50863" lon="5.31125">
        <ele>183.1</ele>
        <time>2025-05-07T09:59:40.000Z</time>
      </trkpt>
      <trkpt lat="43.50862" lon="5.31122">
        <ele>183.3</ele>
        <time>2025-05-07T09:59:43.000Z</time>
      </trkpt>
      <trkpt lat="43.50861" lon="5.31119">
        <ele>183.4</ele>
        <time>2025-05-07T09:59:45.000Z</time>
      </trkpt>
      <trkpt lat="43.5086" lon="5.31116">
        <ele>183.5</ele>
        <time>2025-05-07T09:59:47.000Z</time>
      </trkpt>
      <trkpt lat="43.50859" lon="5.31114">
        <ele>183.6</ele>
        <time>2025-05-07T09:59:49.000Z</time>
      </trkpt>
      <trkpt lat="43.50857" lon="5.31112">
        <ele>183.5</ele>
        <time>2025-05-07T09:59:51.000Z</time>
      </trkpt>
      <trkpt lat="43.50855" lon="5.31109">
        <ele>183.4</ele>
        <time>2025-05-07T09:59:53.000Z</time>
      </trkpt>
      <trkpt lat="43.50854" lon="5.31107">
        <ele>183.2</ele>
        <time>2025-05-07T09:59:55.000Z</time>
      </trkpt>
      <trkpt lat="43.50853" lon="5.31104">
        <ele>183.1</ele>
        <time>2025-05-07T09:59:57.000Z</time>
      </trkpt>
      <trkpt lat="43.50851" lon="5.311">
        <ele>182.9</ele>
        <time>2025-05-07T10:00:00.000Z</time>
      </trkpt>
      <trkpt lat="43.50849" lon="5.31097">
        <ele>182.7</ele>
        <time>2025-05-07T10:00:02.000Z</time>
      </trkpt>
      <trkpt lat="43.50848" lon="5.31095">
        <ele>182.5</ele>
        <time>2025-05-07T10:00:04.000Z</time>
      </trkpt>
      <trkpt lat="43.50846" lon="5.31093">
        <ele>182.4</ele>
        <time>2025-05-07T10:00:06.000Z</time>
      </trkpt>
      <trkpt lat="43.50845" lon="5.31091">
        <ele>182.2</ele>
        <time>2025-05-07T10:00:08.000Z</time>
      </trkpt>
      <trkpt lat="43.50845" lon="5.31088">
        <ele>182.2</ele>
        <time>2025-05-07T10:00:14.000Z</time>
      </trkpt>
      <trkpt lat="43.50844" lon="5.31084">
        <ele>182.2</ele>
        <time>2025-05-07T10:00:17.000Z</time>
      </trkpt>
      <trkpt lat="43.50843" lon="5.31081">
        <ele>181.9</ele>
        <time>2025-05-07T10:00:20.000Z</time>
      </trkpt>
      <trkpt lat="43.50842" lon="5.31078">
        <ele>181.6</ele>
        <time>2025-05-07T10:00:23.000Z</time>
      </trkpt>
      <trkpt lat="43.50841" lon="5.31075">
        <ele>181.3</ele>
        <time>2025-05-07T10:00:25.000Z</time>
      </trkpt>
      <trkpt lat="43.5084" lon="5.31072">
        <ele>181</ele>
        <time>2025-05-07T10:00:27.000Z</time>
      </trkpt>
      <trkpt lat="43.5084" lon="5.31069">
        <ele>180.8</ele>
        <time>2025-05-07T10:00:30.000Z</time>
      </trkpt>
      <trkpt lat="43.50839" lon="5.31067">
        <ele>180.5</ele>
        <time>2025-05-07T10:00:32.000Z</time>
      </trkpt>
      <trkpt lat="43.50838" lon="5.31065">
        <ele>180.3</ele>
        <time>2025-05-07T10:00:34.000Z</time>
      </trkpt>
      <trkpt lat="43.50836" lon="5.31061">
        <ele>179.7</ele>
        <time>2025-05-07T10:00:39.000Z</time>
      </trkpt>
      <trkpt lat="43.50835" lon="5.31057">
        <ele>179.4</ele>
        <time>2025-05-07T10:00:42.000Z</time>
      </trkpt>
      <trkpt lat="43.50833" lon="5.31053">
        <ele>178.7</ele>
        <time>2025-05-07T10:00:47.000Z</time>
      </trkpt>
      <trkpt lat="43.50832" lon="5.31051">
        <ele>178.4</ele>
        <time>2025-05-07T10:00:49.000Z</time>
      </trkpt>
      <trkpt lat="43.5083" lon="5.31048">
        <ele>178</ele>
        <time>2025-05-07T10:00:52.000Z</time>
      </trkpt>
      <trkpt lat="43.50829" lon="5.31045">
        <ele>177.7</ele>
        <time>2025-05-07T10:00:56.000Z</time>
      </trkpt>
      <trkpt lat="43.50828" lon="5.31042">
        <ele>177.2</ele>
        <time>2025-05-07T10:00:59.000Z</time>
      </trkpt>
      <trkpt lat="43.50827" lon="5.31039">
        <ele>176.8</ele>
        <time>2025-05-07T10:01:01.000Z</time>
      </trkpt>
      <trkpt lat="43.50826" lon="5.31037">
        <ele>176.5</ele>
        <time>2025-05-07T10:01:03.000Z</time>
      </trkpt>
      <trkpt lat="43.50824" lon="5.31033">
        <ele>175.8</ele>
        <time>2025-05-07T10:01:07.000Z</time>
      </trkpt>
      <trkpt lat="43.50823" lon="5.31031">
        <ele>175.5</ele>
        <time>2025-05-07T10:01:10.000Z</time>
      </trkpt>
      <trkpt lat="43.50822" lon="5.31028">
        <ele>175</ele>
        <time>2025-05-07T10:01:13.000Z</time>
      </trkpt>
      <trkpt lat="43.50821" lon="5.31026">
        <ele>174.5</ele>
        <time>2025-05-07T10:01:15.000Z</time>
      </trkpt>
      <trkpt lat="43.50819" lon="5.31022">
        <ele>173.9</ele>
        <time>2025-05-07T10:01:19.000Z</time>
      </trkpt>
      <trkpt lat="43.50818" lon="5.31018">
        <ele>173.1</ele>
        <time>2025-05-07T10:01:25.000Z</time>
      </trkpt>
      <trkpt lat="43.50817" lon="5.31016">
        <ele>172.7</ele>
        <time>2025-05-07T10:01:28.000Z</time>
      </trkpt>
      <trkpt lat="43.50816" lon="5.31013">
        <ele>172.3</ele>
        <time>2025-05-07T10:01:31.000Z</time>
      </trkpt>
      <trkpt lat="43.50815" lon="5.31009">
        <ele>171.7</ele>
        <time>2025-05-07T10:01:36.000Z</time>
      </trkpt>
      <trkpt lat="43.50813" lon="5.31007">
        <ele>171.2</ele>
        <time>2025-05-07T10:01:40.000Z</time>
      </trkpt>
      <trkpt lat="43.50812" lon="5.31004">
        <ele>170.6</ele>
        <time>2025-05-07T10:01:44.000Z</time>
      </trkpt>
      <trkpt lat="43.5081" lon="5.31001">
        <ele>170</ele>
        <time>2025-05-07T10:01:47.000Z</time>
      </trkpt>
      <trkpt lat="43.50808" lon="5.31001">
        <ele>169.5</ele>
        <time>2025-05-07T10:01:50.000Z</time>
      </trkpt>
      <trkpt lat="43.50806" lon="5.30999">
        <ele>168.9</ele>
        <time>2025-05-07T10:01:53.000Z</time>
      </trkpt>
      <trkpt lat="43.50805" lon="5.30996">
        <ele>168.5</ele>
        <time>2025-05-07T10:01:58.000Z</time>
      </trkpt>
      <trkpt lat="43.50803" lon="5.30994">
        <ele>167.9</ele>
        <time>2025-05-07T10:02:04.000Z</time>
      </trkpt>
      <trkpt lat="43.50802" lon="5.30992">
        <ele>167.5</ele>
        <time>2025-05-07T10:02:07.000Z</time>
      </trkpt>
      <trkpt lat="43.50799" lon="5.30989">
        <ele>166.7</ele>
        <time>2025-05-07T10:02:19.000Z</time>
      </trkpt>
      <trkpt lat="43.50797" lon="5.30987">
        <ele>166.2</ele>
        <time>2025-05-07T10:02:23.000Z</time>
      </trkpt>
      <trkpt lat="43.50797" lon="5.30984">
        <ele>165.9</ele>
        <time>2025-05-07T10:02:25.000Z</time>
      </trkpt>
      <trkpt lat="43.50795" lon="5.30982">
        <ele>165.4</ele>
        <time>2025-05-07T10:02:29.000Z</time>
      </trkpt>
      <trkpt lat="43.50793" lon="5.3098">
        <ele>164.9</ele>
        <time>2025-05-07T10:02:32.000Z</time>
      </trkpt>
      <trkpt lat="43.50793" lon="5.30977">
        <ele>164.7</ele>
        <time>2025-05-07T10:02:36.000Z</time>
      </trkpt>
      <trkpt lat="43.50794" lon="5.30974">
        <ele>164.4</ele>
        <time>2025-05-07T10:02:38.000Z</time>
      </trkpt>
      <trkpt lat="43.50793" lon="5.30971">
        <ele>164.1</ele>
        <time>2025-05-07T10:02:40.000Z</time>
      </trkpt>
      <trkpt lat="43.50794" lon="5.30967">
        <ele>163.8</ele>
        <time>2025-05-07T10:02:43.000Z</time>
      </trkpt>
      <trkpt lat="43.50794" lon="5.30964">
        <ele>163.6</ele>
        <time>2025-05-07T10:02:45.000Z</time>
      </trkpt>
      <trkpt lat="43.50793" lon="5.30961">
        <ele>163.2</ele>
        <time>2025-05-07T10:02:48.000Z</time>
      </trkpt>
      <trkpt lat="43.50793" lon="5.30958">
        <ele>162.9</ele>
        <time>2025-05-07T10:02:51.000Z</time>
      </trkpt>
      <trkpt lat="43.50794" lon="5.30955">
        <ele>162.7</ele>
        <time>2025-05-07T10:02:56.000Z</time>
      </trkpt>
      <trkpt lat="43.50794" lon="5.30952">
        <ele>162.5</ele>
        <time>2025-05-07T10:02:58.000Z</time>
      </trkpt>
      <trkpt lat="43.50796" lon="5.3095">
        <ele>162.4</ele>
        <time>2025-05-07T10:03:01.000Z</time>
      </trkpt>
      <trkpt lat="43.50797" lon="5.30948">
        <ele>162.4</ele>
        <time>2025-05-07T10:03:03.000Z</time>
      </trkpt>
      <trkpt lat="43.50799" lon="5.30945">
        <ele>162.3</ele>
        <time>2025-05-07T10:03:06.000Z</time>
      </trkpt>
      <trkpt lat="43.508" lon="5.30942">
        <ele>162.3</ele>
        <time>2025-05-07T10:03:09.000Z</time>
      </trkpt>
      <trkpt lat="43.50802" lon="5.3094">
        <ele>162.3</ele>
        <time>2025-05-07T10:03:12.000Z</time>
      </trkpt>
      <trkpt lat="43.50803" lon="5.30937">
        <ele>162.2</ele>
        <time>2025-05-07T10:03:14.000Z</time>
      </trkpt>
      <trkpt lat="43.50804" lon="5.30935">
        <ele>162.2</ele>
        <time>2025-05-07T10:03:16.000Z</time>
      </trkpt>
      <trkpt lat="43.50806" lon="5.30932">
        <ele>162.2</ele>
        <time>2025-05-07T10:03:19.000Z</time>
      </trkpt>
      <trkpt lat="43.50807" lon="5.30929">
        <ele>162.3</ele>
        <time>2025-05-07T10:03:21.000Z</time>
      </trkpt>
      <trkpt lat="43.50807" lon="5.30927">
        <ele>162.1</ele>
        <time>2025-05-07T10:03:23.000Z</time>
      </trkpt>
      <trkpt lat="43.50809" lon="5.30923">
        <ele>162.1</ele>
        <time>2025-05-07T10:03:26.000Z</time>
      </trkpt>
      <trkpt lat="43.50809" lon="5.3092">
        <ele>161.9</ele>
        <time>2025-05-07T10:03:28.000Z</time>
      </trkpt>
      <trkpt lat="43.50809" lon="5.30917">
        <ele>161.8</ele>
        <time>2025-05-07T10:03:30.000Z</time>
      </trkpt>
      <trkpt lat="43.5081" lon="5.30915">
        <ele>161.8</ele>
        <time>2025-05-07T10:03:32.000Z</time>
      </trkpt>
      <trkpt lat="43.50811" lon="5.30912">
        <ele>161.6</ele>
        <time>2025-05-07T10:03:34.000Z</time>
      </trkpt>
      <trkpt lat="43.50811" lon="5.3091">
        <ele>161.4</ele>
        <time>2025-05-07T10:03:36.000Z</time>
      </trkpt>
      <trkpt lat="43.50811" lon="5.30906">
        <ele>161</ele>
        <time>2025-05-07T10:03:38.000Z</time>
      </trkpt>
      <trkpt lat="43.50812" lon="5.30903">
        <ele>160.8</ele>
        <time>2025-05-07T10:03:40.000Z</time>
      </trkpt>
      <trkpt lat="43.50811" lon="5.309">
        <ele>160.4</ele>
        <time>2025-05-07T10:03:42.000Z</time>
      </trkpt>
      <trkpt lat="43.50811" lon="5.30897">
        <ele>160</ele>
        <time>2025-05-07T10:03:44.000Z</time>
      </trkpt>
      <trkpt lat="43.50812" lon="5.30894">
        <ele>159.9</ele>
        <time>2025-05-07T10:03:46.000Z</time>
      </trkpt>
      <trkpt lat="43.50812" lon="5.30891">
        <ele>159.6</ele>
        <time>2025-05-07T10:03:49.000Z</time>
      </trkpt>
      <trkpt lat="43.50812" lon="5.30889">
        <ele>159.3</ele>
        <time>2025-05-07T10:03:51.000Z</time>
      </trkpt>
      <trkpt lat="43.50813" lon="5.30886">
        <ele>159.3</ele>
        <time>2025-05-07T10:03:53.000Z</time>
      </trkpt>
      <trkpt lat="43.50813" lon="5.30883">
        <ele>159</ele>
        <time>2025-05-07T10:03:56.000Z</time>
      </trkpt>
      <trkpt lat="43.50813" lon="5.3088">
        <ele>158.9</ele>
        <time>2025-05-07T10:03:58.000Z</time>
      </trkpt>
      <trkpt lat="43.50813" lon="5.30878">
        <ele>158.6</ele>
        <time>2025-05-07T10:04:00.000Z</time>
      </trkpt>
      <trkpt lat="43.50814" lon="5.30875">
        <ele>158.6</ele>
        <time>2025-05-07T10:04:02.000Z</time>
      </trkpt>
      <trkpt lat="43.50816" lon="5.30873">
        <ele>158.8</ele>
        <time>2025-05-07T10:04:05.000Z</time>
      </trkpt>
      <trkpt lat="43.50816" lon="5.30869">
        <ele>158.6</ele>
        <time>2025-05-07T10:04:08.000Z</time>
      </trkpt>
      <trkpt lat="43.50817" lon="5.30867">
        <ele>158.5</ele>
        <time>2025-05-07T10:04:10.000Z</time>
      </trkpt>
      <trkpt lat="43.50817" lon="5.30864">
        <ele>158.3</ele>
        <time>2025-05-07T10:04:12.000Z</time>
      </trkpt>
      <trkpt lat="43.50818" lon="5.3086">
        <ele>158.1</ele>
        <time>2025-05-07T10:04:15.000Z</time>
      </trkpt>
      <trkpt lat="43.50818" lon="5.30858">
        <ele>157.9</ele>
        <time>2025-05-07T10:04:17.000Z</time>
      </trkpt>
      <trkpt lat="43.50818" lon="5.30855">
        <ele>157.6</ele>
        <time>2025-05-07T10:04:20.000Z</time>
      </trkpt>
      <trkpt lat="43.50819" lon="5.30851">
        <ele>157.3</ele>
        <time>2025-05-07T10:04:22.000Z</time>
      </trkpt>
      <trkpt lat="43.5082" lon="5.30848">
        <ele>157.1</ele>
        <time>2025-05-07T10:04:25.000Z</time>
      </trkpt>
      <trkpt lat="43.5082" lon="5.30845">
        <ele>156.9</ele>
        <time>2025-05-07T10:04:28.000Z</time>
      </trkpt>
      <trkpt lat="43.5082" lon="5.30842">
        <ele>156.6</ele>
        <time>2025-05-07T10:04:30.000Z</time>
      </trkpt>
      <trkpt lat="43.5082" lon="5.30839">
        <ele>156.2</ele>
        <time>2025-05-07T10:04:33.000Z</time>
      </trkpt>
      <trkpt lat="43.5082" lon="5.30836">
        <ele>155.8</ele>
        <time>2025-05-07T10:04:35.000Z</time>
      </trkpt>
      <trkpt lat="43.5082" lon="5.30833">
        <ele>155.5</ele>
        <time>2025-05-07T10:04:37.000Z</time>
      </trkpt>
      <trkpt lat="43.5082" lon="5.3083">
        <ele>155.4</ele>
        <time>2025-05-07T10:04:39.000Z</time>
      </trkpt>
      <trkpt lat="43.50821" lon="5.30827">
        <ele>155.2</ele>
        <time>2025-05-07T10:04:43.000Z</time>
      </trkpt>
      <trkpt lat="43.5082" lon="5.30824">
        <ele>154.9</ele>
        <time>2025-05-07T10:04:45.000Z</time>
      </trkpt>
      <trkpt lat="43.50822" lon="5.30825">
        <ele>155.3</ele>
        <time>2025-05-07T10:04:48.000Z</time>
      </trkpt>
      <trkpt lat="43.50822" lon="5.30822">
        <ele>155.2</ele>
        <time>2025-05-07T10:04:52.000Z</time>
      </trkpt>
      <trkpt lat="43.50821" lon="5.30819">
        <ele>154.8</ele>
        <time>2025-05-07T10:04:54.000Z</time>
      </trkpt>
      <trkpt lat="43.50822" lon="5.30816">
        <ele>154.6</ele>
        <time>2025-05-07T10:04:57.000Z</time>
      </trkpt>
      <trkpt lat="43.50822" lon="5.30811">
        <ele>154.3</ele>
        <time>2025-05-07T10:04:59.000Z</time>
      </trkpt>
      <trkpt lat="43.50821" lon="5.30808">
        <ele>153.9</ele>
        <time>2025-05-07T10:05:01.000Z</time>
      </trkpt>
      <trkpt lat="43.50821" lon="5.30805">
        <ele>153.7</ele>
        <time>2025-05-07T10:05:04.000Z</time>
      </trkpt>
      <trkpt lat="43.5082" lon="5.30802">
        <ele>153.2</ele>
        <time>2025-05-07T10:05:06.000Z</time>
      </trkpt>
      <trkpt lat="43.50821" lon="5.30799">
        <ele>152.9</ele>
        <time>2025-05-07T10:05:08.000Z</time>
      </trkpt>
      <trkpt lat="43.50821" lon="5.30795">
        <ele>152.4</ele>
        <time>2025-05-07T10:05:10.000Z</time>
      </trkpt>
      <trkpt lat="43.5082" lon="5.30793">
        <ele>152.1</ele>
        <time>2025-05-07T10:05:11.000Z</time>
      </trkpt>
      <trkpt lat="43.50819" lon="5.30789">
        <ele>151.7</ele>
        <time>2025-05-07T10:05:13.000Z</time>
      </trkpt>
      <trkpt lat="43.50819" lon="5.30787">
        <ele>151.5</ele>
        <time>2025-05-07T10:05:14.000Z</time>
      </trkpt>
      <trkpt lat="43.50818" lon="5.30784">
        <ele>151.2</ele>
        <time>2025-05-07T10:05:16.000Z</time>
      </trkpt>
      <trkpt lat="43.50821" lon="5.30783">
        <ele>151</ele>
        <time>2025-05-07T10:05:18.000Z</time>
      </trkpt>
      <trkpt lat="43.5082" lon="5.30779">
        <ele>150.6</ele>
        <time>2025-05-07T10:05:22.000Z</time>
      </trkpt>
      <trkpt lat="43.50819" lon="5.30776">
        <ele>150.6</ele>
        <time>2025-05-07T10:05:24.000Z</time>
      </trkpt>
      <trkpt lat="43.50819" lon="5.30773">
        <ele>150.5</ele>
        <time>2025-05-07T10:05:26.000Z</time>
      </trkpt>
      <trkpt lat="43.5082" lon="5.30769">
        <ele>150.4</ele>
        <time>2025-05-07T10:05:34.000Z</time>
      </trkpt>
      <trkpt lat="43.50819" lon="5.30767">
        <ele>150.5</ele>
        <time>2025-05-07T10:05:42.000Z</time>
      </trkpt>
      <trkpt lat="43.50819" lon="5.30764">
        <ele>150.7</ele>
        <time>2025-05-07T10:05:44.000Z</time>
      </trkpt>
      <trkpt lat="43.50819" lon="5.30762">
        <ele>150.6</ele>
        <time>2025-05-07T10:05:47.000Z</time>
      </trkpt>
      <trkpt lat="43.5082" lon="5.30759">
        <ele>150.3</ele>
        <time>2025-05-07T10:05:49.000Z</time>
      </trkpt>
      <trkpt lat="43.50819" lon="5.30756">
        <ele>150.6</ele>
        <time>2025-05-07T10:05:54.000Z</time>
      </trkpt>
      <trkpt lat="43.5082" lon="5.30752">
        <ele>150.4</ele>
        <time>2025-05-07T10:05:56.000Z</time>
      </trkpt>
      <trkpt lat="43.5082" lon="5.3075">
        <ele>150.4</ele>
        <time>2025-05-07T10:05:58.000Z</time>
      </trkpt>
      <trkpt lat="43.50819" lon="5.30746">
        <ele>150.7</ele>
        <time>2025-05-07T10:06:00.000Z</time>
      </trkpt>
      <trkpt lat="43.50819" lon="5.30742">
        <ele>150.8</ele>
        <time>2025-05-07T10:06:02.000Z</time>
      </trkpt>
      <trkpt lat="43.50821" lon="5.30739">
        <ele>150.5</ele>
        <time>2025-05-07T10:06:06.000Z</time>
      </trkpt>
      <trkpt lat="43.5082" lon="5.30735">
        <ele>150.8</ele>
        <time>2025-05-07T10:06:08.000Z</time>
      </trkpt>
      <trkpt lat="43.5082" lon="5.30732">
        <ele>150.9</ele>
        <time>2025-05-07T10:06:10.000Z</time>
      </trkpt>
      <trkpt lat="43.50821" lon="5.3073">
        <ele>150.7</ele>
        <time>2025-05-07T10:06:12.000Z</time>
      </trkpt>
      <trkpt lat="43.50822" lon="5.30726">
        <ele>150.6</ele>
        <time>2025-05-07T10:06:15.000Z</time>
      </trkpt>
      <trkpt lat="43.50822" lon="5.30723">
        <ele>150.6</ele>
        <time>2025-05-07T10:06:17.000Z</time>
      </trkpt>
      <trkpt lat="43.50824" lon="5.30721">
        <ele>150.2</ele>
        <time>2025-05-07T10:06:20.000Z</time>
      </trkpt>
      <trkpt lat="43.50825" lon="5.30718">
        <ele>150.1</ele>
        <time>2025-05-07T10:06:23.000Z</time>
      </trkpt>
      <trkpt lat="43.50826" lon="5.30716">
        <ele>149.9</ele>
        <time>2025-05-07T10:06:27.000Z</time>
      </trkpt>
      <trkpt lat="43.50827" lon="5.30714">
        <ele>150</ele>
        <time>2025-05-07T10:06:29.000Z</time>
      </trkpt>
      <trkpt lat="43.50828" lon="5.30712">
        <ele>149.8</ele>
        <time>2025-05-07T10:06:31.000Z</time>
      </trkpt>
      <trkpt lat="43.50828" lon="5.30708">
        <ele>150.2</ele>
        <time>2025-05-07T10:06:34.000Z</time>
      </trkpt>
      <trkpt lat="43.5083" lon="5.30705">
        <ele>150.2</ele>
        <time>2025-05-07T10:06:35.000Z</time>
      </trkpt>
      <trkpt lat="43.50832" lon="5.30702">
        <ele>150.2</ele>
        <time>2025-05-07T10:06:38.000Z</time>
      </trkpt>
      <trkpt lat="43.50833" lon="5.30704">
        <ele>149.7</ele>
        <time>2025-05-07T10:06:40.000Z</time>
      </trkpt>
      <trkpt lat="43.50833" lon="5.30701">
        <ele>150.1</ele>
        <time>2025-05-07T10:06:44.000Z</time>
      </trkpt>
      <trkpt lat="43.50834" lon="5.30699">
        <ele>150.2</ele>
        <time>2025-05-07T10:06:46.000Z</time>
      </trkpt>
      <trkpt lat="43.50834" lon="5.30695">
        <ele>150.8</ele>
        <time>2025-05-07T10:06:48.000Z</time>
      </trkpt>
      <trkpt lat="43.50834" lon="5.30692">
        <ele>151.3</ele>
        <time>2025-05-07T10:06:50.000Z</time>
      </trkpt>
      <trkpt lat="43.50834" lon="5.30688">
        <ele>151.6</ele>
        <time>2025-05-07T10:06:52.000Z</time>
      </trkpt>
      <trkpt lat="43.50835" lon="5.30684">
        <ele>152</ele>
        <time>2025-05-07T10:06:54.000Z</time>
      </trkpt>
      <trkpt lat="43.50836" lon="5.30681">
        <ele>152.1</ele>
        <time>2025-05-07T10:06:57.000Z</time>
      </trkpt>
      <trkpt lat="43.50837" lon="5.30678">
        <ele>152.3</ele>
        <time>2025-05-07T10:07:00.000Z</time>
      </trkpt>
      <trkpt lat="43.50838" lon="5.30674">
        <ele>152.5</ele>
        <time>2025-05-07T10:07:02.000Z</time>
      </trkpt>
      <trkpt lat="43.50838" lon="5.30671">
        <ele>152.8</ele>
        <time>2025-05-07T10:07:04.000Z</time>
      </trkpt>
      <trkpt lat="43.50837" lon="5.30668">
        <ele>153.4</ele>
        <time>2025-05-07T10:07:06.000Z</time>
      </trkpt>
      <trkpt lat="43.50839" lon="5.30664">
        <ele>153.2</ele>
        <time>2025-05-07T10:07:08.000Z</time>
      </trkpt>
      <trkpt lat="43.5084" lon="5.30662">
        <ele>153.1</ele>
        <time>2025-05-07T10:07:13.000Z</time>
      </trkpt>
      <trkpt lat="43.5084" lon="5.30657">
        <ele>153.8</ele>
        <time>2025-05-07T10:07:15.000Z</time>
      </trkpt>
      <trkpt lat="43.50841" lon="5.30655">
        <ele>153.7</ele>
        <time>2025-05-07T10:07:17.000Z</time>
      </trkpt>
      <trkpt lat="43.5084" lon="5.30653">
        <ele>154.5</ele>
        <time>2025-05-07T10:07:18.000Z</time>
      </trkpt>
      <trkpt lat="43.50842" lon="5.30651">
        <ele>153.8</ele>
        <time>2025-05-07T10:07:20.000Z</time>
      </trkpt>
      <trkpt lat="43.50841" lon="5.30648">
        <ele>154.8</ele>
        <time>2025-05-07T10:07:22.000Z</time>
      </trkpt>
      <trkpt lat="43.5084" lon="5.30645">
        <ele>155.4</ele>
        <time>2025-05-07T10:07:23.000Z</time>
      </trkpt>
      <trkpt lat="43.50839" lon="5.30641">
        <ele>156.2</ele>
        <time>2025-05-07T10:07:26.000Z</time>
      </trkpt>
      <trkpt lat="43.50839" lon="5.30639">
        <ele>156.5</ele>
        <time>2025-05-07T10:07:28.000Z</time>
      </trkpt>
      <trkpt lat="43.50839" lon="5.30632">
        <ele>156.7</ele>
        <time>2025-05-07T10:07:31.000Z</time>
      </trkpt>
      <trkpt lat="43.50841" lon="5.30629">
        <ele>156.1</ele>
        <time>2025-05-07T10:07:33.000Z</time>
      </trkpt>
      <trkpt lat="43.5084" lon="5.30626">
        <ele>156.4</ele>
        <time>2025-05-07T10:07:35.000Z</time>
      </trkpt>
      <trkpt lat="43.50839" lon="5.30623">
        <ele>156.8</ele>
        <time>2025-05-07T10:07:37.000Z</time>
      </trkpt>
      <trkpt lat="43.50838" lon="5.3062">
        <ele>157.4</ele>
        <time>2025-05-07T10:07:41.000Z</time>
      </trkpt>
      <trkpt lat="43.50839" lon="5.30618">
        <ele>157.1</ele>
        <time>2025-05-07T10:07:44.000Z</time>
      </trkpt>
      <trkpt lat="43.50838" lon="5.30614">
        <ele>157.5</ele>
        <time>2025-05-07T10:07:47.000Z</time>
      </trkpt>
      <trkpt lat="43.50838" lon="5.30611">
        <ele>158</ele>
        <time>2025-05-07T10:07:49.000Z</time>
      </trkpt>
      <trkpt lat="43.50837" lon="5.30607">
        <ele>158.1</ele>
        <time>2025-05-07T10:07:51.000Z</time>
      </trkpt>
      <trkpt lat="43.50837" lon="5.30604">
        <ele>157.7</ele>
        <time>2025-05-07T10:07:54.000Z</time>
      </trkpt>
      <trkpt lat="43.50836" lon="5.30602">
        <ele>158.2</ele>
        <time>2025-05-07T10:07:56.000Z</time>
      </trkpt>
      <trkpt lat="43.50835" lon="5.30599">
        <ele>158.3</ele>
        <time>2025-05-07T10:07:58.000Z</time>
      </trkpt>
      <trkpt lat="43.50834" lon="5.30596">
        <ele>158.8</ele>
        <time>2025-05-07T10:08:01.000Z</time>
      </trkpt>
      <trkpt lat="43.50832" lon="5.30593">
        <ele>159.4</ele>
        <time>2025-05-07T10:08:04.000Z</time>
      </trkpt>
      <trkpt lat="43.50831" lon="5.3059">
        <ele>159.6</ele>
        <time>2025-05-07T10:08:06.000Z</time>
      </trkpt>
      <trkpt lat="43.50832" lon="5.30588">
        <ele>158.9</ele>
        <time>2025-05-07T10:08:08.000Z</time>
      </trkpt>
      <trkpt lat="43.50831" lon="5.30585">
        <ele>159.3</ele>
        <time>2025-05-07T10:08:10.000Z</time>
      </trkpt>
      <trkpt lat="43.5083" lon="5.30582">
        <ele>159.4</ele>
        <time>2025-05-07T10:08:13.000Z</time>
      </trkpt>
      <trkpt lat="43.50828" lon="5.3058">
        <ele>159.9</ele>
        <time>2025-05-07T10:08:15.000Z</time>
      </trkpt>
      <trkpt lat="43.50827" lon="5.30578">
        <ele>160.1</ele>
        <time>2025-05-07T10:08:17.000Z</time>
      </trkpt>
      <trkpt lat="43.50824" lon="5.30577">
        <ele>161.1</ele>
        <time>2025-05-07T10:08:20.000Z</time>
      </trkpt>
      <trkpt lat="43.50825" lon="5.30573">
        <ele>160.4</ele>
        <time>2025-05-07T10:08:23.000Z</time>
      </trkpt>
      <trkpt lat="43.50823" lon="5.30572">
        <ele>161</ele>
        <time>2025-05-07T10:08:24.000Z</time>
      </trkpt>
      <trkpt lat="43.50822" lon="5.30568">
        <ele>161.2</ele>
        <time>2025-05-07T10:08:26.000Z</time>
      </trkpt>
      <trkpt lat="43.5082" lon="5.30565">
        <ele>161.3</ele>
        <time>2025-05-07T10:08:29.000Z</time>
      </trkpt>
      <trkpt lat="43.50819" lon="5.30562">
        <ele>161.7</ele>
        <time>2025-05-07T10:08:31.000Z</time>
      </trkpt>
      <trkpt lat="43.50817" lon="5.30559">
        <ele>161.8</ele>
        <time>2025-05-07T10:08:33.000Z</time>
      </trkpt>
      <trkpt lat="43.50816" lon="5.30557">
        <ele>162</ele>
        <time>2025-05-07T10:08:35.000Z</time>
      </trkpt>
      <trkpt lat="43.50814" lon="5.30555">
        <ele>162.6</ele>
        <time>2025-05-07T10:08:38.000Z</time>
      </trkpt>
      <trkpt lat="43.50812" lon="5.30554">
        <ele>163.2</ele>
        <time>2025-05-07T10:08:41.000Z</time>
      </trkpt>
      <trkpt lat="43.5081" lon="5.3055">
        <ele>163.4</ele>
        <time>2025-05-07T10:08:45.000Z</time>
      </trkpt>
      <trkpt lat="43.50808" lon="5.3055">
        <ele>164.3</ele>
        <time>2025-05-07T10:08:47.000Z</time>
      </trkpt>
      <trkpt lat="43.50808" lon="5.30547">
        <ele>163.9</ele>
        <time>2025-05-07T10:08:48.000Z</time>
      </trkpt>
      <trkpt lat="43.50808" lon="5.30544">
        <ele>163.7</ele>
        <time>2025-05-07T10:08:50.000Z</time>
      </trkpt>
      <trkpt lat="43.50806" lon="5.30542">
        <ele>164.1</ele>
        <time>2025-05-07T10:08:52.000Z</time>
      </trkpt>
      <trkpt lat="43.50804" lon="5.30541">
        <ele>164.2</ele>
        <time>2025-05-07T10:08:53.000Z</time>
      </trkpt>
      <trkpt lat="43.50803" lon="5.30539">
        <ele>164.1</ele>
        <time>2025-05-07T10:08:54.000Z</time>
      </trkpt>
      <trkpt lat="43.50801" lon="5.30537">
        <ele>164.2</ele>
        <time>2025-05-07T10:08:56.000Z</time>
      </trkpt>
      <trkpt lat="43.50799" lon="5.30537">
        <ele>164.5</ele>
        <time>2025-05-07T10:08:58.000Z</time>
      </trkpt>
      <trkpt lat="43.50798" lon="5.30534">
        <ele>164.3</ele>
        <time>2025-05-07T10:09:00.000Z</time>
      </trkpt>
      <trkpt lat="43.50798" lon="5.30531">
        <ele>163.9</ele>
        <time>2025-05-07T10:09:03.000Z</time>
      </trkpt>
      <trkpt lat="43.50798" lon="5.30527">
        <ele>163.5</ele>
        <time>2025-05-07T10:09:05.000Z</time>
      </trkpt>
      <trkpt lat="43.50798" lon="5.30524">
        <ele>163.6</ele>
        <time>2025-05-07T10:09:06.000Z</time>
      </trkpt>
      <trkpt lat="43.50799" lon="5.30521">
        <ele>163.6</ele>
        <time>2025-05-07T10:09:08.000Z</time>
      </trkpt>
      <trkpt lat="43.508" lon="5.30518">
        <ele>163.5</ele>
        <time>2025-05-07T10:09:10.000Z</time>
      </trkpt>
      <trkpt lat="43.508" lon="5.30515">
        <ele>163.8</ele>
        <time>2025-05-07T10:09:12.000Z</time>
      </trkpt>
      <trkpt lat="43.50801" lon="5.30513">
        <ele>163.3</ele>
        <time>2025-05-07T10:09:15.000Z</time>
      </trkpt>
      <trkpt lat="43.50802" lon="5.3051">
        <ele>163.4</ele>
        <time>2025-05-07T10:09:17.000Z</time>
      </trkpt>
      <trkpt lat="43.50803" lon="5.30507">
        <ele>163</ele>
        <time>2025-05-07T10:09:19.000Z</time>
      </trkpt>
      <trkpt lat="43.50803" lon="5.30504">
        <ele>162.8</ele>
        <time>2025-05-07T10:09:23.000Z</time>
      </trkpt>
      <trkpt lat="43.50803" lon="5.30501">
        <ele>163.1</ele>
        <time>2025-05-07T10:09:25.000Z</time>
      </trkpt>
      <trkpt lat="43.50803" lon="5.30498">
        <ele>163.2</ele>
        <time>2025-05-07T10:09:28.000Z</time>
      </trkpt>
      <trkpt lat="43.50801" lon="5.30496">
        <ele>164.2</ele>
        <time>2025-05-07T10:09:30.000Z</time>
      </trkpt>
      <trkpt lat="43.50802" lon="5.30494">
        <ele>163.6</ele>
        <time>2025-05-07T10:09:35.000Z</time>
      </trkpt>
      <trkpt lat="43.50803" lon="5.3049">
        <ele>163.7</ele>
        <time>2025-05-07T10:09:37.000Z</time>
      </trkpt>
      <trkpt lat="43.50802" lon="5.30488">
        <ele>164.3</ele>
        <time>2025-05-07T10:09:39.000Z</time>
      </trkpt>
      <trkpt lat="43.50801" lon="5.30484">
        <ele>164.6</ele>
        <time>2025-05-07T10:09:41.000Z</time>
      </trkpt>
      <trkpt lat="43.50801" lon="5.3048">
        <ele>165.2</ele>
        <time>2025-05-07T10:09:43.000Z</time>
      </trkpt>
      <trkpt lat="43.508" lon="5.30478">
        <ele>165.7</ele>
        <time>2025-05-07T10:09:45.000Z</time>
      </trkpt>
      <trkpt lat="43.50801" lon="5.30476">
        <ele>165.1</ele>
        <time>2025-05-07T10:09:47.000Z</time>
      </trkpt>
      <trkpt lat="43.50798" lon="5.30472">
        <ele>166.7</ele>
        <time>2025-05-07T10:09:49.000Z</time>
      </trkpt>
      <trkpt lat="43.50799" lon="5.3047">
        <ele>166.5</ele>
        <time>2025-05-07T10:09:51.000Z</time>
      </trkpt>
      <trkpt lat="43.508" lon="5.30467">
        <ele>166.2</ele>
        <time>2025-05-07T10:09:54.000Z</time>
      </trkpt>
      <trkpt lat="43.508" lon="5.30464">
        <ele>166</ele>
        <time>2025-05-07T10:09:56.000Z</time>
      </trkpt>
      <trkpt lat="43.50801" lon="5.30461">
        <ele>165.9</ele>
        <time>2025-05-07T10:10:00.000Z</time>
      </trkpt>
      <trkpt lat="43.508" lon="5.30459">
        <ele>166.2</ele>
        <time>2025-05-07T10:10:03.000Z</time>
      </trkpt>
      <trkpt lat="43.50799" lon="5.30455">
        <ele>166.9</ele>
        <time>2025-05-07T10:10:05.000Z</time>
      </trkpt>
      <trkpt lat="43.50799" lon="5.30452">
        <ele>167.1</ele>
        <time>2025-05-07T10:10:07.000Z</time>
      </trkpt>
      <trkpt lat="43.508" lon="5.30449">
        <ele>166.9</ele>
        <time>2025-05-07T10:10:10.000Z</time>
      </trkpt>
      <trkpt lat="43.50799" lon="5.30446">
        <ele>167.2</ele>
        <time>2025-05-07T10:10:13.000Z</time>
      </trkpt>
      <trkpt lat="43.50799" lon="5.30442">
        <ele>167.4</ele>
        <time>2025-05-07T10:10:16.000Z</time>
      </trkpt>
      <trkpt lat="43.50798" lon="5.30439">
        <ele>168.2</ele>
        <time>2025-05-07T10:10:18.000Z</time>
      </trkpt>
      <trkpt lat="43.50797" lon="5.30436">
        <ele>168.9</ele>
        <time>2025-05-07T10:10:20.000Z</time>
      </trkpt>
      <trkpt lat="43.50798" lon="5.30434">
        <ele>168.4</ele>
        <time>2025-05-07T10:10:26.000Z</time>
      </trkpt>
      <trkpt lat="43.50797" lon="5.30431">
        <ele>169.1</ele>
        <time>2025-05-07T10:10:28.000Z</time>
      </trkpt>
      <trkpt lat="43.50798" lon="5.30429">
        <ele>168.8</ele>
        <time>2025-05-07T10:10:31.000Z</time>
      </trkpt>
      <trkpt lat="43.50797" lon="5.30426">
        <ele>169.3</ele>
        <time>2025-05-07T10:10:34.000Z</time>
      </trkpt>
      <trkpt lat="43.50796" lon="5.30423">
        <ele>169.9</ele>
        <time>2025-05-07T10:10:36.000Z</time>
      </trkpt>
      <trkpt lat="43.50796" lon="5.3042">
        <ele>170.3</ele>
        <time>2025-05-07T10:10:38.000Z</time>
      </trkpt>
      <trkpt lat="43.50796" lon="5.30417">
        <ele>170.6</ele>
        <time>2025-05-07T10:10:40.000Z</time>
      </trkpt>
      <trkpt lat="43.50795" lon="5.30415">
        <ele>171.1</ele>
        <time>2025-05-07T10:10:42.000Z</time>
      </trkpt>
      <trkpt lat="43.50795" lon="5.30411">
        <ele>171.2</ele>
        <time>2025-05-07T10:10:46.000Z</time>
      </trkpt>
      <trkpt lat="43.50794" lon="5.30409">
        <ele>171.5</ele>
        <time>2025-05-07T10:10:48.000Z</time>
      </trkpt>
      <trkpt lat="43.50793" lon="5.30406">
        <ele>171.8</ele>
        <time>2025-05-07T10:10:51.000Z</time>
      </trkpt>
      <trkpt lat="43.50794" lon="5.30402">
        <ele>171.7</ele>
        <time>2025-05-07T10:10:54.000Z</time>
      </trkpt>
      <trkpt lat="43.50793" lon="5.304">
        <ele>171.9</ele>
        <time>2025-05-07T10:10:57.000Z</time>
      </trkpt>
      <trkpt lat="43.50792" lon="5.30396">
        <ele>172.2</ele>
        <time>2025-05-07T10:11:00.000Z</time>
      </trkpt>
      <trkpt lat="43.50792" lon="5.30391">
        <ele>172.5</ele>
        <time>2025-05-07T10:11:02.000Z</time>
      </trkpt>
      <trkpt lat="43.50793" lon="5.30389">
        <ele>172</ele>
        <time>2025-05-07T10:11:05.000Z</time>
      </trkpt>
      <trkpt lat="43.50793" lon="5.30385">
        <ele>172.2</ele>
        <time>2025-05-07T10:11:07.000Z</time>
      </trkpt>
      <trkpt lat="43.50792" lon="5.30383">
        <ele>172.6</ele>
        <time>2025-05-07T10:11:09.000Z</time>
      </trkpt>
      <trkpt lat="43.50791" lon="5.30381">
        <ele>173</ele>
        <time>2025-05-07T10:11:10.000Z</time>
      </trkpt>
      <trkpt lat="43.5079" lon="5.30378">
        <ele>173.6</ele>
        <time>2025-05-07T10:11:12.000Z</time>
      </trkpt>
      <trkpt lat="43.50792" lon="5.30377">
        <ele>173</ele>
        <time>2025-05-07T10:11:14.000Z</time>
      </trkpt>
      <trkpt lat="43.5079" lon="5.30377">
        <ele>173.5</ele>
        <time>2025-05-07T10:11:16.000Z</time>
      </trkpt>
      <trkpt lat="43.5079" lon="5.30374">
        <ele>173.7</ele>
        <time>2025-05-07T10:11:19.000Z</time>
      </trkpt>
      <trkpt lat="43.5079" lon="5.30371">
        <ele>173.9</ele>
        <time>2025-05-07T10:11:21.000Z</time>
      </trkpt>
      <trkpt lat="43.5079" lon="5.30367">
        <ele>174.1</ele>
        <time>2025-05-07T10:11:24.000Z</time>
      </trkpt>
      <trkpt lat="43.50791" lon="5.30365">
        <ele>173.9</ele>
        <time>2025-05-07T10:11:54.000Z</time>
      </trkpt>
      <trkpt lat="43.50793" lon="5.30364">
        <ele>173.7</ele>
        <time>2025-05-07T10:11:57.000Z</time>
      </trkpt>
      <trkpt lat="43.50793" lon="5.30361">
        <ele>173.8</ele>
        <time>2025-05-07T10:12:00.000Z</time>
      </trkpt>
      <trkpt lat="43.50793" lon="5.30357">
        <ele>174.3</ele>
        <time>2025-05-07T10:12:03.000Z</time>
      </trkpt>
      <trkpt lat="43.50793" lon="5.30354">
        <ele>174.8</ele>
        <time>2025-05-07T10:12:05.000Z</time>
      </trkpt>
      <trkpt lat="43.50793" lon="5.30351">
        <ele>175.4</ele>
        <time>2025-05-07T10:12:08.000Z</time>
      </trkpt>
      <trkpt lat="43.50793" lon="5.30348">
        <ele>175.6</ele>
        <time>2025-05-07T10:12:11.000Z</time>
      </trkpt>
      <trkpt lat="43.50794" lon="5.30345">
        <ele>175.9</ele>
        <time>2025-05-07T10:12:14.000Z</time>
      </trkpt>
      <trkpt lat="43.50795" lon="5.30343">
        <ele>176</ele>
        <time>2025-05-07T10:12:16.000Z</time>
      </trkpt>
      <trkpt lat="43.50796" lon="5.3034">
        <ele>175.9</ele>
        <time>2025-05-07T10:12:18.000Z</time>
      </trkpt>
      <trkpt lat="43.50797" lon="5.30337">
        <ele>175.7</ele>
        <time>2025-05-07T10:12:21.000Z</time>
      </trkpt>
      <trkpt lat="43.50798" lon="5.30335">
        <ele>175.9</ele>
        <time>2025-05-07T10:12:23.000Z</time>
      </trkpt>
      <trkpt lat="43.50799" lon="5.30332">
        <ele>175.9</ele>
        <time>2025-05-07T10:12:25.000Z</time>
      </trkpt>
      <trkpt lat="43.508" lon="5.3033">
        <ele>175.9</ele>
        <time>2025-05-07T10:12:27.000Z</time>
      </trkpt>
      <trkpt lat="43.50801" lon="5.30327">
        <ele>175.9</ele>
        <time>2025-05-07T10:12:30.000Z</time>
      </trkpt>
      <trkpt lat="43.50801" lon="5.30325">
        <ele>176.1</ele>
        <time>2025-05-07T10:12:32.000Z</time>
      </trkpt>
      <trkpt lat="43.50801" lon="5.30321">
        <ele>176.7</ele>
        <time>2025-05-07T10:12:34.000Z</time>
      </trkpt>
      <trkpt lat="43.50799" lon="5.30319">
        <ele>177.7</ele>
        <time>2025-05-07T10:12:36.000Z</time>
      </trkpt>
      <trkpt lat="43.50801" lon="5.30317">
        <ele>177.3</ele>
        <time>2025-05-07T10:12:38.000Z</time>
      </trkpt>
      <trkpt lat="43.50802" lon="5.30314">
        <ele>177.4</ele>
        <time>2025-05-07T10:12:40.000Z</time>
      </trkpt>
      <trkpt lat="43.50802" lon="5.30311">
        <ele>177.6</ele>
        <time>2025-05-07T10:12:42.000Z</time>
      </trkpt>
      <trkpt lat="43.50804" lon="5.30309">
        <ele>177.1</ele>
        <time>2025-05-07T10:12:47.000Z</time>
      </trkpt>
      <trkpt lat="43.50805" lon="5.30306">
        <ele>177.1</ele>
        <time>2025-05-07T10:12:49.000Z</time>
      </trkpt>
      <trkpt lat="43.50806" lon="5.30303">
        <ele>177.3</ele>
        <time>2025-05-07T10:12:51.000Z</time>
      </trkpt>
      <trkpt lat="43.50807" lon="5.303">
        <ele>177.8</ele>
        <time>2025-05-07T10:12:53.000Z</time>
      </trkpt>
      <trkpt lat="43.50807" lon="5.30295">
        <ele>178.7</ele>
        <time>2025-05-07T10:12:57.000Z</time>
      </trkpt>
      <trkpt lat="43.50808" lon="5.30291">
        <ele>179</ele>
        <time>2025-05-07T10:13:00.000Z</time>
      </trkpt>
      <trkpt lat="43.5081" lon="5.30289">
        <ele>179.1</ele>
        <time>2025-05-07T10:13:02.000Z</time>
      </trkpt>
      <trkpt lat="43.50811" lon="5.30286">
        <ele>179.3</ele>
        <time>2025-05-07T10:13:05.000Z</time>
      </trkpt>
      <trkpt lat="43.50812" lon="5.30283">
        <ele>179.4</ele>
        <time>2025-05-07T10:13:07.000Z</time>
      </trkpt>
      <trkpt lat="43.50814" lon="5.30282">
        <ele>179.3</ele>
        <time>2025-05-07T10:13:10.000Z</time>
      </trkpt>
      <trkpt lat="43.50815" lon="5.3028">
        <ele>179.3</ele>
        <time>2025-05-07T10:13:12.000Z</time>
      </trkpt>
      <trkpt lat="43.50816" lon="5.30276">
        <ele>179.7</ele>
        <time>2025-05-07T10:13:15.000Z</time>
      </trkpt>
      <trkpt lat="43.50816" lon="5.30273">
        <ele>180.3</ele>
        <time>2025-05-07T10:13:16.000Z</time>
      </trkpt>
      <trkpt lat="43.50817" lon="5.30271">
        <ele>180.5</ele>
        <time>2025-05-07T10:13:19.000Z</time>
      </trkpt>
      <trkpt lat="43.50818" lon="5.30268">
        <ele>180.5</ele>
        <time>2025-05-07T10:13:22.000Z</time>
      </trkpt>
      <trkpt lat="43.50819" lon="5.30265">
        <ele>180.8</ele>
        <time>2025-05-07T10:13:25.000Z</time>
      </trkpt>
      <trkpt lat="43.5082" lon="5.30262">
        <ele>181.1</ele>
        <time>2025-05-07T10:13:28.000Z</time>
      </trkpt>
      <trkpt lat="43.50821" lon="5.30259">
        <ele>181.6</ele>
        <time>2025-05-07T10:13:31.000Z</time>
      </trkpt>
      <trkpt lat="43.50821" lon="5.30256">
        <ele>182.1</ele>
        <time>2025-05-07T10:13:34.000Z</time>
      </trkpt>
      <trkpt lat="43.50822" lon="5.30254">
        <ele>182</ele>
        <time>2025-05-07T10:13:37.000Z</time>
      </trkpt>
      <trkpt lat="43.50823" lon="5.30251">
        <ele>182.2</ele>
        <time>2025-05-07T10:13:40.000Z</time>
      </trkpt>
      <trkpt lat="43.50824" lon="5.30248">
        <ele>182.4</ele>
        <time>2025-05-07T10:13:43.000Z</time>
      </trkpt>
      <trkpt lat="43.50825" lon="5.30244">
        <ele>182.7</ele>
        <time>2025-05-07T10:13:45.000Z</time>
      </trkpt>
      <trkpt lat="43.50826" lon="5.30242">
        <ele>182.6</ele>
        <time>2025-05-07T10:13:48.000Z</time>
      </trkpt>
      <trkpt lat="43.50826" lon="5.3024">
        <ele>182.9</ele>
        <time>2025-05-07T10:13:50.000Z</time>
      </trkpt>
      <trkpt lat="43.50827" lon="5.30237">
        <ele>183</ele>
        <time>2025-05-07T10:13:53.000Z</time>
      </trkpt>
      <trkpt lat="43.50829" lon="5.30234">
        <ele>183</ele>
        <time>2025-05-07T10:13:55.000Z</time>
      </trkpt>
      <trkpt lat="43.5083" lon="5.30229">
        <ele>183.1</ele>
        <time>2025-05-07T10:13:59.000Z</time>
      </trkpt>
      <trkpt lat="43.50831" lon="5.30226">
        <ele>183.2</ele>
        <time>2025-05-07T10:14:01.000Z</time>
      </trkpt>
      <trkpt lat="43.50831" lon="5.30223">
        <ele>183.6</ele>
        <time>2025-05-07T10:14:04.000Z</time>
      </trkpt>
      <trkpt lat="43.50831" lon="5.30221">
        <ele>183.9</ele>
        <time>2025-05-07T10:14:06.000Z</time>
      </trkpt>
      <trkpt lat="43.50833" lon="5.30218">
        <ele>183.7</ele>
        <time>2025-05-07T10:14:08.000Z</time>
      </trkpt>
      <trkpt lat="43.50833" lon="5.30216">
        <ele>183.8</ele>
        <time>2025-05-07T10:14:10.000Z</time>
      </trkpt>
      <trkpt lat="43.50834" lon="5.30213">
        <ele>183.9</ele>
        <time>2025-05-07T10:14:13.000Z</time>
      </trkpt>
      <trkpt lat="43.50835" lon="5.3021">
        <ele>184.2</ele>
        <time>2025-05-07T10:14:15.000Z</time>
      </trkpt>
      <trkpt lat="43.50835" lon="5.30207">
        <ele>184.4</ele>
        <time>2025-05-07T10:14:17.000Z</time>
      </trkpt>
      <trkpt lat="43.50836" lon="5.30205">
        <ele>184.5</ele>
        <time>2025-05-07T10:14:19.000Z</time>
      </trkpt>
      <trkpt lat="43.50838" lon="5.30202">
        <ele>184.6</ele>
        <time>2025-05-07T10:14:22.000Z</time>
      </trkpt>
      <trkpt lat="43.50839" lon="5.30199">
        <ele>184.7</ele>
        <time>2025-05-07T10:14:24.000Z</time>
      </trkpt>
      <trkpt lat="43.5084" lon="5.30197">
        <ele>184.8</ele>
        <time>2025-05-07T10:14:26.000Z</time>
      </trkpt>
      <trkpt lat="43.50841" lon="5.30195">
        <ele>184.8</ele>
        <time>2025-05-07T10:14:29.000Z</time>
      </trkpt>
      <trkpt lat="43.50843" lon="5.30192">
        <ele>185.1</ele>
        <time>2025-05-07T10:14:32.000Z</time>
      </trkpt>
      <trkpt lat="43.50845" lon="5.30189">
        <ele>185.5</ele>
        <time>2025-05-07T10:14:36.000Z</time>
      </trkpt>
      <trkpt lat="43.50846" lon="5.30186">
        <ele>186</ele>
        <time>2025-05-07T10:14:40.000Z</time>
      </trkpt>
      <trkpt lat="43.50847" lon="5.30184">
        <ele>186.2</ele>
        <time>2025-05-07T10:14:43.000Z</time>
      </trkpt>
      <trkpt lat="43.5085" lon="5.30183">
        <ele>186.2</ele>
        <time>2025-05-07T10:14:46.000Z</time>
      </trkpt>
      <trkpt lat="43.50851" lon="5.3018">
        <ele>186.6</ele>
        <time>2025-05-07T10:14:49.000Z</time>
      </trkpt>
      <trkpt lat="43.50852" lon="5.30178">
        <ele>187</ele>
        <time>2025-05-07T10:14:54.000Z</time>
      </trkpt>
      <trkpt lat="43.50853" lon="5.30175">
        <ele>187.5</ele>
        <time>2025-05-07T10:14:58.000Z</time>
      </trkpt>
      <trkpt lat="43.50854" lon="5.30172">
        <ele>187.9</ele>
        <time>2025-05-07T10:15:04.000Z</time>
      </trkpt>
      <trkpt lat="43.50856" lon="5.3017">
        <ele>188</ele>
        <time>2025-05-07T10:15:08.000Z</time>
      </trkpt>
      <trkpt lat="43.50857" lon="5.30168">
        <ele>188.4</ele>
        <time>2025-05-07T10:15:11.000Z</time>
      </trkpt>
      <trkpt lat="43.50858" lon="5.30165">
        <ele>188.9</ele>
        <time>2025-05-07T10:15:15.000Z</time>
      </trkpt>
      <trkpt lat="43.50859" lon="5.30162">
        <ele>189.3</ele>
        <time>2025-05-07T10:15:18.000Z</time>
      </trkpt>
      <trkpt lat="43.50859" lon="5.30159">
        <ele>189.7</ele>
        <time>2025-05-07T10:15:22.000Z</time>
      </trkpt>
      <trkpt lat="43.5086" lon="5.30157">
        <ele>190</ele>
        <time>2025-05-07T10:15:25.000Z</time>
      </trkpt>
      <trkpt lat="43.50862" lon="5.30154">
        <ele>190.2</ele>
        <time>2025-05-07T10:15:28.000Z</time>
      </trkpt>
      <trkpt lat="43.50862" lon="5.30151">
        <ele>190.6</ele>
        <time>2025-05-07T10:15:32.000Z</time>
      </trkpt>
      <trkpt lat="43.50865" lon="5.30149">
        <ele>190.8</ele>
        <time>2025-05-07T10:15:38.000Z</time>
      </trkpt>
      <trkpt lat="43.50866" lon="5.30146">
        <ele>191.2</ele>
        <time>2025-05-07T10:15:41.000Z</time>
      </trkpt>
      <trkpt lat="43.50866" lon="5.30142">
        <ele>191.6</ele>
        <time>2025-05-07T10:15:43.000Z</time>
      </trkpt>
      <trkpt lat="43.50868" lon="5.3014">
        <ele>191.9</ele>
        <time>2025-05-07T10:15:45.000Z</time>
      </trkpt>
      <trkpt lat="43.50869" lon="5.30138">
        <ele>192.1</ele>
        <time>2025-05-07T10:15:47.000Z</time>
      </trkpt>
      <trkpt lat="43.5087" lon="5.30135">
        <ele>192.4</ele>
        <time>2025-05-07T10:15:49.000Z</time>
      </trkpt>
      <trkpt lat="43.50871" lon="5.30132">
        <ele>192.8</ele>
        <time>2025-05-07T10:15:51.000Z</time>
      </trkpt>
      <trkpt lat="43.50872" lon="5.3013">
        <ele>193.2</ele>
        <time>2025-05-07T10:15:54.000Z</time>
      </trkpt>
      <trkpt lat="43.50873" lon="5.30127">
        <ele>193.4</ele>
        <time>2025-05-07T10:15:57.000Z</time>
      </trkpt>
      <trkpt lat="43.50874" lon="5.30125">
        <ele>193.7</ele>
        <time>2025-05-07T10:15:59.000Z</time>
      </trkpt>
      <trkpt lat="43.50875" lon="5.30122">
        <ele>194</ele>
        <time>2025-05-07T10:16:02.000Z</time>
      </trkpt>
      <trkpt lat="43.50877" lon="5.30119">
        <ele>194.1</ele>
        <time>2025-05-07T10:16:05.000Z</time>
      </trkpt>
      <trkpt lat="43.50879" lon="5.30117">
        <ele>194.2</ele>
        <time>2025-05-07T10:16:08.000Z</time>
      </trkpt>
      <trkpt lat="43.50881" lon="5.30114">
        <ele>194.3</ele>
        <time>2025-05-07T10:16:11.000Z</time>
      </trkpt>
      <trkpt lat="43.50883" lon="5.30112">
        <ele>194.2</ele>
        <time>2025-05-07T10:16:14.000Z</time>
      </trkpt>
      <trkpt lat="43.50884" lon="5.3011">
        <ele>194.2</ele>
        <time>2025-05-07T10:16:16.000Z</time>
      </trkpt>
      <trkpt lat="43.50886" lon="5.30107">
        <ele>194.4</ele>
        <time>2025-05-07T10:16:19.000Z</time>
      </trkpt>
      <trkpt lat="43.50887" lon="5.30105">
        <ele>194.3</ele>
        <time>2025-05-07T10:16:21.000Z</time>
      </trkpt>
      <trkpt lat="43.50889" lon="5.30103">
        <ele>194.3</ele>
        <time>2025-05-07T10:16:23.000Z</time>
      </trkpt>
      <trkpt lat="43.5089" lon="5.30101">
        <ele>194.3</ele>
        <time>2025-05-07T10:16:25.000Z</time>
      </trkpt>
      <trkpt lat="43.50892" lon="5.30098">
        <ele>194.5</ele>
        <time>2025-05-07T10:16:28.000Z</time>
      </trkpt>
      <trkpt lat="43.50893" lon="5.30096">
        <ele>194.6</ele>
        <time>2025-05-07T10:16:30.000Z</time>
      </trkpt>
      <trkpt lat="43.50895" lon="5.30093">
        <ele>194.8</ele>
        <time>2025-05-07T10:16:33.000Z</time>
      </trkpt>
      <trkpt lat="43.50896" lon="5.30091">
        <ele>194.9</ele>
        <time>2025-05-07T10:16:35.000Z</time>
      </trkpt>
      <trkpt lat="43.50898" lon="5.30089">
        <ele>195</ele>
        <time>2025-05-07T10:16:37.000Z</time>
      </trkpt>
      <trkpt lat="43.509" lon="5.30086">
        <ele>195.1</ele>
        <time>2025-05-07T10:16:39.000Z</time>
      </trkpt>
      <trkpt lat="43.50901" lon="5.30083">
        <ele>195.3</ele>
        <time>2025-05-07T10:16:41.000Z</time>
      </trkpt>
      <trkpt lat="43.50902" lon="5.3008">
        <ele>195.6</ele>
        <time>2025-05-07T10:16:43.000Z</time>
      </trkpt>
      <trkpt lat="43.50903" lon="5.30078">
        <ele>195.6</ele>
        <time>2025-05-07T10:16:45.000Z</time>
      </trkpt>
      <trkpt lat="43.50904" lon="5.30075">
        <ele>195.7</ele>
        <time>2025-05-07T10:16:47.000Z</time>
      </trkpt>
      <trkpt lat="43.50905" lon="5.30073">
        <ele>195.8</ele>
        <time>2025-05-07T10:16:49.000Z</time>
      </trkpt>
      <trkpt lat="43.50906" lon="5.3007">
        <ele>195.9</ele>
        <time>2025-05-07T10:16:51.000Z</time>
      </trkpt>
      <trkpt lat="43.50907" lon="5.30067">
        <ele>195.9</ele>
        <time>2025-05-07T10:16:53.000Z</time>
      </trkpt>
      <trkpt lat="43.50909" lon="5.30065">
        <ele>195.7</ele>
        <time>2025-05-07T10:16:55.000Z</time>
      </trkpt>
      <trkpt lat="43.5091" lon="5.30063">
        <ele>195.6</ele>
        <time>2025-05-07T10:16:57.000Z</time>
      </trkpt>
      <trkpt lat="43.5091" lon="5.3006">
        <ele>195.7</ele>
        <time>2025-05-07T10:16:59.000Z</time>
      </trkpt>
      <trkpt lat="43.50912" lon="5.30057">
        <ele>195.6</ele>
        <time>2025-05-07T10:17:01.000Z</time>
      </trkpt>
      <trkpt lat="43.50913" lon="5.30054">
        <ele>195.2</ele>
        <time>2025-05-07T10:17:03.000Z</time>
      </trkpt>
      <trkpt lat="43.50914" lon="5.30052">
        <ele>195.1</ele>
        <time>2025-05-07T10:17:06.000Z</time>
      </trkpt>
      <trkpt lat="43.50916" lon="5.30049">
        <ele>195.1</ele>
        <time>2025-05-07T10:17:08.000Z</time>
      </trkpt>
      <trkpt lat="43.50917" lon="5.30047">
        <ele>194.9</ele>
        <time>2025-05-07T10:17:10.000Z</time>
      </trkpt>
      <trkpt lat="43.50917" lon="5.30044">
        <ele>195.2</ele>
        <time>2025-05-07T10:17:11.000Z</time>
      </trkpt>
      <trkpt lat="43.50918" lon="5.30042">
        <ele>195.2</ele>
        <time>2025-05-07T10:17:13.000Z</time>
      </trkpt>
      <trkpt lat="43.50921" lon="5.30041">
        <ele>194.8</ele>
        <time>2025-05-07T10:17:16.000Z</time>
      </trkpt>
      <trkpt lat="43.50922" lon="5.30038">
        <ele>194.8</ele>
        <time>2025-05-07T10:17:18.000Z</time>
      </trkpt>
      <trkpt lat="43.50922" lon="5.30036">
        <ele>194.9</ele>
        <time>2025-05-07T10:17:20.000Z</time>
      </trkpt>
      <trkpt lat="43.50924" lon="5.30032">
        <ele>195</ele>
        <time>2025-05-07T10:17:23.000Z</time>
      </trkpt>
      <trkpt lat="43.50925" lon="5.30028">
        <ele>195</ele>
        <time>2025-05-07T10:17:26.000Z</time>
      </trkpt>
      <trkpt lat="43.50925" lon="5.30025">
        <ele>195.1</ele>
        <time>2025-05-07T10:17:28.000Z</time>
      </trkpt>
      <trkpt lat="43.50925" lon="5.30022">
        <ele>195.2</ele>
        <time>2025-05-07T10:17:30.000Z</time>
      </trkpt>
      <trkpt lat="43.50926" lon="5.3002">
        <ele>195.2</ele>
        <time>2025-05-07T10:17:32.000Z</time>
      </trkpt>
      <trkpt lat="43.50927" lon="5.30017">
        <ele>195.1</ele>
        <time>2025-05-07T10:17:48.000Z</time>
      </trkpt>
      <trkpt lat="43.50927" lon="5.30013">
        <ele>195.4</ele>
        <time>2025-05-07T10:17:50.000Z</time>
      </trkpt>
      <trkpt lat="43.50927" lon="5.30009">
        <ele>195.4</ele>
        <time>2025-05-07T10:17:52.000Z</time>
      </trkpt>
      <trkpt lat="43.50928" lon="5.30006">
        <ele>195.3</ele>
        <time>2025-05-07T10:17:54.000Z</time>
      </trkpt>
      <trkpt lat="43.5093" lon="5.30003">
        <ele>195.1</ele>
        <time>2025-05-07T10:17:56.000Z</time>
      </trkpt>
      <trkpt lat="43.50931" lon="5.3">
        <ele>194.8</ele>
        <time>2025-05-07T10:17:58.000Z</time>
      </trkpt>
      <trkpt lat="43.50931" lon="5.29998">
        <ele>195.3</ele>
        <time>2025-05-07T10:18:00.000Z</time>
      </trkpt>
      <trkpt lat="43.50933" lon="5.29998">
        <ele>194.6</ele>
        <time>2025-05-07T10:18:02.000Z</time>
      </trkpt>
      <trkpt lat="43.50935" lon="5.29996">
        <ele>194.4</ele>
        <time>2025-05-07T10:18:05.000Z</time>
      </trkpt>
      <trkpt lat="43.50936" lon="5.29992">
        <ele>194.6</ele>
        <time>2025-05-07T10:18:07.000Z</time>
      </trkpt>
      <trkpt lat="43.50936" lon="5.29989">
        <ele>194.9</ele>
        <time>2025-05-07T10:18:09.000Z</time>
      </trkpt>
      <trkpt lat="43.50937" lon="5.29986">
        <ele>194.9</ele>
        <time>2025-05-07T10:18:11.000Z</time>
      </trkpt>
      <trkpt lat="43.50938" lon="5.29984">
        <ele>195</ele>
        <time>2025-05-07T10:18:13.000Z</time>
      </trkpt>
      <trkpt lat="43.50939" lon="5.29981">
        <ele>195.1</ele>
        <time>2025-05-07T10:18:15.000Z</time>
      </trkpt>
      <trkpt lat="43.50939" lon="5.29978">
        <ele>195.2</ele>
        <time>2025-05-07T10:18:17.000Z</time>
      </trkpt>
      <trkpt lat="43.5094" lon="5.29976">
        <ele>195.3</ele>
        <time>2025-05-07T10:18:19.000Z</time>
      </trkpt>
      <trkpt lat="43.5094" lon="5.29972">
        <ele>195.7</ele>
        <time>2025-05-07T10:18:21.000Z</time>
      </trkpt>
      <trkpt lat="43.50941" lon="5.29967">
        <ele>195.8</ele>
        <time>2025-05-07T10:18:24.000Z</time>
      </trkpt>
      <trkpt lat="43.50942" lon="5.29965">
        <ele>195.9</ele>
        <time>2025-05-07T10:18:27.000Z</time>
      </trkpt>
      <trkpt lat="43.50943" lon="5.29962">
        <ele>195.7</ele>
        <time>2025-05-07T10:18:30.000Z</time>
      </trkpt>
      <trkpt lat="43.50944" lon="5.29959">
        <ele>195.8</ele>
        <time>2025-05-07T10:18:32.000Z</time>
      </trkpt>
      <trkpt lat="43.50944" lon="5.29956">
        <ele>195.9</ele>
        <time>2025-05-07T10:18:34.000Z</time>
      </trkpt>
      <trkpt lat="43.50945" lon="5.29953">
        <ele>196</ele>
        <time>2025-05-07T10:18:36.000Z</time>
      </trkpt>
      <trkpt lat="43.50944" lon="5.29949">
        <ele>196.6</ele>
        <time>2025-05-07T10:18:38.000Z</time>
      </trkpt>
      <trkpt lat="43.50945" lon="5.29945">
        <ele>196.9</ele>
        <time>2025-05-07T10:18:40.000Z</time>
      </trkpt>
      <trkpt lat="43.50945" lon="5.29943">
        <ele>196.9</ele>
        <time>2025-05-07T10:18:42.000Z</time>
      </trkpt>
      <trkpt lat="43.50946" lon="5.29939">
        <ele>197.1</ele>
        <time>2025-05-07T10:18:45.000Z</time>
      </trkpt>
      <trkpt lat="43.50947" lon="5.29935">
        <ele>197.1</ele>
        <time>2025-05-07T10:18:47.000Z</time>
      </trkpt>
      <trkpt lat="43.50947" lon="5.29933">
        <ele>197.2</ele>
        <time>2025-05-07T10:18:49.000Z</time>
      </trkpt>
      <trkpt lat="43.50948" lon="5.2993">
        <ele>197.2</ele>
        <time>2025-05-07T10:18:51.000Z</time>
      </trkpt>
      <trkpt lat="43.50948" lon="5.29926">
        <ele>197.3</ele>
        <time>2025-05-07T10:18:54.000Z</time>
      </trkpt>
      <trkpt lat="43.50948" lon="5.29924">
        <ele>197.5</ele>
        <time>2025-05-07T10:18:56.000Z</time>
      </trkpt>
      <trkpt lat="43.50948" lon="5.29921">
        <ele>197.7</ele>
        <time>2025-05-07T10:18:58.000Z</time>
      </trkpt>
      <trkpt lat="43.50948" lon="5.29915">
        <ele>198.3</ele>
        <time>2025-05-07T10:19:01.000Z</time>
      </trkpt>
      <trkpt lat="43.50948" lon="5.29911">
        <ele>198.5</ele>
        <time>2025-05-07T10:19:04.000Z</time>
      </trkpt>
      <trkpt lat="43.50947" lon="5.29908">
        <ele>198.8</ele>
        <time>2025-05-07T10:19:06.000Z</time>
      </trkpt>
      <trkpt lat="43.50947" lon="5.29905">
        <ele>198.9</ele>
        <time>2025-05-07T10:19:08.000Z</time>
      </trkpt>
      <trkpt lat="43.50947" lon="5.29903">
        <ele>199.1</ele>
        <time>2025-05-07T10:19:10.000Z</time>
      </trkpt>
      <trkpt lat="43.50947" lon="5.299">
        <ele>199.4</ele>
        <time>2025-05-07T10:19:12.000Z</time>
      </trkpt>
      <trkpt lat="43.50947" lon="5.29897">
        <ele>199.5</ele>
        <time>2025-05-07T10:19:15.000Z</time>
      </trkpt>
      <trkpt lat="43.50946" lon="5.29895">
        <ele>199.7</ele>
        <time>2025-05-07T10:19:18.000Z</time>
      </trkpt>
      <trkpt lat="43.50945" lon="5.29891">
        <ele>199.9</ele>
        <time>2025-05-07T10:19:21.000Z</time>
      </trkpt>
      <trkpt lat="43.50944" lon="5.29888">
        <ele>200.2</ele>
        <time>2025-05-07T10:19:23.000Z</time>
      </trkpt>
      <trkpt lat="43.50943" lon="5.29886">
        <ele>201.4</ele>
        <time>2025-05-07T10:19:25.000Z</time>
      </trkpt>
      <trkpt lat="43.50941" lon="5.29885">
        <ele>202.5</ele>
        <time>2025-05-07T10:19:27.000Z</time>
      </trkpt>
      <trkpt lat="43.5094" lon="5.29881">
        <ele>204</ele>
        <time>2025-05-07T10:19:31.000Z</time>
      </trkpt>
      <trkpt lat="43.50938" lon="5.29878">
        <ele>205.2</ele>
        <time>2025-05-07T10:19:35.000Z</time>
      </trkpt>
      <trkpt lat="43.50936" lon="5.29874">
        <ele>206.4</ele>
        <time>2025-05-07T10:19:38.000Z</time>
      </trkpt>
      <trkpt lat="43.50935" lon="5.29872">
        <ele>207.3</ele>
        <time>2025-05-07T10:19:41.000Z</time>
      </trkpt>
      <trkpt lat="43.50934" lon="5.29869">
        <ele>208</ele>
        <time>2025-05-07T10:19:44.000Z</time>
      </trkpt>
      <trkpt lat="43.50931" lon="5.29866">
        <ele>208.8</ele>
        <time>2025-05-07T10:19:49.000Z</time>
      </trkpt>
      <trkpt lat="43.5093" lon="5.29864">
        <ele>209.2</ele>
        <time>2025-05-07T10:19:54.000Z</time>
      </trkpt>
      <trkpt lat="43.5093" lon="5.29862">
        <ele>209.6</ele>
        <time>2025-05-07T10:19:58.000Z</time>
      </trkpt>
      <trkpt lat="43.50928" lon="5.29859">
        <ele>210.2</ele>
        <time>2025-05-07T10:20:01.000Z</time>
      </trkpt>
      <trkpt lat="43.50927" lon="5.29857">
        <ele>210.6</ele>
        <time>2025-05-07T10:20:04.000Z</time>
      </trkpt>
      <trkpt lat="43.50926" lon="5.29854">
        <ele>211</ele>
        <time>2025-05-07T10:20:10.000Z</time>
      </trkpt>
      <trkpt lat="43.50925" lon="5.29852">
        <ele>211.3</ele>
        <time>2025-05-07T10:20:13.000Z</time>
      </trkpt>
      <trkpt lat="43.50924" lon="5.2985">
        <ele>211.5</ele>
        <time>2025-05-07T10:20:15.000Z</time>
      </trkpt>
      <trkpt lat="43.50923" lon="5.29847">
        <ele>211.8</ele>
        <time>2025-05-07T10:20:18.000Z</time>
      </trkpt>
      <trkpt lat="43.50922" lon="5.29844">
        <ele>212</ele>
        <time>2025-05-07T10:20:20.000Z</time>
      </trkpt>
      <trkpt lat="43.50921" lon="5.29842">
        <ele>212.1</ele>
        <time>2025-05-07T10:20:25.000Z</time>
      </trkpt>
      <trkpt lat="43.5092" lon="5.29837">
        <ele>212.2</ele>
        <time>2025-05-07T10:20:31.000Z</time>
      </trkpt>
      <trkpt lat="43.50919" lon="5.29835">
        <ele>212.2</ele>
        <time>2025-05-07T10:20:35.000Z</time>
      </trkpt>
      <trkpt lat="43.50918" lon="5.29832">
        <ele>212.2</ele>
        <time>2025-05-07T10:20:40.000Z</time>
      </trkpt>
      <trkpt lat="43.50917" lon="5.29828">
        <ele>212.7</ele>
        <time>2025-05-07T10:20:45.000Z</time>
      </trkpt>
      <trkpt lat="43.50917" lon="5.29824">
        <ele>213.1</ele>
        <time>2025-05-07T10:20:51.000Z</time>
      </trkpt>
      <trkpt lat="43.50917" lon="5.29821">
        <ele>213.4</ele>
        <time>2025-05-07T10:20:54.000Z</time>
      </trkpt>
      <trkpt lat="43.50918" lon="5.29819">
        <ele>213.8</ele>
        <time>2025-05-07T10:20:58.000Z</time>
      </trkpt>
      <trkpt lat="43.50918" lon="5.29814">
        <ele>214.3</ele>
        <time>2025-05-07T10:21:04.000Z</time>
      </trkpt>
      <trkpt lat="43.50918" lon="5.29811">
        <ele>214.6</ele>
        <time>2025-05-07T10:21:07.000Z</time>
      </trkpt>
      <trkpt lat="43.50918" lon="5.29808">
        <ele>215</ele>
        <time>2025-05-07T10:21:11.000Z</time>
      </trkpt>
      <trkpt lat="43.50917" lon="5.29804">
        <ele>215.3</ele>
        <time>2025-05-07T10:21:16.000Z</time>
      </trkpt>
      <trkpt lat="43.50918" lon="5.29801">
        <ele>215.8</ele>
        <time>2025-05-07T10:21:20.000Z</time>
      </trkpt>
      <trkpt lat="43.50918" lon="5.29798">
        <ele>216</ele>
        <time>2025-05-07T10:21:23.000Z</time>
      </trkpt>
      <trkpt lat="43.50918" lon="5.29796">
        <ele>216.3</ele>
        <time>2025-05-07T10:21:26.000Z</time>
      </trkpt>
      <trkpt lat="43.50918" lon="5.29793">
        <ele>216.7</ele>
        <time>2025-05-07T10:21:30.000Z</time>
      </trkpt>
      <trkpt lat="43.50918" lon="5.2979">
        <ele>217</ele>
        <time>2025-05-07T10:21:34.000Z</time>
      </trkpt>
      <trkpt lat="43.50918" lon="5.29787">
        <ele>217.4</ele>
        <time>2025-05-07T10:21:37.000Z</time>
      </trkpt>
      <trkpt lat="43.50918" lon="5.29783">
        <ele>217.8</ele>
        <time>2025-05-07T10:21:41.000Z</time>
      </trkpt>
      <trkpt lat="43.50918" lon="5.2978">
        <ele>218</ele>
        <time>2025-05-07T10:21:46.000Z</time>
      </trkpt>
      <trkpt lat="43.50918" lon="5.29777">
        <ele>218.4</ele>
        <time>2025-05-07T10:21:50.000Z</time>
      </trkpt>
      <trkpt lat="43.50918" lon="5.29773">
        <ele>218.8</ele>
        <time>2025-05-07T10:21:55.000Z</time>
      </trkpt>
      <trkpt lat="43.50917" lon="5.2977">
        <ele>218.7</ele>
        <time>2025-05-07T10:21:58.000Z</time>
      </trkpt>
      <trkpt lat="43.50917" lon="5.29767">
        <ele>218.8</ele>
        <time>2025-05-07T10:22:03.000Z</time>
      </trkpt>
      <trkpt lat="43.50917" lon="5.29763">
        <ele>219.1</ele>
        <time>2025-05-07T10:22:07.000Z</time>
      </trkpt>
      <trkpt lat="43.50916" lon="5.2976">
        <ele>219.5</ele>
        <time>2025-05-07T10:22:10.000Z</time>
      </trkpt>
      <trkpt lat="43.50915" lon="5.29757">
        <ele>219.9</ele>
        <time>2025-05-07T10:22:13.000Z</time>
      </trkpt>
      <trkpt lat="43.50914" lon="5.29754">
        <ele>220.3</ele>
        <time>2025-05-07T10:22:17.000Z</time>
      </trkpt>
      <trkpt lat="43.50914" lon="5.29751">
        <ele>220.7</ele>
        <time>2025-05-07T10:22:20.000Z</time>
      </trkpt>
      <trkpt lat="43.50913" lon="5.29748">
        <ele>221</ele>
        <time>2025-05-07T10:22:24.000Z</time>
      </trkpt>
      <trkpt lat="43.50912" lon="5.29746">
        <ele>221.4</ele>
        <time>2025-05-07T10:22:26.000Z</time>
      </trkpt>
      <trkpt lat="43.50911" lon="5.29743">
        <ele>221.8</ele>
        <time>2025-05-07T10:22:29.000Z</time>
      </trkpt>
      <trkpt lat="43.5091" lon="5.2974">
        <ele>222.2</ele>
        <time>2025-05-07T10:22:33.000Z</time>
      </trkpt>
      <trkpt lat="43.50909" lon="5.29738">
        <ele>222.5</ele>
        <time>2025-05-07T10:22:35.000Z</time>
      </trkpt>
      <trkpt lat="43.50908" lon="5.29735">
        <ele>222.8</ele>
        <time>2025-05-07T10:22:38.000Z</time>
      </trkpt>
      <trkpt lat="43.50908" lon="5.29732">
        <ele>223.1</ele>
        <time>2025-05-07T10:22:40.000Z</time>
      </trkpt>
      <trkpt lat="43.50908" lon="5.29729">
        <ele>223.3</ele>
        <time>2025-05-07T10:22:43.000Z</time>
      </trkpt>
      <trkpt lat="43.50908" lon="5.29726">
        <ele>223.5</ele>
        <time>2025-05-07T10:22:46.000Z</time>
      </trkpt>
      <trkpt lat="43.50908" lon="5.29723">
        <ele>223.6</ele>
        <time>2025-05-07T10:22:49.000Z</time>
      </trkpt>
      <trkpt lat="43.50906" lon="5.29721">
        <ele>224</ele>
        <time>2025-05-07T10:22:52.000Z</time>
      </trkpt>
      <trkpt lat="43.50906" lon="5.29718">
        <ele>224.2</ele>
        <time>2025-05-07T10:22:54.000Z</time>
      </trkpt>
      <trkpt lat="43.50905" lon="5.29715">
        <ele>224.5</ele>
        <time>2025-05-07T10:22:56.000Z</time>
      </trkpt>
      <trkpt lat="43.50904" lon="5.29712">
        <ele>224.7</ele>
        <time>2025-05-07T10:22:58.000Z</time>
      </trkpt>
      <trkpt lat="43.50904" lon="5.2971">
        <ele>224.8</ele>
        <time>2025-05-07T10:23:01.000Z</time>
      </trkpt>
      <trkpt lat="43.50903" lon="5.29707">
        <ele>225.1</ele>
        <time>2025-05-07T10:23:04.000Z</time>
      </trkpt>
      <trkpt lat="43.50901" lon="5.29706">
        <ele>225.3</ele>
        <time>2025-05-07T10:23:06.000Z</time>
      </trkpt>
      <trkpt lat="43.50901" lon="5.29703">
        <ele>225.4</ele>
        <time>2025-05-07T10:23:09.000Z</time>
      </trkpt>
      <trkpt lat="43.50899" lon="5.297">
        <ele>225.5</ele>
        <time>2025-05-07T10:23:12.000Z</time>
      </trkpt>
      <trkpt lat="43.50899" lon="5.29697">
        <ele>225.6</ele>
        <time>2025-05-07T10:23:16.000Z</time>
      </trkpt>
      <trkpt lat="43.50898" lon="5.29694">
        <ele>225.7</ele>
        <time>2025-05-07T10:23:18.000Z</time>
      </trkpt>
      <trkpt lat="43.50897" lon="5.29692">
        <ele>225.9</ele>
        <time>2025-05-07T10:23:21.000Z</time>
      </trkpt>
      <trkpt lat="43.50896" lon="5.29688">
        <ele>226.1</ele>
        <time>2025-05-07T10:23:24.000Z</time>
      </trkpt>
      <trkpt lat="43.50894" lon="5.29686">
        <ele>226.2</ele>
        <time>2025-05-07T10:23:27.000Z</time>
      </trkpt>
      <trkpt lat="43.50894" lon="5.29683">
        <ele>226.4</ele>
        <time>2025-05-07T10:23:31.000Z</time>
      </trkpt>
      <trkpt lat="43.50892" lon="5.29681">
        <ele>226.5</ele>
        <time>2025-05-07T10:23:33.000Z</time>
      </trkpt>
      <trkpt lat="43.50892" lon="5.29678">
        <ele>226.6</ele>
        <time>2025-05-07T10:23:36.000Z</time>
      </trkpt>
      <trkpt lat="43.50891" lon="5.29675">
        <ele>226.7</ele>
        <time>2025-05-07T10:23:39.000Z</time>
      </trkpt>
      <trkpt lat="43.5089" lon="5.29672">
        <ele>226.8</ele>
        <time>2025-05-07T10:23:42.000Z</time>
      </trkpt>
      <trkpt lat="43.5089" lon="5.2967">
        <ele>226.9</ele>
        <time>2025-05-07T10:23:45.000Z</time>
      </trkpt>
      <trkpt lat="43.50889" lon="5.29667">
        <ele>227</ele>
        <time>2025-05-07T10:23:49.000Z</time>
      </trkpt>
      <trkpt lat="43.50888" lon="5.29664">
        <ele>227.2</ele>
        <time>2025-05-07T10:23:52.000Z</time>
      </trkpt>
      <trkpt lat="43.50887" lon="5.29662">
        <ele>227.4</ele>
        <time>2025-05-07T10:23:55.000Z</time>
      </trkpt>
      <trkpt lat="43.50885" lon="5.29658">
        <ele>227.7</ele>
        <time>2025-05-07T10:23:57.000Z</time>
      </trkpt>
      <trkpt lat="43.50884" lon="5.29656">
        <ele>227.8</ele>
        <time>2025-05-07T10:23:59.000Z</time>
      </trkpt>
      <trkpt lat="43.50883" lon="5.29653">
        <ele>228</ele>
        <time>2025-05-07T10:24:02.000Z</time>
      </trkpt>
      <trkpt lat="43.50883" lon="5.29651">
        <ele>228.1</ele>
        <time>2025-05-07T10:24:04.000Z</time>
      </trkpt>
      <trkpt lat="43.50882" lon="5.29648">
        <ele>228.3</ele>
        <time>2025-05-07T10:24:06.000Z</time>
      </trkpt>
      <trkpt lat="43.50881" lon="5.29645">
        <ele>228.4</ele>
        <time>2025-05-07T10:24:08.000Z</time>
      </trkpt>
      <trkpt lat="43.5088" lon="5.29643">
        <ele>228.5</ele>
        <time>2025-05-07T10:24:10.000Z</time>
      </trkpt>
      <trkpt lat="43.5088" lon="5.2964">
        <ele>228.6</ele>
        <time>2025-05-07T10:24:12.000Z</time>
      </trkpt>
      <trkpt lat="43.50879" lon="5.29638">
        <ele>228.8</ele>
        <time>2025-05-07T10:24:14.000Z</time>
      </trkpt>
      <trkpt lat="43.50878" lon="5.29634">
        <ele>229</ele>
        <time>2025-05-07T10:24:17.000Z</time>
      </trkpt>
      <trkpt lat="43.50877" lon="5.2963">
        <ele>229.2</ele>
        <time>2025-05-07T10:24:21.000Z</time>
      </trkpt>
      <trkpt lat="43.50876" lon="5.29628">
        <ele>229.4</ele>
        <time>2025-05-07T10:24:23.000Z</time>
      </trkpt>
      <trkpt lat="43.50875" lon="5.29624">
        <ele>229.5</ele>
        <time>2025-05-07T10:24:26.000Z</time>
      </trkpt>
      <trkpt lat="43.50875" lon="5.29622">
        <ele>229.6</ele>
        <time>2025-05-07T10:24:29.000Z</time>
      </trkpt>
      <trkpt lat="43.50875" lon="5.29619">
        <ele>229.7</ele>
        <time>2025-05-07T10:24:32.000Z</time>
      </trkpt>
      <trkpt lat="43.50875" lon="5.29616">
        <ele>229.8</ele>
        <time>2025-05-07T10:24:34.000Z</time>
      </trkpt>
      <trkpt lat="43.50876" lon="5.29613">
        <ele>229.9</ele>
        <time>2025-05-07T10:24:37.000Z</time>
      </trkpt>
      <trkpt lat="43.50876" lon="5.2961">
        <ele>230</ele>
        <time>2025-05-07T10:24:39.000Z</time>
      </trkpt>
      <trkpt lat="43.50876" lon="5.29607">
        <ele>230.2</ele>
        <time>2025-05-07T10:24:41.000Z</time>
      </trkpt>
      <trkpt lat="43.50877" lon="5.29603">
        <ele>230.4</ele>
        <time>2025-05-07T10:24:44.000Z</time>
      </trkpt>
      <trkpt lat="43.50877" lon="5.29601">
        <ele>230.5</ele>
        <time>2025-05-07T10:24:46.000Z</time>
      </trkpt>
      <trkpt lat="43.50877" lon="5.29598">
        <ele>230.7</ele>
        <time>2025-05-07T10:24:48.000Z</time>
      </trkpt>
      <trkpt lat="43.50878" lon="5.29594">
        <ele>230.8</ele>
        <time>2025-05-07T10:24:51.000Z</time>
      </trkpt>
      <trkpt lat="43.50879" lon="5.29592">
        <ele>231</ele>
        <time>2025-05-07T10:24:53.000Z</time>
      </trkpt>
      <trkpt lat="43.50879" lon="5.29588">
        <ele>231.1</ele>
        <time>2025-05-07T10:24:56.000Z</time>
      </trkpt>
      <trkpt lat="43.50878" lon="5.29585">
        <ele>231.3</ele>
        <time>2025-05-07T10:24:59.000Z</time>
      </trkpt>
      <trkpt lat="43.50878" lon="5.29583">
        <ele>231.4</ele>
        <time>2025-05-07T10:25:01.000Z</time>
      </trkpt>
      <trkpt lat="43.50878" lon="5.2958">
        <ele>231.6</ele>
        <time>2025-05-07T10:25:03.000Z</time>
      </trkpt>
      <trkpt lat="43.50877" lon="5.29578">
        <ele>231.8</ele>
        <time>2025-05-07T10:25:05.000Z</time>
      </trkpt>
      <trkpt lat="43.50876" lon="5.29575">
        <ele>231.9</ele>
        <time>2025-05-07T10:25:07.000Z</time>
      </trkpt>
      <trkpt lat="43.50875" lon="5.29573">
        <ele>232.1</ele>
        <time>2025-05-07T10:25:09.000Z</time>
      </trkpt>
      <trkpt lat="43.50874" lon="5.29571">
        <ele>232.2</ele>
        <time>2025-05-07T10:25:11.000Z</time>
      </trkpt>
      <trkpt lat="43.50872" lon="5.29569">
        <ele>232.3</ele>
        <time>2025-05-07T10:25:14.000Z</time>
      </trkpt>
      <trkpt lat="43.5087" lon="5.29567">
        <ele>232.5</ele>
        <time>2025-05-07T10:25:17.000Z</time>
      </trkpt>
      <trkpt lat="43.50868" lon="5.29563">
        <ele>232.6</ele>
        <time>2025-05-07T10:25:20.000Z</time>
      </trkpt>
      <trkpt lat="43.50867" lon="5.29561">
        <ele>232.8</ele>
        <time>2025-05-07T10:25:22.000Z</time>
      </trkpt>
      <trkpt lat="43.50866" lon="5.29558">
        <ele>232.9</ele>
        <time>2025-05-07T10:25:24.000Z</time>
      </trkpt>
      <trkpt lat="43.50865" lon="5.29555">
        <ele>233</ele>
        <time>2025-05-07T10:25:27.000Z</time>
      </trkpt>
      <trkpt lat="43.50864" lon="5.29552">
        <ele>233.1</ele>
        <time>2025-05-07T10:25:30.000Z</time>
      </trkpt>
      <trkpt lat="43.50863" lon="5.29549">
        <ele>233.2</ele>
        <time>2025-05-07T10:25:32.000Z</time>
      </trkpt>
      <trkpt lat="43.50863" lon="5.29545">
        <ele>233.3</ele>
        <time>2025-05-07T10:25:35.000Z</time>
      </trkpt>
      <trkpt lat="43.50863" lon="5.29542">
        <ele>233.4</ele>
        <time>2025-05-07T10:25:38.000Z</time>
      </trkpt>
      <trkpt lat="43.50862" lon="5.29539">
        <ele>233.5</ele>
        <time>2025-05-07T10:25:40.000Z</time>
      </trkpt>
      <trkpt lat="43.50861" lon="5.29536">
        <ele>233.7</ele>
        <time>2025-05-07T10:25:42.000Z</time>
      </trkpt>
      <trkpt lat="43.5086" lon="5.29532">
        <ele>233.9</ele>
        <time>2025-05-07T10:25:45.000Z</time>
      </trkpt>
      <trkpt lat="43.5086" lon="5.29529">
        <ele>234</ele>
        <time>2025-05-07T10:25:48.000Z</time>
      </trkpt>
      <trkpt lat="43.50859" lon="5.29526">
        <ele>234.2</ele>
        <time>2025-05-07T10:25:51.000Z</time>
      </trkpt>
      <trkpt lat="43.50858" lon="5.29522">
        <ele>234.3</ele>
        <time>2025-05-07T10:25:53.000Z</time>
      </trkpt>
      <trkpt lat="43.50857" lon="5.29519">
        <ele>234.4</ele>
        <time>2025-05-07T10:25:55.000Z</time>
      </trkpt>
      <trkpt lat="43.50857" lon="5.29517">
        <ele>234.6</ele>
        <time>2025-05-07T10:25:57.000Z</time>
      </trkpt>
      <trkpt lat="43.50856" lon="5.29513">
        <ele>234.7</ele>
        <time>2025-05-07T10:26:00.000Z</time>
      </trkpt>
      <trkpt lat="43.50855" lon="5.2951">
        <ele>234.9</ele>
        <time>2025-05-07T10:26:02.000Z</time>
      </trkpt>
      <trkpt lat="43.50854" lon="5.29507">
        <ele>235</ele>
        <time>2025-05-07T10:26:04.000Z</time>
      </trkpt>
      <trkpt lat="43.50853" lon="5.29505">
        <ele>235.1</ele>
        <time>2025-05-07T10:26:06.000Z</time>
      </trkpt>
      <trkpt lat="43.50852" lon="5.29503">
        <ele>235.2</ele>
        <time>2025-05-07T10:26:08.000Z</time>
      </trkpt>
      <trkpt lat="43.50851" lon="5.295">
        <ele>235.3</ele>
        <time>2025-05-07T10:26:10.000Z</time>
      </trkpt>
      <trkpt lat="43.50849" lon="5.29498">
        <ele>235.5</ele>
        <time>2025-05-07T10:26:13.000Z</time>
      </trkpt>
      <trkpt lat="43.50848" lon="5.29496">
        <ele>235.6</ele>
        <time>2025-05-07T10:26:15.000Z</time>
      </trkpt>
      <trkpt lat="43.50847" lon="5.29493">
        <ele>235.8</ele>
        <time>2025-05-07T10:26:18.000Z</time>
      </trkpt>
      <trkpt lat="43.50846" lon="5.2949">
        <ele>235.9</ele>
        <time>2025-05-07T10:26:20.000Z</time>
      </trkpt>
      <trkpt lat="43.50845" lon="5.29488">
        <ele>236</ele>
        <time>2025-05-07T10:26:22.000Z</time>
      </trkpt>
      <trkpt lat="43.50844" lon="5.29486">
        <ele>236.1</ele>
        <time>2025-05-07T10:26:24.000Z</time>
      </trkpt>
      <trkpt lat="43.50843" lon="5.29483">
        <ele>236.3</ele>
        <time>2025-05-07T10:26:26.000Z</time>
      </trkpt>
      <trkpt lat="43.50841" lon="5.2948">
        <ele>236.4</ele>
        <time>2025-05-07T10:26:28.000Z</time>
      </trkpt>
      <trkpt lat="43.50839" lon="5.29477">
        <ele>236.6</ele>
        <time>2025-05-07T10:26:30.000Z</time>
      </trkpt>
      <trkpt lat="43.50838" lon="5.29473">
        <ele>236.8</ele>
        <time>2025-05-07T10:26:33.000Z</time>
      </trkpt>
      <trkpt lat="43.50837" lon="5.2947">
        <ele>236.9</ele>
        <time>2025-05-07T10:26:36.000Z</time>
      </trkpt>
      <trkpt lat="43.50837" lon="5.29468">
        <ele>237.1</ele>
        <time>2025-05-07T10:26:39.000Z</time>
      </trkpt>
      <trkpt lat="43.50837" lon="5.29463">
        <ele>237.2</ele>
        <time>2025-05-07T10:26:43.000Z</time>
      </trkpt>
      <trkpt lat="43.50837" lon="5.2946">
        <ele>237.3</ele>
        <time>2025-05-07T10:26:46.000Z</time>
      </trkpt>
      <trkpt lat="43.50836" lon="5.29457">
        <ele>237.4</ele>
        <time>2025-05-07T10:26:49.000Z</time>
      </trkpt>
      <trkpt lat="43.50836" lon="5.29454">
        <ele>237.5</ele>
        <time>2025-05-07T10:26:51.000Z</time>
      </trkpt>
      <trkpt lat="43.50836" lon="5.29452">
        <ele>237.6</ele>
        <time>2025-05-07T10:26:53.000Z</time>
      </trkpt>
      <trkpt lat="43.50836" lon="5.29449">
        <ele>237.8</ele>
        <time>2025-05-07T10:26:56.000Z</time>
      </trkpt>
      <trkpt lat="43.50835" lon="5.29445">
        <ele>237.9</ele>
        <time>2025-05-07T10:26:59.000Z</time>
      </trkpt>
      <trkpt lat="43.50834" lon="5.29443">
        <ele>238</ele>
        <time>2025-05-07T10:27:01.000Z</time>
      </trkpt>
      <trkpt lat="43.50834" lon="5.2944">
        <ele>238.1</ele>
        <time>2025-05-07T10:27:03.000Z</time>
      </trkpt>
      <trkpt lat="43.50834" lon="5.29437">
        <ele>238.2</ele>
        <time>2025-05-07T10:27:05.000Z</time>
      </trkpt>
      <trkpt lat="43.50834" lon="5.29434">
        <ele>238.4</ele>
        <time>2025-05-07T10:27:07.000Z</time>
      </trkpt>
      <trkpt lat="43.50833" lon="5.29432">
        <ele>238.5</ele>
        <time>2025-05-07T10:27:09.000Z</time>
      </trkpt>
      <trkpt lat="43.50832" lon="5.29429">
        <ele>238.6</ele>
        <time>2025-05-07T10:27:11.000Z</time>
      </trkpt>
      <trkpt lat="43.50831" lon="5.29426">
        <ele>238.8</ele>
        <time>2025-05-07T10:27:13.000Z</time>
      </trkpt>
      <trkpt lat="43.50831" lon="5.29423">
        <ele>238.9</ele>
        <time>2025-05-07T10:27:15.000Z</time>
      </trkpt>
      <trkpt lat="43.5083" lon="5.2942">
        <ele>239</ele>
        <time>2025-05-07T10:27:17.000Z</time>
      </trkpt>
      <trkpt lat="43.5083" lon="5.29417">
        <ele>239.1</ele>
        <time>2025-05-07T10:27:20.000Z</time>
      </trkpt>
      <trkpt lat="43.50829" lon="5.29414">
        <ele>239.1</ele>
        <time>2025-05-07T10:27:22.000Z</time>
      </trkpt>
      <trkpt lat="43.50828" lon="5.29412">
        <ele>239.1</ele>
        <time>2025-05-07T10:27:24.000Z</time>
      </trkpt>
      <trkpt lat="43.50827" lon="5.29409">
        <ele>239</ele>
        <time>2025-05-07T10:27:26.000Z</time>
      </trkpt>
      <trkpt lat="43.50826" lon="5.29407">
        <ele>239</ele>
        <time>2025-05-07T10:27:28.000Z</time>
      </trkpt>
      <trkpt lat="43.50825" lon="5.29404">
        <ele>239</ele>
        <time>2025-05-07T10:27:31.000Z</time>
      </trkpt>
      <trkpt lat="43.50823" lon="5.29402">
        <ele>239</ele>
        <time>2025-05-07T10:27:48.000Z</time>
      </trkpt>
      <trkpt lat="43.50823" lon="5.29399">
        <ele>239</ele>
        <time>2025-05-07T10:27:50.000Z</time>
      </trkpt>
      <trkpt lat="43.50821" lon="5.29397">
        <ele>239</ele>
        <time>2025-05-07T10:27:52.000Z</time>
      </trkpt>
      <trkpt lat="43.5082" lon="5.29394">
        <ele>239</ele>
        <time>2025-05-07T10:27:54.000Z</time>
      </trkpt>
      <trkpt lat="43.5082" lon="5.29391">
        <ele>239</ele>
        <time>2025-05-07T10:27:56.000Z</time>
      </trkpt>
      <trkpt lat="43.50819" lon="5.29389">
        <ele>239</ele>
        <time>2025-05-07T10:27:58.000Z</time>
      </trkpt>
      <trkpt lat="43.50818" lon="5.29386">
        <ele>239</ele>
        <time>2025-05-07T10:28:00.000Z</time>
      </trkpt>
      <trkpt lat="43.50817" lon="5.29383">
        <ele>238.9</ele>
        <time>2025-05-07T10:28:03.000Z</time>
      </trkpt>
      <trkpt lat="43.50815" lon="5.29381">
        <ele>238.9</ele>
        <time>2025-05-07T10:28:05.000Z</time>
      </trkpt>
      <trkpt lat="43.50814" lon="5.29379">
        <ele>239</ele>
        <time>2025-05-07T10:28:07.000Z</time>
      </trkpt>
      <trkpt lat="43.50812" lon="5.29378">
        <ele>239</ele>
        <time>2025-05-07T10:28:09.000Z</time>
      </trkpt>
      <trkpt lat="43.50811" lon="5.29374">
        <ele>239</ele>
        <time>2025-05-07T10:28:11.000Z</time>
      </trkpt>
      <trkpt lat="43.5081" lon="5.29372">
        <ele>238.9</ele>
        <time>2025-05-07T10:28:14.000Z</time>
      </trkpt>
      <trkpt lat="43.50809" lon="5.29369">
        <ele>239</ele>
        <time>2025-05-07T10:28:16.000Z</time>
      </trkpt>
      <trkpt lat="43.50808" lon="5.29365">
        <ele>238.9</ele>
        <time>2025-05-07T10:28:18.000Z</time>
      </trkpt>
      <trkpt lat="43.50807" lon="5.29362">
        <ele>238.9</ele>
        <time>2025-05-07T10:28:21.000Z</time>
      </trkpt>
      <trkpt lat="43.50806" lon="5.2936">
        <ele>239</ele>
        <time>2025-05-07T10:28:23.000Z</time>
      </trkpt>
      <trkpt lat="43.50806" lon="5.29357">
        <ele>239.1</ele>
        <time>2025-05-07T10:28:25.000Z</time>
      </trkpt>
      <trkpt lat="43.50805" lon="5.29354">
        <ele>239.3</ele>
        <time>2025-05-07T10:28:27.000Z</time>
      </trkpt>
      <trkpt lat="43.50805" lon="5.29351">
        <ele>239.4</ele>
        <time>2025-05-07T10:28:30.000Z</time>
      </trkpt>
      <trkpt lat="43.50804" lon="5.29347">
        <ele>239.6</ele>
        <time>2025-05-07T10:28:33.000Z</time>
      </trkpt>
      <trkpt lat="43.50803" lon="5.29344">
        <ele>239.7</ele>
        <time>2025-05-07T10:28:35.000Z</time>
      </trkpt>
      <trkpt lat="43.50803" lon="5.29341">
        <ele>239.8</ele>
        <time>2025-05-07T10:28:37.000Z</time>
      </trkpt>
      <trkpt lat="43.50802" lon="5.29339">
        <ele>239.9</ele>
        <time>2025-05-07T10:28:39.000Z</time>
      </trkpt>
      <trkpt lat="43.50801" lon="5.29335">
        <ele>240.1</ele>
        <time>2025-05-07T10:28:42.000Z</time>
      </trkpt>
      <trkpt lat="43.50801" lon="5.29331">
        <ele>240.3</ele>
        <time>2025-05-07T10:28:45.000Z</time>
      </trkpt>
      <trkpt lat="43.50801" lon="5.29328">
        <ele>240.5</ele>
        <time>2025-05-07T10:28:48.000Z</time>
      </trkpt>
      <trkpt lat="43.508" lon="5.29324">
        <ele>240.7</ele>
        <time>2025-05-07T10:28:51.000Z</time>
      </trkpt>
      <trkpt lat="43.50799" lon="5.29322">
        <ele>240.9</ele>
        <time>2025-05-07T10:28:53.000Z</time>
      </trkpt>
      <trkpt lat="43.50799" lon="5.29319">
        <ele>241</ele>
        <time>2025-05-07T10:28:55.000Z</time>
      </trkpt>
      <trkpt lat="43.50798" lon="5.29316">
        <ele>241.2</ele>
        <time>2025-05-07T10:28:57.000Z</time>
      </trkpt>
      <trkpt lat="43.50797" lon="5.29314">
        <ele>241.3</ele>
        <time>2025-05-07T10:28:59.000Z</time>
      </trkpt>
      <trkpt lat="43.50796" lon="5.29311">
        <ele>241.4</ele>
        <time>2025-05-07T10:29:01.000Z</time>
      </trkpt>
      <trkpt lat="43.50795" lon="5.29308">
        <ele>241.5</ele>
        <time>2025-05-07T10:29:04.000Z</time>
      </trkpt>
      <trkpt lat="43.50794" lon="5.29304">
        <ele>241.6</ele>
        <time>2025-05-07T10:29:08.000Z</time>
      </trkpt>
      <trkpt lat="43.50793" lon="5.29302">
        <ele>241.7</ele>
        <time>2025-05-07T10:29:10.000Z</time>
      </trkpt>
      <trkpt lat="43.50792" lon="5.29299">
        <ele>241.7</ele>
        <time>2025-05-07T10:29:12.000Z</time>
      </trkpt>
      <trkpt lat="43.50791" lon="5.29296">
        <ele>241.8</ele>
        <time>2025-05-07T10:29:14.000Z</time>
      </trkpt>
      <trkpt lat="43.50791" lon="5.29292">
        <ele>241.9</ele>
        <time>2025-05-07T10:29:17.000Z</time>
      </trkpt>
      <trkpt lat="43.5079" lon="5.29289">
        <ele>242.1</ele>
        <time>2025-05-07T10:29:19.000Z</time>
      </trkpt>
      <trkpt lat="43.5079" lon="5.29286">
        <ele>242.1</ele>
        <time>2025-05-07T10:29:22.000Z</time>
      </trkpt>
      <trkpt lat="43.50789" lon="5.29283">
        <ele>242.2</ele>
        <time>2025-05-07T10:29:25.000Z</time>
      </trkpt>
      <trkpt lat="43.50789" lon="5.29281">
        <ele>242.3</ele>
        <time>2025-05-07T10:29:28.000Z</time>
      </trkpt>
      <trkpt lat="43.50789" lon="5.29277">
        <ele>242.4</ele>
        <time>2025-05-07T10:30:03.000Z</time>
      </trkpt>
      <trkpt lat="43.50789" lon="5.29275">
        <ele>242.4</ele>
        <time>2025-05-07T10:30:07.000Z</time>
      </trkpt>
      <trkpt lat="43.5079" lon="5.29272">
        <ele>242.4</ele>
        <time>2025-05-07T10:30:10.000Z</time>
      </trkpt>
      <trkpt lat="43.5079" lon="5.29269">
        <ele>242.4</ele>
        <time>2025-05-07T10:30:13.000Z</time>
      </trkpt>
      <trkpt lat="43.5079" lon="5.29267">
        <ele>242.4</ele>
        <time>2025-05-07T10:30:15.000Z</time>
      </trkpt>
      <trkpt lat="43.5079" lon="5.29264">
        <ele>242.4</ele>
        <time>2025-05-07T10:30:17.000Z</time>
      </trkpt>
      <trkpt lat="43.5079" lon="5.29261">
        <ele>242.4</ele>
        <time>2025-05-07T10:30:19.000Z</time>
      </trkpt>
      <trkpt lat="43.5079" lon="5.29259">
        <ele>242.4</ele>
        <time>2025-05-07T10:30:21.000Z</time>
      </trkpt>
      <trkpt lat="43.5079" lon="5.29255">
        <ele>242.4</ele>
        <time>2025-05-07T10:30:23.000Z</time>
      </trkpt>
      <trkpt lat="43.5079" lon="5.29252">
        <ele>242.4</ele>
        <time>2025-05-07T10:30:26.000Z</time>
      </trkpt>
      <trkpt lat="43.50789" lon="5.29249">
        <ele>242.4</ele>
        <time>2025-05-07T10:30:28.000Z</time>
      </trkpt>
      <trkpt lat="43.50789" lon="5.29244">
        <ele>242.5</ele>
        <time>2025-05-07T10:30:31.000Z</time>
      </trkpt>
      <trkpt lat="43.50789" lon="5.29241">
        <ele>242.6</ele>
        <time>2025-05-07T10:30:34.000Z</time>
      </trkpt>
      <trkpt lat="43.5079" lon="5.29238">
        <ele>242.6</ele>
        <time>2025-05-07T10:30:36.000Z</time>
      </trkpt>
      <trkpt lat="43.50789" lon="5.29235">
        <ele>242.6</ele>
        <time>2025-05-07T10:30:38.000Z</time>
      </trkpt>
      <trkpt lat="43.50789" lon="5.29232">
        <ele>242.7</ele>
        <time>2025-05-07T10:30:40.000Z</time>
      </trkpt>
      <trkpt lat="43.50789" lon="5.29229">
        <ele>242.7</ele>
        <time>2025-05-07T10:30:42.000Z</time>
      </trkpt>
      <trkpt lat="43.50789" lon="5.29226">
        <ele>242.7</ele>
        <time>2025-05-07T10:30:44.000Z</time>
      </trkpt>
      <trkpt lat="43.50788" lon="5.29223">
        <ele>242.8</ele>
        <time>2025-05-07T10:30:46.000Z</time>
      </trkpt>
      <trkpt lat="43.50789" lon="5.2922">
        <ele>242.8</ele>
        <time>2025-05-07T10:30:48.000Z</time>
      </trkpt>
      <trkpt lat="43.50789" lon="5.29217">
        <ele>242.8</ele>
        <time>2025-05-07T10:30:50.000Z</time>
      </trkpt>
      <trkpt lat="43.50789" lon="5.29214">
        <ele>242.8</ele>
        <time>2025-05-07T10:30:52.000Z</time>
      </trkpt>
      <trkpt lat="43.50789" lon="5.29209">
        <ele>242.8</ele>
        <time>2025-05-07T10:30:56.000Z</time>
      </trkpt>
      <trkpt lat="43.5079" lon="5.29206">
        <ele>242.9</ele>
        <time>2025-05-07T10:30:58.000Z</time>
      </trkpt>
      <trkpt lat="43.50789" lon="5.29203">
        <ele>242.8</ele>
        <time>2025-05-07T10:31:00.000Z</time>
      </trkpt>
      <trkpt lat="43.50789" lon="5.292">
        <ele>242.8</ele>
        <time>2025-05-07T10:31:02.000Z</time>
      </trkpt>
      <trkpt lat="43.50789" lon="5.29197">
        <ele>242.8</ele>
        <time>2025-05-07T10:31:04.000Z</time>
      </trkpt>
      <trkpt lat="43.50789" lon="5.29194">
        <ele>242.8</ele>
        <time>2025-05-07T10:31:06.000Z</time>
      </trkpt>
      <trkpt lat="43.50788" lon="5.29191">
        <ele>242.8</ele>
        <time>2025-05-07T10:31:08.000Z</time>
      </trkpt>
      <trkpt lat="43.50788" lon="5.29188">
        <ele>242.7</ele>
        <time>2025-05-07T10:31:10.000Z</time>
      </trkpt>
      <trkpt lat="43.50788" lon="5.29185">
        <ele>242.7</ele>
        <time>2025-05-07T10:31:12.000Z</time>
      </trkpt>
      <trkpt lat="43.50788" lon="5.29182">
        <ele>242.8</ele>
        <time>2025-05-07T10:31:14.000Z</time>
      </trkpt>
      <trkpt lat="43.50789" lon="5.29178">
        <ele>242.8</ele>
        <time>2025-05-07T10:31:16.000Z</time>
      </trkpt>
      <trkpt lat="43.50789" lon="5.29174">
        <ele>242.8</ele>
        <time>2025-05-07T10:31:20.000Z</time>
      </trkpt>
      <trkpt lat="43.50789" lon="5.29171">
        <ele>242.8</ele>
        <time>2025-05-07T10:31:22.000Z</time>
      </trkpt>
      <trkpt lat="43.50791" lon="5.29168">
        <ele>242.9</ele>
        <time>2025-05-07T10:31:26.000Z</time>
      </trkpt>
      <trkpt lat="43.50791" lon="5.29163">
        <ele>242.9</ele>
        <time>2025-05-07T10:31:28.000Z</time>
      </trkpt>
      <trkpt lat="43.5079" lon="5.2916">
        <ele>242.9</ele>
        <time>2025-05-07T10:31:29.000Z</time>
      </trkpt>
      <trkpt lat="43.50789" lon="5.29157">
        <ele>242.8</ele>
        <time>2025-05-07T10:31:31.000Z</time>
      </trkpt>
      <trkpt lat="43.50789" lon="5.29152">
        <ele>242.8</ele>
        <time>2025-05-07T10:31:33.000Z</time>
      </trkpt>
      <trkpt lat="43.5079" lon="5.29149">
        <ele>242.9</ele>
        <time>2025-05-07T10:31:35.000Z</time>
      </trkpt>
      <trkpt lat="43.5079" lon="5.29147">
        <ele>242.9</ele>
        <time>2025-05-07T10:31:37.000Z</time>
      </trkpt>
      <trkpt lat="43.50789" lon="5.29143">
        <ele>242.8</ele>
        <time>2025-05-07T10:31:39.000Z</time>
      </trkpt>
      <trkpt lat="43.50789" lon="5.2914">
        <ele>242.8</ele>
        <time>2025-05-07T10:31:41.000Z</time>
      </trkpt>
      <trkpt lat="43.50789" lon="5.29137">
        <ele>242.9</ele>
        <time>2025-05-07T10:31:43.000Z</time>
      </trkpt>
      <trkpt lat="43.50789" lon="5.29135">
        <ele>243</ele>
        <time>2025-05-07T10:31:45.000Z</time>
      </trkpt>
      <trkpt lat="43.50789" lon="5.29132">
        <ele>243.1</ele>
        <time>2025-05-07T10:31:47.000Z</time>
      </trkpt>
      <trkpt lat="43.50789" lon="5.29129">
        <ele>243.2</ele>
        <time>2025-05-07T10:31:49.000Z</time>
      </trkpt>
      <trkpt lat="43.50789" lon="5.29126">
        <ele>243.3</ele>
        <time>2025-05-07T10:31:51.000Z</time>
      </trkpt>
      <trkpt lat="43.50789" lon="5.29123">
        <ele>243.4</ele>
        <time>2025-05-07T10:31:53.000Z</time>
      </trkpt>
      <trkpt lat="43.50789" lon="5.2912">
        <ele>243.5</ele>
        <time>2025-05-07T10:31:55.000Z</time>
      </trkpt>
      <trkpt lat="43.5079" lon="5.29117">
        <ele>243.6</ele>
        <time>2025-05-07T10:31:57.000Z</time>
      </trkpt>
      <trkpt lat="43.5079" lon="5.29114">
        <ele>243.8</ele>
        <time>2025-05-07T10:32:00.000Z</time>
      </trkpt>
      <trkpt lat="43.5079" lon="5.29111">
        <ele>243.9</ele>
        <time>2025-05-07T10:32:02.000Z</time>
      </trkpt>
      <trkpt lat="43.5079" lon="5.29108">
        <ele>244.1</ele>
        <time>2025-05-07T10:32:04.000Z</time>
      </trkpt>
      <trkpt lat="43.5079" lon="5.29105">
        <ele>244.3</ele>
        <time>2025-05-07T10:32:06.000Z</time>
      </trkpt>
      <trkpt lat="43.5079" lon="5.29102">
        <ele>244.5</ele>
        <time>2025-05-07T10:32:08.000Z</time>
      </trkpt>
      <trkpt lat="43.50791" lon="5.291">
        <ele>244.7</ele>
        <time>2025-05-07T10:32:10.000Z</time>
      </trkpt>
      <trkpt lat="43.50791" lon="5.29096">
        <ele>245</ele>
        <time>2025-05-07T10:32:13.000Z</time>
      </trkpt>
      <trkpt lat="43.50791" lon="5.29094">
        <ele>245.2</ele>
        <time>2025-05-07T10:32:15.000Z</time>
      </trkpt>
      <trkpt lat="43.50792" lon="5.29091">
        <ele>245.5</ele>
        <time>2025-05-07T10:32:17.000Z</time>
      </trkpt>
      <trkpt lat="43.50793" lon="5.29089">
        <ele>245.7</ele>
        <time>2025-05-07T10:32:19.000Z</time>
      </trkpt>
      <trkpt lat="43.50794" lon="5.29086">
        <ele>246</ele>
        <time>2025-05-07T10:32:21.000Z</time>
      </trkpt>
      <trkpt lat="43.50795" lon="5.29083">
        <ele>246.2</ele>
        <time>2025-05-07T10:32:23.000Z</time>
      </trkpt>
      <trkpt lat="43.50795" lon="5.2908">
        <ele>246.2</ele>
        <time>2025-05-07T10:32:25.000Z</time>
      </trkpt>
      <trkpt lat="43.50796" lon="5.29078">
        <ele>246.3</ele>
        <time>2025-05-07T10:32:27.000Z</time>
      </trkpt>
      <trkpt lat="43.50797" lon="5.29075">
        <ele>246.4</ele>
        <time>2025-05-07T10:32:29.000Z</time>
      </trkpt>
      <trkpt lat="43.50798" lon="5.29072">
        <ele>246.4</ele>
        <time>2025-05-07T10:32:31.000Z</time>
      </trkpt>
      <trkpt lat="43.50798" lon="5.29069">
        <ele>246.5</ele>
        <time>2025-05-07T10:32:33.000Z</time>
      </trkpt>
      <trkpt lat="43.508" lon="5.29066">
        <ele>246.6</ele>
        <time>2025-05-07T10:32:36.000Z</time>
      </trkpt>
      <trkpt lat="43.50801" lon="5.29063">
        <ele>246.7</ele>
        <time>2025-05-07T10:32:38.000Z</time>
      </trkpt>
      <trkpt lat="43.50802" lon="5.2906">
        <ele>246.7</ele>
        <time>2025-05-07T10:32:41.000Z</time>
      </trkpt>
      <trkpt lat="43.50803" lon="5.29057">
        <ele>246.8</ele>
        <time>2025-05-07T10:32:43.000Z</time>
      </trkpt>
      <trkpt lat="43.50804" lon="5.29055">
        <ele>246.9</ele>
        <time>2025-05-07T10:32:45.000Z</time>
      </trkpt>
      <trkpt lat="43.50806" lon="5.29052">
        <ele>247</ele>
        <time>2025-05-07T10:32:48.000Z</time>
      </trkpt>
      <trkpt lat="43.50807" lon="5.2905">
        <ele>247.1</ele>
        <time>2025-05-07T10:32:50.000Z</time>
      </trkpt>
      <trkpt lat="43.50808" lon="5.29047">
        <ele>247.2</ele>
        <time>2025-05-07T10:32:52.000Z</time>
      </trkpt>
      <trkpt lat="43.50809" lon="5.29045">
        <ele>247.3</ele>
        <time>2025-05-07T10:32:54.000Z</time>
      </trkpt>
      <trkpt lat="43.50811" lon="5.29043">
        <ele>247.4</ele>
        <time>2025-05-07T10:32:56.000Z</time>
      </trkpt>
      <trkpt lat="43.50812" lon="5.29041">
        <ele>247.4</ele>
        <time>2025-05-07T10:32:58.000Z</time>
      </trkpt>
      <trkpt lat="43.50813" lon="5.29039">
        <ele>247.6</ele>
        <time>2025-05-07T10:33:00.000Z</time>
      </trkpt>
      <trkpt lat="43.50815" lon="5.29037">
        <ele>247.7</ele>
        <time>2025-05-07T10:33:02.000Z</time>
      </trkpt>
      <trkpt lat="43.50816" lon="5.29034">
        <ele>247.7</ele>
        <time>2025-05-07T10:33:04.000Z</time>
      </trkpt>
      <trkpt lat="43.50817" lon="5.29031">
        <ele>247.8</ele>
        <time>2025-05-07T10:33:06.000Z</time>
      </trkpt>
      <trkpt lat="43.50819" lon="5.29029">
        <ele>247.9</ele>
        <time>2025-05-07T10:33:08.000Z</time>
      </trkpt>
      <trkpt lat="43.5082" lon="5.29026">
        <ele>248</ele>
        <time>2025-05-07T10:33:10.000Z</time>
      </trkpt>
      <trkpt lat="43.50821" lon="5.29024">
        <ele>248.1</ele>
        <time>2025-05-07T10:33:12.000Z</time>
      </trkpt>
      <trkpt lat="43.50822" lon="5.29021">
        <ele>248.2</ele>
        <time>2025-05-07T10:33:14.000Z</time>
      </trkpt>
      <trkpt lat="43.50823" lon="5.29019">
        <ele>248.3</ele>
        <time>2025-05-07T10:33:16.000Z</time>
      </trkpt>
      <trkpt lat="43.50825" lon="5.29016">
        <ele>248.4</ele>
        <time>2025-05-07T10:33:18.000Z</time>
      </trkpt>
      <trkpt lat="43.50826" lon="5.29013">
        <ele>248.5</ele>
        <time>2025-05-07T10:33:20.000Z</time>
      </trkpt>
      <trkpt lat="43.50828" lon="5.29011">
        <ele>248.6</ele>
        <time>2025-05-07T10:33:22.000Z</time>
      </trkpt>
      <trkpt lat="43.50829" lon="5.29009">
        <ele>248.7</ele>
        <time>2025-05-07T10:33:24.000Z</time>
      </trkpt>
      <trkpt lat="43.5083" lon="5.29006">
        <ele>248.8</ele>
        <time>2025-05-07T10:33:26.000Z</time>
      </trkpt>
      <trkpt lat="43.50832" lon="5.29003">
        <ele>248.9</ele>
        <time>2025-05-07T10:33:28.000Z</time>
      </trkpt>
      <trkpt lat="43.50834" lon="5.29">
        <ele>249</ele>
        <time>2025-05-07T10:33:30.000Z</time>
      </trkpt>
      <trkpt lat="43.50835" lon="5.28998">
        <ele>249.1</ele>
        <time>2025-05-07T10:33:32.000Z</time>
      </trkpt>
      <trkpt lat="43.50836" lon="5.28996">
        <ele>249.2</ele>
        <time>2025-05-07T10:33:34.000Z</time>
      </trkpt>
      <trkpt lat="43.50837" lon="5.28993">
        <ele>249.3</ele>
        <time>2025-05-07T10:33:36.000Z</time>
      </trkpt>
      <trkpt lat="43.50839" lon="5.28991">
        <ele>249.4</ele>
        <time>2025-05-07T10:33:38.000Z</time>
      </trkpt>
      <trkpt lat="43.5084" lon="5.28988">
        <ele>249.5</ele>
        <time>2025-05-07T10:33:40.000Z</time>
      </trkpt>
      <trkpt lat="43.50842" lon="5.28985">
        <ele>249.6</ele>
        <time>2025-05-07T10:33:42.000Z</time>
      </trkpt>
      <trkpt lat="43.50843" lon="5.28982">
        <ele>249.7</ele>
        <time>2025-05-07T10:33:45.000Z</time>
      </trkpt>
      <trkpt lat="43.50844" lon="5.2898">
        <ele>249.8</ele>
        <time>2025-05-07T10:33:47.000Z</time>
      </trkpt>
      <trkpt lat="43.50846" lon="5.28977">
        <ele>249.9</ele>
        <time>2025-05-07T10:33:49.000Z</time>
      </trkpt>
      <trkpt lat="43.50847" lon="5.28972">
        <ele>250</ele>
        <time>2025-05-07T10:33:52.000Z</time>
      </trkpt>
      <trkpt lat="43.50849" lon="5.28969">
        <ele>250.1</ele>
        <time>2025-05-07T10:33:54.000Z</time>
      </trkpt>
      <trkpt lat="43.50849" lon="5.28966">
        <ele>250.1</ele>
        <time>2025-05-07T10:33:56.000Z</time>
      </trkpt>
      <trkpt lat="43.5085" lon="5.28963">
        <ele>250.2</ele>
        <time>2025-05-07T10:33:58.000Z</time>
      </trkpt>
      <trkpt lat="43.5085" lon="5.2896">
        <ele>250.2</ele>
        <time>2025-05-07T10:34:00.000Z</time>
      </trkpt>
      <trkpt lat="43.50852" lon="5.28957">
        <ele>250.3</ele>
        <time>2025-05-07T10:34:02.000Z</time>
      </trkpt>
      <trkpt lat="43.50853" lon="5.28954">
        <ele>250.4</ele>
        <time>2025-05-07T10:34:04.000Z</time>
      </trkpt>
      <trkpt lat="43.50854" lon="5.28951">
        <ele>250.5</ele>
        <time>2025-05-07T10:34:06.000Z</time>
      </trkpt>
      <trkpt lat="43.50854" lon="5.28948">
        <ele>250.5</ele>
        <time>2025-05-07T10:34:08.000Z</time>
      </trkpt>
      <trkpt lat="43.50855" lon="5.28945">
        <ele>250.6</ele>
        <time>2025-05-07T10:34:10.000Z</time>
      </trkpt>
      <trkpt lat="43.50855" lon="5.28942">
        <ele>250.6</ele>
        <time>2025-05-07T10:34:12.000Z</time>
      </trkpt>
      <trkpt lat="43.50856" lon="5.28939">
        <ele>250.6</ele>
        <time>2025-05-07T10:34:14.000Z</time>
      </trkpt>
      <trkpt lat="43.50857" lon="5.28937">
        <ele>250.7</ele>
        <time>2025-05-07T10:34:16.000Z</time>
      </trkpt>
      <trkpt lat="43.50858" lon="5.28934">
        <ele>250.8</ele>
        <time>2025-05-07T10:34:18.000Z</time>
      </trkpt>
      <trkpt lat="43.50859" lon="5.28931">
        <ele>250.8</ele>
        <time>2025-05-07T10:34:20.000Z</time>
      </trkpt>
      <trkpt lat="43.5086" lon="5.28928">
        <ele>250.9</ele>
        <time>2025-05-07T10:34:22.000Z</time>
      </trkpt>
      <trkpt lat="43.50861" lon="5.28925">
        <ele>251</ele>
        <time>2025-05-07T10:34:24.000Z</time>
      </trkpt>
      <trkpt lat="43.50861" lon="5.28922">
        <ele>251</ele>
        <time>2025-05-07T10:34:26.000Z</time>
      </trkpt>
      <trkpt lat="43.50863" lon="5.28919">
        <ele>251.1</ele>
        <time>2025-05-07T10:34:28.000Z</time>
      </trkpt>
      <trkpt lat="43.50865" lon="5.28916">
        <ele>251.1</ele>
        <time>2025-05-07T10:34:31.000Z</time>
      </trkpt>
      <trkpt lat="43.50866" lon="5.28914">
        <ele>251.1</ele>
        <time>2025-05-07T10:34:33.000Z</time>
      </trkpt>
      <trkpt lat="43.50868" lon="5.28911">
        <ele>251</ele>
        <time>2025-05-07T10:34:36.000Z</time>
      </trkpt>
      <trkpt lat="43.50869" lon="5.28908">
        <ele>251</ele>
        <time>2025-05-07T10:34:41.000Z</time>
      </trkpt>
      <trkpt lat="43.50869" lon="5.28904">
        <ele>250.8</ele>
        <time>2025-05-07T10:34:43.000Z</time>
      </trkpt>
      <trkpt lat="43.5087" lon="5.28902">
        <ele>250.8</ele>
        <time>2025-05-07T10:34:45.000Z</time>
      </trkpt>
      <trkpt lat="43.5087" lon="5.28899">
        <ele>250.7</ele>
        <time>2025-05-07T10:34:47.000Z</time>
      </trkpt>
      <trkpt lat="43.50869" lon="5.28896">
        <ele>250.6</ele>
        <time>2025-05-07T10:34:49.000Z</time>
      </trkpt>
      <trkpt lat="43.50869" lon="5.28893">
        <ele>250.4</ele>
        <time>2025-05-07T10:34:51.000Z</time>
      </trkpt>
      <trkpt lat="43.50869" lon="5.2889">
        <ele>250.3</ele>
        <time>2025-05-07T10:34:53.000Z</time>
      </trkpt>
      <trkpt lat="43.50869" lon="5.28886">
        <ele>250.3</ele>
        <time>2025-05-07T10:34:55.000Z</time>
      </trkpt>
      <trkpt lat="43.50869" lon="5.28883">
        <ele>250.2</ele>
        <time>2025-05-07T10:34:57.000Z</time>
      </trkpt>
      <trkpt lat="43.50869" lon="5.28881">
        <ele>250.2</ele>
        <time>2025-05-07T10:34:59.000Z</time>
      </trkpt>
      <trkpt lat="43.5087" lon="5.28878">
        <ele>250.2</ele>
        <time>2025-05-07T10:35:01.000Z</time>
      </trkpt>
      <trkpt lat="43.5087" lon="5.28874">
        <ele>250.2</ele>
        <time>2025-05-07T10:35:03.000Z</time>
      </trkpt>
      <trkpt lat="43.5087" lon="5.28872">
        <ele>250.1</ele>
        <time>2025-05-07T10:35:05.000Z</time>
      </trkpt>
      <trkpt lat="43.5087" lon="5.28868">
        <ele>250.1</ele>
        <time>2025-05-07T10:35:07.000Z</time>
      </trkpt>
      <trkpt lat="43.50871" lon="5.28865">
        <ele>250</ele>
        <time>2025-05-07T10:35:09.000Z</time>
      </trkpt>
      <trkpt lat="43.5087" lon="5.28862">
        <ele>250</ele>
        <time>2025-05-07T10:35:11.000Z</time>
      </trkpt>
      <trkpt lat="43.5087" lon="5.28859">
        <ele>249.9</ele>
        <time>2025-05-07T10:35:13.000Z</time>
      </trkpt>
      <trkpt lat="43.5087" lon="5.28855">
        <ele>249.8</ele>
        <time>2025-05-07T10:35:15.000Z</time>
      </trkpt>
      <trkpt lat="43.50871" lon="5.28852">
        <ele>249.7</ele>
        <time>2025-05-07T10:35:18.000Z</time>
      </trkpt>
      <trkpt lat="43.50871" lon="5.28848">
        <ele>249.5</ele>
        <time>2025-05-07T10:35:21.000Z</time>
      </trkpt>
      <trkpt lat="43.50871" lon="5.28845">
        <ele>249.4</ele>
        <time>2025-05-07T10:35:23.000Z</time>
      </trkpt>
      <trkpt lat="43.5087" lon="5.28841">
        <ele>249.3</ele>
        <time>2025-05-07T10:35:25.000Z</time>
      </trkpt>
      <trkpt lat="43.5087" lon="5.28838">
        <ele>249.2</ele>
        <time>2025-05-07T10:35:27.000Z</time>
      </trkpt>
      <trkpt lat="43.50869" lon="5.28835">
        <ele>249.1</ele>
        <time>2025-05-07T10:35:29.000Z</time>
      </trkpt>
      <trkpt lat="43.50868" lon="5.2883">
        <ele>248.9</ele>
        <time>2025-05-07T10:35:32.000Z</time>
      </trkpt>
      <trkpt lat="43.50868" lon="5.28827">
        <ele>248.8</ele>
        <time>2025-05-07T10:35:34.000Z</time>
      </trkpt>
      <trkpt lat="43.50867" lon="5.28823">
        <ele>248.6</ele>
        <time>2025-05-07T10:35:36.000Z</time>
      </trkpt>
      <trkpt lat="43.50867" lon="5.2882">
        <ele>248.5</ele>
        <time>2025-05-07T10:35:38.000Z</time>
      </trkpt>
      <trkpt lat="43.50867" lon="5.28816">
        <ele>248.4</ele>
        <time>2025-05-07T10:35:40.000Z</time>
      </trkpt>
      <trkpt lat="43.50867" lon="5.28814">
        <ele>248.3</ele>
        <time>2025-05-07T10:35:42.000Z</time>
      </trkpt>
      <trkpt lat="43.50866" lon="5.2881">
        <ele>248.1</ele>
        <time>2025-05-07T10:35:44.000Z</time>
      </trkpt>
      <trkpt lat="43.50865" lon="5.28806">
        <ele>248</ele>
        <time>2025-05-07T10:35:46.000Z</time>
      </trkpt>
      <trkpt lat="43.50865" lon="5.28803">
        <ele>248</ele>
        <time>2025-05-07T10:35:48.000Z</time>
      </trkpt>
      <trkpt lat="43.50864" lon="5.288">
        <ele>248</ele>
        <time>2025-05-07T10:35:50.000Z</time>
      </trkpt>
      <trkpt lat="43.50864" lon="5.28796">
        <ele>248</ele>
        <time>2025-05-07T10:35:52.000Z</time>
      </trkpt>
      <trkpt lat="43.50864" lon="5.28792">
        <ele>248</ele>
        <time>2025-05-07T10:35:54.000Z</time>
      </trkpt>
      <trkpt lat="43.50863" lon="5.28787">
        <ele>248</ele>
        <time>2025-05-07T10:35:57.000Z</time>
      </trkpt>
      <trkpt lat="43.50862" lon="5.28784">
        <ele>248</ele>
        <time>2025-05-07T10:35:59.000Z</time>
      </trkpt>
      <trkpt lat="43.50862" lon="5.28781">
        <ele>248</ele>
        <time>2025-05-07T10:36:01.000Z</time>
      </trkpt>
      <trkpt lat="43.50861" lon="5.28778">
        <ele>248</ele>
        <time>2025-05-07T10:36:03.000Z</time>
      </trkpt>
      <trkpt lat="43.50861" lon="5.28775">
        <ele>248</ele>
        <time>2025-05-07T10:36:05.000Z</time>
      </trkpt>
      <trkpt lat="43.5086" lon="5.28772">
        <ele>247.9</ele>
        <time>2025-05-07T10:36:07.000Z</time>
      </trkpt>
      <trkpt lat="43.5086" lon="5.28768">
        <ele>247.9</ele>
        <time>2025-05-07T10:36:09.000Z</time>
      </trkpt>
      <trkpt lat="43.50859" lon="5.28765">
        <ele>247.9</ele>
        <time>2025-05-07T10:36:11.000Z</time>
      </trkpt>
      <trkpt lat="43.50858" lon="5.28761">
        <ele>247.8</ele>
        <time>2025-05-07T10:36:13.000Z</time>
      </trkpt>
      <trkpt lat="43.50858" lon="5.28757">
        <ele>247.8</ele>
        <time>2025-05-07T10:36:15.000Z</time>
      </trkpt>
      <trkpt lat="43.50858" lon="5.28754">
        <ele>247.8</ele>
        <time>2025-05-07T10:36:17.000Z</time>
      </trkpt>
      <trkpt lat="43.50857" lon="5.2875">
        <ele>247.7</ele>
        <time>2025-05-07T10:36:19.000Z</time>
      </trkpt>
      <trkpt lat="43.50856" lon="5.28746">
        <ele>247.7</ele>
        <time>2025-05-07T10:36:21.000Z</time>
      </trkpt>
      <trkpt lat="43.50856" lon="5.28744">
        <ele>247.6</ele>
        <time>2025-05-07T10:36:24.000Z</time>
      </trkpt>
      <trkpt lat="43.50856" lon="5.28741">
        <ele>247.6</ele>
        <time>2025-05-07T10:36:26.000Z</time>
      </trkpt>
      <trkpt lat="43.50856" lon="5.28738">
        <ele>247.6</ele>
        <time>2025-05-07T10:36:29.000Z</time>
      </trkpt>
      <trkpt lat="43.50855" lon="5.28734">
        <ele>247.6</ele>
        <time>2025-05-07T10:36:31.000Z</time>
      </trkpt>
      <trkpt lat="43.50855" lon="5.28731">
        <ele>247.5</ele>
        <time>2025-05-07T10:36:33.000Z</time>
      </trkpt>
      <trkpt lat="43.50853" lon="5.28728">
        <ele>247.4</ele>
        <time>2025-05-07T10:36:35.000Z</time>
      </trkpt>
      <trkpt lat="43.50851" lon="5.28725">
        <ele>247.3</ele>
        <time>2025-05-07T10:36:37.000Z</time>
      </trkpt>
      <trkpt lat="43.5085" lon="5.28722">
        <ele>247.2</ele>
        <time>2025-05-07T10:36:39.000Z</time>
      </trkpt>
      <trkpt lat="43.5085" lon="5.28719">
        <ele>247.2</ele>
        <time>2025-05-07T10:36:41.000Z</time>
      </trkpt>
      <trkpt lat="43.50849" lon="5.28716">
        <ele>247.2</ele>
        <time>2025-05-07T10:36:43.000Z</time>
      </trkpt>
      <trkpt lat="43.50848" lon="5.28714">
        <ele>247.2</ele>
        <time>2025-05-07T10:36:45.000Z</time>
      </trkpt>
      <trkpt lat="43.50847" lon="5.28711">
        <ele>247.2</ele>
        <time>2025-05-07T10:36:47.000Z</time>
      </trkpt>
      <trkpt lat="43.50844" lon="5.28709">
        <ele>247.1</ele>
        <time>2025-05-07T10:36:50.000Z</time>
      </trkpt>
      <trkpt lat="43.50843" lon="5.28706">
        <ele>247</ele>
        <time>2025-05-07T10:36:52.000Z</time>
      </trkpt>
      <trkpt lat="43.50841" lon="5.28705">
        <ele>247</ele>
        <time>2025-05-07T10:36:54.000Z</time>
      </trkpt>
      <trkpt lat="43.50839" lon="5.28703">
        <ele>246.9</ele>
        <time>2025-05-07T10:36:56.000Z</time>
      </trkpt>
      <trkpt lat="43.50837" lon="5.28702">
        <ele>246.9</ele>
        <time>2025-05-07T10:36:58.000Z</time>
      </trkpt>
      <trkpt lat="43.50835" lon="5.28699">
        <ele>246.9</ele>
        <time>2025-05-07T10:37:00.000Z</time>
      </trkpt>
      <trkpt lat="43.50832" lon="5.28698">
        <ele>246.8</ele>
        <time>2025-05-07T10:37:02.000Z</time>
      </trkpt>
      <trkpt lat="43.5083" lon="5.28697">
        <ele>246.7</ele>
        <time>2025-05-07T10:37:04.000Z</time>
      </trkpt>
      <trkpt lat="43.50828" lon="5.28695">
        <ele>246.6</ele>
        <time>2025-05-07T10:37:06.000Z</time>
      </trkpt>
      <trkpt lat="43.50827" lon="5.28693">
        <ele>246.5</ele>
        <time>2025-05-07T10:37:08.000Z</time>
      </trkpt>
      <trkpt lat="43.50825" lon="5.28692">
        <ele>246.5</ele>
        <time>2025-05-07T10:37:10.000Z</time>
      </trkpt>
      <trkpt lat="43.50823" lon="5.2869">
        <ele>246.4</ele>
        <time>2025-05-07T10:37:12.000Z</time>
      </trkpt>
      <trkpt lat="43.50821" lon="5.28689">
        <ele>246.3</ele>
        <time>2025-05-07T10:37:14.000Z</time>
      </trkpt>
      <trkpt lat="43.50819" lon="5.28686">
        <ele>246.3</ele>
        <time>2025-05-07T10:37:16.000Z</time>
      </trkpt>
      <trkpt lat="43.50817" lon="5.28685">
        <ele>246.2</ele>
        <time>2025-05-07T10:37:18.000Z</time>
      </trkpt>
      <trkpt lat="43.50815" lon="5.28683">
        <ele>246.1</ele>
        <time>2025-05-07T10:37:20.000Z</time>
      </trkpt>
      <trkpt lat="43.50813" lon="5.28681">
        <ele>246</ele>
        <time>2025-05-07T10:37:22.000Z</time>
      </trkpt>
      <trkpt lat="43.50811" lon="5.28679">
        <ele>246</ele>
        <time>2025-05-07T10:37:24.000Z</time>
      </trkpt>
      <trkpt lat="43.5081" lon="5.28677">
        <ele>246</ele>
        <time>2025-05-07T10:37:26.000Z</time>
      </trkpt>
      <trkpt lat="43.50809" lon="5.28674">
        <ele>246</ele>
        <time>2025-05-07T10:37:28.000Z</time>
      </trkpt>
      <trkpt lat="43.50808" lon="5.28671">
        <ele>246</ele>
        <time>2025-05-07T10:37:30.000Z</time>
      </trkpt>
      <trkpt lat="43.50807" lon="5.28669">
        <ele>246.1</ele>
        <time>2025-05-07T10:37:32.000Z</time>
      </trkpt>
      <trkpt lat="43.50806" lon="5.28666">
        <ele>246.1</ele>
        <time>2025-05-07T10:37:34.000Z</time>
      </trkpt>
      <trkpt lat="43.50805" lon="5.28663">
        <ele>246.3</ele>
        <time>2025-05-07T10:37:36.000Z</time>
      </trkpt>
      <trkpt lat="43.50805" lon="5.2866">
        <ele>246.4</ele>
        <time>2025-05-07T10:37:38.000Z</time>
      </trkpt>
      <trkpt lat="43.50804" lon="5.28658">
        <ele>246.5</ele>
        <time>2025-05-07T10:37:40.000Z</time>
      </trkpt>
      <trkpt lat="43.50804" lon="5.28655">
        <ele>246.7</ele>
        <time>2025-05-07T10:37:42.000Z</time>
      </trkpt>
      <trkpt lat="43.50803" lon="5.28651">
        <ele>246.8</ele>
        <time>2025-05-07T10:37:44.000Z</time>
      </trkpt>
      <trkpt lat="43.50802" lon="5.28647">
        <ele>246.9</ele>
        <time>2025-05-07T10:37:47.000Z</time>
      </trkpt>
      <trkpt lat="43.50801" lon="5.28645">
        <ele>246.9</ele>
        <time>2025-05-07T10:37:49.000Z</time>
      </trkpt>
      <trkpt lat="43.508" lon="5.28641">
        <ele>247</ele>
        <time>2025-05-07T10:37:51.000Z</time>
      </trkpt>
      <trkpt lat="43.50799" lon="5.28638">
        <ele>247.1</ele>
        <time>2025-05-07T10:37:53.000Z</time>
      </trkpt>
      <trkpt lat="43.50798" lon="5.28635">
        <ele>247</ele>
        <time>2025-05-07T10:37:55.000Z</time>
      </trkpt>
      <trkpt lat="43.50799" lon="5.28633">
        <ele>247.1</ele>
        <time>2025-05-07T10:37:57.000Z</time>
      </trkpt>
      <trkpt lat="43.50798" lon="5.2863">
        <ele>247</ele>
        <time>2025-05-07T10:37:59.000Z</time>
      </trkpt>
      <trkpt lat="43.50798" lon="5.28627">
        <ele>247</ele>
        <time>2025-05-07T10:38:01.000Z</time>
      </trkpt>
      <trkpt lat="43.50797" lon="5.28624">
        <ele>246.9</ele>
        <time>2025-05-07T10:38:03.000Z</time>
      </trkpt>
      <trkpt lat="43.50797" lon="5.2862">
        <ele>247</ele>
        <time>2025-05-07T10:38:05.000Z</time>
      </trkpt>
      <trkpt lat="43.50797" lon="5.28617">
        <ele>247</ele>
        <time>2025-05-07T10:38:07.000Z</time>
      </trkpt>
      <trkpt lat="43.50796" lon="5.28614">
        <ele>247</ele>
        <time>2025-05-07T10:38:09.000Z</time>
      </trkpt>
      <trkpt lat="43.50797" lon="5.28611">
        <ele>247</ele>
        <time>2025-05-07T10:38:11.000Z</time>
      </trkpt>
      <trkpt lat="43.50797" lon="5.28607">
        <ele>247.1</ele>
        <time>2025-05-07T10:38:13.000Z</time>
      </trkpt>
      <trkpt lat="43.50797" lon="5.28604">
        <ele>247</ele>
        <time>2025-05-07T10:38:15.000Z</time>
      </trkpt>
      <trkpt lat="43.50797" lon="5.286">
        <ele>247</ele>
        <time>2025-05-07T10:38:17.000Z</time>
      </trkpt>
      <trkpt lat="43.50797" lon="5.28597">
        <ele>247</ele>
        <time>2025-05-07T10:38:19.000Z</time>
      </trkpt>
      <trkpt lat="43.50797" lon="5.28593">
        <ele>247</ele>
        <time>2025-05-07T10:38:21.000Z</time>
      </trkpt>
      <trkpt lat="43.50797" lon="5.28591">
        <ele>247</ele>
        <time>2025-05-07T10:38:23.000Z</time>
      </trkpt>
      <trkpt lat="43.50797" lon="5.28587">
        <ele>247.1</ele>
        <time>2025-05-07T10:38:26.000Z</time>
      </trkpt>
      <trkpt lat="43.50797" lon="5.28583">
        <ele>247.1</ele>
        <time>2025-05-07T10:38:28.000Z</time>
      </trkpt>
      <trkpt lat="43.50796" lon="5.2858">
        <ele>247.1</ele>
        <time>2025-05-07T10:38:30.000Z</time>
      </trkpt>
      <trkpt lat="43.50796" lon="5.28577">
        <ele>247.2</ele>
        <time>2025-05-07T10:38:32.000Z</time>
      </trkpt>
      <trkpt lat="43.50796" lon="5.28574">
        <ele>247.3</ele>
        <time>2025-05-07T10:38:34.000Z</time>
      </trkpt>
      <trkpt lat="43.50799" lon="5.28575">
        <ele>247.6</ele>
        <time>2025-05-07T10:38:37.000Z</time>
      </trkpt>
      <trkpt lat="43.50802" lon="5.28571">
        <ele>248</ele>
        <time>2025-05-07T10:38:38.000Z</time>
      </trkpt>
      <trkpt lat="43.50801" lon="5.28568">
        <ele>248</ele>
        <time>2025-05-07T10:38:39.000Z</time>
      </trkpt>
      <trkpt lat="43.50799" lon="5.28565">
        <ele>248</ele>
        <time>2025-05-07T10:38:41.000Z</time>
      </trkpt>
      <trkpt lat="43.50798" lon="5.28562">
        <ele>247.9</ele>
        <time>2025-05-07T10:38:43.000Z</time>
      </trkpt>
      <trkpt lat="43.50797" lon="5.28559">
        <ele>248</ele>
        <time>2025-05-07T10:38:45.000Z</time>
      </trkpt>
      <trkpt lat="43.50796" lon="5.28557">
        <ele>247.9</ele>
        <time>2025-05-07T10:38:47.000Z</time>
      </trkpt>
      <trkpt lat="43.50794" lon="5.28556">
        <ele>247.8</ele>
        <time>2025-05-07T10:38:49.000Z</time>
      </trkpt>
      <trkpt lat="43.50792" lon="5.28554">
        <ele>247.6</ele>
        <time>2025-05-07T10:38:51.000Z</time>
      </trkpt>
      <trkpt lat="43.5079" lon="5.28549">
        <ele>247.5</ele>
        <time>2025-05-07T10:38:54.000Z</time>
      </trkpt>
      <trkpt lat="43.50788" lon="5.28545">
        <ele>247.5</ele>
        <time>2025-05-07T10:38:56.000Z</time>
      </trkpt>
      <trkpt lat="43.50787" lon="5.28543">
        <ele>247.4</ele>
        <time>2025-05-07T10:38:58.000Z</time>
      </trkpt>
      <trkpt lat="43.50785" lon="5.28542">
        <ele>247.2</ele>
        <time>2025-05-07T10:39:00.000Z</time>
      </trkpt>
      <trkpt lat="43.50783" lon="5.28538">
        <ele>247.2</ele>
        <time>2025-05-07T10:39:04.000Z</time>
      </trkpt>
      <trkpt lat="43.50782" lon="5.28534">
        <ele>247.3</ele>
        <time>2025-05-07T10:39:06.000Z</time>
      </trkpt>
      <trkpt lat="43.50782" lon="5.28532">
        <ele>247.3</ele>
        <time>2025-05-07T10:39:08.000Z</time>
      </trkpt>
      <trkpt lat="43.5078" lon="5.28528">
        <ele>247.2</ele>
        <time>2025-05-07T10:39:11.000Z</time>
      </trkpt>
      <trkpt lat="43.50779" lon="5.28525">
        <ele>247.2</ele>
        <time>2025-05-07T10:39:13.000Z</time>
      </trkpt>
      <trkpt lat="43.50781" lon="5.28524">
        <ele>247.5</ele>
        <time>2025-05-07T10:39:16.000Z</time>
      </trkpt>
      <trkpt lat="43.50782" lon="5.28519">
        <ele>247.7</ele>
        <time>2025-05-07T10:39:33.000Z</time>
      </trkpt>
      <trkpt lat="43.50783" lon="5.28517">
        <ele>247.9</ele>
        <time>2025-05-07T10:39:36.000Z</time>
      </trkpt>
      <trkpt lat="43.50782" lon="5.28519">
        <ele>247.7</ele>
        <time>2025-05-07T10:39:57.000Z</time>
      </trkpt>
      <trkpt lat="43.5078" lon="5.2852">
        <ele>247.5</ele>
        <time>2025-05-07T10:39:59.000Z</time>
      </trkpt>
      <trkpt lat="43.50778" lon="5.28521">
        <ele>247.2</ele>
        <time>2025-05-07T10:40:02.000Z</time>
      </trkpt>
      <trkpt lat="43.50777" lon="5.28518">
        <ele>247.3</ele>
        <time>2025-05-07T10:40:10.000Z</time>
      </trkpt>
      <trkpt lat="43.5078" lon="5.2852">
        <ele>247.4</ele>
        <time>2025-05-07T10:40:35.000Z</time>
      </trkpt>
      <trkpt lat="43.50782" lon="5.28522">
        <ele>247.6</ele>
        <time>2025-05-07T10:40:40.000Z</time>
      </trkpt>
      <trkpt lat="43.50784" lon="5.28523">
        <ele>247.8</ele>
        <time>2025-05-07T10:40:43.000Z</time>
      </trkpt>
      <trkpt lat="43.50782" lon="5.28524">
        <ele>247.5</ele>
        <time>2025-05-07T10:40:53.000Z</time>
      </trkpt>
      <trkpt lat="43.5078" lon="5.28525">
        <ele>247.3</ele>
        <time>2025-05-07T10:40:55.000Z</time>
      </trkpt>
      <trkpt lat="43.50781" lon="5.2853">
        <ele>247.3</ele>
        <time>2025-05-07T10:41:51.000Z</time>
      </trkpt>
      <trkpt lat="43.50783" lon="5.28532">
        <ele>247.4</ele>
        <time>2025-05-07T10:41:54.000Z</time>
      </trkpt>
      <trkpt lat="43.50784" lon="5.28536">
        <ele>247.3</ele>
        <time>2025-05-07T10:41:57.000Z</time>
      </trkpt>
      <trkpt lat="43.50784" lon="5.28538">
        <ele>247.3</ele>
        <time>2025-05-07T10:41:59.000Z</time>
      </trkpt>
      <trkpt lat="43.50786" lon="5.28543">
        <ele>247.4</ele>
        <time>2025-05-07T10:42:03.000Z</time>
      </trkpt>
      <trkpt lat="43.50788" lon="5.28546">
        <ele>247.4</ele>
        <time>2025-05-07T10:42:05.000Z</time>
      </trkpt>
      <trkpt lat="43.50789" lon="5.28548">
        <ele>247.5</ele>
        <time>2025-05-07T10:42:06.000Z</time>
      </trkpt>
      <trkpt lat="43.50791" lon="5.28553">
        <ele>247.5</ele>
        <time>2025-05-07T10:42:07.000Z</time>
      </trkpt>
      <trkpt lat="43.50793" lon="5.28549">
        <ele>247.8</ele>
        <time>2025-05-07T10:42:08.000Z</time>
      </trkpt>
      <trkpt lat="43.50791" lon="5.28549">
        <ele>247.7</ele>
        <time>2025-05-07T10:42:09.000Z</time>
      </trkpt>
      <trkpt lat="43.50794" lon="5.28551">
        <ele>247.9</ele>
        <time>2025-05-07T10:42:11.000Z</time>
      </trkpt>
      <trkpt lat="43.50793" lon="5.28554">
        <ele>247.7</ele>
        <time>2025-05-07T10:42:43.000Z</time>
      </trkpt>
      <trkpt lat="43.50793" lon="5.28556">
        <ele>247.7</ele>
        <time>2025-05-07T10:42:44.000Z</time>
      </trkpt>
      <trkpt lat="43.50794" lon="5.2856">
        <ele>247.6</ele>
        <time>2025-05-07T10:42:45.000Z</time>
      </trkpt>
      <trkpt lat="43.50795" lon="5.28562">
        <ele>247.6</ele>
        <time>2025-05-07T10:42:48.000Z</time>
      </trkpt>
      <trkpt lat="43.50796" lon="5.28565">
        <ele>247.6</ele>
        <time>2025-05-07T10:42:49.000Z</time>
      </trkpt>
      <trkpt lat="43.50796" lon="5.28569">
        <ele>247.5</ele>
        <time>2025-05-07T10:42:51.000Z</time>
      </trkpt>
      <trkpt lat="43.50797" lon="5.28571">
        <ele>247.5</ele>
        <time>2025-05-07T10:42:54.000Z</time>
      </trkpt>
      <trkpt lat="43.50797" lon="5.28574">
        <ele>247.4</ele>
        <time>2025-05-07T10:42:56.000Z</time>
      </trkpt>
      <trkpt lat="43.50798" lon="5.28577">
        <ele>247.4</ele>
        <time>2025-05-07T10:43:17.000Z</time>
      </trkpt>
      <trkpt lat="43.50797" lon="5.28574">
        <ele>247.4</ele>
        <time>2025-05-07T10:43:39.000Z</time>
      </trkpt>
      <trkpt lat="43.50797" lon="5.28572">
        <ele>247.5</ele>
        <time>2025-05-07T10:43:41.000Z</time>
      </trkpt>
      <trkpt lat="43.50797" lon="5.28566">
        <ele>247.7</ele>
        <time>2025-05-07T10:43:45.000Z</time>
      </trkpt>
      <trkpt lat="43.50796" lon="5.28563">
        <ele>247.6</ele>
        <time>2025-05-07T10:43:48.000Z</time>
      </trkpt>
      <trkpt lat="43.50793" lon="5.2856">
        <ele>247.5</ele>
        <time>2025-05-07T10:43:51.000Z</time>
      </trkpt>
      <trkpt lat="43.50793" lon="5.28557">
        <ele>247.5</ele>
        <time>2025-05-07T10:43:54.000Z</time>
      </trkpt>
      <trkpt lat="43.50792" lon="5.28555">
        <ele>247.6</ele>
        <time>2025-05-07T10:43:57.000Z</time>
      </trkpt>
      <trkpt lat="43.50791" lon="5.28551">
        <ele>247.6</ele>
        <time>2025-05-07T10:43:59.000Z</time>
      </trkpt>
      <trkpt lat="43.50789" lon="5.28547">
        <ele>247.6</ele>
        <time>2025-05-07T10:44:03.000Z</time>
      </trkpt>
      <trkpt lat="43.50788" lon="5.28544">
        <ele>247.5</ele>
        <time>2025-05-07T10:44:05.000Z</time>
      </trkpt>
      <trkpt lat="43.50785" lon="5.2854">
        <ele>247.3</ele>
        <time>2025-05-07T10:44:09.000Z</time>
      </trkpt>
      <trkpt lat="43.50783" lon="5.28537">
        <ele>247.3</ele>
        <time>2025-05-07T10:44:11.000Z</time>
      </trkpt>
      <trkpt lat="43.50782" lon="5.28533">
        <ele>247.2</ele>
        <time>2025-05-07T10:44:16.000Z</time>
      </trkpt>
      <trkpt lat="43.50781" lon="5.2853">
        <ele>247.2</ele>
        <time>2025-05-07T10:44:18.000Z</time>
      </trkpt>
      <trkpt lat="43.5078" lon="5.28527">
        <ele>247.3</ele>
        <time>2025-05-07T10:44:21.000Z</time>
      </trkpt>
      <trkpt lat="43.50783" lon="5.28527">
        <ele>247.6</ele>
        <time>2025-05-07T10:44:28.000Z</time>
      </trkpt>
      <trkpt lat="43.50785" lon="5.28525">
        <ele>247.9</ele>
        <time>2025-05-07T10:44:34.000Z</time>
      </trkpt>
      <trkpt lat="43.50785" lon="5.28522">
        <ele>247.9</ele>
        <time>2025-05-07T10:44:50.000Z</time>
      </trkpt>
      <trkpt lat="43.50784" lon="5.28519">
        <ele>247.9</ele>
        <time>2025-05-07T10:44:59.000Z</time>
      </trkpt>
      <trkpt lat="43.50785" lon="5.28517">
        <ele>248.1</ele>
        <time>2025-05-07T10:45:05.000Z</time>
      </trkpt>
      <trkpt lat="43.50785" lon="5.2852">
        <ele>248</ele>
        <time>2025-05-07T10:45:08.000Z</time>
      </trkpt>
      <trkpt lat="43.50783" lon="5.28519">
        <ele>247.8</ele>
        <time>2025-05-07T10:45:14.000Z</time>
      </trkpt>
      <trkpt lat="43.50785" lon="5.28516">
        <ele>248.1</ele>
        <time>2025-05-07T10:45:16.000Z</time>
      </trkpt>
      <trkpt lat="43.50784" lon="5.28518">
        <ele>247.9</ele>
        <time>2025-05-07T10:45:21.000Z</time>
      </trkpt>
      <trkpt lat="43.50783" lon="5.28521">
        <ele>247.7</ele>
        <time>2025-05-07T10:45:22.000Z</time>
      </trkpt>
      <trkpt lat="43.50781" lon="5.28522">
        <ele>247.6</ele>
        <time>2025-05-07T10:45:24.000Z</time>
      </trkpt>
      <trkpt lat="43.50783" lon="5.28519">
        <ele>247.8</ele>
        <time>2025-05-07T10:45:27.000Z</time>
      </trkpt>
      <trkpt lat="43.50781" lon="5.28517">
        <ele>247.7</ele>
        <time>2025-05-07T10:45:29.000Z</time>
      </trkpt>
      <trkpt lat="43.50784" lon="5.28518">
        <ele>247.9</ele>
        <time>2025-05-07T10:45:32.000Z</time>
      </trkpt>
      <trkpt lat="43.50782" lon="5.28517">
        <ele>247.8</ele>
        <time>2025-05-07T10:45:39.000Z</time>
      </trkpt>
      <trkpt lat="43.50782" lon="5.28519">
        <ele>247.7</ele>
        <time>2025-05-07T10:45:50.000Z</time>
      </trkpt>
      <trkpt lat="43.50784" lon="5.2852">
        <ele>247.9</ele>
        <time>2025-05-07T10:45:55.000Z</time>
      </trkpt>
      <trkpt lat="43.50784" lon="5.28516">
        <ele>247.9</ele>
        <time>2025-05-07T10:45:59.000Z</time>
      </trkpt>
      <trkpt lat="43.50784" lon="5.28519">
        <ele>247.9</ele>
        <time>2025-05-07T10:46:07.000Z</time>
      </trkpt>
      <trkpt lat="43.50787" lon="5.28519">
        <ele>248.2</ele>
        <time>2025-05-07T10:46:17.000Z</time>
      </trkpt>
      <trkpt lat="43.50788" lon="5.28517">
        <ele>248.4</ele>
        <time>2025-05-07T10:46:19.000Z</time>
      </trkpt>
      <trkpt lat="43.50791" lon="5.28516">
        <ele>248.6</ele>
        <time>2025-05-07T10:46:20.000Z</time>
      </trkpt>
      <trkpt lat="43.50789" lon="5.28517">
        <ele>248.4</ele>
        <time>2025-05-07T10:46:23.000Z</time>
      </trkpt>
      <trkpt lat="43.50786" lon="5.28516">
        <ele>248.2</ele>
        <time>2025-05-07T10:46:26.000Z</time>
      </trkpt>
      <trkpt lat="43.50783" lon="5.28514">
        <ele>247.9</ele>
        <time>2025-05-07T10:46:30.000Z</time>
      </trkpt>
      <trkpt lat="43.50781" lon="5.28512">
        <ele>247.9</ele>
        <time>2025-05-07T10:46:32.000Z</time>
      </trkpt>
      <trkpt lat="43.50783" lon="5.28514">
        <ele>248</ele>
        <time>2025-05-07T10:46:50.000Z</time>
      </trkpt>
      <trkpt lat="43.50782" lon="5.28511">
        <ele>247.9</ele>
        <time>2025-05-07T10:47:25.000Z</time>
      </trkpt>
      <trkpt lat="43.50779" lon="5.28511">
        <ele>247.7</ele>
        <time>2025-05-07T10:47:27.000Z</time>
      </trkpt>
      <trkpt lat="43.5078" lon="5.28515">
        <ele>247.7</ele>
        <time>2025-05-07T10:47:30.000Z</time>
      </trkpt>
      <trkpt lat="43.50782" lon="5.28512">
        <ele>247.9</ele>
        <time>2025-05-07T10:48:27.000Z</time>
      </trkpt>
      <trkpt lat="43.50784" lon="5.28514">
        <ele>248.1</ele>
        <time>2025-05-07T10:49:14.000Z</time>
      </trkpt>
      <trkpt lat="43.50787" lon="5.28513">
        <ele>248.3</ele>
        <time>2025-05-07T10:49:17.000Z</time>
      </trkpt>
      <trkpt lat="43.50785" lon="5.28513">
        <ele>248.1</ele>
        <time>2025-05-07T10:58:03.000Z</time>
      </trkpt>
      <trkpt lat="43.50782" lon="5.28515">
        <ele>247.8</ele>
        <time>2025-05-07T11:11:06.000Z</time>
      </trkpt>
      <trkpt lat="43.50783" lon="5.28513">
        <ele>248</ele>
        <time>2025-05-07T11:12:50.000Z</time>
      </trkpt>
      <trkpt lat="43.50784" lon="5.2851">
        <ele>248.1</ele>
        <time>2025-05-07T11:19:05.000Z</time>
      </trkpt>
      <trkpt lat="43.50782" lon="5.28512">
        <ele>247.9</ele>
        <time>2025-05-07T11:22:58.000Z</time>
      </trkpt>
      <trkpt lat="43.50781" lon="5.28514">
        <ele>247.8</ele>
        <time>2025-05-07T11:23:00.000Z</time>
      </trkpt>
      <trkpt lat="43.5078" lon="5.28517">
        <ele>247.6</ele>
        <time>2025-05-07T11:23:05.000Z</time>
      </trkpt>
      <trkpt lat="43.50781" lon="5.28519">
        <ele>247.7</ele>
        <time>2025-05-07T11:23:08.000Z</time>
      </trkpt>
      <trkpt lat="43.50781" lon="5.28522">
        <ele>247.5</ele>
        <time>2025-05-07T11:23:30.000Z</time>
      </trkpt>
      <trkpt lat="43.50783" lon="5.28523">
        <ele>247.7</ele>
        <time>2025-05-07T11:23:35.000Z</time>
      </trkpt>
      <trkpt lat="43.50781" lon="5.28526">
        <ele>247.4</ele>
        <time>2025-05-07T11:23:36.000Z</time>
      </trkpt>
      <trkpt lat="43.50778" lon="5.28526">
        <ele>247.1</ele>
        <time>2025-05-07T11:23:44.000Z</time>
      </trkpt>
      <trkpt lat="43.50776" lon="5.28526">
        <ele>246.9</ele>
        <time>2025-05-07T11:23:48.000Z</time>
      </trkpt>
      <trkpt lat="43.50773" lon="5.28525">
        <ele>246.8</ele>
        <time>2025-05-07T11:23:50.000Z</time>
      </trkpt>
      <trkpt lat="43.5077" lon="5.28525">
        <ele>246.5</ele>
        <time>2025-05-07T11:23:57.000Z</time>
      </trkpt>
      <trkpt lat="43.50771" lon="5.28523">
        <ele>246.7</ele>
        <time>2025-05-07T11:24:08.000Z</time>
      </trkpt>
      <trkpt lat="43.5077" lon="5.28525">
        <ele>246.5</ele>
        <time>2025-05-07T11:24:11.000Z</time>
      </trkpt>
      <trkpt lat="43.50769" lon="5.28529">
        <ele>246.3</ele>
        <time>2025-05-07T11:24:13.000Z</time>
      </trkpt>
      <trkpt lat="43.50767" lon="5.28529">
        <ele>246.2</ele>
        <time>2025-05-07T11:24:33.000Z</time>
      </trkpt>
      <trkpt lat="43.50766" lon="5.28531">
        <ele>246</ele>
        <time>2025-05-07T11:24:37.000Z</time>
      </trkpt>
      <trkpt lat="43.50764" lon="5.28534">
        <ele>245.8</ele>
        <time>2025-05-07T11:24:42.000Z</time>
      </trkpt>
      <trkpt lat="43.50763" lon="5.28534">
        <ele>245.7</ele>
        <time>2025-05-07T11:24:46.000Z</time>
      </trkpt>
      <trkpt lat="43.50762" lon="5.28537">
        <ele>245.5</ele>
        <time>2025-05-07T11:24:49.000Z</time>
      </trkpt>
      <trkpt lat="43.50759" lon="5.28537">
        <ele>245.3</ele>
        <time>2025-05-07T11:24:56.000Z</time>
      </trkpt>
      <trkpt lat="43.50756" lon="5.28536">
        <ele>245.2</ele>
        <time>2025-05-07T11:24:59.000Z</time>
      </trkpt>
      <trkpt lat="43.50755" lon="5.28532">
        <ele>245.2</ele>
        <time>2025-05-07T11:25:02.000Z</time>
      </trkpt>
      <trkpt lat="43.50753" lon="5.28532">
        <ele>245</ele>
        <time>2025-05-07T11:25:04.000Z</time>
      </trkpt>
      <trkpt lat="43.50751" lon="5.28532">
        <ele>244.9</ele>
        <time>2025-05-07T11:25:06.000Z</time>
      </trkpt>
      <trkpt lat="43.50749" lon="5.28532">
        <ele>244.8</ele>
        <time>2025-05-07T11:25:09.000Z</time>
      </trkpt>
      <trkpt lat="43.50747" lon="5.28531">
        <ele>244.8</ele>
        <time>2025-05-07T11:25:11.000Z</time>
      </trkpt>
      <trkpt lat="43.50744" lon="5.28531">
        <ele>244.7</ele>
        <time>2025-05-07T11:25:14.000Z</time>
      </trkpt>
      <trkpt lat="43.50741" lon="5.28531">
        <ele>244.6</ele>
        <time>2025-05-07T11:25:17.000Z</time>
      </trkpt>
      <trkpt lat="43.50739" lon="5.28531">
        <ele>244.5</ele>
        <time>2025-05-07T11:25:19.000Z</time>
      </trkpt>
      <trkpt lat="43.50737" lon="5.28531">
        <ele>244.5</ele>
        <time>2025-05-07T11:25:21.000Z</time>
      </trkpt>
      <trkpt lat="43.50736" lon="5.2853">
        <ele>244.4</ele>
        <time>2025-05-07T11:25:23.000Z</time>
      </trkpt>
      <trkpt lat="43.50733" lon="5.28529">
        <ele>244.4</ele>
        <time>2025-05-07T11:25:26.000Z</time>
      </trkpt>
      <trkpt lat="43.50731" lon="5.28529">
        <ele>244.3</ele>
        <time>2025-05-07T11:25:28.000Z</time>
      </trkpt>
      <trkpt lat="43.50729" lon="5.28529">
        <ele>244.2</ele>
        <time>2025-05-07T11:25:30.000Z</time>
      </trkpt>
      <trkpt lat="43.50726" lon="5.28528">
        <ele>244.1</ele>
        <time>2025-05-07T11:25:33.000Z</time>
      </trkpt>
      <trkpt lat="43.50724" lon="5.28529">
        <ele>244.1</ele>
        <time>2025-05-07T11:25:36.000Z</time>
      </trkpt>
      <trkpt lat="43.50722" lon="5.2853">
        <ele>244</ele>
        <time>2025-05-07T11:25:39.000Z</time>
      </trkpt>
      <trkpt lat="43.50719" lon="5.28531">
        <ele>244</ele>
        <time>2025-05-07T11:25:42.000Z</time>
      </trkpt>
      <trkpt lat="43.50717" lon="5.28531">
        <ele>244</ele>
        <time>2025-05-07T11:25:44.000Z</time>
      </trkpt>
      <trkpt lat="43.50715" lon="5.28531">
        <ele>244</ele>
        <time>2025-05-07T11:25:46.000Z</time>
      </trkpt>
      <trkpt lat="43.50713" lon="5.2853">
        <ele>244</ele>
        <time>2025-05-07T11:25:49.000Z</time>
      </trkpt>
      <trkpt lat="43.50711" lon="5.28531">
        <ele>244</ele>
        <time>2025-05-07T11:25:51.000Z</time>
      </trkpt>
      <trkpt lat="43.50709" lon="5.2853">
        <ele>244</ele>
        <time>2025-05-07T11:25:54.000Z</time>
      </trkpt>
      <trkpt lat="43.50707" lon="5.2853">
        <ele>243.9</ele>
        <time>2025-05-07T11:25:58.000Z</time>
      </trkpt>
      <trkpt lat="43.50705" lon="5.2853">
        <ele>243.9</ele>
        <time>2025-05-07T11:26:09.000Z</time>
      </trkpt>
      <trkpt lat="43.50703" lon="5.28529">
        <ele>244</ele>
        <time>2025-05-07T11:26:13.000Z</time>
      </trkpt>
      <trkpt lat="43.50701" lon="5.2853">
        <ele>244</ele>
        <time>2025-05-07T11:26:15.000Z</time>
      </trkpt>
      <trkpt lat="43.50699" lon="5.2853">
        <ele>243.9</ele>
        <time>2025-05-07T11:26:17.000Z</time>
      </trkpt>
      <trkpt lat="43.50697" lon="5.28529">
        <ele>244</ele>
        <time>2025-05-07T11:26:20.000Z</time>
      </trkpt>
      <trkpt lat="43.50695" lon="5.28529">
        <ele>244</ele>
        <time>2025-05-07T11:26:22.000Z</time>
      </trkpt>
      <trkpt lat="43.50693" lon="5.28528">
        <ele>244.1</ele>
        <time>2025-05-07T11:26:24.000Z</time>
      </trkpt>
      <trkpt lat="43.50691" lon="5.2853">
        <ele>244.2</ele>
        <time>2025-05-07T11:26:29.000Z</time>
      </trkpt>
      <trkpt lat="43.50689" lon="5.28533">
        <ele>244.2</ele>
        <time>2025-05-07T11:26:33.000Z</time>
      </trkpt>
      <trkpt lat="43.50686" lon="5.28534">
        <ele>244.4</ele>
        <time>2025-05-07T11:26:39.000Z</time>
      </trkpt>
      <trkpt lat="43.50683" lon="5.28537">
        <ele>244.5</ele>
        <time>2025-05-07T11:26:45.000Z</time>
      </trkpt>
      <trkpt lat="43.50681" lon="5.28539">
        <ele>244.5</ele>
        <time>2025-05-07T11:26:51.000Z</time>
      </trkpt>
      <trkpt lat="43.5068" lon="5.2854">
        <ele>244.6</ele>
        <time>2025-05-07T11:26:53.000Z</time>
      </trkpt>
      <trkpt lat="43.50677" lon="5.28542">
        <ele>244.8</ele>
        <time>2025-05-07T11:26:57.000Z</time>
      </trkpt>
      <trkpt lat="43.50675" lon="5.28542">
        <ele>244.9</ele>
        <time>2025-05-07T11:26:59.000Z</time>
      </trkpt>
      <trkpt lat="43.50673" lon="5.28543">
        <ele>245</ele>
        <time>2025-05-07T11:27:01.000Z</time>
      </trkpt>
      <trkpt lat="43.50671" lon="5.28543">
        <ele>245.2</ele>
        <time>2025-05-07T11:27:04.000Z</time>
      </trkpt>
      <trkpt lat="43.50668" lon="5.28545">
        <ele>245.3</ele>
        <time>2025-05-07T11:27:06.000Z</time>
      </trkpt>
      <trkpt lat="43.50666" lon="5.28546">
        <ele>245.4</ele>
        <time>2025-05-07T11:27:07.000Z</time>
      </trkpt>
      <trkpt lat="43.50665" lon="5.28547">
        <ele>245.4</ele>
        <time>2025-05-07T11:27:09.000Z</time>
      </trkpt>
      <trkpt lat="43.50662" lon="5.28547">
        <ele>245.6</ele>
        <time>2025-05-07T11:27:12.000Z</time>
      </trkpt>
      <trkpt lat="43.5066" lon="5.28547">
        <ele>245.8</ele>
        <time>2025-05-07T11:27:15.000Z</time>
      </trkpt>
      <trkpt lat="43.50658" lon="5.28545">
        <ele>246</ele>
        <time>2025-05-07T11:27:18.000Z</time>
      </trkpt>
      <trkpt lat="43.50656" lon="5.28545">
        <ele>246.2</ele>
        <time>2025-05-07T11:27:20.000Z</time>
      </trkpt>
      <trkpt lat="43.50654" lon="5.28543">
        <ele>246.3</ele>
        <time>2025-05-07T11:27:22.000Z</time>
      </trkpt>
      <trkpt lat="43.50652" lon="5.28542">
        <ele>246.6</ele>
        <time>2025-05-07T11:27:24.000Z</time>
      </trkpt>
      <trkpt lat="43.50649" lon="5.2854">
        <ele>246.8</ele>
        <time>2025-05-07T11:27:27.000Z</time>
      </trkpt>
      <trkpt lat="43.50647" lon="5.28539">
        <ele>247</ele>
        <time>2025-05-07T11:27:29.000Z</time>
      </trkpt>
      <trkpt lat="43.50646" lon="5.28536">
        <ele>247.2</ele>
        <time>2025-05-07T11:27:31.000Z</time>
      </trkpt>
      <trkpt lat="43.50644" lon="5.28534">
        <ele>247.4</ele>
        <time>2025-05-07T11:27:34.000Z</time>
      </trkpt>
      <trkpt lat="43.50643" lon="5.28532">
        <ele>247.6</ele>
        <time>2025-05-07T11:27:36.000Z</time>
      </trkpt>
      <trkpt lat="43.50641" lon="5.2853">
        <ele>247.8</ele>
        <time>2025-05-07T11:27:39.000Z</time>
      </trkpt>
      <trkpt lat="43.50639" lon="5.28528">
        <ele>248</ele>
        <time>2025-05-07T11:27:41.000Z</time>
      </trkpt>
      <trkpt lat="43.50638" lon="5.28527">
        <ele>248</ele>
        <time>2025-05-07T11:27:42.000Z</time>
      </trkpt>
      <trkpt lat="43.50636" lon="5.28525">
        <ele>248.1</ele>
        <time>2025-05-07T11:27:46.000Z</time>
      </trkpt>
      <trkpt lat="43.50634" lon="5.28523">
        <ele>248.2</ele>
        <time>2025-05-07T11:27:48.000Z</time>
      </trkpt>
      <trkpt lat="43.5063" lon="5.28522">
        <ele>248.4</ele>
        <time>2025-05-07T11:27:51.000Z</time>
      </trkpt>
      <trkpt lat="43.50629" lon="5.2852">
        <ele>248.5</ele>
        <time>2025-05-07T11:27:53.000Z</time>
      </trkpt>
      <trkpt lat="43.50627" lon="5.28518">
        <ele>248.6</ele>
        <time>2025-05-07T11:27:56.000Z</time>
      </trkpt>
      <trkpt lat="43.50625" lon="5.28516">
        <ele>248.7</ele>
        <time>2025-05-07T11:27:58.000Z</time>
      </trkpt>
      <trkpt lat="43.50623" lon="5.28515">
        <ele>248.8</ele>
        <time>2025-05-07T11:28:02.000Z</time>
      </trkpt>
      <trkpt lat="43.5062" lon="5.28513">
        <ele>249</ele>
        <time>2025-05-07T11:28:05.000Z</time>
      </trkpt>
      <trkpt lat="43.50619" lon="5.28512">
        <ele>249.1</ele>
        <time>2025-05-07T11:28:07.000Z</time>
      </trkpt>
      <trkpt lat="43.50617" lon="5.28511">
        <ele>249.3</ele>
        <time>2025-05-07T11:28:09.000Z</time>
      </trkpt>
      <trkpt lat="43.50615" lon="5.28509">
        <ele>249.4</ele>
        <time>2025-05-07T11:28:11.000Z</time>
      </trkpt>
      <trkpt lat="43.50613" lon="5.28508">
        <ele>249.6</ele>
        <time>2025-05-07T11:28:13.000Z</time>
      </trkpt>
      <trkpt lat="43.50611" lon="5.28507">
        <ele>249.8</ele>
        <time>2025-05-07T11:28:15.000Z</time>
      </trkpt>
      <trkpt lat="43.50609" lon="5.28504">
        <ele>249.9</ele>
        <time>2025-05-07T11:28:17.000Z</time>
      </trkpt>
      <trkpt lat="43.50607" lon="5.28502">
        <ele>250.1</ele>
        <time>2025-05-07T11:28:20.000Z</time>
      </trkpt>
      <trkpt lat="43.50605" lon="5.28501">
        <ele>250.2</ele>
        <time>2025-05-07T11:28:23.000Z</time>
      </trkpt>
      <trkpt lat="43.50603" lon="5.285">
        <ele>250.3</ele>
        <time>2025-05-07T11:28:25.000Z</time>
      </trkpt>
      <trkpt lat="43.50601" lon="5.285">
        <ele>250.4</ele>
        <time>2025-05-07T11:28:27.000Z</time>
      </trkpt>
      <trkpt lat="43.50599" lon="5.28499">
        <ele>250.5</ele>
        <time>2025-05-07T11:28:29.000Z</time>
      </trkpt>
      <trkpt lat="43.50597" lon="5.28499">
        <ele>250.6</ele>
        <time>2025-05-07T11:28:31.000Z</time>
      </trkpt>
      <trkpt lat="43.50595" lon="5.28498">
        <ele>250.6</ele>
        <time>2025-05-07T11:28:34.000Z</time>
      </trkpt>
      <trkpt lat="43.50593" lon="5.28499">
        <ele>250.7</ele>
        <time>2025-05-07T11:28:37.000Z</time>
      </trkpt>
      <trkpt lat="43.5059" lon="5.28499">
        <ele>250.8</ele>
        <time>2025-05-07T11:28:39.000Z</time>
      </trkpt>
      <trkpt lat="43.50588" lon="5.28498">
        <ele>250.9</ele>
        <time>2025-05-07T11:28:42.000Z</time>
      </trkpt>
      <trkpt lat="43.50586" lon="5.28498">
        <ele>251</ele>
        <time>2025-05-07T11:28:44.000Z</time>
      </trkpt>
      <trkpt lat="43.50584" lon="5.285">
        <ele>251</ele>
        <time>2025-05-07T11:28:47.000Z</time>
      </trkpt>
      <trkpt lat="43.50582" lon="5.28502">
        <ele>251</ele>
        <time>2025-05-07T11:28:49.000Z</time>
      </trkpt>
      <trkpt lat="43.5058" lon="5.28503">
        <ele>251.1</ele>
        <time>2025-05-07T11:28:51.000Z</time>
      </trkpt>
      <trkpt lat="43.50579" lon="5.28506">
        <ele>251.1</ele>
        <time>2025-05-07T11:28:53.000Z</time>
      </trkpt>
      <trkpt lat="43.50578" lon="5.28508">
        <ele>251.1</ele>
        <time>2025-05-07T11:28:55.000Z</time>
      </trkpt>
      <trkpt lat="43.50577" lon="5.28511">
        <ele>251.1</ele>
        <time>2025-05-07T11:28:57.000Z</time>
      </trkpt>
      <trkpt lat="43.50575" lon="5.28513">
        <ele>251.1</ele>
        <time>2025-05-07T11:28:59.000Z</time>
      </trkpt>
      <trkpt lat="43.50574" lon="5.28515">
        <ele>251.1</ele>
        <time>2025-05-07T11:29:01.000Z</time>
      </trkpt>
      <trkpt lat="43.50572" lon="5.28518">
        <ele>251.1</ele>
        <time>2025-05-07T11:29:04.000Z</time>
      </trkpt>
      <trkpt lat="43.50571" lon="5.2852">
        <ele>251.1</ele>
        <time>2025-05-07T11:29:06.000Z</time>
      </trkpt>
      <trkpt lat="43.5057" lon="5.28523">
        <ele>251.1</ele>
        <time>2025-05-07T11:29:09.000Z</time>
      </trkpt>
      <trkpt lat="43.50569" lon="5.28525">
        <ele>251.1</ele>
        <time>2025-05-07T11:29:11.000Z</time>
      </trkpt>
      <trkpt lat="43.50567" lon="5.28528">
        <ele>251.2</ele>
        <time>2025-05-07T11:29:13.000Z</time>
      </trkpt>
      <trkpt lat="43.50566" lon="5.28531">
        <ele>251.2</ele>
        <time>2025-05-07T11:29:16.000Z</time>
      </trkpt>
      <trkpt lat="43.50564" lon="5.28533">
        <ele>251.2</ele>
        <time>2025-05-07T11:29:18.000Z</time>
      </trkpt>
      <trkpt lat="43.50563" lon="5.28536">
        <ele>251.2</ele>
        <time>2025-05-07T11:29:20.000Z</time>
      </trkpt>
      <trkpt lat="43.50562" lon="5.28538">
        <ele>251.2</ele>
        <time>2025-05-07T11:29:23.000Z</time>
      </trkpt>
      <trkpt lat="43.5056" lon="5.28541">
        <ele>251.2</ele>
        <time>2025-05-07T11:29:25.000Z</time>
      </trkpt>
      <trkpt lat="43.50559" lon="5.28543">
        <ele>251.2</ele>
        <time>2025-05-07T11:29:27.000Z</time>
      </trkpt>
      <trkpt lat="43.50558" lon="5.28546">
        <ele>251.2</ele>
        <time>2025-05-07T11:29:29.000Z</time>
      </trkpt>
      <trkpt lat="43.50556" lon="5.28548">
        <ele>251.2</ele>
        <time>2025-05-07T11:29:31.000Z</time>
      </trkpt>
      <trkpt lat="43.50554" lon="5.2855">
        <ele>251.3</ele>
        <time>2025-05-07T11:29:33.000Z</time>
      </trkpt>
      <trkpt lat="43.50552" lon="5.28552">
        <ele>251.2</ele>
        <time>2025-05-07T11:29:35.000Z</time>
      </trkpt>
      <trkpt lat="43.50551" lon="5.28554">
        <ele>251.2</ele>
        <time>2025-05-07T11:29:37.000Z</time>
      </trkpt>
      <trkpt lat="43.50549" lon="5.28556">
        <ele>251.2</ele>
        <time>2025-05-07T11:29:39.000Z</time>
      </trkpt>
      <trkpt lat="43.50548" lon="5.28559">
        <ele>251.2</ele>
        <time>2025-05-07T11:29:42.000Z</time>
      </trkpt>
      <trkpt lat="43.50546" lon="5.28561">
        <ele>251.2</ele>
        <time>2025-05-07T11:29:44.000Z</time>
      </trkpt>
      <trkpt lat="43.50545" lon="5.28563">
        <ele>251.2</ele>
        <time>2025-05-07T11:29:46.000Z</time>
      </trkpt>
      <trkpt lat="43.50543" lon="5.28565">
        <ele>251.3</ele>
        <time>2025-05-07T11:29:48.000Z</time>
      </trkpt>
      <trkpt lat="43.50541" lon="5.28567">
        <ele>251.3</ele>
        <time>2025-05-07T11:29:50.000Z</time>
      </trkpt>
      <trkpt lat="43.5054" lon="5.28571">
        <ele>251.3</ele>
        <time>2025-05-07T11:29:52.000Z</time>
      </trkpt>
      <trkpt lat="43.50539" lon="5.28573">
        <ele>251.3</ele>
        <time>2025-05-07T11:29:56.000Z</time>
      </trkpt>
      <trkpt lat="43.50538" lon="5.28576">
        <ele>251.4</ele>
        <time>2025-05-07T11:29:58.000Z</time>
      </trkpt>
      <trkpt lat="43.50537" lon="5.28579">
        <ele>251.4</ele>
        <time>2025-05-07T11:30:00.000Z</time>
      </trkpt>
      <trkpt lat="43.50536" lon="5.28582">
        <ele>251.5</ele>
        <time>2025-05-07T11:30:02.000Z</time>
      </trkpt>
      <trkpt lat="43.50534" lon="5.28585">
        <ele>251.5</ele>
        <time>2025-05-07T11:30:04.000Z</time>
      </trkpt>
      <trkpt lat="43.50533" lon="5.28587">
        <ele>251.6</ele>
        <time>2025-05-07T11:30:06.000Z</time>
      </trkpt>
      <trkpt lat="43.50532" lon="5.2859">
        <ele>251.7</ele>
        <time>2025-05-07T11:30:08.000Z</time>
      </trkpt>
      <trkpt lat="43.50531" lon="5.28592">
        <ele>251.8</ele>
        <time>2025-05-07T11:30:09.000Z</time>
      </trkpt>
      <trkpt lat="43.50531" lon="5.28595">
        <ele>251.8</ele>
        <time>2025-05-07T11:30:11.000Z</time>
      </trkpt>
      <trkpt lat="43.5053" lon="5.28597">
        <ele>251.9</ele>
        <time>2025-05-07T11:30:14.000Z</time>
      </trkpt>
      <trkpt lat="43.50529" lon="5.28601">
        <ele>252</ele>
        <time>2025-05-07T11:30:16.000Z</time>
      </trkpt>
      <trkpt lat="43.50527" lon="5.28603">
        <ele>252</ele>
        <time>2025-05-07T11:30:18.000Z</time>
      </trkpt>
      <trkpt lat="43.50526" lon="5.28605">
        <ele>252.1</ele>
        <time>2025-05-07T11:30:20.000Z</time>
      </trkpt>
      <trkpt lat="43.50525" lon="5.28608">
        <ele>252.1</ele>
        <time>2025-05-07T11:30:22.000Z</time>
      </trkpt>
      <trkpt lat="43.50525" lon="5.2861">
        <ele>252.1</ele>
        <time>2025-05-07T11:30:24.000Z</time>
      </trkpt>
      <trkpt lat="43.50523" lon="5.28613">
        <ele>252.1</ele>
        <time>2025-05-07T11:30:26.000Z</time>
      </trkpt>
      <trkpt lat="43.50523" lon="5.28615">
        <ele>252.1</ele>
        <time>2025-05-07T11:30:28.000Z</time>
      </trkpt>
      <trkpt lat="43.50522" lon="5.28618">
        <ele>252.2</ele>
        <time>2025-05-07T11:30:30.000Z</time>
      </trkpt>
      <trkpt lat="43.50521" lon="5.2862">
        <ele>252.2</ele>
        <time>2025-05-07T11:30:32.000Z</time>
      </trkpt>
      <trkpt lat="43.5052" lon="5.28623">
        <ele>252.2</ele>
        <time>2025-05-07T11:30:34.000Z</time>
      </trkpt>
      <trkpt lat="43.50519" lon="5.28625">
        <ele>252.2</ele>
        <time>2025-05-07T11:30:36.000Z</time>
      </trkpt>
      <trkpt lat="43.50518" lon="5.28628">
        <ele>252.1</ele>
        <time>2025-05-07T11:30:38.000Z</time>
      </trkpt>
      <trkpt lat="43.50517" lon="5.28631">
        <ele>252.1</ele>
        <time>2025-05-07T11:30:41.000Z</time>
      </trkpt>
      <trkpt lat="43.50515" lon="5.28633">
        <ele>252.1</ele>
        <time>2025-05-07T11:30:43.000Z</time>
      </trkpt>
      <trkpt lat="43.50513" lon="5.28635">
        <ele>252.1</ele>
        <time>2025-05-07T11:30:46.000Z</time>
      </trkpt>
      <trkpt lat="43.50512" lon="5.28638">
        <ele>252</ele>
        <time>2025-05-07T11:30:48.000Z</time>
      </trkpt>
      <trkpt lat="43.50511" lon="5.2864">
        <ele>252</ele>
        <time>2025-05-07T11:30:50.000Z</time>
      </trkpt>
      <trkpt lat="43.50509" lon="5.28642">
        <ele>251.9</ele>
        <time>2025-05-07T11:30:52.000Z</time>
      </trkpt>
      <trkpt lat="43.50507" lon="5.28643">
        <ele>251.8</ele>
        <time>2025-05-07T11:30:55.000Z</time>
      </trkpt>
      <trkpt lat="43.50506" lon="5.28646">
        <ele>251.7</ele>
        <time>2025-05-07T11:30:57.000Z</time>
      </trkpt>
      <trkpt lat="43.50505" lon="5.28648">
        <ele>251.7</ele>
        <time>2025-05-07T11:30:59.000Z</time>
      </trkpt>
      <trkpt lat="43.50504" lon="5.2865">
        <ele>251.6</ele>
        <time>2025-05-07T11:31:01.000Z</time>
      </trkpt>
      <trkpt lat="43.50502" lon="5.28653">
        <ele>251.5</ele>
        <time>2025-05-07T11:31:03.000Z</time>
      </trkpt>
      <trkpt lat="43.50501" lon="5.28655">
        <ele>251.4</ele>
        <time>2025-05-07T11:31:05.000Z</time>
      </trkpt>
      <trkpt lat="43.50499" lon="5.28659">
        <ele>251.3</ele>
        <time>2025-05-07T11:31:08.000Z</time>
      </trkpt>
      <trkpt lat="43.50498" lon="5.28661">
        <ele>251.3</ele>
        <time>2025-05-07T11:31:10.000Z</time>
      </trkpt>
      <trkpt lat="43.50496" lon="5.28664">
        <ele>251.3</ele>
        <time>2025-05-07T11:31:12.000Z</time>
      </trkpt>
      <trkpt lat="43.50495" lon="5.28667">
        <ele>251.2</ele>
        <time>2025-05-07T11:31:14.000Z</time>
      </trkpt>
      <trkpt lat="43.50493" lon="5.28669">
        <ele>251.1</ele>
        <time>2025-05-07T11:31:16.000Z</time>
      </trkpt>
      <trkpt lat="43.50492" lon="5.28671">
        <ele>251.1</ele>
        <time>2025-05-07T11:31:18.000Z</time>
      </trkpt>
      <trkpt lat="43.50491" lon="5.28674">
        <ele>251</ele>
        <time>2025-05-07T11:31:20.000Z</time>
      </trkpt>
      <trkpt lat="43.5049" lon="5.28677">
        <ele>250.9</ele>
        <time>2025-05-07T11:31:22.000Z</time>
      </trkpt>
      <trkpt lat="43.50489" lon="5.2868">
        <ele>250.7</ele>
        <time>2025-05-07T11:31:24.000Z</time>
      </trkpt>
      <trkpt lat="43.50487" lon="5.28683">
        <ele>250.6</ele>
        <time>2025-05-07T11:31:27.000Z</time>
      </trkpt>
      <trkpt lat="43.50486" lon="5.28684">
        <ele>250.6</ele>
        <time>2025-05-07T11:31:29.000Z</time>
      </trkpt>
      <trkpt lat="43.50483" lon="5.28688">
        <ele>250.4</ele>
        <time>2025-05-07T11:31:33.000Z</time>
      </trkpt>
      <trkpt lat="43.50482" lon="5.28692">
        <ele>250.2</ele>
        <time>2025-05-07T11:31:35.000Z</time>
      </trkpt>
      <trkpt lat="43.50481" lon="5.28694">
        <ele>250</ele>
        <time>2025-05-07T11:31:37.000Z</time>
      </trkpt>
      <trkpt lat="43.5048" lon="5.28697">
        <ele>249.9</ele>
        <time>2025-05-07T11:31:39.000Z</time>
      </trkpt>
      <trkpt lat="43.50479" lon="5.287">
        <ele>249.8</ele>
        <time>2025-05-07T11:31:42.000Z</time>
      </trkpt>
      <trkpt lat="43.50478" lon="5.28702">
        <ele>249.7</ele>
        <time>2025-05-07T11:31:44.000Z</time>
      </trkpt>
      <trkpt lat="43.50477" lon="5.28705">
        <ele>249.6</ele>
        <time>2025-05-07T11:31:46.000Z</time>
      </trkpt>
      <trkpt lat="43.50475" lon="5.28708">
        <ele>249.5</ele>
        <time>2025-05-07T11:31:49.000Z</time>
      </trkpt>
      <trkpt lat="43.50474" lon="5.2871">
        <ele>249.4</ele>
        <time>2025-05-07T11:31:51.000Z</time>
      </trkpt>
      <trkpt lat="43.50473" lon="5.28713">
        <ele>249.3</ele>
        <time>2025-05-07T11:31:54.000Z</time>
      </trkpt>
      <trkpt lat="43.50471" lon="5.28715">
        <ele>249.3</ele>
        <time>2025-05-07T11:31:56.000Z</time>
      </trkpt>
      <trkpt lat="43.5047" lon="5.28717">
        <ele>249.2</ele>
        <time>2025-05-07T11:31:58.000Z</time>
      </trkpt>
      <trkpt lat="43.50469" lon="5.2872">
        <ele>249.1</ele>
        <time>2025-05-07T11:32:00.000Z</time>
      </trkpt>
      <trkpt lat="43.50468" lon="5.28722">
        <ele>249</ele>
        <time>2025-05-07T11:32:03.000Z</time>
      </trkpt>
      <trkpt lat="43.50467" lon="5.28724">
        <ele>248.9</ele>
        <time>2025-05-07T11:32:05.000Z</time>
      </trkpt>
      <trkpt lat="43.50466" lon="5.28726">
        <ele>248.9</ele>
        <time>2025-05-07T11:32:07.000Z</time>
      </trkpt>
      <trkpt lat="43.50464" lon="5.28729">
        <ele>248.8</ele>
        <time>2025-05-07T11:32:09.000Z</time>
      </trkpt>
      <trkpt lat="43.50463" lon="5.28731">
        <ele>248.7</ele>
        <time>2025-05-07T11:32:11.000Z</time>
      </trkpt>
      <trkpt lat="43.50461" lon="5.28734">
        <ele>248.6</ele>
        <time>2025-05-07T11:32:14.000Z</time>
      </trkpt>
      <trkpt lat="43.5046" lon="5.28737">
        <ele>248.5</ele>
        <time>2025-05-07T11:32:16.000Z</time>
      </trkpt>
      <trkpt lat="43.50459" lon="5.2874">
        <ele>248.4</ele>
        <time>2025-05-07T11:32:18.000Z</time>
      </trkpt>
      <trkpt lat="43.50457" lon="5.28741">
        <ele>248.3</ele>
        <time>2025-05-07T11:32:20.000Z</time>
      </trkpt>
      <trkpt lat="43.50456" lon="5.28743">
        <ele>248.2</ele>
        <time>2025-05-07T11:32:22.000Z</time>
      </trkpt>
      <trkpt lat="43.50454" lon="5.28746">
        <ele>248.1</ele>
        <time>2025-05-07T11:32:24.000Z</time>
      </trkpt>
      <trkpt lat="43.50453" lon="5.28748">
        <ele>248.1</ele>
        <time>2025-05-07T11:32:26.000Z</time>
      </trkpt>
      <trkpt lat="43.50452" lon="5.2875">
        <ele>248</ele>
        <time>2025-05-07T11:32:28.000Z</time>
      </trkpt>
      <trkpt lat="43.50451" lon="5.28752">
        <ele>247.9</ele>
        <time>2025-05-07T11:32:30.000Z</time>
      </trkpt>
      <trkpt lat="43.50449" lon="5.28754">
        <ele>247.8</ele>
        <time>2025-05-07T11:32:32.000Z</time>
      </trkpt>
      <trkpt lat="43.50448" lon="5.28757">
        <ele>247.8</ele>
        <time>2025-05-07T11:32:34.000Z</time>
      </trkpt>
      <trkpt lat="43.50447" lon="5.2876">
        <ele>247.7</ele>
        <time>2025-05-07T11:32:36.000Z</time>
      </trkpt>
      <trkpt lat="43.50446" lon="5.28762">
        <ele>247.6</ele>
        <time>2025-05-07T11:32:38.000Z</time>
      </trkpt>
      <trkpt lat="43.50444" lon="5.28765">
        <ele>247.5</ele>
        <time>2025-05-07T11:32:42.000Z</time>
      </trkpt>
      <trkpt lat="43.50443" lon="5.28767">
        <ele>247.4</ele>
        <time>2025-05-07T11:32:44.000Z</time>
      </trkpt>
      <trkpt lat="43.50442" lon="5.2877">
        <ele>247.3</ele>
        <time>2025-05-07T11:32:46.000Z</time>
      </trkpt>
      <trkpt lat="43.5044" lon="5.28772">
        <ele>247.2</ele>
        <time>2025-05-07T11:32:48.000Z</time>
      </trkpt>
      <trkpt lat="43.50439" lon="5.28775">
        <ele>247.1</ele>
        <time>2025-05-07T11:32:50.000Z</time>
      </trkpt>
      <trkpt lat="43.50438" lon="5.28778">
        <ele>247</ele>
        <time>2025-05-07T11:32:52.000Z</time>
      </trkpt>
      <trkpt lat="43.50437" lon="5.28781">
        <ele>246.8</ele>
        <time>2025-05-07T11:32:54.000Z</time>
      </trkpt>
      <trkpt lat="43.50436" lon="5.28783">
        <ele>246.7</ele>
        <time>2025-05-07T11:32:56.000Z</time>
      </trkpt>
      <trkpt lat="43.50435" lon="5.28785">
        <ele>246.6</ele>
        <time>2025-05-07T11:32:58.000Z</time>
      </trkpt>
      <trkpt lat="43.50433" lon="5.28788">
        <ele>246.4</ele>
        <time>2025-05-07T11:33:00.000Z</time>
      </trkpt>
      <trkpt lat="43.50432" lon="5.2879">
        <ele>246.3</ele>
        <time>2025-05-07T11:33:03.000Z</time>
      </trkpt>
      <trkpt lat="43.5043" lon="5.28793">
        <ele>246.2</ele>
        <time>2025-05-07T11:33:06.000Z</time>
      </trkpt>
      <trkpt lat="43.50429" lon="5.28795">
        <ele>246.1</ele>
        <time>2025-05-07T11:33:08.000Z</time>
      </trkpt>
      <trkpt lat="43.50428" lon="5.28798">
        <ele>246</ele>
        <time>2025-05-07T11:33:10.000Z</time>
      </trkpt>
      <trkpt lat="43.50427" lon="5.288">
        <ele>245.9</ele>
        <time>2025-05-07T11:33:12.000Z</time>
      </trkpt>
      <trkpt lat="43.50425" lon="5.28803">
        <ele>245.8</ele>
        <time>2025-05-07T11:33:14.000Z</time>
      </trkpt>
      <trkpt lat="43.50424" lon="5.28806">
        <ele>245.7</ele>
        <time>2025-05-07T11:33:16.000Z</time>
      </trkpt>
      <trkpt lat="43.50422" lon="5.28809">
        <ele>245.7</ele>
        <time>2025-05-07T11:33:18.000Z</time>
      </trkpt>
      <trkpt lat="43.5042" lon="5.28812">
        <ele>245.6</ele>
        <time>2025-05-07T11:33:20.000Z</time>
      </trkpt>
      <trkpt lat="43.50419" lon="5.28814">
        <ele>245.6</ele>
        <time>2025-05-07T11:33:22.000Z</time>
      </trkpt>
      <trkpt lat="43.50418" lon="5.28817">
        <ele>245.6</ele>
        <time>2025-05-07T11:33:24.000Z</time>
      </trkpt>
      <trkpt lat="43.50416" lon="5.28819">
        <ele>245.5</ele>
        <time>2025-05-07T11:33:26.000Z</time>
      </trkpt>
      <trkpt lat="43.50415" lon="5.28821">
        <ele>245.5</ele>
        <time>2025-05-07T11:33:28.000Z</time>
      </trkpt>
      <trkpt lat="43.50413" lon="5.28824">
        <ele>245.4</ele>
        <time>2025-05-07T11:33:30.000Z</time>
      </trkpt>
      <trkpt lat="43.50412" lon="5.28827">
        <ele>245.3</ele>
        <time>2025-05-07T11:33:32.000Z</time>
      </trkpt>
      <trkpt lat="43.5041" lon="5.28829">
        <ele>245.2</ele>
        <time>2025-05-07T11:33:34.000Z</time>
      </trkpt>
      <trkpt lat="43.50409" lon="5.2883">
        <ele>245.1</ele>
        <time>2025-05-07T11:33:36.000Z</time>
      </trkpt>
      <trkpt lat="43.50407" lon="5.28832">
        <ele>245</ele>
        <time>2025-05-07T11:33:39.000Z</time>
      </trkpt>
      <trkpt lat="43.50405" lon="5.28835">
        <ele>244.9</ele>
        <time>2025-05-07T11:33:41.000Z</time>
      </trkpt>
      <trkpt lat="43.50404" lon="5.28837">
        <ele>244.8</ele>
        <time>2025-05-07T11:33:43.000Z</time>
      </trkpt>
      <trkpt lat="43.50403" lon="5.28839">
        <ele>244.7</ele>
        <time>2025-05-07T11:33:45.000Z</time>
      </trkpt>
      <trkpt lat="43.50401" lon="5.28842">
        <ele>244.5</ele>
        <time>2025-05-07T11:33:47.000Z</time>
      </trkpt>
      <trkpt lat="43.504" lon="5.28844">
        <ele>244.5</ele>
        <time>2025-05-07T11:33:49.000Z</time>
      </trkpt>
      <trkpt lat="43.50398" lon="5.28848">
        <ele>244.3</ele>
        <time>2025-05-07T11:33:52.000Z</time>
      </trkpt>
      <trkpt lat="43.50397" lon="5.28851">
        <ele>244.2</ele>
        <time>2025-05-07T11:33:54.000Z</time>
      </trkpt>
      <trkpt lat="43.50396" lon="5.28853">
        <ele>244.1</ele>
        <time>2025-05-07T11:33:56.000Z</time>
      </trkpt>
      <trkpt lat="43.50395" lon="5.28855">
        <ele>244.1</ele>
        <time>2025-05-07T11:33:58.000Z</time>
      </trkpt>
      <trkpt lat="43.50393" lon="5.28858">
        <ele>244</ele>
        <time>2025-05-07T11:34:00.000Z</time>
      </trkpt>
      <trkpt lat="43.50392" lon="5.2886">
        <ele>243.9</ele>
        <time>2025-05-07T11:34:02.000Z</time>
      </trkpt>
      <trkpt lat="43.5039" lon="5.28863">
        <ele>243.9</ele>
        <time>2025-05-07T11:34:05.000Z</time>
      </trkpt>
      <trkpt lat="43.50389" lon="5.28865">
        <ele>243.7</ele>
        <time>2025-05-07T11:34:07.000Z</time>
      </trkpt>
      <trkpt lat="43.50388" lon="5.28868">
        <ele>243.6</ele>
        <time>2025-05-07T11:34:09.000Z</time>
      </trkpt>
      <trkpt lat="43.50387" lon="5.28871">
        <ele>243.4</ele>
        <time>2025-05-07T11:34:11.000Z</time>
      </trkpt>
      <trkpt lat="43.50386" lon="5.28873">
        <ele>243.2</ele>
        <time>2025-05-07T11:34:13.000Z</time>
      </trkpt>
      <trkpt lat="43.50384" lon="5.28877">
        <ele>243.1</ele>
        <time>2025-05-07T11:34:15.000Z</time>
      </trkpt>
      <trkpt lat="43.50383" lon="5.28879">
        <ele>242.9</ele>
        <time>2025-05-07T11:34:17.000Z</time>
      </trkpt>
      <trkpt lat="43.50382" lon="5.28883">
        <ele>242.7</ele>
        <time>2025-05-07T11:34:19.000Z</time>
      </trkpt>
      <trkpt lat="43.50381" lon="5.28885">
        <ele>242.5</ele>
        <time>2025-05-07T11:34:21.000Z</time>
      </trkpt>
      <trkpt lat="43.5038" lon="5.28887">
        <ele>242.5</ele>
        <time>2025-05-07T11:34:23.000Z</time>
      </trkpt>
      <trkpt lat="43.50378" lon="5.2889">
        <ele>242.4</ele>
        <time>2025-05-07T11:34:25.000Z</time>
      </trkpt>
      <trkpt lat="43.50377" lon="5.28892">
        <ele>242.3</ele>
        <time>2025-05-07T11:34:27.000Z</time>
      </trkpt>
      <trkpt lat="43.50376" lon="5.28895">
        <ele>242.3</ele>
        <time>2025-05-07T11:34:29.000Z</time>
      </trkpt>
      <trkpt lat="43.50375" lon="5.28898">
        <ele>242.2</ele>
        <time>2025-05-07T11:34:32.000Z</time>
      </trkpt>
      <trkpt lat="43.50373" lon="5.28901">
        <ele>242.1</ele>
        <time>2025-05-07T11:34:34.000Z</time>
      </trkpt>
      <trkpt lat="43.50373" lon="5.28903">
        <ele>242.1</ele>
        <time>2025-05-07T11:34:36.000Z</time>
      </trkpt>
      <trkpt lat="43.50372" lon="5.28906">
        <ele>242</ele>
        <time>2025-05-07T11:34:38.000Z</time>
      </trkpt>
      <trkpt lat="43.5037" lon="5.28909">
        <ele>242</ele>
        <time>2025-05-07T11:34:40.000Z</time>
      </trkpt>
      <trkpt lat="43.50369" lon="5.28912">
        <ele>241.9</ele>
        <time>2025-05-07T11:34:43.000Z</time>
      </trkpt>
      <trkpt lat="43.50367" lon="5.28914">
        <ele>241.9</ele>
        <time>2025-05-07T11:34:45.000Z</time>
      </trkpt>
      <trkpt lat="43.50366" lon="5.28916">
        <ele>241.8</ele>
        <time>2025-05-07T11:34:47.000Z</time>
      </trkpt>
      <trkpt lat="43.50365" lon="5.2892">
        <ele>241.7</ele>
        <time>2025-05-07T11:34:49.000Z</time>
      </trkpt>
      <trkpt lat="43.50363" lon="5.28922">
        <ele>241.6</ele>
        <time>2025-05-07T11:34:51.000Z</time>
      </trkpt>
      <trkpt lat="43.50362" lon="5.28924">
        <ele>241.4</ele>
        <time>2025-05-07T11:34:53.000Z</time>
      </trkpt>
      <trkpt lat="43.50361" lon="5.28927">
        <ele>241.2</ele>
        <time>2025-05-07T11:34:55.000Z</time>
      </trkpt>
      <trkpt lat="43.50359" lon="5.28931">
        <ele>241</ele>
        <time>2025-05-07T11:34:58.000Z</time>
      </trkpt>
      <trkpt lat="43.50357" lon="5.28933">
        <ele>240.9</ele>
        <time>2025-05-07T11:35:00.000Z</time>
      </trkpt>
      <trkpt lat="43.50355" lon="5.28936">
        <ele>240.8</ele>
        <time>2025-05-07T11:35:03.000Z</time>
      </trkpt>
      <trkpt lat="43.50354" lon="5.28938">
        <ele>240.7</ele>
        <time>2025-05-07T11:35:05.000Z</time>
      </trkpt>
      <trkpt lat="43.50352" lon="5.2894">
        <ele>240.6</ele>
        <time>2025-05-07T11:35:08.000Z</time>
      </trkpt>
      <trkpt lat="43.5035" lon="5.28942">
        <ele>240.5</ele>
        <time>2025-05-07T11:35:10.000Z</time>
      </trkpt>
      <trkpt lat="43.50348" lon="5.28945">
        <ele>240.5</ele>
        <time>2025-05-07T11:35:12.000Z</time>
      </trkpt>
      <trkpt lat="43.50347" lon="5.28947">
        <ele>240.5</ele>
        <time>2025-05-07T11:35:14.000Z</time>
      </trkpt>
      <trkpt lat="43.50345" lon="5.2895">
        <ele>240.6</ele>
        <time>2025-05-07T11:35:16.000Z</time>
      </trkpt>
      <trkpt lat="43.50344" lon="5.28951">
        <ele>240.6</ele>
        <time>2025-05-07T11:35:18.000Z</time>
      </trkpt>
      <trkpt lat="43.50342" lon="5.28954">
        <ele>240.7</ele>
        <time>2025-05-07T11:35:20.000Z</time>
      </trkpt>
      <trkpt lat="43.50342" lon="5.28957">
        <ele>240.7</ele>
        <time>2025-05-07T11:35:22.000Z</time>
      </trkpt>
      <trkpt lat="43.5034" lon="5.28959">
        <ele>240.8</ele>
        <time>2025-05-07T11:35:24.000Z</time>
      </trkpt>
      <trkpt lat="43.50339" lon="5.28962">
        <ele>240.8</ele>
        <time>2025-05-07T11:35:26.000Z</time>
      </trkpt>
      <trkpt lat="43.50337" lon="5.28964">
        <ele>240.9</ele>
        <time>2025-05-07T11:35:28.000Z</time>
      </trkpt>
      <trkpt lat="43.50337" lon="5.28967">
        <ele>240.9</ele>
        <time>2025-05-07T11:35:31.000Z</time>
      </trkpt>
      <trkpt lat="43.50338" lon="5.28969">
        <ele>240.8</ele>
        <time>2025-05-07T11:35:48.000Z</time>
      </trkpt>
      <trkpt lat="43.50336" lon="5.28971">
        <ele>240.9</ele>
        <time>2025-05-07T11:36:31.000Z</time>
      </trkpt>
      <trkpt lat="43.50335" lon="5.28972">
        <ele>240.9</ele>
        <time>2025-05-07T11:36:33.000Z</time>
      </trkpt>
      <trkpt lat="43.50334" lon="5.28975">
        <ele>241.1</ele>
        <time>2025-05-07T11:36:36.000Z</time>
      </trkpt>
      <trkpt lat="43.50332" lon="5.28977">
        <ele>241.3</ele>
        <time>2025-05-07T11:36:40.000Z</time>
      </trkpt>
      <trkpt lat="43.5033" lon="5.28979">
        <ele>241.5</ele>
        <time>2025-05-07T11:36:43.000Z</time>
      </trkpt>
      <trkpt lat="43.50329" lon="5.28982">
        <ele>241.7</ele>
        <time>2025-05-07T11:36:46.000Z</time>
      </trkpt>
      <trkpt lat="43.50328" lon="5.28983">
        <ele>241.8</ele>
        <time>2025-05-07T11:36:48.000Z</time>
      </trkpt>
      <trkpt lat="43.50326" lon="5.28986">
        <ele>242</ele>
        <time>2025-05-07T11:36:51.000Z</time>
      </trkpt>
      <trkpt lat="43.50325" lon="5.28988">
        <ele>242.2</ele>
        <time>2025-05-07T11:36:54.000Z</time>
      </trkpt>
      <trkpt lat="43.50324" lon="5.28991">
        <ele>242.3</ele>
        <time>2025-05-07T11:36:57.000Z</time>
      </trkpt>
      <trkpt lat="43.50322" lon="5.28994">
        <ele>242.6</ele>
        <time>2025-05-07T11:37:01.000Z</time>
      </trkpt>
      <trkpt lat="43.50321" lon="5.28996">
        <ele>242.7</ele>
        <time>2025-05-07T11:37:04.000Z</time>
      </trkpt>
      <trkpt lat="43.50319" lon="5.28999">
        <ele>243</ele>
        <time>2025-05-07T11:37:09.000Z</time>
      </trkpt>
      <trkpt lat="43.50318" lon="5.29001">
        <ele>243.1</ele>
        <time>2025-05-07T11:37:13.000Z</time>
      </trkpt>
      <trkpt lat="43.50317" lon="5.29003">
        <ele>243.2</ele>
        <time>2025-05-07T11:37:15.000Z</time>
      </trkpt>
      <trkpt lat="43.50316" lon="5.29006">
        <ele>243.3</ele>
        <time>2025-05-07T11:37:18.000Z</time>
      </trkpt>
      <trkpt lat="43.50315" lon="5.29008">
        <ele>243.4</ele>
        <time>2025-05-07T11:37:20.000Z</time>
      </trkpt>
      <trkpt lat="43.50314" lon="5.29011">
        <ele>243.5</ele>
        <time>2025-05-07T11:37:22.000Z</time>
      </trkpt>
      <trkpt lat="43.50313" lon="5.29013">
        <ele>243.6</ele>
        <time>2025-05-07T11:37:24.000Z</time>
      </trkpt>
      <trkpt lat="43.50311" lon="5.29016">
        <ele>243.7</ele>
        <time>2025-05-07T11:37:26.000Z</time>
      </trkpt>
      <trkpt lat="43.50311" lon="5.29018">
        <ele>243.8</ele>
        <time>2025-05-07T11:37:28.000Z</time>
      </trkpt>
      <trkpt lat="43.50309" lon="5.29021">
        <ele>243.8</ele>
        <time>2025-05-07T11:37:30.000Z</time>
      </trkpt>
      <trkpt lat="43.50308" lon="5.29023">
        <ele>243.9</ele>
        <time>2025-05-07T11:37:32.000Z</time>
      </trkpt>
      <trkpt lat="43.50306" lon="5.29025">
        <ele>244</ele>
        <time>2025-05-07T11:37:34.000Z</time>
      </trkpt>
      <trkpt lat="43.50304" lon="5.29028">
        <ele>244.1</ele>
        <time>2025-05-07T11:37:37.000Z</time>
      </trkpt>
      <trkpt lat="43.50302" lon="5.2903">
        <ele>244.2</ele>
        <time>2025-05-07T11:37:39.000Z</time>
      </trkpt>
      <trkpt lat="43.50302" lon="5.29032">
        <ele>244.3</ele>
        <time>2025-05-07T11:37:41.000Z</time>
      </trkpt>
      <trkpt lat="43.503" lon="5.29034">
        <ele>244.3</ele>
        <time>2025-05-07T11:37:43.000Z</time>
      </trkpt>
      <trkpt lat="43.50301" lon="5.29037">
        <ele>244.3</ele>
        <time>2025-05-07T11:37:48.000Z</time>
      </trkpt>
      <trkpt lat="43.50299" lon="5.29039">
        <ele>244.4</ele>
        <time>2025-05-07T11:37:51.000Z</time>
      </trkpt>
      <trkpt lat="43.50298" lon="5.29041">
        <ele>244.4</ele>
        <time>2025-05-07T11:37:53.000Z</time>
      </trkpt>
      <trkpt lat="43.50296" lon="5.29043">
        <ele>244.5</ele>
        <time>2025-05-07T11:37:55.000Z</time>
      </trkpt>
      <trkpt lat="43.50295" lon="5.29046">
        <ele>244.5</ele>
        <time>2025-05-07T11:37:57.000Z</time>
      </trkpt>
      <trkpt lat="43.50294" lon="5.29048">
        <ele>244.5</ele>
        <time>2025-05-07T11:37:59.000Z</time>
      </trkpt>
      <trkpt lat="43.50293" lon="5.29051">
        <ele>244.5</ele>
        <time>2025-05-07T11:38:01.000Z</time>
      </trkpt>
      <trkpt lat="43.50292" lon="5.29054">
        <ele>244.5</ele>
        <time>2025-05-07T11:38:04.000Z</time>
      </trkpt>
      <trkpt lat="43.50291" lon="5.29056">
        <ele>244.5</ele>
        <time>2025-05-07T11:38:06.000Z</time>
      </trkpt>
      <trkpt lat="43.50289" lon="5.29058">
        <ele>244.5</ele>
        <time>2025-05-07T11:38:08.000Z</time>
      </trkpt>
      <trkpt lat="43.50288" lon="5.2906">
        <ele>244.5</ele>
        <time>2025-05-07T11:38:10.000Z</time>
      </trkpt>
      <trkpt lat="43.50287" lon="5.29063">
        <ele>244.4</ele>
        <time>2025-05-07T11:38:12.000Z</time>
      </trkpt>
      <trkpt lat="43.50285" lon="5.29067">
        <ele>244.3</ele>
        <time>2025-05-07T11:38:15.000Z</time>
      </trkpt>
      <trkpt lat="43.50284" lon="5.29069">
        <ele>244.3</ele>
        <time>2025-05-07T11:38:18.000Z</time>
      </trkpt>
      <trkpt lat="43.50282" lon="5.29072">
        <ele>244.2</ele>
        <time>2025-05-07T11:38:21.000Z</time>
      </trkpt>
      <trkpt lat="43.50281" lon="5.29075">
        <ele>244.2</ele>
        <time>2025-05-07T11:38:23.000Z</time>
      </trkpt>
      <trkpt lat="43.5028" lon="5.29077">
        <ele>244.2</ele>
        <time>2025-05-07T11:38:25.000Z</time>
      </trkpt>
      <trkpt lat="43.50278" lon="5.29079">
        <ele>244.1</ele>
        <time>2025-05-07T11:38:27.000Z</time>
      </trkpt>
      <trkpt lat="43.50276" lon="5.29082">
        <ele>244.1</ele>
        <time>2025-05-07T11:38:30.000Z</time>
      </trkpt>
      <trkpt lat="43.50275" lon="5.29084">
        <ele>244</ele>
        <time>2025-05-07T11:38:32.000Z</time>
      </trkpt>
      <trkpt lat="43.50274" lon="5.29087">
        <ele>243.9</ele>
        <time>2025-05-07T11:38:34.000Z</time>
      </trkpt>
      <trkpt lat="43.50272" lon="5.29089">
        <ele>243.8</ele>
        <time>2025-05-07T11:38:37.000Z</time>
      </trkpt>
      <trkpt lat="43.50271" lon="5.29092">
        <ele>243.7</ele>
        <time>2025-05-07T11:38:39.000Z</time>
      </trkpt>
      <trkpt lat="43.50269" lon="5.29093">
        <ele>243.7</ele>
        <time>2025-05-07T11:38:41.000Z</time>
      </trkpt>
      <trkpt lat="43.50268" lon="5.29095">
        <ele>243.7</ele>
        <time>2025-05-07T11:38:43.000Z</time>
      </trkpt>
      <trkpt lat="43.50267" lon="5.29098">
        <ele>243.6</ele>
        <time>2025-05-07T11:38:45.000Z</time>
      </trkpt>
      <trkpt lat="43.50266" lon="5.291">
        <ele>243.5</ele>
        <time>2025-05-07T11:38:47.000Z</time>
      </trkpt>
      <trkpt lat="43.50264" lon="5.29102">
        <ele>243.5</ele>
        <time>2025-05-07T11:38:49.000Z</time>
      </trkpt>
      <trkpt lat="43.50263" lon="5.29105">
        <ele>243.4</ele>
        <time>2025-05-07T11:38:52.000Z</time>
      </trkpt>
      <trkpt lat="43.50261" lon="5.29106">
        <ele>243.5</ele>
        <time>2025-05-07T11:38:54.000Z</time>
      </trkpt>
      <trkpt lat="43.50259" lon="5.29109">
        <ele>243.4</ele>
        <time>2025-05-07T11:38:57.000Z</time>
      </trkpt>
      <trkpt lat="43.50258" lon="5.29111">
        <ele>243.4</ele>
        <time>2025-05-07T11:38:59.000Z</time>
      </trkpt>
      <trkpt lat="43.50257" lon="5.29113">
        <ele>243.4</ele>
        <time>2025-05-07T11:39:01.000Z</time>
      </trkpt>
      <trkpt lat="43.50257" lon="5.29116">
        <ele>243.3</ele>
        <time>2025-05-07T11:39:03.000Z</time>
      </trkpt>
      <trkpt lat="43.50254" lon="5.2912">
        <ele>243.3</ele>
        <time>2025-05-07T11:39:06.000Z</time>
      </trkpt>
      <trkpt lat="43.50253" lon="5.29122">
        <ele>243.3</ele>
        <time>2025-05-07T11:39:08.000Z</time>
      </trkpt>
      <trkpt lat="43.50252" lon="5.29125">
        <ele>243.3</ele>
        <time>2025-05-07T11:39:10.000Z</time>
      </trkpt>
      <trkpt lat="43.50251" lon="5.29127">
        <ele>243.3</ele>
        <time>2025-05-07T11:39:12.000Z</time>
      </trkpt>
      <trkpt lat="43.5025" lon="5.2913">
        <ele>243.3</ele>
        <time>2025-05-07T11:39:14.000Z</time>
      </trkpt>
      <trkpt lat="43.50249" lon="5.29133">
        <ele>243.3</ele>
        <time>2025-05-07T11:39:16.000Z</time>
      </trkpt>
      <trkpt lat="43.50248" lon="5.29135">
        <ele>243.3</ele>
        <time>2025-05-07T11:39:18.000Z</time>
      </trkpt>
      <trkpt lat="43.50247" lon="5.29138">
        <ele>243.3</ele>
        <time>2025-05-07T11:39:20.000Z</time>
      </trkpt>
      <trkpt lat="43.50246" lon="5.2914">
        <ele>243.3</ele>
        <time>2025-05-07T11:39:22.000Z</time>
      </trkpt>
      <trkpt lat="43.50246" lon="5.29143">
        <ele>243.3</ele>
        <time>2025-05-07T11:39:24.000Z</time>
      </trkpt>
      <trkpt lat="43.50245" lon="5.29146">
        <ele>243.4</ele>
        <time>2025-05-07T11:39:26.000Z</time>
      </trkpt>
      <trkpt lat="43.50244" lon="5.29149">
        <ele>243.5</ele>
        <time>2025-05-07T11:39:29.000Z</time>
      </trkpt>
      <trkpt lat="43.50242" lon="5.29151">
        <ele>243.6</ele>
        <time>2025-05-07T11:39:31.000Z</time>
      </trkpt>
      <trkpt lat="43.50241" lon="5.29154">
        <ele>243.6</ele>
        <time>2025-05-07T11:39:33.000Z</time>
      </trkpt>
      <trkpt lat="43.5024" lon="5.29156">
        <ele>243.7</ele>
        <time>2025-05-07T11:39:35.000Z</time>
      </trkpt>
      <trkpt lat="43.50238" lon="5.29158">
        <ele>243.9</ele>
        <time>2025-05-07T11:39:37.000Z</time>
      </trkpt>
      <trkpt lat="43.50237" lon="5.29161">
        <ele>243.9</ele>
        <time>2025-05-07T11:39:39.000Z</time>
      </trkpt>
      <trkpt lat="43.50235" lon="5.29163">
        <ele>244.1</ele>
        <time>2025-05-07T11:39:41.000Z</time>
      </trkpt>
      <trkpt lat="43.50234" lon="5.29165">
        <ele>244.2</ele>
        <time>2025-05-07T11:39:43.000Z</time>
      </trkpt>
      <trkpt lat="43.50232" lon="5.29167">
        <ele>244.3</ele>
        <time>2025-05-07T11:39:45.000Z</time>
      </trkpt>
      <trkpt lat="43.5023" lon="5.2917">
        <ele>244.5</ele>
        <time>2025-05-07T11:39:48.000Z</time>
      </trkpt>
      <trkpt lat="43.50229" lon="5.29172">
        <ele>244.6</ele>
        <time>2025-05-07T11:39:50.000Z</time>
      </trkpt>
      <trkpt lat="43.50228" lon="5.29174">
        <ele>244.6</ele>
        <time>2025-05-07T11:39:52.000Z</time>
      </trkpt>
      <trkpt lat="43.50226" lon="5.29176">
        <ele>244.8</ele>
        <time>2025-05-07T11:39:54.000Z</time>
      </trkpt>
      <trkpt lat="43.50225" lon="5.29178">
        <ele>244.8</ele>
        <time>2025-05-07T11:39:56.000Z</time>
      </trkpt>
      <trkpt lat="43.50224" lon="5.2918">
        <ele>244.9</ele>
        <time>2025-05-07T11:39:58.000Z</time>
      </trkpt>
      <trkpt lat="43.50222" lon="5.29182">
        <ele>245</ele>
        <time>2025-05-07T11:40:00.000Z</time>
      </trkpt>
      <trkpt lat="43.50221" lon="5.29184">
        <ele>245</ele>
        <time>2025-05-07T11:40:02.000Z</time>
      </trkpt>
      <trkpt lat="43.5022" lon="5.29187">
        <ele>245</ele>
        <time>2025-05-07T11:40:04.000Z</time>
      </trkpt>
      <trkpt lat="43.50218" lon="5.29189">
        <ele>245</ele>
        <time>2025-05-07T11:40:06.000Z</time>
      </trkpt>
      <trkpt lat="43.50217" lon="5.29192">
        <ele>245</ele>
        <time>2025-05-07T11:40:08.000Z</time>
      </trkpt>
      <trkpt lat="43.50216" lon="5.29195">
        <ele>245</ele>
        <time>2025-05-07T11:40:11.000Z</time>
      </trkpt>
      <trkpt lat="43.50213" lon="5.292">
        <ele>244.8</ele>
        <time>2025-05-07T11:40:15.000Z</time>
      </trkpt>
      <trkpt lat="43.50212" lon="5.29202">
        <ele>244.7</ele>
        <time>2025-05-07T11:40:17.000Z</time>
      </trkpt>
      <trkpt lat="43.50211" lon="5.29204">
        <ele>244.6</ele>
        <time>2025-05-07T11:40:19.000Z</time>
      </trkpt>
      <trkpt lat="43.50209" lon="5.29207">
        <ele>244.5</ele>
        <time>2025-05-07T11:40:21.000Z</time>
      </trkpt>
      <trkpt lat="43.50208" lon="5.2921">
        <ele>244.4</ele>
        <time>2025-05-07T11:40:24.000Z</time>
      </trkpt>
      <trkpt lat="43.50207" lon="5.29213">
        <ele>244.3</ele>
        <time>2025-05-07T11:40:27.000Z</time>
      </trkpt>
      <trkpt lat="43.50206" lon="5.29215">
        <ele>244.3</ele>
        <time>2025-05-07T11:40:29.000Z</time>
      </trkpt>
      <trkpt lat="43.50204" lon="5.29217">
        <ele>244.2</ele>
        <time>2025-05-07T11:40:31.000Z</time>
      </trkpt>
      <trkpt lat="43.50202" lon="5.29221">
        <ele>244.1</ele>
        <time>2025-05-07T11:40:34.000Z</time>
      </trkpt>
      <trkpt lat="43.50201" lon="5.29223">
        <ele>244</ele>
        <time>2025-05-07T11:40:38.000Z</time>
      </trkpt>
      <trkpt lat="43.502" lon="5.29225">
        <ele>244</ele>
        <time>2025-05-07T11:40:41.000Z</time>
      </trkpt>
      <trkpt lat="43.50198" lon="5.29228">
        <ele>244</ele>
        <time>2025-05-07T11:40:43.000Z</time>
      </trkpt>
      <trkpt lat="43.50196" lon="5.2923">
        <ele>244</ele>
        <time>2025-05-07T11:40:45.000Z</time>
      </trkpt>
      <trkpt lat="43.50195" lon="5.29232">
        <ele>244</ele>
        <time>2025-05-07T11:40:47.000Z</time>
      </trkpt>
      <trkpt lat="43.50193" lon="5.29234">
        <ele>244</ele>
        <time>2025-05-07T11:40:49.000Z</time>
      </trkpt>
      <trkpt lat="43.50192" lon="5.29237">
        <ele>244</ele>
        <time>2025-05-07T11:40:51.000Z</time>
      </trkpt>
      <trkpt lat="43.50191" lon="5.29239">
        <ele>244.1</ele>
        <time>2025-05-07T11:40:53.000Z</time>
      </trkpt>
      <trkpt lat="43.50189" lon="5.29242">
        <ele>244.1</ele>
        <time>2025-05-07T11:40:55.000Z</time>
      </trkpt>
      <trkpt lat="43.50188" lon="5.29244">
        <ele>244.1</ele>
        <time>2025-05-07T11:40:57.000Z</time>
      </trkpt>
      <trkpt lat="43.50186" lon="5.29246">
        <ele>244</ele>
        <time>2025-05-07T11:40:59.000Z</time>
      </trkpt>
      <trkpt lat="43.50184" lon="5.29248">
        <ele>244</ele>
        <time>2025-05-07T11:41:02.000Z</time>
      </trkpt>
      <trkpt lat="43.50183" lon="5.2925">
        <ele>244</ele>
        <time>2025-05-07T11:41:04.000Z</time>
      </trkpt>
      <trkpt lat="43.5018" lon="5.29252">
        <ele>243.9</ele>
        <time>2025-05-07T11:41:06.000Z</time>
      </trkpt>
      <trkpt lat="43.50179" lon="5.29254">
        <ele>243.8</ele>
        <time>2025-05-07T11:41:09.000Z</time>
      </trkpt>
      <trkpt lat="43.50177" lon="5.29256">
        <ele>243.8</ele>
        <time>2025-05-07T11:41:11.000Z</time>
      </trkpt>
      <trkpt lat="43.50176" lon="5.29258">
        <ele>243.7</ele>
        <time>2025-05-07T11:41:13.000Z</time>
      </trkpt>
      <trkpt lat="43.50174" lon="5.29261">
        <ele>243.6</ele>
        <time>2025-05-07T11:41:15.000Z</time>
      </trkpt>
      <trkpt lat="43.50173" lon="5.29264">
        <ele>243.5</ele>
        <time>2025-05-07T11:41:17.000Z</time>
      </trkpt>
      <trkpt lat="43.50171" lon="5.29267">
        <ele>243.4</ele>
        <time>2025-05-07T11:41:20.000Z</time>
      </trkpt>
      <trkpt lat="43.5017" lon="5.2927">
        <ele>243.3</ele>
        <time>2025-05-07T11:41:22.000Z</time>
      </trkpt>
      <trkpt lat="43.50168" lon="5.29273">
        <ele>243.2</ele>
        <time>2025-05-07T11:41:25.000Z</time>
      </trkpt>
      <trkpt lat="43.50167" lon="5.29275">
        <ele>243.1</ele>
        <time>2025-05-07T11:41:27.000Z</time>
      </trkpt>
      <trkpt lat="43.50166" lon="5.29277">
        <ele>243</ele>
        <time>2025-05-07T11:41:29.000Z</time>
      </trkpt>
      <trkpt lat="43.50165" lon="5.29281">
        <ele>243.2</ele>
        <time>2025-05-07T11:41:32.000Z</time>
      </trkpt>
      <trkpt lat="43.50164" lon="5.29285">
        <ele>243.3</ele>
        <time>2025-05-07T11:41:35.000Z</time>
      </trkpt>
      <trkpt lat="43.50163" lon="5.29287">
        <ele>243.4</ele>
        <time>2025-05-07T11:41:37.000Z</time>
      </trkpt>
      <trkpt lat="43.50161" lon="5.2929">
        <ele>243.5</ele>
        <time>2025-05-07T11:41:39.000Z</time>
      </trkpt>
      <trkpt lat="43.5016" lon="5.29293">
        <ele>243.7</ele>
        <time>2025-05-07T11:41:41.000Z</time>
      </trkpt>
      <trkpt lat="43.50159" lon="5.29296">
        <ele>243.7</ele>
        <time>2025-05-07T11:41:43.000Z</time>
      </trkpt>
      <trkpt lat="43.50158" lon="5.29299">
        <ele>243.8</ele>
        <time>2025-05-07T11:41:47.000Z</time>
      </trkpt>
      <trkpt lat="43.50156" lon="5.29302">
        <ele>243.9</ele>
        <time>2025-05-07T11:41:49.000Z</time>
      </trkpt>
      <trkpt lat="43.50155" lon="5.29305">
        <ele>244</ele>
        <time>2025-05-07T11:41:53.000Z</time>
      </trkpt>
      <trkpt lat="43.50154" lon="5.29309">
        <ele>244</ele>
        <time>2025-05-07T11:41:55.000Z</time>
      </trkpt>
      <trkpt lat="43.50153" lon="5.29311">
        <ele>244</ele>
        <time>2025-05-07T11:41:57.000Z</time>
      </trkpt>
      <trkpt lat="43.50152" lon="5.29314">
        <ele>244</ele>
        <time>2025-05-07T11:41:59.000Z</time>
      </trkpt>
      <trkpt lat="43.5015" lon="5.29316">
        <ele>244</ele>
        <time>2025-05-07T11:42:01.000Z</time>
      </trkpt>
      <trkpt lat="43.50148" lon="5.2932">
        <ele>244</ele>
        <time>2025-05-07T11:42:05.000Z</time>
      </trkpt>
      <trkpt lat="43.50147" lon="5.29323">
        <ele>244</ele>
        <time>2025-05-07T11:42:07.000Z</time>
      </trkpt>
      <trkpt lat="43.50146" lon="5.29326">
        <ele>244</ele>
        <time>2025-05-07T11:42:09.000Z</time>
      </trkpt>
      <trkpt lat="43.50144" lon="5.29328">
        <ele>244</ele>
        <time>2025-05-07T11:42:11.000Z</time>
      </trkpt>
      <trkpt lat="43.50143" lon="5.29331">
        <ele>244</ele>
        <time>2025-05-07T11:42:13.000Z</time>
      </trkpt>
      <trkpt lat="43.50142" lon="5.29334">
        <ele>244</ele>
        <time>2025-05-07T11:42:15.000Z</time>
      </trkpt>
      <trkpt lat="43.50141" lon="5.29336">
        <ele>243.9</ele>
        <time>2025-05-07T11:42:17.000Z</time>
      </trkpt>
      <trkpt lat="43.50139" lon="5.29338">
        <ele>243.9</ele>
        <time>2025-05-07T11:42:19.000Z</time>
      </trkpt>
      <trkpt lat="43.50139" lon="5.2934">
        <ele>243.8</ele>
        <time>2025-05-07T11:42:21.000Z</time>
      </trkpt>
      <trkpt lat="43.50137" lon="5.29343">
        <ele>243.6</ele>
        <time>2025-05-07T11:42:23.000Z</time>
      </trkpt>
      <trkpt lat="43.50136" lon="5.29345">
        <ele>243.5</ele>
        <time>2025-05-07T11:42:25.000Z</time>
      </trkpt>
      <trkpt lat="43.50135" lon="5.29348">
        <ele>243.4</ele>
        <time>2025-05-07T11:42:27.000Z</time>
      </trkpt>
      <trkpt lat="43.50134" lon="5.2935">
        <ele>243.3</ele>
        <time>2025-05-07T11:42:29.000Z</time>
      </trkpt>
      <trkpt lat="43.50132" lon="5.29354">
        <ele>243.2</ele>
        <time>2025-05-07T11:42:32.000Z</time>
      </trkpt>
      <trkpt lat="43.50131" lon="5.29357">
        <ele>243.1</ele>
        <time>2025-05-07T11:42:34.000Z</time>
      </trkpt>
      <trkpt lat="43.50129" lon="5.29359">
        <ele>243.1</ele>
        <time>2025-05-07T11:42:36.000Z</time>
      </trkpt>
      <trkpt lat="43.50128" lon="5.29362">
        <ele>243</ele>
        <time>2025-05-07T11:42:40.000Z</time>
      </trkpt>
      <trkpt lat="43.50126" lon="5.29365">
        <ele>242.9</ele>
        <time>2025-05-07T11:42:43.000Z</time>
      </trkpt>
      <trkpt lat="43.50125" lon="5.29367">
        <ele>242.9</ele>
        <time>2025-05-07T11:42:45.000Z</time>
      </trkpt>
      <trkpt lat="43.50123" lon="5.29371">
        <ele>242.8</ele>
        <time>2025-05-07T11:42:48.000Z</time>
      </trkpt>
      <trkpt lat="43.50121" lon="5.29373">
        <ele>242.7</ele>
        <time>2025-05-07T11:42:50.000Z</time>
      </trkpt>
      <trkpt lat="43.5012" lon="5.29375">
        <ele>242.7</ele>
        <time>2025-05-07T11:42:52.000Z</time>
      </trkpt>
      <trkpt lat="43.50119" lon="5.29378">
        <ele>242.6</ele>
        <time>2025-05-07T11:42:55.000Z</time>
      </trkpt>
      <trkpt lat="43.50117" lon="5.2938">
        <ele>242.5</ele>
        <time>2025-05-07T11:42:58.000Z</time>
      </trkpt>
      <trkpt lat="43.50116" lon="5.29384">
        <ele>242.3</ele>
        <time>2025-05-07T11:43:01.000Z</time>
      </trkpt>
      <trkpt lat="43.50114" lon="5.29386">
        <ele>242.2</ele>
        <time>2025-05-07T11:43:03.000Z</time>
      </trkpt>
      <trkpt lat="43.50113" lon="5.29388">
        <ele>242.1</ele>
        <time>2025-05-07T11:43:05.000Z</time>
      </trkpt>
      <trkpt lat="43.50111" lon="5.2939">
        <ele>242</ele>
        <time>2025-05-07T11:43:07.000Z</time>
      </trkpt>
      <trkpt lat="43.5011" lon="5.29393">
        <ele>241.8</ele>
        <time>2025-05-07T11:43:09.000Z</time>
      </trkpt>
      <trkpt lat="43.50109" lon="5.29396">
        <ele>241.7</ele>
        <time>2025-05-07T11:43:12.000Z</time>
      </trkpt>
      <trkpt lat="43.50107" lon="5.29398">
        <ele>241.6</ele>
        <time>2025-05-07T11:43:14.000Z</time>
      </trkpt>
      <trkpt lat="43.50106" lon="5.29401">
        <ele>241.5</ele>
        <time>2025-05-07T11:43:16.000Z</time>
      </trkpt>
      <trkpt lat="43.50105" lon="5.29404">
        <ele>241.3</ele>
        <time>2025-05-07T11:43:18.000Z</time>
      </trkpt>
      <trkpt lat="43.50103" lon="5.29406">
        <ele>241.3</ele>
        <time>2025-05-07T11:43:20.000Z</time>
      </trkpt>
      <trkpt lat="43.50102" lon="5.29408">
        <ele>241.2</ele>
        <time>2025-05-07T11:43:22.000Z</time>
      </trkpt>
      <trkpt lat="43.501" lon="5.2941">
        <ele>241.1</ele>
        <time>2025-05-07T11:43:25.000Z</time>
      </trkpt>
      <trkpt lat="43.50099" lon="5.29413">
        <ele>241.1</ele>
        <time>2025-05-07T11:43:28.000Z</time>
      </trkpt>
      <trkpt lat="43.50097" lon="5.29415">
        <ele>241</ele>
        <time>2025-05-07T11:43:30.000Z</time>
      </trkpt>
      <trkpt lat="43.50096" lon="5.29417">
        <ele>241</ele>
        <time>2025-05-07T11:43:32.000Z</time>
      </trkpt>
      <trkpt lat="43.50095" lon="5.2942">
        <ele>240.9</ele>
        <time>2025-05-07T11:43:34.000Z</time>
      </trkpt>
      <trkpt lat="43.50094" lon="5.29422">
        <ele>240.8</ele>
        <time>2025-05-07T11:43:36.000Z</time>
      </trkpt>
      <trkpt lat="43.50092" lon="5.29424">
        <ele>240.7</ele>
        <time>2025-05-07T11:43:38.000Z</time>
      </trkpt>
      <trkpt lat="43.50091" lon="5.29427">
        <ele>240.6</ele>
        <time>2025-05-07T11:43:40.000Z</time>
      </trkpt>
      <trkpt lat="43.50089" lon="5.29429">
        <ele>240.6</ele>
        <time>2025-05-07T11:43:42.000Z</time>
      </trkpt>
      <trkpt lat="43.50088" lon="5.29431">
        <ele>240.5</ele>
        <time>2025-05-07T11:43:44.000Z</time>
      </trkpt>
      <trkpt lat="43.50087" lon="5.29434">
        <ele>240.4</ele>
        <time>2025-05-07T11:43:46.000Z</time>
      </trkpt>
      <trkpt lat="43.50086" lon="5.29436">
        <ele>240.3</ele>
        <time>2025-05-07T11:43:48.000Z</time>
      </trkpt>
      <trkpt lat="43.50084" lon="5.29438">
        <ele>240.2</ele>
        <time>2025-05-07T11:43:50.000Z</time>
      </trkpt>
      <trkpt lat="43.50084" lon="5.29441">
        <ele>240.1</ele>
        <time>2025-05-07T11:43:52.000Z</time>
      </trkpt>
      <trkpt lat="43.50083" lon="5.29445">
        <ele>240</ele>
        <time>2025-05-07T11:43:54.000Z</time>
      </trkpt>
      <trkpt lat="43.50082" lon="5.29448">
        <ele>239.9</ele>
        <time>2025-05-07T11:43:56.000Z</time>
      </trkpt>
      <trkpt lat="43.50081" lon="5.29451">
        <ele>239.9</ele>
        <time>2025-05-07T11:43:59.000Z</time>
      </trkpt>
      <trkpt lat="43.50079" lon="5.29453">
        <ele>239.8</ele>
        <time>2025-05-07T11:44:01.000Z</time>
      </trkpt>
      <trkpt lat="43.50078" lon="5.29456">
        <ele>239.8</ele>
        <time>2025-05-07T11:44:03.000Z</time>
      </trkpt>
      <trkpt lat="43.50077" lon="5.29459">
        <ele>239.7</ele>
        <time>2025-05-07T11:44:05.000Z</time>
      </trkpt>
      <trkpt lat="43.50076" lon="5.29462">
        <ele>239.6</ele>
        <time>2025-05-07T11:44:07.000Z</time>
      </trkpt>
      <trkpt lat="43.50075" lon="5.29466">
        <ele>239.5</ele>
        <time>2025-05-07T11:44:10.000Z</time>
      </trkpt>
      <trkpt lat="43.50073" lon="5.29468">
        <ele>239.5</ele>
        <time>2025-05-07T11:44:12.000Z</time>
      </trkpt>
      <trkpt lat="43.50071" lon="5.2947">
        <ele>239.5</ele>
        <time>2025-05-07T11:44:14.000Z</time>
      </trkpt>
      <trkpt lat="43.5007" lon="5.29472">
        <ele>239.5</ele>
        <time>2025-05-07T11:44:16.000Z</time>
      </trkpt>
      <trkpt lat="43.50068" lon="5.29475">
        <ele>239.5</ele>
        <time>2025-05-07T11:44:18.000Z</time>
      </trkpt>
      <trkpt lat="43.50067" lon="5.29478">
        <ele>239.5</ele>
        <time>2025-05-07T11:44:20.000Z</time>
      </trkpt>
      <trkpt lat="43.50067" lon="5.2948">
        <ele>239.5</ele>
        <time>2025-05-07T11:44:22.000Z</time>
      </trkpt>
      <trkpt lat="43.50066" lon="5.29483">
        <ele>239.5</ele>
        <time>2025-05-07T11:44:25.000Z</time>
      </trkpt>
      <trkpt lat="43.50064" lon="5.29485">
        <ele>239.6</ele>
        <time>2025-05-07T11:44:27.000Z</time>
      </trkpt>
      <trkpt lat="43.50062" lon="5.29487">
        <ele>239.7</ele>
        <time>2025-05-07T11:44:29.000Z</time>
      </trkpt>
      <trkpt lat="43.5006" lon="5.29489">
        <ele>239.7</ele>
        <time>2025-05-07T11:44:31.000Z</time>
      </trkpt>
      <trkpt lat="43.50059" lon="5.29492">
        <ele>239.8</ele>
        <time>2025-05-07T11:44:33.000Z</time>
      </trkpt>
      <trkpt lat="43.50058" lon="5.29495">
        <ele>239.9</ele>
        <time>2025-05-07T11:44:35.000Z</time>
      </trkpt>
      <trkpt lat="43.50056" lon="5.29497">
        <ele>239.9</ele>
        <time>2025-05-07T11:44:37.000Z</time>
      </trkpt>
      <trkpt lat="43.50054" lon="5.29497">
        <ele>240.1</ele>
        <time>2025-05-07T11:44:39.000Z</time>
      </trkpt>
      <trkpt lat="43.50052" lon="5.295">
        <ele>240.1</ele>
        <time>2025-05-07T11:44:41.000Z</time>
      </trkpt>
      <trkpt lat="43.50051" lon="5.29502">
        <ele>240.2</ele>
        <time>2025-05-07T11:44:42.000Z</time>
      </trkpt>
      <trkpt lat="43.50049" lon="5.29504">
        <ele>240.2</ele>
        <time>2025-05-07T11:44:45.000Z</time>
      </trkpt>
      <trkpt lat="43.50048" lon="5.29508">
        <ele>240.3</ele>
        <time>2025-05-07T11:44:48.000Z</time>
      </trkpt>
      <trkpt lat="43.50046" lon="5.2951">
        <ele>240.3</ele>
        <time>2025-05-07T11:44:50.000Z</time>
      </trkpt>
      <trkpt lat="43.50045" lon="5.29512">
        <ele>240.4</ele>
        <time>2025-05-07T11:44:52.000Z</time>
      </trkpt>
      <trkpt lat="43.50044" lon="5.29515">
        <ele>240.4</ele>
        <time>2025-05-07T11:44:54.000Z</time>
      </trkpt>
      <trkpt lat="43.50043" lon="5.29518">
        <ele>240.5</ele>
        <time>2025-05-07T11:44:57.000Z</time>
      </trkpt>
      <trkpt lat="43.5004" lon="5.29521">
        <ele>240.5</ele>
        <time>2025-05-07T11:45:00.000Z</time>
      </trkpt>
      <trkpt lat="43.50039" lon="5.29524">
        <ele>240.6</ele>
        <time>2025-05-07T11:45:02.000Z</time>
      </trkpt>
      <trkpt lat="43.50038" lon="5.29527">
        <ele>240.6</ele>
        <time>2025-05-07T11:45:04.000Z</time>
      </trkpt>
      <trkpt lat="43.50037" lon="5.29529">
        <ele>240.6</ele>
        <time>2025-05-07T11:45:07.000Z</time>
      </trkpt>
      <trkpt lat="43.50035" lon="5.29533">
        <ele>240.6</ele>
        <time>2025-05-07T11:45:10.000Z</time>
      </trkpt>
      <trkpt lat="43.50033" lon="5.29537">
        <ele>240.5</ele>
        <time>2025-05-07T11:45:13.000Z</time>
      </trkpt>
      <trkpt lat="43.50032" lon="5.2954">
        <ele>240.5</ele>
        <time>2025-05-07T11:45:15.000Z</time>
      </trkpt>
      <trkpt lat="43.5003" lon="5.29542">
        <ele>240.4</ele>
        <time>2025-05-07T11:45:17.000Z</time>
      </trkpt>
      <trkpt lat="43.50029" lon="5.29545">
        <ele>240.4</ele>
        <time>2025-05-07T11:45:19.000Z</time>
      </trkpt>
      <trkpt lat="43.50028" lon="5.29549">
        <ele>240.3</ele>
        <time>2025-05-07T11:45:21.000Z</time>
      </trkpt>
      <trkpt lat="43.50027" lon="5.29552">
        <ele>240.1</ele>
        <time>2025-05-07T11:45:24.000Z</time>
      </trkpt>
      <trkpt lat="43.50026" lon="5.29555">
        <ele>240</ele>
        <time>2025-05-07T11:45:27.000Z</time>
      </trkpt>
      <trkpt lat="43.50027" lon="5.29558">
        <ele>240</ele>
        <time>2025-05-07T11:45:30.000Z</time>
      </trkpt>
      <trkpt lat="43.50026" lon="5.29562">
        <ele>240</ele>
        <time>2025-05-07T11:45:32.000Z</time>
      </trkpt>
      <trkpt lat="43.50025" lon="5.29565">
        <ele>240</ele>
        <time>2025-05-07T11:45:34.000Z</time>
      </trkpt>
      <trkpt lat="43.50025" lon="5.29569">
        <ele>240</ele>
        <time>2025-05-07T11:45:36.000Z</time>
      </trkpt>
      <trkpt lat="43.50026" lon="5.29572">
        <ele>240</ele>
        <time>2025-05-07T11:45:38.000Z</time>
      </trkpt>
      <trkpt lat="43.50026" lon="5.29575">
        <ele>240</ele>
        <time>2025-05-07T11:45:40.000Z</time>
      </trkpt>
      <trkpt lat="43.50026" lon="5.29577">
        <ele>240</ele>
        <time>2025-05-07T11:45:42.000Z</time>
      </trkpt>
      <trkpt lat="43.50027" lon="5.2958">
        <ele>240</ele>
        <time>2025-05-07T11:45:44.000Z</time>
      </trkpt>
      <trkpt lat="43.50028" lon="5.29583">
        <ele>240</ele>
        <time>2025-05-07T11:45:46.000Z</time>
      </trkpt>
      <trkpt lat="43.50028" lon="5.29587">
        <ele>240.1</ele>
        <time>2025-05-07T11:45:48.000Z</time>
      </trkpt>
      <trkpt lat="43.50028" lon="5.2959">
        <ele>240.2</ele>
        <time>2025-05-07T11:45:50.000Z</time>
      </trkpt>
      <trkpt lat="43.50028" lon="5.29593">
        <ele>240.4</ele>
        <time>2025-05-07T11:45:53.000Z</time>
      </trkpt>
      <trkpt lat="43.50028" lon="5.29596">
        <ele>240.5</ele>
        <time>2025-05-07T11:45:55.000Z</time>
      </trkpt>
      <trkpt lat="43.50028" lon="5.29599">
        <ele>240.6</ele>
        <time>2025-05-07T11:45:57.000Z</time>
      </trkpt>
      <trkpt lat="43.50029" lon="5.29602">
        <ele>240.7</ele>
        <time>2025-05-07T11:45:59.000Z</time>
      </trkpt>
      <trkpt lat="43.5003" lon="5.29605">
        <ele>240.9</ele>
        <time>2025-05-07T11:46:01.000Z</time>
      </trkpt>
      <trkpt lat="43.5003" lon="5.29608">
        <ele>241</ele>
        <time>2025-05-07T11:46:03.000Z</time>
      </trkpt>
      <trkpt lat="43.5003" lon="5.2961">
        <ele>241.1</ele>
        <time>2025-05-07T11:46:05.000Z</time>
      </trkpt>
      <trkpt lat="43.50031" lon="5.29614">
        <ele>241.1</ele>
        <time>2025-05-07T11:46:08.000Z</time>
      </trkpt>
      <trkpt lat="43.50031" lon="5.29617">
        <ele>241.2</ele>
        <time>2025-05-07T11:46:10.000Z</time>
      </trkpt>
      <trkpt lat="43.50032" lon="5.29619">
        <ele>241.2</ele>
        <time>2025-05-07T11:46:12.000Z</time>
      </trkpt>
      <trkpt lat="43.50033" lon="5.29624">
        <ele>241.3</ele>
        <time>2025-05-07T11:46:15.000Z</time>
      </trkpt>
      <trkpt lat="43.50033" lon="5.29627">
        <ele>241.3</ele>
        <time>2025-05-07T11:46:17.000Z</time>
      </trkpt>
      <trkpt lat="43.50034" lon="5.29629">
        <ele>241.4</ele>
        <time>2025-05-07T11:46:19.000Z</time>
      </trkpt>
      <trkpt lat="43.50034" lon="5.29632">
        <ele>241.4</ele>
        <time>2025-05-07T11:46:22.000Z</time>
      </trkpt>
      <trkpt lat="43.50035" lon="5.29635">
        <ele>241.4</ele>
        <time>2025-05-07T11:46:24.000Z</time>
      </trkpt>
      <trkpt lat="43.50035" lon="5.29639">
        <ele>241.5</ele>
        <time>2025-05-07T11:46:27.000Z</time>
      </trkpt>
      <trkpt lat="43.50036" lon="5.29642">
        <ele>241.6</ele>
        <time>2025-05-07T11:46:29.000Z</time>
      </trkpt>
      <trkpt lat="43.50037" lon="5.29644">
        <ele>241.6</ele>
        <time>2025-05-07T11:46:31.000Z</time>
      </trkpt>
      <trkpt lat="43.50037" lon="5.29647">
        <ele>241.6</ele>
        <time>2025-05-07T11:46:33.000Z</time>
      </trkpt>
      <trkpt lat="43.50037" lon="5.2965">
        <ele>241.7</ele>
        <time>2025-05-07T11:46:35.000Z</time>
      </trkpt>
      <trkpt lat="43.50038" lon="5.29653">
        <ele>241.7</ele>
        <time>2025-05-07T11:46:37.000Z</time>
      </trkpt>
      <trkpt lat="43.50038" lon="5.29656">
        <ele>241.8</ele>
        <time>2025-05-07T11:46:39.000Z</time>
      </trkpt>
      <trkpt lat="43.50039" lon="5.29659">
        <ele>241.8</ele>
        <time>2025-05-07T11:46:41.000Z</time>
      </trkpt>
      <trkpt lat="43.5004" lon="5.29663">
        <ele>241.9</ele>
        <time>2025-05-07T11:46:43.000Z</time>
      </trkpt>
      <trkpt lat="43.50041" lon="5.29666">
        <ele>241.9</ele>
        <time>2025-05-07T11:46:45.000Z</time>
      </trkpt>
      <trkpt lat="43.50041" lon="5.29668">
        <ele>241.9</ele>
        <time>2025-05-07T11:46:47.000Z</time>
      </trkpt>
      <trkpt lat="43.50042" lon="5.29672">
        <ele>241.9</ele>
        <time>2025-05-07T11:46:49.000Z</time>
      </trkpt>
      <trkpt lat="43.50043" lon="5.29675">
        <ele>241.9</ele>
        <time>2025-05-07T11:46:52.000Z</time>
      </trkpt>
      <trkpt lat="43.50043" lon="5.29679">
        <ele>241.9</ele>
        <time>2025-05-07T11:46:54.000Z</time>
      </trkpt>
      <trkpt lat="43.50043" lon="5.29682">
        <ele>241.9</ele>
        <time>2025-05-07T11:46:56.000Z</time>
      </trkpt>
      <trkpt lat="43.50044" lon="5.29684">
        <ele>241.9</ele>
        <time>2025-05-07T11:46:58.000Z</time>
      </trkpt>
      <trkpt lat="43.50044" lon="5.29687">
        <ele>241.8</ele>
        <time>2025-05-07T11:47:00.000Z</time>
      </trkpt>
      <trkpt lat="43.50044" lon="5.2969">
        <ele>241.9</ele>
        <time>2025-05-07T11:47:02.000Z</time>
      </trkpt>
      <trkpt lat="43.50045" lon="5.29692">
        <ele>241.9</ele>
        <time>2025-05-07T11:47:04.000Z</time>
      </trkpt>
      <trkpt lat="43.50046" lon="5.29695">
        <ele>242</ele>
        <time>2025-05-07T11:47:06.000Z</time>
      </trkpt>
      <trkpt lat="43.50047" lon="5.29698">
        <ele>242.1</ele>
        <time>2025-05-07T11:47:08.000Z</time>
      </trkpt>
      <trkpt lat="43.50047" lon="5.29701">
        <ele>242.1</ele>
        <time>2025-05-07T11:47:10.000Z</time>
      </trkpt>
      <trkpt lat="43.50048" lon="5.29703">
        <ele>242.2</ele>
        <time>2025-05-07T11:47:12.000Z</time>
      </trkpt>
      <trkpt lat="43.50049" lon="5.29707">
        <ele>242.3</ele>
        <time>2025-05-07T11:47:14.000Z</time>
      </trkpt>
      <trkpt lat="43.5005" lon="5.2971">
        <ele>242.4</ele>
        <time>2025-05-07T11:47:16.000Z</time>
      </trkpt>
      <trkpt lat="43.5005" lon="5.29713">
        <ele>242.4</ele>
        <time>2025-05-07T11:47:18.000Z</time>
      </trkpt>
      <trkpt lat="43.50051" lon="5.29716">
        <ele>242.5</ele>
        <time>2025-05-07T11:47:20.000Z</time>
      </trkpt>
      <trkpt lat="43.50052" lon="5.29718">
        <ele>242.6</ele>
        <time>2025-05-07T11:47:22.000Z</time>
      </trkpt>
      <trkpt lat="43.50052" lon="5.29722">
        <ele>242.6</ele>
        <time>2025-05-07T11:47:24.000Z</time>
      </trkpt>
      <trkpt lat="43.50052" lon="5.29725">
        <ele>242.6</ele>
        <time>2025-05-07T11:47:26.000Z</time>
      </trkpt>
      <trkpt lat="43.50053" lon="5.29727">
        <ele>242.7</ele>
        <time>2025-05-07T11:47:28.000Z</time>
      </trkpt>
      <trkpt lat="43.50053" lon="5.2973">
        <ele>242.7</ele>
        <time>2025-05-07T11:47:30.000Z</time>
      </trkpt>
      <trkpt lat="43.50053" lon="5.29733">
        <ele>242.7</ele>
        <time>2025-05-07T11:47:32.000Z</time>
      </trkpt>
      <trkpt lat="43.50054" lon="5.29735">
        <ele>242.8</ele>
        <time>2025-05-07T11:47:34.000Z</time>
      </trkpt>
      <trkpt lat="43.50054" lon="5.29738">
        <ele>242.9</ele>
        <time>2025-05-07T11:47:36.000Z</time>
      </trkpt>
      <trkpt lat="43.50055" lon="5.29741">
        <ele>242.9</ele>
        <time>2025-05-07T11:47:38.000Z</time>
      </trkpt>
      <trkpt lat="43.50056" lon="5.29744">
        <ele>243</ele>
        <time>2025-05-07T11:47:40.000Z</time>
      </trkpt>
      <trkpt lat="43.50056" lon="5.29747">
        <ele>243.1</ele>
        <time>2025-05-07T11:47:42.000Z</time>
      </trkpt>
      <trkpt lat="43.50057" lon="5.2975">
        <ele>243.1</ele>
        <time>2025-05-07T11:47:44.000Z</time>
      </trkpt>
      <trkpt lat="43.50058" lon="5.29752">
        <ele>243.2</ele>
        <time>2025-05-07T11:47:46.000Z</time>
      </trkpt>
      <trkpt lat="43.50059" lon="5.29755">
        <ele>243.2</ele>
        <time>2025-05-07T11:47:48.000Z</time>
      </trkpt>
      <trkpt lat="43.50059" lon="5.29758">
        <ele>243.3</ele>
        <time>2025-05-07T11:47:50.000Z</time>
      </trkpt>
      <trkpt lat="43.50059" lon="5.29762">
        <ele>243.3</ele>
        <time>2025-05-07T11:47:53.000Z</time>
      </trkpt>
      <trkpt lat="43.50059" lon="5.29764">
        <ele>243.3</ele>
        <time>2025-05-07T11:47:55.000Z</time>
      </trkpt>
      <trkpt lat="43.5006" lon="5.29767">
        <ele>243.3</ele>
        <time>2025-05-07T11:47:57.000Z</time>
      </trkpt>
      <trkpt lat="43.50061" lon="5.2977">
        <ele>243.4</ele>
        <time>2025-05-07T11:47:59.000Z</time>
      </trkpt>
      <trkpt lat="43.50062" lon="5.29772">
        <ele>243.4</ele>
        <time>2025-05-07T11:48:01.000Z</time>
      </trkpt>
      <trkpt lat="43.50062" lon="5.29775">
        <ele>243.4</ele>
        <time>2025-05-07T11:48:03.000Z</time>
      </trkpt>
      <trkpt lat="43.50062" lon="5.29779">
        <ele>243.5</ele>
        <time>2025-05-07T11:48:06.000Z</time>
      </trkpt>
      <trkpt lat="43.50063" lon="5.29782">
        <ele>243.5</ele>
        <time>2025-05-07T11:48:09.000Z</time>
      </trkpt>
      <trkpt lat="43.50063" lon="5.29785">
        <ele>243.5</ele>
        <time>2025-05-07T11:48:11.000Z</time>
      </trkpt>
      <trkpt lat="43.50064" lon="5.29788">
        <ele>243.6</ele>
        <time>2025-05-07T11:48:13.000Z</time>
      </trkpt>
      <trkpt lat="43.50064" lon="5.29791">
        <ele>243.6</ele>
        <time>2025-05-07T11:48:16.000Z</time>
      </trkpt>
      <trkpt lat="43.50065" lon="5.29795">
        <ele>243.7</ele>
        <time>2025-05-07T11:48:34.000Z</time>
      </trkpt>
      <trkpt lat="43.50065" lon="5.29798">
        <ele>243.7</ele>
        <time>2025-05-07T11:48:37.000Z</time>
      </trkpt>
      <trkpt lat="43.50066" lon="5.29801">
        <ele>243.7</ele>
        <time>2025-05-07T11:48:39.000Z</time>
      </trkpt>
      <trkpt lat="43.50067" lon="5.29804">
        <ele>243.8</ele>
        <time>2025-05-07T11:48:42.000Z</time>
      </trkpt>
      <trkpt lat="43.50067" lon="5.29806">
        <ele>243.8</ele>
        <time>2025-05-07T11:48:44.000Z</time>
      </trkpt>
      <trkpt lat="43.50068" lon="5.29809">
        <ele>243.8</ele>
        <time>2025-05-07T11:48:46.000Z</time>
      </trkpt>
      <trkpt lat="43.50069" lon="5.29812">
        <ele>243.9</ele>
        <time>2025-05-07T11:48:49.000Z</time>
      </trkpt>
      <trkpt lat="43.5007" lon="5.29816">
        <ele>243.9</ele>
        <time>2025-05-07T11:48:52.000Z</time>
      </trkpt>
      <trkpt lat="43.5007" lon="5.29818">
        <ele>243.8</ele>
        <time>2025-05-07T11:48:54.000Z</time>
      </trkpt>
      <trkpt lat="43.50071" lon="5.29822">
        <ele>243.8</ele>
        <time>2025-05-07T11:48:57.000Z</time>
      </trkpt>
      <trkpt lat="43.50071" lon="5.29825">
        <ele>243.7</ele>
        <time>2025-05-07T11:48:59.000Z</time>
      </trkpt>
      <trkpt lat="43.50071" lon="5.29827">
        <ele>243.7</ele>
        <time>2025-05-07T11:49:01.000Z</time>
      </trkpt>
      <trkpt lat="43.50072" lon="5.29831">
        <ele>243.6</ele>
        <time>2025-05-07T11:49:03.000Z</time>
      </trkpt>
      <trkpt lat="43.50072" lon="5.29833">
        <ele>243.6</ele>
        <time>2025-05-07T11:49:05.000Z</time>
      </trkpt>
      <trkpt lat="43.50073" lon="5.29836">
        <ele>243.6</ele>
        <time>2025-05-07T11:49:07.000Z</time>
      </trkpt>
      <trkpt lat="43.50074" lon="5.29839">
        <ele>243.6</ele>
        <time>2025-05-07T11:49:09.000Z</time>
      </trkpt>
      <trkpt lat="43.50075" lon="5.29841">
        <ele>243.6</ele>
        <time>2025-05-07T11:49:11.000Z</time>
      </trkpt>
      <trkpt lat="43.50075" lon="5.29845">
        <ele>243.6</ele>
        <time>2025-05-07T11:49:14.000Z</time>
      </trkpt>
      <trkpt lat="43.50076" lon="5.29847">
        <ele>243.6</ele>
        <time>2025-05-07T11:49:16.000Z</time>
      </trkpt>
      <trkpt lat="43.50076" lon="5.2985">
        <ele>243.6</ele>
        <time>2025-05-07T11:49:18.000Z</time>
      </trkpt>
      <trkpt lat="43.50076" lon="5.29853">
        <ele>243.5</ele>
        <time>2025-05-07T11:49:20.000Z</time>
      </trkpt>
      <trkpt lat="43.50076" lon="5.29856">
        <ele>243.5</ele>
        <time>2025-05-07T11:49:22.000Z</time>
      </trkpt>
      <trkpt lat="43.50077" lon="5.29858">
        <ele>243.6</ele>
        <time>2025-05-07T11:49:24.000Z</time>
      </trkpt>
      <trkpt lat="43.50078" lon="5.29861">
        <ele>243.6</ele>
        <time>2025-05-07T11:49:26.000Z</time>
      </trkpt>
      <trkpt lat="43.50078" lon="5.29865">
        <ele>243.4</ele>
        <time>2025-05-07T11:49:30.000Z</time>
      </trkpt>
      <trkpt lat="43.50077" lon="5.29868">
        <ele>243.1</ele>
        <time>2025-05-07T11:49:33.000Z</time>
      </trkpt>
      <trkpt lat="43.50078" lon="5.2987">
        <ele>242.9</ele>
        <time>2025-05-07T11:49:48.000Z</time>
      </trkpt>
      <trkpt lat="43.50078" lon="5.29873">
        <ele>242.8</ele>
        <time>2025-05-07T11:50:07.000Z</time>
      </trkpt>
      <trkpt lat="43.50079" lon="5.29876">
        <ele>242.7</ele>
        <time>2025-05-07T11:50:09.000Z</time>
      </trkpt>
      <trkpt lat="43.5008" lon="5.29879">
        <ele>242.5</ele>
        <time>2025-05-07T11:50:12.000Z</time>
      </trkpt>
      <trkpt lat="43.50081" lon="5.29882">
        <ele>242.3</ele>
        <time>2025-05-07T11:50:14.000Z</time>
      </trkpt>
      <trkpt lat="43.50082" lon="5.29886">
        <ele>242.1</ele>
        <time>2025-05-07T11:50:17.000Z</time>
      </trkpt>
      <trkpt lat="43.50082" lon="5.29889">
        <ele>241.9</ele>
        <time>2025-05-07T11:50:19.000Z</time>
      </trkpt>
      <trkpt lat="43.50082" lon="5.29893">
        <ele>241.8</ele>
        <time>2025-05-07T11:50:22.000Z</time>
      </trkpt>
      <trkpt lat="43.50083" lon="5.29896">
        <ele>241.7</ele>
        <time>2025-05-07T11:50:24.000Z</time>
      </trkpt>
      <trkpt lat="43.50083" lon="5.29899">
        <ele>241.6</ele>
        <time>2025-05-07T11:50:27.000Z</time>
      </trkpt>
      <trkpt lat="43.50083" lon="5.29903">
        <ele>241.4</ele>
        <time>2025-05-07T11:50:30.000Z</time>
      </trkpt>
      <trkpt lat="43.50083" lon="5.29906">
        <ele>241.4</ele>
        <time>2025-05-07T11:50:33.000Z</time>
      </trkpt>
      <trkpt lat="43.50083" lon="5.29909">
        <ele>241.2</ele>
        <time>2025-05-07T11:50:35.000Z</time>
      </trkpt>
      <trkpt lat="43.50083" lon="5.29911">
        <ele>241.1</ele>
        <time>2025-05-07T11:50:37.000Z</time>
      </trkpt>
      <trkpt lat="43.50082" lon="5.29915">
        <ele>240.9</ele>
        <time>2025-05-07T11:50:40.000Z</time>
      </trkpt>
      <trkpt lat="43.50082" lon="5.29918">
        <ele>240.8</ele>
        <time>2025-05-07T11:50:42.000Z</time>
      </trkpt>
      <trkpt lat="43.50082" lon="5.29922">
        <ele>240.6</ele>
        <time>2025-05-07T11:50:45.000Z</time>
      </trkpt>
      <trkpt lat="43.50081" lon="5.29925">
        <ele>240.4</ele>
        <time>2025-05-07T11:50:47.000Z</time>
      </trkpt>
      <trkpt lat="43.50081" lon="5.29927">
        <ele>240.3</ele>
        <time>2025-05-07T11:50:49.000Z</time>
      </trkpt>
      <trkpt lat="43.50081" lon="5.29931">
        <ele>240.1</ele>
        <time>2025-05-07T11:50:52.000Z</time>
      </trkpt>
      <trkpt lat="43.5008" lon="5.29934">
        <ele>239.8</ele>
        <time>2025-05-07T11:50:54.000Z</time>
      </trkpt>
      <trkpt lat="43.5008" lon="5.29937">
        <ele>239.6</ele>
        <time>2025-05-07T11:50:56.000Z</time>
      </trkpt>
      <trkpt lat="43.50079" lon="5.2994">
        <ele>239.4</ele>
        <time>2025-05-07T11:50:58.000Z</time>
      </trkpt>
      <trkpt lat="43.50078" lon="5.29943">
        <ele>239.1</ele>
        <time>2025-05-07T11:51:00.000Z</time>
      </trkpt>
      <trkpt lat="43.50078" lon="5.29946">
        <ele>239</ele>
        <time>2025-05-07T11:51:03.000Z</time>
      </trkpt>
      <trkpt lat="43.50077" lon="5.29949">
        <ele>238.9</ele>
        <time>2025-05-07T11:51:06.000Z</time>
      </trkpt>
      <trkpt lat="43.50076" lon="5.29953">
        <ele>238.9</ele>
        <time>2025-05-07T11:51:08.000Z</time>
      </trkpt>
      <trkpt lat="43.50076" lon="5.29955">
        <ele>239</ele>
        <time>2025-05-07T11:51:10.000Z</time>
      </trkpt>
      <trkpt lat="43.50075" lon="5.29958">
        <ele>239</ele>
        <time>2025-05-07T11:51:12.000Z</time>
      </trkpt>
      <trkpt lat="43.50074" lon="5.29961">
        <ele>239</ele>
        <time>2025-05-07T11:51:14.000Z</time>
      </trkpt>
      <trkpt lat="43.50074" lon="5.29964">
        <ele>239</ele>
        <time>2025-05-07T11:51:16.000Z</time>
      </trkpt>
      <trkpt lat="43.50074" lon="5.29966">
        <ele>239.1</ele>
        <time>2025-05-07T11:51:18.000Z</time>
      </trkpt>
      <trkpt lat="43.50073" lon="5.2997">
        <ele>239.1</ele>
        <time>2025-05-07T11:51:21.000Z</time>
      </trkpt>
      <trkpt lat="43.50072" lon="5.29972">
        <ele>239.2</ele>
        <time>2025-05-07T11:51:23.000Z</time>
      </trkpt>
      <trkpt lat="43.50072" lon="5.29976">
        <ele>239.2</ele>
        <time>2025-05-07T11:51:25.000Z</time>
      </trkpt>
      <trkpt lat="43.50071" lon="5.29979">
        <ele>239.2</ele>
        <time>2025-05-07T11:51:27.000Z</time>
      </trkpt>
      <trkpt lat="43.5007" lon="5.29981">
        <ele>239.2</ele>
        <time>2025-05-07T11:51:29.000Z</time>
      </trkpt>
      <trkpt lat="43.50069" lon="5.29983">
        <ele>239.2</ele>
        <time>2025-05-07T11:51:31.000Z</time>
      </trkpt>
      <trkpt lat="43.50068" lon="5.29986">
        <ele>239.2</ele>
        <time>2025-05-07T11:51:33.000Z</time>
      </trkpt>
      <trkpt lat="43.50068" lon="5.29989">
        <ele>239.2</ele>
        <time>2025-05-07T11:51:35.000Z</time>
      </trkpt>
      <trkpt lat="43.50067" lon="5.29993">
        <ele>239.3</ele>
        <time>2025-05-07T11:51:38.000Z</time>
      </trkpt>
      <trkpt lat="43.50066" lon="5.29995">
        <ele>239.3</ele>
        <time>2025-05-07T11:51:40.000Z</time>
      </trkpt>
      <trkpt lat="43.50065" lon="5.29998">
        <ele>239.3</ele>
        <time>2025-05-07T11:51:42.000Z</time>
      </trkpt>
      <trkpt lat="43.50065" lon="5.30001">
        <ele>239.3</ele>
        <time>2025-05-07T11:51:44.000Z</time>
      </trkpt>
      <trkpt lat="43.50064" lon="5.30004">
        <ele>239.3</ele>
        <time>2025-05-07T11:51:46.000Z</time>
      </trkpt>
      <trkpt lat="43.50064" lon="5.30007">
        <ele>239.2</ele>
        <time>2025-05-07T11:51:48.000Z</time>
      </trkpt>
      <trkpt lat="43.50063" lon="5.30009">
        <ele>239.2</ele>
        <time>2025-05-07T11:51:50.000Z</time>
      </trkpt>
      <trkpt lat="43.50062" lon="5.30012">
        <ele>239.1</ele>
        <time>2025-05-07T11:51:52.000Z</time>
      </trkpt>
      <trkpt lat="43.50062" lon="5.30015">
        <ele>239.1</ele>
        <time>2025-05-07T11:51:54.000Z</time>
      </trkpt>
      <trkpt lat="43.50062" lon="5.30017">
        <ele>239.1</ele>
        <time>2025-05-07T11:51:56.000Z</time>
      </trkpt>
      <trkpt lat="43.50061" lon="5.30021">
        <ele>239</ele>
        <time>2025-05-07T11:52:01.000Z</time>
      </trkpt>
      <trkpt lat="43.5006" lon="5.30024">
        <ele>239</ele>
        <time>2025-05-07T11:52:03.000Z</time>
      </trkpt>
      <trkpt lat="43.50059" lon="5.30027">
        <ele>239</ele>
        <time>2025-05-07T11:52:05.000Z</time>
      </trkpt>
      <trkpt lat="43.50058" lon="5.30029">
        <ele>239</ele>
        <time>2025-05-07T11:52:07.000Z</time>
      </trkpt>
      <trkpt lat="43.50058" lon="5.30031">
        <ele>238.9</ele>
        <time>2025-05-07T11:52:09.000Z</time>
      </trkpt>
      <trkpt lat="43.50057" lon="5.30034">
        <ele>238.8</ele>
        <time>2025-05-07T11:52:11.000Z</time>
      </trkpt>
      <trkpt lat="43.50057" lon="5.30036">
        <ele>238.7</ele>
        <time>2025-05-07T11:52:13.000Z</time>
      </trkpt>
      <trkpt lat="43.50056" lon="5.30039">
        <ele>238.6</ele>
        <time>2025-05-07T11:52:15.000Z</time>
      </trkpt>
      <trkpt lat="43.50056" lon="5.30042">
        <ele>238.5</ele>
        <time>2025-05-07T11:52:17.000Z</time>
      </trkpt>
      <trkpt lat="43.50055" lon="5.30046">
        <ele>238.3</ele>
        <time>2025-05-07T11:52:20.000Z</time>
      </trkpt>
      <trkpt lat="43.50054" lon="5.3005">
        <ele>238.2</ele>
        <time>2025-05-07T11:52:23.000Z</time>
      </trkpt>
      <trkpt lat="43.50053" lon="5.30054">
        <ele>238.1</ele>
        <time>2025-05-07T11:52:26.000Z</time>
      </trkpt>
      <trkpt lat="43.50053" lon="5.30056">
        <ele>238</ele>
        <time>2025-05-07T11:52:28.000Z</time>
      </trkpt>
      <trkpt lat="43.50052" lon="5.30059">
        <ele>237.9</ele>
        <time>2025-05-07T11:52:30.000Z</time>
      </trkpt>
      <trkpt lat="43.50052" lon="5.30062">
        <ele>237.8</ele>
        <time>2025-05-07T11:52:32.000Z</time>
      </trkpt>
      <trkpt lat="43.50051" lon="5.30064">
        <ele>237.7</ele>
        <time>2025-05-07T11:52:34.000Z</time>
      </trkpt>
      <trkpt lat="43.5005" lon="5.30067">
        <ele>237.6</ele>
        <time>2025-05-07T11:52:36.000Z</time>
      </trkpt>
      <trkpt lat="43.5005" lon="5.3007">
        <ele>237.5</ele>
        <time>2025-05-07T11:52:38.000Z</time>
      </trkpt>
      <trkpt lat="43.50049" lon="5.30073">
        <ele>237.4</ele>
        <time>2025-05-07T11:52:41.000Z</time>
      </trkpt>
      <trkpt lat="43.50048" lon="5.30077">
        <ele>237.2</ele>
        <time>2025-05-07T11:52:45.000Z</time>
      </trkpt>
      <trkpt lat="43.50048" lon="5.3008">
        <ele>237.1</ele>
        <time>2025-05-07T11:52:47.000Z</time>
      </trkpt>
      <trkpt lat="43.50048" lon="5.30083">
        <ele>237</ele>
        <time>2025-05-07T11:52:49.000Z</time>
      </trkpt>
      <trkpt lat="43.50047" lon="5.30086">
        <ele>236.8</ele>
        <time>2025-05-07T11:52:51.000Z</time>
      </trkpt>
      <trkpt lat="43.50047" lon="5.30089">
        <ele>236.7</ele>
        <time>2025-05-07T11:52:53.000Z</time>
      </trkpt>
      <trkpt lat="43.50047" lon="5.30093">
        <ele>236.4</ele>
        <time>2025-05-07T11:52:56.000Z</time>
      </trkpt>
      <trkpt lat="43.50046" lon="5.30095">
        <ele>236.3</ele>
        <time>2025-05-07T11:52:58.000Z</time>
      </trkpt>
      <trkpt lat="43.50046" lon="5.30098">
        <ele>236.2</ele>
        <time>2025-05-07T11:53:00.000Z</time>
      </trkpt>
      <trkpt lat="43.50045" lon="5.30102">
        <ele>235.9</ele>
        <time>2025-05-07T11:53:03.000Z</time>
      </trkpt>
      <trkpt lat="43.50044" lon="5.30106">
        <ele>235.7</ele>
        <time>2025-05-07T11:53:06.000Z</time>
      </trkpt>
      <trkpt lat="43.50043" lon="5.30109">
        <ele>235.6</ele>
        <time>2025-05-07T11:53:08.000Z</time>
      </trkpt>
      <trkpt lat="43.50043" lon="5.30111">
        <ele>235.4</ele>
        <time>2025-05-07T11:53:10.000Z</time>
      </trkpt>
      <trkpt lat="43.50043" lon="5.30114">
        <ele>235.3</ele>
        <time>2025-05-07T11:53:12.000Z</time>
      </trkpt>
      <trkpt lat="43.50041" lon="5.30117">
        <ele>235.1</ele>
        <time>2025-05-07T11:53:15.000Z</time>
      </trkpt>
      <trkpt lat="43.50041" lon="5.30119">
        <ele>234.9</ele>
        <time>2025-05-07T11:53:17.000Z</time>
      </trkpt>
      <trkpt lat="43.5004" lon="5.30122">
        <ele>234.8</ele>
        <time>2025-05-07T11:53:20.000Z</time>
      </trkpt>
      <trkpt lat="43.50039" lon="5.30125">
        <ele>234.6</ele>
        <time>2025-05-07T11:53:23.000Z</time>
      </trkpt>
      <trkpt lat="43.50038" lon="5.30128">
        <ele>234.4</ele>
        <time>2025-05-07T11:53:25.000Z</time>
      </trkpt>
      <trkpt lat="43.50038" lon="5.3013">
        <ele>234.3</ele>
        <time>2025-05-07T11:53:30.000Z</time>
      </trkpt>
      <trkpt lat="43.50037" lon="5.30133">
        <ele>234.1</ele>
        <time>2025-05-07T11:53:32.000Z</time>
      </trkpt>
      <trkpt lat="43.50037" lon="5.30136">
        <ele>233.9</ele>
        <time>2025-05-07T11:53:34.000Z</time>
      </trkpt>
      <trkpt lat="43.50036" lon="5.30139">
        <ele>233.7</ele>
        <time>2025-05-07T11:53:36.000Z</time>
      </trkpt>
      <trkpt lat="43.50035" lon="5.30142">
        <ele>233.5</ele>
        <time>2025-05-07T11:53:38.000Z</time>
      </trkpt>
      <trkpt lat="43.50034" lon="5.30145">
        <ele>233.3</ele>
        <time>2025-05-07T11:53:40.000Z</time>
      </trkpt>
      <trkpt lat="43.50033" lon="5.30149">
        <ele>233.1</ele>
        <time>2025-05-07T11:53:42.000Z</time>
      </trkpt>
      <trkpt lat="43.50033" lon="5.30151">
        <ele>232.9</ele>
        <time>2025-05-07T11:53:44.000Z</time>
      </trkpt>
      <trkpt lat="43.50032" lon="5.30154">
        <ele>232.8</ele>
        <time>2025-05-07T11:53:46.000Z</time>
      </trkpt>
      <trkpt lat="43.50031" lon="5.30157">
        <ele>232.6</ele>
        <time>2025-05-07T11:53:49.000Z</time>
      </trkpt>
      <trkpt lat="43.5003" lon="5.3016">
        <ele>232.4</ele>
        <time>2025-05-07T11:53:51.000Z</time>
      </trkpt>
      <trkpt lat="43.50029" lon="5.30163">
        <ele>232.2</ele>
        <time>2025-05-07T11:53:53.000Z</time>
      </trkpt>
      <trkpt lat="43.50028" lon="5.30166">
        <ele>232.1</ele>
        <time>2025-05-07T11:53:55.000Z</time>
      </trkpt>
      <trkpt lat="43.50028" lon="5.30168">
        <ele>232</ele>
        <time>2025-05-07T11:53:57.000Z</time>
      </trkpt>
      <trkpt lat="43.50027" lon="5.30171">
        <ele>231.9</ele>
        <time>2025-05-07T11:54:00.000Z</time>
      </trkpt>
      <trkpt lat="43.50027" lon="5.30174">
        <ele>231.8</ele>
        <time>2025-05-07T11:54:02.000Z</time>
      </trkpt>
      <trkpt lat="43.50026" lon="5.30177">
        <ele>231.7</ele>
        <time>2025-05-07T11:54:04.000Z</time>
      </trkpt>
      <trkpt lat="43.50025" lon="5.30179">
        <ele>231.6</ele>
        <time>2025-05-07T11:54:06.000Z</time>
      </trkpt>
      <trkpt lat="43.50024" lon="5.30182">
        <ele>231.5</ele>
        <time>2025-05-07T11:54:08.000Z</time>
      </trkpt>
      <trkpt lat="43.50023" lon="5.30185">
        <ele>231.4</ele>
        <time>2025-05-07T11:54:10.000Z</time>
      </trkpt>
      <trkpt lat="43.50023" lon="5.30187">
        <ele>231.3</ele>
        <time>2025-05-07T11:54:12.000Z</time>
      </trkpt>
      <trkpt lat="43.50022" lon="5.3019">
        <ele>231.2</ele>
        <time>2025-05-07T11:54:14.000Z</time>
      </trkpt>
      <trkpt lat="43.50021" lon="5.30192">
        <ele>231.1</ele>
        <time>2025-05-07T11:54:17.000Z</time>
      </trkpt>
      <trkpt lat="43.50021" lon="5.30195">
        <ele>231</ele>
        <time>2025-05-07T11:54:20.000Z</time>
      </trkpt>
      <trkpt lat="43.5002" lon="5.30198">
        <ele>230.9</ele>
        <time>2025-05-07T11:54:22.000Z</time>
      </trkpt>
      <trkpt lat="43.50019" lon="5.30201">
        <ele>230.8</ele>
        <time>2025-05-07T11:54:24.000Z</time>
      </trkpt>
      <trkpt lat="43.50018" lon="5.30205">
        <ele>230.6</ele>
        <time>2025-05-07T11:54:26.000Z</time>
      </trkpt>
      <trkpt lat="43.50017" lon="5.30207">
        <ele>230.5</ele>
        <time>2025-05-07T11:54:28.000Z</time>
      </trkpt>
      <trkpt lat="43.50016" lon="5.3021">
        <ele>230.4</ele>
        <time>2025-05-07T11:54:30.000Z</time>
      </trkpt>
      <trkpt lat="43.50015" lon="5.30213">
        <ele>230.3</ele>
        <time>2025-05-07T11:54:32.000Z</time>
      </trkpt>
      <trkpt lat="43.50014" lon="5.30216">
        <ele>230.2</ele>
        <time>2025-05-07T11:54:34.000Z</time>
      </trkpt>
      <trkpt lat="43.50013" lon="5.30219">
        <ele>230.1</ele>
        <time>2025-05-07T11:54:36.000Z</time>
      </trkpt>
      <trkpt lat="43.50012" lon="5.30222">
        <ele>230</ele>
        <time>2025-05-07T11:54:38.000Z</time>
      </trkpt>
      <trkpt lat="43.50011" lon="5.30226">
        <ele>229.8</ele>
        <time>2025-05-07T11:54:41.000Z</time>
      </trkpt>
      <trkpt lat="43.5001" lon="5.30229">
        <ele>229.7</ele>
        <time>2025-05-07T11:54:43.000Z</time>
      </trkpt>
      <trkpt lat="43.5001" lon="5.30232">
        <ele>229.5</ele>
        <time>2025-05-07T11:54:45.000Z</time>
      </trkpt>
      <trkpt lat="43.50009" lon="5.30234">
        <ele>229.4</ele>
        <time>2025-05-07T11:54:47.000Z</time>
      </trkpt>
      <trkpt lat="43.50009" lon="5.30237">
        <ele>229.3</ele>
        <time>2025-05-07T11:54:49.000Z</time>
      </trkpt>
      <trkpt lat="43.50008" lon="5.30241">
        <ele>229.2</ele>
        <time>2025-05-07T11:54:51.000Z</time>
      </trkpt>
      <trkpt lat="43.50008" lon="5.30244">
        <ele>229</ele>
        <time>2025-05-07T11:54:53.000Z</time>
      </trkpt>
      <trkpt lat="43.50007" lon="5.30246">
        <ele>228.9</ele>
        <time>2025-05-07T11:54:55.000Z</time>
      </trkpt>
      <trkpt lat="43.50007" lon="5.30249">
        <ele>228.8</ele>
        <time>2025-05-07T11:54:57.000Z</time>
      </trkpt>
      <trkpt lat="43.50006" lon="5.30253">
        <ele>228.7</ele>
        <time>2025-05-07T11:55:00.000Z</time>
      </trkpt>
      <trkpt lat="43.50006" lon="5.30256">
        <ele>228.6</ele>
        <time>2025-05-07T11:55:02.000Z</time>
      </trkpt>
      <trkpt lat="43.50005" lon="5.3026">
        <ele>228.5</ele>
        <time>2025-05-07T11:55:04.000Z</time>
      </trkpt>
      <trkpt lat="43.50004" lon="5.30262">
        <ele>228.4</ele>
        <time>2025-05-07T11:55:06.000Z</time>
      </trkpt>
      <trkpt lat="43.50004" lon="5.30266">
        <ele>228.3</ele>
        <time>2025-05-07T11:55:08.000Z</time>
      </trkpt>
      <trkpt lat="43.50003" lon="5.30268">
        <ele>228.2</ele>
        <time>2025-05-07T11:55:10.000Z</time>
      </trkpt>
      <trkpt lat="43.50002" lon="5.30271">
        <ele>228.2</ele>
        <time>2025-05-07T11:55:12.000Z</time>
      </trkpt>
      <trkpt lat="43.50001" lon="5.30273">
        <ele>228.1</ele>
        <time>2025-05-07T11:55:14.000Z</time>
      </trkpt>
      <trkpt lat="43.5" lon="5.30276">
        <ele>228</ele>
        <time>2025-05-07T11:55:17.000Z</time>
      </trkpt>
      <trkpt lat="43.49999" lon="5.3028">
        <ele>227.9</ele>
        <time>2025-05-07T11:55:19.000Z</time>
      </trkpt>
      <trkpt lat="43.49997" lon="5.30283">
        <ele>227.7</ele>
        <time>2025-05-07T11:55:22.000Z</time>
      </trkpt>
      <trkpt lat="43.49997" lon="5.30286">
        <ele>227.6</ele>
        <time>2025-05-07T11:55:24.000Z</time>
      </trkpt>
      <trkpt lat="43.49997" lon="5.30288">
        <ele>227.5</ele>
        <time>2025-05-07T11:55:26.000Z</time>
      </trkpt>
      <trkpt lat="43.49995" lon="5.30291">
        <ele>227.4</ele>
        <time>2025-05-07T11:55:29.000Z</time>
      </trkpt>
      <trkpt lat="43.49994" lon="5.30294">
        <ele>227.2</ele>
        <time>2025-05-07T11:55:31.000Z</time>
      </trkpt>
      <trkpt lat="43.49994" lon="5.30297">
        <ele>227.1</ele>
        <time>2025-05-07T11:55:33.000Z</time>
      </trkpt>
      <trkpt lat="43.49993" lon="5.30299">
        <ele>227</ele>
        <time>2025-05-07T11:55:35.000Z</time>
      </trkpt>
      <trkpt lat="43.49993" lon="5.30302">
        <ele>226.9</ele>
        <time>2025-05-07T11:55:37.000Z</time>
      </trkpt>
      <trkpt lat="43.49992" lon="5.30305">
        <ele>226.7</ele>
        <time>2025-05-07T11:55:39.000Z</time>
      </trkpt>
      <trkpt lat="43.49991" lon="5.30307">
        <ele>226.6</ele>
        <time>2025-05-07T11:55:41.000Z</time>
      </trkpt>
      <trkpt lat="43.4999" lon="5.3031">
        <ele>226.5</ele>
        <time>2025-05-07T11:55:43.000Z</time>
      </trkpt>
      <trkpt lat="43.4999" lon="5.30313">
        <ele>226.5</ele>
        <time>2025-05-07T11:55:45.000Z</time>
      </trkpt>
      <trkpt lat="43.49988" lon="5.30315">
        <ele>226.4</ele>
        <time>2025-05-07T11:55:47.000Z</time>
      </trkpt>
      <trkpt lat="43.49987" lon="5.30318">
        <ele>226.3</ele>
        <time>2025-05-07T11:55:49.000Z</time>
      </trkpt>
      <trkpt lat="43.49986" lon="5.30322">
        <ele>226.2</ele>
        <time>2025-05-07T11:55:52.000Z</time>
      </trkpt>
      <trkpt lat="43.49985" lon="5.30325">
        <ele>226.1</ele>
        <time>2025-05-07T11:55:54.000Z</time>
      </trkpt>
      <trkpt lat="43.49985" lon="5.30328">
        <ele>226.1</ele>
        <time>2025-05-07T11:55:56.000Z</time>
      </trkpt>
      <trkpt lat="43.49984" lon="5.30332">
        <ele>226</ele>
        <time>2025-05-07T11:55:59.000Z</time>
      </trkpt>
      <trkpt lat="43.49983" lon="5.30335">
        <ele>226</ele>
        <time>2025-05-07T11:56:01.000Z</time>
      </trkpt>
      <trkpt lat="43.49983" lon="5.30337">
        <ele>225.9</ele>
        <time>2025-05-07T11:56:03.000Z</time>
      </trkpt>
      <trkpt lat="43.49982" lon="5.30341">
        <ele>225.8</ele>
        <time>2025-05-07T11:56:06.000Z</time>
      </trkpt>
      <trkpt lat="43.49982" lon="5.30344">
        <ele>225.7</ele>
        <time>2025-05-07T11:56:08.000Z</time>
      </trkpt>
      <trkpt lat="43.49981" lon="5.30347">
        <ele>225.7</ele>
        <time>2025-05-07T11:56:10.000Z</time>
      </trkpt>
      <trkpt lat="43.4998" lon="5.3035">
        <ele>225.6</ele>
        <time>2025-05-07T11:56:12.000Z</time>
      </trkpt>
      <trkpt lat="43.49979" lon="5.30353">
        <ele>225.5</ele>
        <time>2025-05-07T11:56:16.000Z</time>
      </trkpt>
      <trkpt lat="43.49978" lon="5.30356">
        <ele>225.4</ele>
        <time>2025-05-07T11:56:18.000Z</time>
      </trkpt>
      <trkpt lat="43.49978" lon="5.30359">
        <ele>225.3</ele>
        <time>2025-05-07T11:56:20.000Z</time>
      </trkpt>
      <trkpt lat="43.49977" lon="5.30361">
        <ele>225.2</ele>
        <time>2025-05-07T11:56:22.000Z</time>
      </trkpt>
      <trkpt lat="43.49976" lon="5.30364">
        <ele>225.1</ele>
        <time>2025-05-07T11:56:24.000Z</time>
      </trkpt>
      <trkpt lat="43.49975" lon="5.30368">
        <ele>225.1</ele>
        <time>2025-05-07T11:56:26.000Z</time>
      </trkpt>
      <trkpt lat="43.49975" lon="5.3037">
        <ele>225.1</ele>
        <time>2025-05-07T11:56:28.000Z</time>
      </trkpt>
      <trkpt lat="43.49974" lon="5.30373">
        <ele>225</ele>
        <time>2025-05-07T11:56:30.000Z</time>
      </trkpt>
      <trkpt lat="43.49973" lon="5.30376">
        <ele>225</ele>
        <time>2025-05-07T11:56:32.000Z</time>
      </trkpt>
      <trkpt lat="43.49972" lon="5.30378">
        <ele>225</ele>
        <time>2025-05-07T11:56:34.000Z</time>
      </trkpt>
      <trkpt lat="43.49972" lon="5.30382">
        <ele>225</ele>
        <time>2025-05-07T11:56:36.000Z</time>
      </trkpt>
      <trkpt lat="43.49971" lon="5.30385">
        <ele>225</ele>
        <time>2025-05-07T11:56:38.000Z</time>
      </trkpt>
      <trkpt lat="43.4997" lon="5.30389">
        <ele>224.9</ele>
        <time>2025-05-07T11:56:41.000Z</time>
      </trkpt>
      <trkpt lat="43.49969" lon="5.30392">
        <ele>224.8</ele>
        <time>2025-05-07T11:56:44.000Z</time>
      </trkpt>
      <trkpt lat="43.49968" lon="5.30395">
        <ele>224.7</ele>
        <time>2025-05-07T11:56:46.000Z</time>
      </trkpt>
      <trkpt lat="43.49967" lon="5.30398">
        <ele>224.5</ele>
        <time>2025-05-07T11:56:49.000Z</time>
      </trkpt>
      <trkpt lat="43.49965" lon="5.30402">
        <ele>224.4</ele>
        <time>2025-05-07T11:56:51.000Z</time>
      </trkpt>
      <trkpt lat="43.49964" lon="5.30405">
        <ele>224.3</ele>
        <time>2025-05-07T11:56:53.000Z</time>
      </trkpt>
      <trkpt lat="43.49964" lon="5.30407">
        <ele>224.2</ele>
        <time>2025-05-07T11:56:55.000Z</time>
      </trkpt>
      <trkpt lat="43.49963" lon="5.3041">
        <ele>224.2</ele>
        <time>2025-05-07T11:56:57.000Z</time>
      </trkpt>
      <trkpt lat="43.49963" lon="5.30413">
        <ele>224.1</ele>
        <time>2025-05-07T11:56:59.000Z</time>
      </trkpt>
      <trkpt lat="43.49961" lon="5.30415">
        <ele>224</ele>
        <time>2025-05-07T11:57:01.000Z</time>
      </trkpt>
      <trkpt lat="43.49961" lon="5.30418">
        <ele>223.9</ele>
        <time>2025-05-07T11:57:03.000Z</time>
      </trkpt>
      <trkpt lat="43.4996" lon="5.30421">
        <ele>223.8</ele>
        <time>2025-05-07T11:57:05.000Z</time>
      </trkpt>
      <trkpt lat="43.49959" lon="5.30423">
        <ele>223.7</ele>
        <time>2025-05-07T11:57:07.000Z</time>
      </trkpt>
      <trkpt lat="43.49958" lon="5.30426">
        <ele>223.5</ele>
        <time>2025-05-07T11:57:09.000Z</time>
      </trkpt>
      <trkpt lat="43.49958" lon="5.30429">
        <ele>223.3</ele>
        <time>2025-05-07T11:57:11.000Z</time>
      </trkpt>
      <trkpt lat="43.49958" lon="5.30432">
        <ele>223.2</ele>
        <time>2025-05-07T11:57:13.000Z</time>
      </trkpt>
      <trkpt lat="43.49957" lon="5.30435">
        <ele>223</ele>
        <time>2025-05-07T11:57:15.000Z</time>
      </trkpt>
      <trkpt lat="43.49956" lon="5.30438">
        <ele>222.8</ele>
        <time>2025-05-07T11:57:17.000Z</time>
      </trkpt>
      <trkpt lat="43.49955" lon="5.3044">
        <ele>222.6</ele>
        <time>2025-05-07T11:57:19.000Z</time>
      </trkpt>
      <trkpt lat="43.49955" lon="5.30443">
        <ele>222.5</ele>
        <time>2025-05-07T11:57:21.000Z</time>
      </trkpt>
      <trkpt lat="43.49954" lon="5.30446">
        <ele>222.3</ele>
        <time>2025-05-07T11:57:24.000Z</time>
      </trkpt>
      <trkpt lat="43.49954" lon="5.30448">
        <ele>222.1</ele>
        <time>2025-05-07T11:57:26.000Z</time>
      </trkpt>
      <trkpt lat="43.49952" lon="5.30451">
        <ele>222</ele>
        <time>2025-05-07T11:57:28.000Z</time>
      </trkpt>
      <trkpt lat="43.49951" lon="5.30454">
        <ele>221.8</ele>
        <time>2025-05-07T11:57:30.000Z</time>
      </trkpt>
      <trkpt lat="43.49951" lon="5.30457">
        <ele>221.7</ele>
        <time>2025-05-07T11:57:32.000Z</time>
      </trkpt>
      <trkpt lat="43.4995" lon="5.3046">
        <ele>221.5</ele>
        <time>2025-05-07T11:57:34.000Z</time>
      </trkpt>
      <trkpt lat="43.49949" lon="5.30463">
        <ele>221.4</ele>
        <time>2025-05-07T11:57:36.000Z</time>
      </trkpt>
      <trkpt lat="43.49949" lon="5.30466">
        <ele>221.2</ele>
        <time>2025-05-07T11:57:38.000Z</time>
      </trkpt>
      <trkpt lat="43.49948" lon="5.30469">
        <ele>221.1</ele>
        <time>2025-05-07T11:57:40.000Z</time>
      </trkpt>
      <trkpt lat="43.49948" lon="5.30471">
        <ele>221</ele>
        <time>2025-05-07T11:57:42.000Z</time>
      </trkpt>
      <trkpt lat="43.49947" lon="5.30474">
        <ele>220.9</ele>
        <time>2025-05-07T11:57:44.000Z</time>
      </trkpt>
      <trkpt lat="43.49946" lon="5.30477">
        <ele>220.7</ele>
        <time>2025-05-07T11:57:46.000Z</time>
      </trkpt>
      <trkpt lat="43.49946" lon="5.3048">
        <ele>220.5</ele>
        <time>2025-05-07T11:57:48.000Z</time>
      </trkpt>
      <trkpt lat="43.49946" lon="5.30482">
        <ele>220.3</ele>
        <time>2025-05-07T11:57:50.000Z</time>
      </trkpt>
      <trkpt lat="43.49945" lon="5.30485">
        <ele>220.1</ele>
        <time>2025-05-07T11:57:52.000Z</time>
      </trkpt>
      <trkpt lat="43.49943" lon="5.30488">
        <ele>219.8</ele>
        <time>2025-05-07T11:57:55.000Z</time>
      </trkpt>
      <trkpt lat="43.49943" lon="5.30491">
        <ele>219.6</ele>
        <time>2025-05-07T11:57:58.000Z</time>
      </trkpt>
      <trkpt lat="43.49942" lon="5.30494">
        <ele>219.4</ele>
        <time>2025-05-07T11:58:00.000Z</time>
      </trkpt>
      <trkpt lat="43.49941" lon="5.30496">
        <ele>219.1</ele>
        <time>2025-05-07T11:58:02.000Z</time>
      </trkpt>
      <trkpt lat="43.4994" lon="5.305">
        <ele>218.9</ele>
        <time>2025-05-07T11:58:05.000Z</time>
      </trkpt>
      <trkpt lat="43.4994" lon="5.30504">
        <ele>218.6</ele>
        <time>2025-05-07T11:58:08.000Z</time>
      </trkpt>
      <trkpt lat="43.4994" lon="5.30506">
        <ele>218.4</ele>
        <time>2025-05-07T11:58:10.000Z</time>
      </trkpt>
      <trkpt lat="43.49939" lon="5.30509">
        <ele>218.2</ele>
        <time>2025-05-07T11:58:12.000Z</time>
      </trkpt>
      <trkpt lat="43.49938" lon="5.30512">
        <ele>217.9</ele>
        <time>2025-05-07T11:58:14.000Z</time>
      </trkpt>
      <trkpt lat="43.49937" lon="5.30515">
        <ele>217.7</ele>
        <time>2025-05-07T11:58:17.000Z</time>
      </trkpt>
      <trkpt lat="43.49938" lon="5.30519">
        <ele>217.4</ele>
        <time>2025-05-07T11:58:20.000Z</time>
      </trkpt>
      <trkpt lat="43.49938" lon="5.30523">
        <ele>217.1</ele>
        <time>2025-05-07T11:58:23.000Z</time>
      </trkpt>
      <trkpt lat="43.49937" lon="5.30525">
        <ele>216.9</ele>
        <time>2025-05-07T11:58:25.000Z</time>
      </trkpt>
      <trkpt lat="43.49936" lon="5.30528">
        <ele>216.7</ele>
        <time>2025-05-07T11:58:27.000Z</time>
      </trkpt>
      <trkpt lat="43.49936" lon="5.30531">
        <ele>216.5</ele>
        <time>2025-05-07T11:58:29.000Z</time>
      </trkpt>
      <trkpt lat="43.49935" lon="5.30534">
        <ele>216.4</ele>
        <time>2025-05-07T11:58:31.000Z</time>
      </trkpt>
      <trkpt lat="43.49935" lon="5.30536">
        <ele>216.2</ele>
        <time>2025-05-07T11:58:33.000Z</time>
      </trkpt>
      <trkpt lat="43.49935" lon="5.30539">
        <ele>216.1</ele>
        <time>2025-05-07T11:58:35.000Z</time>
      </trkpt>
      <trkpt lat="43.49935" lon="5.30542">
        <ele>216</ele>
        <time>2025-05-07T11:58:37.000Z</time>
      </trkpt>
      <trkpt lat="43.49934" lon="5.30545">
        <ele>215.8</ele>
        <time>2025-05-07T11:58:39.000Z</time>
      </trkpt>
      <trkpt lat="43.49934" lon="5.30548">
        <ele>215.6</ele>
        <time>2025-05-07T11:58:41.000Z</time>
      </trkpt>
      <trkpt lat="43.49933" lon="5.30551">
        <ele>215.4</ele>
        <time>2025-05-07T11:58:44.000Z</time>
      </trkpt>
      <trkpt lat="43.49933" lon="5.30554">
        <ele>215.2</ele>
        <time>2025-05-07T11:58:47.000Z</time>
      </trkpt>
      <trkpt lat="43.49932" lon="5.30557">
        <ele>215</ele>
        <time>2025-05-07T11:58:49.000Z</time>
      </trkpt>
      <trkpt lat="43.49931" lon="5.3056">
        <ele>214.9</ele>
        <time>2025-05-07T11:58:51.000Z</time>
      </trkpt>
      <trkpt lat="43.49931" lon="5.30563">
        <ele>214.8</ele>
        <time>2025-05-07T11:58:53.000Z</time>
      </trkpt>
      <trkpt lat="43.4993" lon="5.30566">
        <ele>214.6</ele>
        <time>2025-05-07T11:58:56.000Z</time>
      </trkpt>
      <trkpt lat="43.4993" lon="5.30569">
        <ele>214.4</ele>
        <time>2025-05-07T11:58:58.000Z</time>
      </trkpt>
      <trkpt lat="43.49929" lon="5.30573">
        <ele>214.3</ele>
        <time>2025-05-07T11:59:00.000Z</time>
      </trkpt>
      <trkpt lat="43.49929" lon="5.30575">
        <ele>214.1</ele>
        <time>2025-05-07T11:59:02.000Z</time>
      </trkpt>
      <trkpt lat="43.49928" lon="5.30578">
        <ele>214</ele>
        <time>2025-05-07T11:59:05.000Z</time>
      </trkpt>
      <trkpt lat="43.49928" lon="5.30581">
        <ele>213.9</ele>
        <time>2025-05-07T11:59:08.000Z</time>
      </trkpt>
      <trkpt lat="43.49927" lon="5.30584">
        <ele>213.7</ele>
        <time>2025-05-07T11:59:10.000Z</time>
      </trkpt>
      <trkpt lat="43.49927" lon="5.30587">
        <ele>213.7</ele>
        <time>2025-05-07T11:59:12.000Z</time>
      </trkpt>
      <trkpt lat="43.49926" lon="5.3059">
        <ele>213.6</ele>
        <time>2025-05-07T11:59:14.000Z</time>
      </trkpt>
      <trkpt lat="43.49926" lon="5.30593">
        <ele>213.5</ele>
        <time>2025-05-07T11:59:16.000Z</time>
      </trkpt>
      <trkpt lat="43.49924" lon="5.30596">
        <ele>213.4</ele>
        <time>2025-05-07T11:59:18.000Z</time>
      </trkpt>
      <trkpt lat="43.49924" lon="5.30598">
        <ele>213.4</ele>
        <time>2025-05-07T11:59:20.000Z</time>
      </trkpt>
      <trkpt lat="43.49923" lon="5.30601">
        <ele>213.3</ele>
        <time>2025-05-07T11:59:22.000Z</time>
      </trkpt>
      <trkpt lat="43.49923" lon="5.30604">
        <ele>213.3</ele>
        <time>2025-05-07T11:59:24.000Z</time>
      </trkpt>
      <trkpt lat="43.49922" lon="5.30606">
        <ele>213.2</ele>
        <time>2025-05-07T11:59:26.000Z</time>
      </trkpt>
      <trkpt lat="43.49922" lon="5.30609">
        <ele>213.2</ele>
        <time>2025-05-07T11:59:28.000Z</time>
      </trkpt>
      <trkpt lat="43.49921" lon="5.30612">
        <ele>213.1</ele>
        <time>2025-05-07T11:59:30.000Z</time>
      </trkpt>
      <trkpt lat="43.4992" lon="5.30615">
        <ele>212.9</ele>
        <time>2025-05-07T11:59:33.000Z</time>
      </trkpt>
      <trkpt lat="43.49919" lon="5.30618">
        <ele>212.6</ele>
        <time>2025-05-07T11:59:35.000Z</time>
      </trkpt>
      <trkpt lat="43.49919" lon="5.30621">
        <ele>212.3</ele>
        <time>2025-05-07T11:59:38.000Z</time>
      </trkpt>
      <trkpt lat="43.49918" lon="5.30624">
        <ele>212.1</ele>
        <time>2025-05-07T11:59:40.000Z</time>
      </trkpt>
      <trkpt lat="43.49917" lon="5.30628">
        <ele>211.8</ele>
        <time>2025-05-07T11:59:43.000Z</time>
      </trkpt>
      <trkpt lat="43.49917" lon="5.30631">
        <ele>211.5</ele>
        <time>2025-05-07T11:59:45.000Z</time>
      </trkpt>
      <trkpt lat="43.49916" lon="5.30635">
        <ele>211.3</ele>
        <time>2025-05-07T11:59:47.000Z</time>
      </trkpt>
      <trkpt lat="43.49915" lon="5.30637">
        <ele>211.1</ele>
        <time>2025-05-07T11:59:49.000Z</time>
      </trkpt>
      <trkpt lat="43.49915" lon="5.3064">
        <ele>210.9</ele>
        <time>2025-05-07T11:59:51.000Z</time>
      </trkpt>
      <trkpt lat="43.49914" lon="5.30643">
        <ele>210.9</ele>
        <time>2025-05-07T11:59:53.000Z</time>
      </trkpt>
      <trkpt lat="43.49914" lon="5.30646">
        <ele>210.9</ele>
        <time>2025-05-07T11:59:55.000Z</time>
      </trkpt>
      <trkpt lat="43.49913" lon="5.30649">
        <ele>210.8</ele>
        <time>2025-05-07T11:59:57.000Z</time>
      </trkpt>
      <trkpt lat="43.49913" lon="5.30652">
        <ele>210.8</ele>
        <time>2025-05-07T11:59:59.000Z</time>
      </trkpt>
      <trkpt lat="43.49912" lon="5.30654">
        <ele>210.7</ele>
        <time>2025-05-07T12:00:01.000Z</time>
      </trkpt>
      <trkpt lat="43.49911" lon="5.30657">
        <ele>210.7</ele>
        <time>2025-05-07T12:00:03.000Z</time>
      </trkpt>
      <trkpt lat="43.49911" lon="5.3066">
        <ele>210.6</ele>
        <time>2025-05-07T12:00:05.000Z</time>
      </trkpt>
      <trkpt lat="43.4991" lon="5.30663">
        <ele>210.6</ele>
        <time>2025-05-07T12:00:08.000Z</time>
      </trkpt>
      <trkpt lat="43.4991" lon="5.30666">
        <ele>210.5</ele>
        <time>2025-05-07T12:00:10.000Z</time>
      </trkpt>
      <trkpt lat="43.49909" lon="5.30668">
        <ele>210.4</ele>
        <time>2025-05-07T12:00:12.000Z</time>
      </trkpt>
      <trkpt lat="43.49909" lon="5.30672">
        <ele>210.2</ele>
        <time>2025-05-07T12:00:14.000Z</time>
      </trkpt>
      <trkpt lat="43.49908" lon="5.30675">
        <ele>210.1</ele>
        <time>2025-05-07T12:00:16.000Z</time>
      </trkpt>
      <trkpt lat="43.49907" lon="5.30678">
        <ele>209.9</ele>
        <time>2025-05-07T12:00:18.000Z</time>
      </trkpt>
      <trkpt lat="43.49907" lon="5.3068">
        <ele>209.8</ele>
        <time>2025-05-07T12:00:20.000Z</time>
      </trkpt>
      <trkpt lat="43.49907" lon="5.30683">
        <ele>209.7</ele>
        <time>2025-05-07T12:00:22.000Z</time>
      </trkpt>
      <trkpt lat="43.49906" lon="5.30686">
        <ele>209.6</ele>
        <time>2025-05-07T12:00:24.000Z</time>
      </trkpt>
      <trkpt lat="43.49905" lon="5.30689">
        <ele>209.4</ele>
        <time>2025-05-07T12:00:27.000Z</time>
      </trkpt>
      <trkpt lat="43.49905" lon="5.30692">
        <ele>209.2</ele>
        <time>2025-05-07T12:00:29.000Z</time>
      </trkpt>
      <trkpt lat="43.49904" lon="5.30694">
        <ele>209.1</ele>
        <time>2025-05-07T12:00:31.000Z</time>
      </trkpt>
      <trkpt lat="43.49903" lon="5.30697">
        <ele>208.8</ele>
        <time>2025-05-07T12:00:33.000Z</time>
      </trkpt>
      <trkpt lat="43.49902" lon="5.307">
        <ele>208.6</ele>
        <time>2025-05-07T12:00:35.000Z</time>
      </trkpt>
      <trkpt lat="43.49901" lon="5.30704">
        <ele>208.4</ele>
        <time>2025-05-07T12:00:38.000Z</time>
      </trkpt>
      <trkpt lat="43.499" lon="5.30707">
        <ele>208.2</ele>
        <time>2025-05-07T12:00:40.000Z</time>
      </trkpt>
      <trkpt lat="43.499" lon="5.3071">
        <ele>208</ele>
        <time>2025-05-07T12:00:43.000Z</time>
      </trkpt>
      <trkpt lat="43.49898" lon="5.30713">
        <ele>207.8</ele>
        <time>2025-05-07T12:00:46.000Z</time>
      </trkpt>
      <trkpt lat="43.49898" lon="5.30717">
        <ele>207.6</ele>
        <time>2025-05-07T12:00:50.000Z</time>
      </trkpt>
      <trkpt lat="43.49897" lon="5.3072">
        <ele>207.4</ele>
        <time>2025-05-07T12:00:54.000Z</time>
      </trkpt>
      <trkpt lat="43.49896" lon="5.30724">
        <ele>207.2</ele>
        <time>2025-05-07T12:00:57.000Z</time>
      </trkpt>
      <trkpt lat="43.49896" lon="5.30727">
        <ele>207</ele>
        <time>2025-05-07T12:00:59.000Z</time>
      </trkpt>
      <trkpt lat="43.49895" lon="5.3073">
        <ele>206.8</ele>
        <time>2025-05-07T12:01:01.000Z</time>
      </trkpt>
      <trkpt lat="43.49895" lon="5.30732">
        <ele>206.6</ele>
        <time>2025-05-07T12:01:03.000Z</time>
      </trkpt>
      <trkpt lat="43.49894" lon="5.30735">
        <ele>206.3</ele>
        <time>2025-05-07T12:01:06.000Z</time>
      </trkpt>
      <trkpt lat="43.49894" lon="5.30738">
        <ele>206.1</ele>
        <time>2025-05-07T12:01:08.000Z</time>
      </trkpt>
      <trkpt lat="43.49893" lon="5.30741">
        <ele>205.9</ele>
        <time>2025-05-07T12:01:10.000Z</time>
      </trkpt>
      <trkpt lat="43.49892" lon="5.30744">
        <ele>205.6</ele>
        <time>2025-05-07T12:01:13.000Z</time>
      </trkpt>
      <trkpt lat="43.49892" lon="5.30747">
        <ele>205.4</ele>
        <time>2025-05-07T12:01:15.000Z</time>
      </trkpt>
      <trkpt lat="43.49891" lon="5.3075">
        <ele>205.2</ele>
        <time>2025-05-07T12:01:17.000Z</time>
      </trkpt>
      <trkpt lat="43.49891" lon="5.30753">
        <ele>204.9</ele>
        <time>2025-05-07T12:01:19.000Z</time>
      </trkpt>
      <trkpt lat="43.49889" lon="5.30756">
        <ele>204.6</ele>
        <time>2025-05-07T12:01:22.000Z</time>
      </trkpt>
      <trkpt lat="43.49889" lon="5.30759">
        <ele>204.4</ele>
        <time>2025-05-07T12:01:24.000Z</time>
      </trkpt>
      <trkpt lat="43.49888" lon="5.30761">
        <ele>204.1</ele>
        <time>2025-05-07T12:01:26.000Z</time>
      </trkpt>
      <trkpt lat="43.49887" lon="5.30765">
        <ele>203.8</ele>
        <time>2025-05-07T12:01:29.000Z</time>
      </trkpt>
      <trkpt lat="43.49887" lon="5.30767">
        <ele>203.6</ele>
        <time>2025-05-07T12:01:31.000Z</time>
      </trkpt>
      <trkpt lat="43.49886" lon="5.3077">
        <ele>203.3</ele>
        <time>2025-05-07T12:01:34.000Z</time>
      </trkpt>
      <trkpt lat="43.49885" lon="5.30773">
        <ele>203.1</ele>
        <time>2025-05-07T12:01:36.000Z</time>
      </trkpt>
      <trkpt lat="43.49885" lon="5.30776">
        <ele>202.9</ele>
        <time>2025-05-07T12:01:38.000Z</time>
      </trkpt>
      <trkpt lat="43.49884" lon="5.30779">
        <ele>202.6</ele>
        <time>2025-05-07T12:01:40.000Z</time>
      </trkpt>
      <trkpt lat="43.49884" lon="5.30782">
        <ele>202.4</ele>
        <time>2025-05-07T12:01:43.000Z</time>
      </trkpt>
      <trkpt lat="43.49883" lon="5.30785">
        <ele>202.2</ele>
        <time>2025-05-07T12:01:45.000Z</time>
      </trkpt>
      <trkpt lat="43.49882" lon="5.30788">
        <ele>202</ele>
        <time>2025-05-07T12:01:47.000Z</time>
      </trkpt>
      <trkpt lat="43.4988" lon="5.3079">
        <ele>201.8</ele>
        <time>2025-05-07T12:01:49.000Z</time>
      </trkpt>
      <trkpt lat="43.49879" lon="5.30793">
        <ele>201.5</ele>
        <time>2025-05-07T12:01:52.000Z</time>
      </trkpt>
      <trkpt lat="43.49878" lon="5.30796">
        <ele>201.3</ele>
        <time>2025-05-07T12:01:54.000Z</time>
      </trkpt>
      <trkpt lat="43.49877" lon="5.30799">
        <ele>201</ele>
        <time>2025-05-07T12:01:56.000Z</time>
      </trkpt>
      <trkpt lat="43.49876" lon="5.30802">
        <ele>200.8</ele>
        <time>2025-05-07T12:01:58.000Z</time>
      </trkpt>
      <trkpt lat="43.49875" lon="5.30804">
        <ele>200.6</ele>
        <time>2025-05-07T12:02:00.000Z</time>
      </trkpt>
      <trkpt lat="43.49874" lon="5.30806">
        <ele>200.4</ele>
        <time>2025-05-07T12:02:02.000Z</time>
      </trkpt>
      <trkpt lat="43.49873" lon="5.30808">
        <ele>200.2</ele>
        <time>2025-05-07T12:02:04.000Z</time>
      </trkpt>
      <trkpt lat="43.49872" lon="5.30811">
        <ele>200</ele>
        <time>2025-05-07T12:02:06.000Z</time>
      </trkpt>
      <trkpt lat="43.49871" lon="5.30813">
        <ele>199.7</ele>
        <time>2025-05-07T12:02:08.000Z</time>
      </trkpt>
      <trkpt lat="43.49869" lon="5.30816">
        <ele>199.5</ele>
        <time>2025-05-07T12:02:10.000Z</time>
      </trkpt>
      <trkpt lat="43.49868" lon="5.30819">
        <ele>199.3</ele>
        <time>2025-05-07T12:02:13.000Z</time>
      </trkpt>
      <trkpt lat="43.49867" lon="5.30822">
        <ele>199.1</ele>
        <time>2025-05-07T12:02:15.000Z</time>
      </trkpt>
      <trkpt lat="43.49866" lon="5.30824">
        <ele>198.9</ele>
        <time>2025-05-07T12:02:17.000Z</time>
      </trkpt>
      <trkpt lat="43.49865" lon="5.30827">
        <ele>198.6</ele>
        <time>2025-05-07T12:02:19.000Z</time>
      </trkpt>
      <trkpt lat="43.49864" lon="5.30829">
        <ele>198.4</ele>
        <time>2025-05-07T12:02:21.000Z</time>
      </trkpt>
      <trkpt lat="43.49862" lon="5.30831">
        <ele>198.2</ele>
        <time>2025-05-07T12:02:23.000Z</time>
      </trkpt>
      <trkpt lat="43.49861" lon="5.30834">
        <ele>197.9</ele>
        <time>2025-05-07T12:02:25.000Z</time>
      </trkpt>
      <trkpt lat="43.4986" lon="5.30836">
        <ele>197.8</ele>
        <time>2025-05-07T12:02:27.000Z</time>
      </trkpt>
      <trkpt lat="43.49858" lon="5.30838">
        <ele>197.6</ele>
        <time>2025-05-07T12:02:29.000Z</time>
      </trkpt>
      <trkpt lat="43.49856" lon="5.30841">
        <ele>197.3</ele>
        <time>2025-05-07T12:02:32.000Z</time>
      </trkpt>
      <trkpt lat="43.49854" lon="5.30844">
        <ele>197.2</ele>
        <time>2025-05-07T12:02:34.000Z</time>
      </trkpt>
      <trkpt lat="43.49853" lon="5.30847">
        <ele>197.1</ele>
        <time>2025-05-07T12:02:36.000Z</time>
      </trkpt>
      <trkpt lat="43.49851" lon="5.3085">
        <ele>197</ele>
        <time>2025-05-07T12:02:39.000Z</time>
      </trkpt>
      <trkpt lat="43.49849" lon="5.30852">
        <ele>196.9</ele>
        <time>2025-05-07T12:02:41.000Z</time>
      </trkpt>
      <trkpt lat="43.49848" lon="5.30855">
        <ele>196.8</ele>
        <time>2025-05-07T12:02:43.000Z</time>
      </trkpt>
      <trkpt lat="43.49847" lon="5.30857">
        <ele>196.8</ele>
        <time>2025-05-07T12:02:45.000Z</time>
      </trkpt>
      <trkpt lat="43.49846" lon="5.30859">
        <ele>196.8</ele>
        <time>2025-05-07T12:02:47.000Z</time>
      </trkpt>
      <trkpt lat="43.49844" lon="5.30862">
        <ele>196.7</ele>
        <time>2025-05-07T12:02:50.000Z</time>
      </trkpt>
      <trkpt lat="43.49843" lon="5.30865">
        <ele>196.5</ele>
        <time>2025-05-07T12:02:52.000Z</time>
      </trkpt>
      <trkpt lat="43.49841" lon="5.30867">
        <ele>196.3</ele>
        <time>2025-05-07T12:02:54.000Z</time>
      </trkpt>
      <trkpt lat="43.49839" lon="5.3087">
        <ele>196.1</ele>
        <time>2025-05-07T12:02:57.000Z</time>
      </trkpt>
      <trkpt lat="43.49838" lon="5.30872">
        <ele>195.9</ele>
        <time>2025-05-07T12:02:59.000Z</time>
      </trkpt>
      <trkpt lat="43.49837" lon="5.30874">
        <ele>195.8</ele>
        <time>2025-05-07T12:03:01.000Z</time>
      </trkpt>
      <trkpt lat="43.49835" lon="5.30877">
        <ele>195.6</ele>
        <time>2025-05-07T12:03:03.000Z</time>
      </trkpt>
      <trkpt lat="43.49834" lon="5.30879">
        <ele>195.4</ele>
        <time>2025-05-07T12:03:05.000Z</time>
      </trkpt>
      <trkpt lat="43.49832" lon="5.30882">
        <ele>195.2</ele>
        <time>2025-05-07T12:03:07.000Z</time>
      </trkpt>
      <trkpt lat="43.4983" lon="5.30884">
        <ele>194.9</ele>
        <time>2025-05-07T12:03:09.000Z</time>
      </trkpt>
      <trkpt lat="43.49829" lon="5.30887">
        <ele>194.7</ele>
        <time>2025-05-07T12:03:11.000Z</time>
      </trkpt>
      <trkpt lat="43.49827" lon="5.30889">
        <ele>194.6</ele>
        <time>2025-05-07T12:03:13.000Z</time>
      </trkpt>
      <trkpt lat="43.49826" lon="5.30891">
        <ele>194.4</ele>
        <time>2025-05-07T12:03:15.000Z</time>
      </trkpt>
      <trkpt lat="43.49825" lon="5.30893">
        <ele>194.3</ele>
        <time>2025-05-07T12:03:18.000Z</time>
      </trkpt>
      <trkpt lat="43.49823" lon="5.30896">
        <ele>194.1</ele>
        <time>2025-05-07T12:03:21.000Z</time>
      </trkpt>
      <trkpt lat="43.49822" lon="5.30898">
        <ele>194</ele>
        <time>2025-05-07T12:03:23.000Z</time>
      </trkpt>
      <trkpt lat="43.49821" lon="5.309">
        <ele>193.9</ele>
        <time>2025-05-07T12:03:25.000Z</time>
      </trkpt>
      <trkpt lat="43.49819" lon="5.30903">
        <ele>193.7</ele>
        <time>2025-05-07T12:03:27.000Z</time>
      </trkpt>
      <trkpt lat="43.49818" lon="5.30906">
        <ele>193.6</ele>
        <time>2025-05-07T12:03:30.000Z</time>
      </trkpt>
      <trkpt lat="43.49816" lon="5.30908">
        <ele>193.5</ele>
        <time>2025-05-07T12:03:32.000Z</time>
      </trkpt>
      <trkpt lat="43.49815" lon="5.30911">
        <ele>193.4</ele>
        <time>2025-05-07T12:03:34.000Z</time>
      </trkpt>
      <trkpt lat="43.49813" lon="5.30913">
        <ele>193.3</ele>
        <time>2025-05-07T12:03:36.000Z</time>
      </trkpt>
      <trkpt lat="43.49811" lon="5.30914">
        <ele>193.2</ele>
        <time>2025-05-07T12:03:38.000Z</time>
      </trkpt>
      <trkpt lat="43.4981" lon="5.30917">
        <ele>193.1</ele>
        <time>2025-05-07T12:03:41.000Z</time>
      </trkpt>
      <trkpt lat="43.49808" lon="5.3092">
        <ele>193</ele>
        <time>2025-05-07T12:03:43.000Z</time>
      </trkpt>
      <trkpt lat="43.49807" lon="5.30922">
        <ele>192.9</ele>
        <time>2025-05-07T12:03:45.000Z</time>
      </trkpt>
      <trkpt lat="43.49805" lon="5.30924">
        <ele>192.7</ele>
        <time>2025-05-07T12:03:47.000Z</time>
      </trkpt>
      <trkpt lat="43.49804" lon="5.30926">
        <ele>192.6</ele>
        <time>2025-05-07T12:03:49.000Z</time>
      </trkpt>
      <trkpt lat="43.49802" lon="5.30928">
        <ele>192.4</ele>
        <time>2025-05-07T12:03:52.000Z</time>
      </trkpt>
      <trkpt lat="43.49801" lon="5.3093">
        <ele>192.2</ele>
        <time>2025-05-07T12:03:54.000Z</time>
      </trkpt>
      <trkpt lat="43.49798" lon="5.30934">
        <ele>192</ele>
        <time>2025-05-07T12:03:58.000Z</time>
      </trkpt>
      <trkpt lat="43.49796" lon="5.30935">
        <ele>191.9</ele>
        <time>2025-05-07T12:04:00.000Z</time>
      </trkpt>
      <trkpt lat="43.49794" lon="5.30938">
        <ele>191.7</ele>
        <time>2025-05-07T12:04:03.000Z</time>
      </trkpt>
      <trkpt lat="43.49793" lon="5.3094">
        <ele>191.6</ele>
        <time>2025-05-07T12:04:06.000Z</time>
      </trkpt>
      <trkpt lat="43.49791" lon="5.30942">
        <ele>191.5</ele>
        <time>2025-05-07T12:04:08.000Z</time>
      </trkpt>
      <trkpt lat="43.4979" lon="5.30945">
        <ele>191.4</ele>
        <time>2025-05-07T12:04:10.000Z</time>
      </trkpt>
      <trkpt lat="43.49788" lon="5.30947">
        <ele>191.2</ele>
        <time>2025-05-07T12:04:12.000Z</time>
      </trkpt>
      <trkpt lat="43.49787" lon="5.30949">
        <ele>191</ele>
        <time>2025-05-07T12:04:15.000Z</time>
      </trkpt>
      <trkpt lat="43.49785" lon="5.30951">
        <ele>190.8</ele>
        <time>2025-05-07T12:04:18.000Z</time>
      </trkpt>
      <trkpt lat="43.49783" lon="5.30953">
        <ele>190.6</ele>
        <time>2025-05-07T12:04:20.000Z</time>
      </trkpt>
      <trkpt lat="43.49782" lon="5.30956">
        <ele>190.3</ele>
        <time>2025-05-07T12:04:23.000Z</time>
      </trkpt>
      <trkpt lat="43.4978" lon="5.30957">
        <ele>190.2</ele>
        <time>2025-05-07T12:04:25.000Z</time>
      </trkpt>
      <trkpt lat="43.49778" lon="5.3096">
        <ele>189.9</ele>
        <time>2025-05-07T12:04:27.000Z</time>
      </trkpt>
      <trkpt lat="43.49777" lon="5.30962">
        <ele>189.6</ele>
        <time>2025-05-07T12:04:29.000Z</time>
      </trkpt>
      <trkpt lat="43.49775" lon="5.30963">
        <ele>189.4</ele>
        <time>2025-05-07T12:04:31.000Z</time>
      </trkpt>
      <trkpt lat="43.49773" lon="5.30965">
        <ele>189</ele>
        <time>2025-05-07T12:04:34.000Z</time>
      </trkpt>
      <trkpt lat="43.49771" lon="5.30967">
        <ele>188.8</ele>
        <time>2025-05-07T12:04:36.000Z</time>
      </trkpt>
      <trkpt lat="43.4977" lon="5.30969">
        <ele>188.6</ele>
        <time>2025-05-07T12:04:38.000Z</time>
      </trkpt>
      <trkpt lat="43.49768" lon="5.30972">
        <ele>188.3</ele>
        <time>2025-05-07T12:04:40.000Z</time>
      </trkpt>
      <trkpt lat="43.49767" lon="5.30974">
        <ele>188.2</ele>
        <time>2025-05-07T12:04:42.000Z</time>
      </trkpt>
      <trkpt lat="43.49765" lon="5.30976">
        <ele>188</ele>
        <time>2025-05-07T12:04:44.000Z</time>
      </trkpt>
      <trkpt lat="43.49763" lon="5.30979">
        <ele>187.8</ele>
        <time>2025-05-07T12:04:47.000Z</time>
      </trkpt>
      <trkpt lat="43.49761" lon="5.30982">
        <ele>187.6</ele>
        <time>2025-05-07T12:04:50.000Z</time>
      </trkpt>
      <trkpt lat="43.4976" lon="5.30984">
        <ele>187.4</ele>
        <time>2025-05-07T12:04:52.000Z</time>
      </trkpt>
      <trkpt lat="43.49759" lon="5.30986">
        <ele>187.3</ele>
        <time>2025-05-07T12:04:55.000Z</time>
      </trkpt>
      <trkpt lat="43.49757" lon="5.30988">
        <ele>187.1</ele>
        <time>2025-05-07T12:04:58.000Z</time>
      </trkpt>
      <trkpt lat="43.49755" lon="5.3099">
        <ele>186.8</ele>
        <time>2025-05-07T12:05:00.000Z</time>
      </trkpt>
      <trkpt lat="43.49754" lon="5.30992">
        <ele>186.6</ele>
        <time>2025-05-07T12:05:02.000Z</time>
      </trkpt>
      <trkpt lat="43.49753" lon="5.30994">
        <ele>186.5</ele>
        <time>2025-05-07T12:05:04.000Z</time>
      </trkpt>
      <trkpt lat="43.49751" lon="5.30997">
        <ele>186.3</ele>
        <time>2025-05-07T12:05:06.000Z</time>
      </trkpt>
      <trkpt lat="43.4975" lon="5.30998">
        <ele>186</ele>
        <time>2025-05-07T12:05:08.000Z</time>
      </trkpt>
      <trkpt lat="43.49748" lon="5.31001">
        <ele>185.6</ele>
        <time>2025-05-07T12:05:10.000Z</time>
      </trkpt>
      <trkpt lat="43.49747" lon="5.31003">
        <ele>185.3</ele>
        <time>2025-05-07T12:05:12.000Z</time>
      </trkpt>
      <trkpt lat="43.49745" lon="5.31005">
        <ele>185</ele>
        <time>2025-05-07T12:05:14.000Z</time>
      </trkpt>
      <trkpt lat="43.49743" lon="5.31007">
        <ele>184.7</ele>
        <time>2025-05-07T12:05:16.000Z</time>
      </trkpt>
      <trkpt lat="43.49742" lon="5.31009">
        <ele>184.5</ele>
        <time>2025-05-07T12:05:18.000Z</time>
      </trkpt>
      <trkpt lat="43.4974" lon="5.31011">
        <ele>184.3</ele>
        <time>2025-05-07T12:05:20.000Z</time>
      </trkpt>
      <trkpt lat="43.49739" lon="5.31012">
        <ele>184.1</ele>
        <time>2025-05-07T12:05:22.000Z</time>
      </trkpt>
      <trkpt lat="43.49738" lon="5.31015">
        <ele>184</ele>
        <time>2025-05-07T12:05:24.000Z</time>
      </trkpt>
      <trkpt lat="43.49736" lon="5.31018">
        <ele>183.8</ele>
        <time>2025-05-07T12:05:27.000Z</time>
      </trkpt>
      <trkpt lat="43.49734" lon="5.3102">
        <ele>183.7</ele>
        <time>2025-05-07T12:05:30.000Z</time>
      </trkpt>
      <trkpt lat="43.49733" lon="5.31022">
        <ele>183.6</ele>
        <time>2025-05-07T12:05:32.000Z</time>
      </trkpt>
      <trkpt lat="43.49731" lon="5.31024">
        <ele>183.5</ele>
        <time>2025-05-07T12:05:34.000Z</time>
      </trkpt>
      <trkpt lat="43.4973" lon="5.31026">
        <ele>183.5</ele>
        <time>2025-05-07T12:05:36.000Z</time>
      </trkpt>
      <trkpt lat="43.49728" lon="5.31028">
        <ele>183.4</ele>
        <time>2025-05-07T12:05:38.000Z</time>
      </trkpt>
      <trkpt lat="43.49727" lon="5.3103">
        <ele>183.3</ele>
        <time>2025-05-07T12:05:40.000Z</time>
      </trkpt>
      <trkpt lat="43.49725" lon="5.31032">
        <ele>183.2</ele>
        <time>2025-05-07T12:05:42.000Z</time>
      </trkpt>
      <trkpt lat="43.49723" lon="5.31035">
        <ele>183.1</ele>
        <time>2025-05-07T12:05:44.000Z</time>
      </trkpt>
      <trkpt lat="43.49722" lon="5.31036">
        <ele>182.9</ele>
        <time>2025-05-07T12:05:46.000Z</time>
      </trkpt>
      <trkpt lat="43.4972" lon="5.31038">
        <ele>182.7</ele>
        <time>2025-05-07T12:05:48.000Z</time>
      </trkpt>
      <trkpt lat="43.49719" lon="5.31041">
        <ele>182.6</ele>
        <time>2025-05-07T12:05:50.000Z</time>
      </trkpt>
      <trkpt lat="43.49717" lon="5.31042">
        <ele>182.4</ele>
        <time>2025-05-07T12:05:52.000Z</time>
      </trkpt>
      <trkpt lat="43.49715" lon="5.31044">
        <ele>182.2</ele>
        <time>2025-05-07T12:05:54.000Z</time>
      </trkpt>
      <trkpt lat="43.49714" lon="5.31046">
        <ele>182.1</ele>
        <time>2025-05-07T12:05:56.000Z</time>
      </trkpt>
      <trkpt lat="43.49712" lon="5.31048">
        <ele>182</ele>
        <time>2025-05-07T12:05:58.000Z</time>
      </trkpt>
      <trkpt lat="43.49711" lon="5.3105">
        <ele>182</ele>
        <time>2025-05-07T12:06:00.000Z</time>
      </trkpt>
      <trkpt lat="43.49709" lon="5.31053">
        <ele>181.9</ele>
        <time>2025-05-07T12:06:03.000Z</time>
      </trkpt>
      <trkpt lat="43.49707" lon="5.31055">
        <ele>181.9</ele>
        <time>2025-05-07T12:06:06.000Z</time>
      </trkpt>
      <trkpt lat="43.49706" lon="5.31057">
        <ele>181.8</ele>
        <time>2025-05-07T12:06:08.000Z</time>
      </trkpt>
      <trkpt lat="43.49704" lon="5.31059">
        <ele>181.6</ele>
        <time>2025-05-07T12:06:10.000Z</time>
      </trkpt>
      <trkpt lat="43.49703" lon="5.31061">
        <ele>181.5</ele>
        <time>2025-05-07T12:06:12.000Z</time>
      </trkpt>
      <trkpt lat="43.49702" lon="5.31064">
        <ele>181.4</ele>
        <time>2025-05-07T12:06:14.000Z</time>
      </trkpt>
      <trkpt lat="43.497" lon="5.31066">
        <ele>181.2</ele>
        <time>2025-05-07T12:06:16.000Z</time>
      </trkpt>
      <trkpt lat="43.49698" lon="5.31069">
        <ele>181.1</ele>
        <time>2025-05-07T12:06:18.000Z</time>
      </trkpt>
      <trkpt lat="43.49697" lon="5.31072">
        <ele>181.1</ele>
        <time>2025-05-07T12:06:21.000Z</time>
      </trkpt>
      <trkpt lat="43.49695" lon="5.31074">
        <ele>181</ele>
        <time>2025-05-07T12:06:23.000Z</time>
      </trkpt>
      <trkpt lat="43.49693" lon="5.31076">
        <ele>180.8</ele>
        <time>2025-05-07T12:06:25.000Z</time>
      </trkpt>
      <trkpt lat="43.49692" lon="5.31078">
        <ele>180.7</ele>
        <time>2025-05-07T12:06:27.000Z</time>
      </trkpt>
      <trkpt lat="43.4969" lon="5.3108">
        <ele>180.5</ele>
        <time>2025-05-07T12:06:29.000Z</time>
      </trkpt>
      <trkpt lat="43.49689" lon="5.31083">
        <ele>180.4</ele>
        <time>2025-05-07T12:06:31.000Z</time>
      </trkpt>
      <trkpt lat="43.49688" lon="5.31085">
        <ele>180.1</ele>
        <time>2025-05-07T12:06:33.000Z</time>
      </trkpt>
      <trkpt lat="43.49686" lon="5.31087">
        <ele>179.9</ele>
        <time>2025-05-07T12:06:35.000Z</time>
      </trkpt>
      <trkpt lat="43.49684" lon="5.3109">
        <ele>179.6</ele>
        <time>2025-05-07T12:06:37.000Z</time>
      </trkpt>
      <trkpt lat="43.49683" lon="5.31092">
        <ele>179.4</ele>
        <time>2025-05-07T12:06:40.000Z</time>
      </trkpt>
      <trkpt lat="43.49681" lon="5.31094">
        <ele>179.1</ele>
        <time>2025-05-07T12:06:42.000Z</time>
      </trkpt>
      <trkpt lat="43.49679" lon="5.31097">
        <ele>178.9</ele>
        <time>2025-05-07T12:06:44.000Z</time>
      </trkpt>
      <trkpt lat="43.49678" lon="5.31099">
        <ele>178.8</ele>
        <time>2025-05-07T12:06:46.000Z</time>
      </trkpt>
      <trkpt lat="43.49676" lon="5.31101">
        <ele>178.6</ele>
        <time>2025-05-07T12:06:48.000Z</time>
      </trkpt>
      <trkpt lat="43.49675" lon="5.31103">
        <ele>178.5</ele>
        <time>2025-05-07T12:06:50.000Z</time>
      </trkpt>
      <trkpt lat="43.49673" lon="5.31105">
        <ele>178.3</ele>
        <time>2025-05-07T12:06:52.000Z</time>
      </trkpt>
      <trkpt lat="43.49672" lon="5.31107">
        <ele>178.2</ele>
        <time>2025-05-07T12:06:54.000Z</time>
      </trkpt>
      <trkpt lat="43.4967" lon="5.31109">
        <ele>178.2</ele>
        <time>2025-05-07T12:06:56.000Z</time>
      </trkpt>
      <trkpt lat="43.49669" lon="5.3111">
        <ele>178.1</ele>
        <time>2025-05-07T12:06:58.000Z</time>
      </trkpt>
      <trkpt lat="43.49667" lon="5.31112">
        <ele>178</ele>
        <time>2025-05-07T12:07:00.000Z</time>
      </trkpt>
      <trkpt lat="43.49665" lon="5.31114">
        <ele>177.8</ele>
        <time>2025-05-07T12:07:02.000Z</time>
      </trkpt>
      <trkpt lat="43.49664" lon="5.31116">
        <ele>177.7</ele>
        <time>2025-05-07T12:07:04.000Z</time>
      </trkpt>
      <trkpt lat="43.49662" lon="5.31118">
        <ele>177.5</ele>
        <time>2025-05-07T12:07:06.000Z</time>
      </trkpt>
      <trkpt lat="43.49661" lon="5.3112">
        <ele>177.3</ele>
        <time>2025-05-07T12:07:08.000Z</time>
      </trkpt>
      <trkpt lat="43.49659" lon="5.31122">
        <ele>177.1</ele>
        <time>2025-05-07T12:07:10.000Z</time>
      </trkpt>
      <trkpt lat="43.49658" lon="5.31124">
        <ele>177</ele>
        <time>2025-05-07T12:07:12.000Z</time>
      </trkpt>
      <trkpt lat="43.49656" lon="5.31126">
        <ele>176.9</ele>
        <time>2025-05-07T12:07:14.000Z</time>
      </trkpt>
      <trkpt lat="43.49654" lon="5.31128">
        <ele>176.7</ele>
        <time>2025-05-07T12:07:16.000Z</time>
      </trkpt>
      <trkpt lat="43.49652" lon="5.31131">
        <ele>176.6</ele>
        <time>2025-05-07T12:07:19.000Z</time>
      </trkpt>
      <trkpt lat="43.49651" lon="5.31133">
        <ele>176.6</ele>
        <time>2025-05-07T12:07:21.000Z</time>
      </trkpt>
      <trkpt lat="43.4965" lon="5.31134">
        <ele>176.6</ele>
        <time>2025-05-07T12:07:23.000Z</time>
      </trkpt>
      <trkpt lat="43.49648" lon="5.31137">
        <ele>176.5</ele>
        <time>2025-05-07T12:07:26.000Z</time>
      </trkpt>
      <trkpt lat="43.49646" lon="5.31139">
        <ele>176.5</ele>
        <time>2025-05-07T12:07:28.000Z</time>
      </trkpt>
      <trkpt lat="43.49644" lon="5.31143">
        <ele>176.3</ele>
        <time>2025-05-07T12:07:31.000Z</time>
      </trkpt>
      <trkpt lat="43.49642" lon="5.31146">
        <ele>176.1</ele>
        <time>2025-05-07T12:07:33.000Z</time>
      </trkpt>
      <trkpt lat="43.49641" lon="5.31149">
        <ele>176.1</ele>
        <time>2025-05-07T12:07:35.000Z</time>
      </trkpt>
      <trkpt lat="43.49639" lon="5.31151">
        <ele>176</ele>
        <time>2025-05-07T12:07:37.000Z</time>
      </trkpt>
      <trkpt lat="43.49638" lon="5.31154">
        <ele>175.8</ele>
        <time>2025-05-07T12:07:39.000Z</time>
      </trkpt>
      <trkpt lat="43.49636" lon="5.31156">
        <ele>175.6</ele>
        <time>2025-05-07T12:07:41.000Z</time>
      </trkpt>
      <trkpt lat="43.49634" lon="5.31159">
        <ele>175.4</ele>
        <time>2025-05-07T12:07:43.000Z</time>
      </trkpt>
      <trkpt lat="43.49633" lon="5.3116">
        <ele>175.2</ele>
        <time>2025-05-07T12:07:45.000Z</time>
      </trkpt>
      <trkpt lat="43.49631" lon="5.31162">
        <ele>175.1</ele>
        <time>2025-05-07T12:07:47.000Z</time>
      </trkpt>
      <trkpt lat="43.4963" lon="5.31165">
        <ele>175</ele>
        <time>2025-05-07T12:07:49.000Z</time>
      </trkpt>
      <trkpt lat="43.49629" lon="5.31167">
        <ele>174.9</ele>
        <time>2025-05-07T12:07:51.000Z</time>
      </trkpt>
      <trkpt lat="43.49627" lon="5.3117">
        <ele>174.8</ele>
        <time>2025-05-07T12:07:53.000Z</time>
      </trkpt>
      <trkpt lat="43.49625" lon="5.31172">
        <ele>174.6</ele>
        <time>2025-05-07T12:07:55.000Z</time>
      </trkpt>
      <trkpt lat="43.49624" lon="5.31174">
        <ele>174.5</ele>
        <time>2025-05-07T12:07:57.000Z</time>
      </trkpt>
      <trkpt lat="43.49622" lon="5.31175">
        <ele>174.4</ele>
        <time>2025-05-07T12:07:59.000Z</time>
      </trkpt>
      <trkpt lat="43.49621" lon="5.31177">
        <ele>174.3</ele>
        <time>2025-05-07T12:08:01.000Z</time>
      </trkpt>
      <trkpt lat="43.49619" lon="5.3118">
        <ele>174.2</ele>
        <time>2025-05-07T12:08:03.000Z</time>
      </trkpt>
      <trkpt lat="43.49617" lon="5.31181">
        <ele>174.1</ele>
        <time>2025-05-07T12:08:05.000Z</time>
      </trkpt>
      <trkpt lat="43.49615" lon="5.31184">
        <ele>173.9</ele>
        <time>2025-05-07T12:08:08.000Z</time>
      </trkpt>
      <trkpt lat="43.49613" lon="5.31185">
        <ele>173.8</ele>
        <time>2025-05-07T12:08:10.000Z</time>
      </trkpt>
      <trkpt lat="43.49611" lon="5.31187">
        <ele>173.7</ele>
        <time>2025-05-07T12:08:12.000Z</time>
      </trkpt>
      <trkpt lat="43.49609" lon="5.31188">
        <ele>173.5</ele>
        <time>2025-05-07T12:08:14.000Z</time>
      </trkpt>
      <trkpt lat="43.49607" lon="5.3119">
        <ele>173.3</ele>
        <time>2025-05-07T12:08:16.000Z</time>
      </trkpt>
      <trkpt lat="43.49605" lon="5.31192">
        <ele>173.2</ele>
        <time>2025-05-07T12:08:18.000Z</time>
      </trkpt>
      <trkpt lat="43.49603" lon="5.31193">
        <ele>173.1</ele>
        <time>2025-05-07T12:08:20.000Z</time>
      </trkpt>
      <trkpt lat="43.49601" lon="5.31194">
        <ele>172.9</ele>
        <time>2025-05-07T12:08:23.000Z</time>
      </trkpt>
      <trkpt lat="43.49599" lon="5.31195">
        <ele>172.8</ele>
        <time>2025-05-07T12:08:25.000Z</time>
      </trkpt>
      <trkpt lat="43.49597" lon="5.31196">
        <ele>172.6</ele>
        <time>2025-05-07T12:08:27.000Z</time>
      </trkpt>
      <trkpt lat="43.49595" lon="5.31197">
        <ele>172.5</ele>
        <time>2025-05-07T12:08:29.000Z</time>
      </trkpt>
      <trkpt lat="43.49594" lon="5.31199">
        <ele>172.4</ele>
        <time>2025-05-07T12:08:31.000Z</time>
      </trkpt>
      <trkpt lat="43.49592" lon="5.312">
        <ele>172.3</ele>
        <time>2025-05-07T12:08:33.000Z</time>
      </trkpt>
      <trkpt lat="43.4959" lon="5.31201">
        <ele>172.1</ele>
        <time>2025-05-07T12:08:35.000Z</time>
      </trkpt>
      <trkpt lat="43.49588" lon="5.31203">
        <ele>172</ele>
        <time>2025-05-07T12:08:37.000Z</time>
      </trkpt>
      <trkpt lat="43.49586" lon="5.31203">
        <ele>171.9</ele>
        <time>2025-05-07T12:08:39.000Z</time>
      </trkpt>
      <trkpt lat="43.49584" lon="5.31205">
        <ele>171.8</ele>
        <time>2025-05-07T12:08:41.000Z</time>
      </trkpt>
      <trkpt lat="43.49582" lon="5.31205">
        <ele>171.6</ele>
        <time>2025-05-07T12:08:43.000Z</time>
      </trkpt>
      <trkpt lat="43.4958" lon="5.31207">
        <ele>171.4</ele>
        <time>2025-05-07T12:08:45.000Z</time>
      </trkpt>
      <trkpt lat="43.49579" lon="5.31208">
        <ele>171.3</ele>
        <time>2025-05-07T12:08:47.000Z</time>
      </trkpt>
      <trkpt lat="43.49577" lon="5.3121">
        <ele>171.1</ele>
        <time>2025-05-07T12:08:49.000Z</time>
      </trkpt>
      <trkpt lat="43.49575" lon="5.31211">
        <ele>170.8</ele>
        <time>2025-05-07T12:08:51.000Z</time>
      </trkpt>
      <trkpt lat="43.49573" lon="5.31213">
        <ele>170.7</ele>
        <time>2025-05-07T12:08:53.000Z</time>
      </trkpt>
      <trkpt lat="43.49571" lon="5.31214">
        <ele>170.5</ele>
        <time>2025-05-07T12:08:55.000Z</time>
      </trkpt>
      <trkpt lat="43.49569" lon="5.31215">
        <ele>170.3</ele>
        <time>2025-05-07T12:08:57.000Z</time>
      </trkpt>
      <trkpt lat="43.49567" lon="5.31216">
        <ele>170</ele>
        <time>2025-05-07T12:08:59.000Z</time>
      </trkpt>
      <trkpt lat="43.49565" lon="5.31218">
        <ele>169.9</ele>
        <time>2025-05-07T12:09:01.000Z</time>
      </trkpt>
      <trkpt lat="43.49563" lon="5.31219">
        <ele>169.7</ele>
        <time>2025-05-07T12:09:03.000Z</time>
      </trkpt>
      <trkpt lat="43.4956" lon="5.31221">
        <ele>169.5</ele>
        <time>2025-05-07T12:09:06.000Z</time>
      </trkpt>
      <trkpt lat="43.49558" lon="5.31222">
        <ele>169.3</ele>
        <time>2025-05-07T12:09:08.000Z</time>
      </trkpt>
      <trkpt lat="43.49557" lon="5.31224">
        <ele>169.3</ele>
        <time>2025-05-07T12:09:10.000Z</time>
      </trkpt>
      <trkpt lat="43.49554" lon="5.31224">
        <ele>169</ele>
        <time>2025-05-07T12:09:13.000Z</time>
      </trkpt>
      <trkpt lat="43.49552" lon="5.31226">
        <ele>168.9</ele>
        <time>2025-05-07T12:09:15.000Z</time>
      </trkpt>
      <trkpt lat="43.49551" lon="5.31226">
        <ele>168.7</ele>
        <time>2025-05-07T12:09:17.000Z</time>
      </trkpt>
      <trkpt lat="43.49549" lon="5.31227">
        <ele>168.6</ele>
        <time>2025-05-07T12:09:19.000Z</time>
      </trkpt>
      <trkpt lat="43.49547" lon="5.31229">
        <ele>168.5</ele>
        <time>2025-05-07T12:09:21.000Z</time>
      </trkpt>
      <trkpt lat="43.49545" lon="5.31229">
        <ele>168.3</ele>
        <time>2025-05-07T12:09:23.000Z</time>
      </trkpt>
      <trkpt lat="43.49543" lon="5.31231">
        <ele>168.1</ele>
        <time>2025-05-07T12:09:25.000Z</time>
      </trkpt>
      <trkpt lat="43.49541" lon="5.31232">
        <ele>168</ele>
        <time>2025-05-07T12:09:27.000Z</time>
      </trkpt>
      <trkpt lat="43.4954" lon="5.31234">
        <ele>168</ele>
        <time>2025-05-07T12:09:29.000Z</time>
      </trkpt>
      <trkpt lat="43.49539" lon="5.31236">
        <ele>168</ele>
        <time>2025-05-07T12:09:31.000Z</time>
      </trkpt>
      <trkpt lat="43.49537" lon="5.31236">
        <ele>167.8</ele>
        <time>2025-05-07T12:09:33.000Z</time>
      </trkpt>
      <trkpt lat="43.49535" lon="5.31237">
        <ele>167.5</ele>
        <time>2025-05-07T12:09:36.000Z</time>
      </trkpt>
      <trkpt lat="43.49532" lon="5.31238">
        <ele>167.3</ele>
        <time>2025-05-07T12:09:38.000Z</time>
      </trkpt>
      <trkpt lat="43.4953" lon="5.31239">
        <ele>167.1</ele>
        <time>2025-05-07T12:09:40.000Z</time>
      </trkpt>
      <trkpt lat="43.49528" lon="5.3124">
        <ele>166.9</ele>
        <time>2025-05-07T12:09:42.000Z</time>
      </trkpt>
      <trkpt lat="43.49526" lon="5.31241">
        <ele>166.8</ele>
        <time>2025-05-07T12:09:44.000Z</time>
      </trkpt>
      <trkpt lat="43.49523" lon="5.31243">
        <ele>166.7</ele>
        <time>2025-05-07T12:09:47.000Z</time>
      </trkpt>
      <trkpt lat="43.49521" lon="5.31244">
        <ele>166.6</ele>
        <time>2025-05-07T12:09:49.000Z</time>
      </trkpt>
      <trkpt lat="43.4952" lon="5.31244">
        <ele>166.5</ele>
        <time>2025-05-07T12:09:51.000Z</time>
      </trkpt>
      <trkpt lat="43.49518" lon="5.31246">
        <ele>166.4</ele>
        <time>2025-05-07T12:09:53.000Z</time>
      </trkpt>
      <trkpt lat="43.49516" lon="5.31246">
        <ele>166.3</ele>
        <time>2025-05-07T12:09:55.000Z</time>
      </trkpt>
      <trkpt lat="43.49514" lon="5.31247">
        <ele>166.2</ele>
        <time>2025-05-07T12:09:57.000Z</time>
      </trkpt>
      <trkpt lat="43.49512" lon="5.31248">
        <ele>166</ele>
        <time>2025-05-07T12:09:59.000Z</time>
      </trkpt>
      <trkpt lat="43.4951" lon="5.31249">
        <ele>166</ele>
        <time>2025-05-07T12:10:01.000Z</time>
      </trkpt>
      <trkpt lat="43.49508" lon="5.3125">
        <ele>165.9</ele>
        <time>2025-05-07T12:10:03.000Z</time>
      </trkpt>
      <trkpt lat="43.49505" lon="5.31252">
        <ele>165.6</ele>
        <time>2025-05-07T12:10:06.000Z</time>
      </trkpt>
      <trkpt lat="43.49503" lon="5.31254">
        <ele>165.5</ele>
        <time>2025-05-07T12:10:08.000Z</time>
      </trkpt>
      <trkpt lat="43.49501" lon="5.31255">
        <ele>165.3</ele>
        <time>2025-05-07T12:10:10.000Z</time>
      </trkpt>
      <trkpt lat="43.495" lon="5.31256">
        <ele>165.2</ele>
        <time>2025-05-07T12:10:13.000Z</time>
      </trkpt>
      <trkpt lat="43.49497" lon="5.31259">
        <ele>164.9</ele>
        <time>2025-05-07T12:10:16.000Z</time>
      </trkpt>
      <trkpt lat="43.49496" lon="5.3126">
        <ele>164.8</ele>
        <time>2025-05-07T12:10:18.000Z</time>
      </trkpt>
      <trkpt lat="43.49494" lon="5.31261">
        <ele>164.5</ele>
        <time>2025-05-07T12:10:20.000Z</time>
      </trkpt>
      <trkpt lat="43.49492" lon="5.31263">
        <ele>164.3</ele>
        <time>2025-05-07T12:10:22.000Z</time>
      </trkpt>
      <trkpt lat="43.4949" lon="5.31264">
        <ele>164.1</ele>
        <time>2025-05-07T12:10:24.000Z</time>
      </trkpt>
      <trkpt lat="43.49488" lon="5.31266">
        <ele>163.9</ele>
        <time>2025-05-07T12:10:26.000Z</time>
      </trkpt>
      <trkpt lat="43.49486" lon="5.31267">
        <ele>163.7</ele>
        <time>2025-05-07T12:10:28.000Z</time>
      </trkpt>
      <trkpt lat="43.49485" lon="5.31269">
        <ele>163.4</ele>
        <time>2025-05-07T12:10:30.000Z</time>
      </trkpt>
      <trkpt lat="43.49482" lon="5.31271">
        <ele>163.2</ele>
        <time>2025-05-07T12:10:32.000Z</time>
      </trkpt>
      <trkpt lat="43.49481" lon="5.31272">
        <ele>163</ele>
        <time>2025-05-07T12:10:34.000Z</time>
      </trkpt>
      <trkpt lat="43.49478" lon="5.31274">
        <ele>162.7</ele>
        <time>2025-05-07T12:10:37.000Z</time>
      </trkpt>
      <trkpt lat="43.49476" lon="5.31275">
        <ele>162.5</ele>
        <time>2025-05-07T12:10:39.000Z</time>
      </trkpt>
      <trkpt lat="43.49474" lon="5.31276">
        <ele>162.2</ele>
        <time>2025-05-07T12:10:41.000Z</time>
      </trkpt>
      <trkpt lat="43.49473" lon="5.31277">
        <ele>162</ele>
        <time>2025-05-07T12:10:43.000Z</time>
      </trkpt>
      <trkpt lat="43.49471" lon="5.31277">
        <ele>161.7</ele>
        <time>2025-05-07T12:10:45.000Z</time>
      </trkpt>
      <trkpt lat="43.49469" lon="5.31278">
        <ele>161.4</ele>
        <time>2025-05-07T12:10:47.000Z</time>
      </trkpt>
      <trkpt lat="43.49467" lon="5.31279">
        <ele>161.2</ele>
        <time>2025-05-07T12:10:49.000Z</time>
      </trkpt>
      <trkpt lat="43.49465" lon="5.31279">
        <ele>160.8</ele>
        <time>2025-05-07T12:10:51.000Z</time>
      </trkpt>
      <trkpt lat="43.49463" lon="5.31278">
        <ele>160.4</ele>
        <time>2025-05-07T12:10:53.000Z</time>
      </trkpt>
      <trkpt lat="43.49461" lon="5.31278">
        <ele>160</ele>
        <time>2025-05-07T12:10:55.000Z</time>
      </trkpt>
      <trkpt lat="43.49458" lon="5.31278">
        <ele>159.6</ele>
        <time>2025-05-07T12:10:57.000Z</time>
      </trkpt>
      <trkpt lat="43.49456" lon="5.31278">
        <ele>159.1</ele>
        <time>2025-05-07T12:11:00.000Z</time>
      </trkpt>
      <trkpt lat="43.49454" lon="5.31278">
        <ele>158.7</ele>
        <time>2025-05-07T12:11:02.000Z</time>
      </trkpt>
      <trkpt lat="43.49452" lon="5.31277">
        <ele>158.3</ele>
        <time>2025-05-07T12:11:04.000Z</time>
      </trkpt>
      <trkpt lat="43.4945" lon="5.31276">
        <ele>157.9</ele>
        <time>2025-05-07T12:11:06.000Z</time>
      </trkpt>
      <trkpt lat="43.49448" lon="5.31276">
        <ele>157.5</ele>
        <time>2025-05-07T12:11:09.000Z</time>
      </trkpt>
      <trkpt lat="43.49446" lon="5.31275">
        <ele>157.1</ele>
        <time>2025-05-07T12:11:11.000Z</time>
      </trkpt>
      <trkpt lat="43.49444" lon="5.31274">
        <ele>156.7</ele>
        <time>2025-05-07T12:11:13.000Z</time>
      </trkpt>
      <trkpt lat="43.49442" lon="5.31273">
        <ele>156.5</ele>
        <time>2025-05-07T12:11:15.000Z</time>
      </trkpt>
      <trkpt lat="43.4944" lon="5.31272">
        <ele>156.2</ele>
        <time>2025-05-07T12:11:17.000Z</time>
      </trkpt>
      <trkpt lat="43.49438" lon="5.31272">
        <ele>155.9</ele>
        <time>2025-05-07T12:11:19.000Z</time>
      </trkpt>
      <trkpt lat="43.49436" lon="5.31271">
        <ele>155.6</ele>
        <time>2025-05-07T12:11:21.000Z</time>
      </trkpt>
      <trkpt lat="43.49435" lon="5.3127">
        <ele>155.4</ele>
        <time>2025-05-07T12:11:23.000Z</time>
      </trkpt>
      <trkpt lat="43.49432" lon="5.31269">
        <ele>155.1</ele>
        <time>2025-05-07T12:11:26.000Z</time>
      </trkpt>
      <trkpt lat="43.4943" lon="5.31268">
        <ele>154.8</ele>
        <time>2025-05-07T12:11:28.000Z</time>
      </trkpt>
      <trkpt lat="43.49428" lon="5.31268">
        <ele>154.5</ele>
        <time>2025-05-07T12:11:30.000Z</time>
      </trkpt>
      <trkpt lat="43.49426" lon="5.31268">
        <ele>154.3</ele>
        <time>2025-05-07T12:11:32.000Z</time>
      </trkpt>
      <trkpt lat="43.49424" lon="5.31267">
        <ele>154</ele>
        <time>2025-05-07T12:11:34.000Z</time>
      </trkpt>
      <trkpt lat="43.49422" lon="5.31268">
        <ele>153.7</ele>
        <time>2025-05-07T12:11:37.000Z</time>
      </trkpt>
      <trkpt lat="43.4942" lon="5.31268">
        <ele>153.4</ele>
        <time>2025-05-07T12:11:39.000Z</time>
      </trkpt>
      <trkpt lat="43.49417" lon="5.31268">
        <ele>153.1</ele>
        <time>2025-05-07T12:11:41.000Z</time>
      </trkpt>
      <trkpt lat="43.49415" lon="5.31268">
        <ele>152.9</ele>
        <time>2025-05-07T12:11:44.000Z</time>
      </trkpt>
      <trkpt lat="43.49413" lon="5.31269">
        <ele>152.8</ele>
        <time>2025-05-07T12:11:47.000Z</time>
      </trkpt>
      <trkpt lat="43.49411" lon="5.3127">
        <ele>152.7</ele>
        <time>2025-05-07T12:11:58.000Z</time>
      </trkpt>
      <trkpt lat="43.49409" lon="5.31271">
        <ele>152.5</ele>
        <time>2025-05-07T12:14:28.000Z</time>
      </trkpt>
      <trkpt lat="43.49407" lon="5.31273">
        <ele>152.2</ele>
        <time>2025-05-07T12:14:31.000Z</time>
      </trkpt>
      <trkpt lat="43.49405" lon="5.31275">
        <ele>152</ele>
        <time>2025-05-07T12:14:34.000Z</time>
      </trkpt>
      <trkpt lat="43.49403" lon="5.31277">
        <ele>151.6</ele>
        <time>2025-05-07T12:14:37.000Z</time>
      </trkpt>
      <trkpt lat="43.49401" lon="5.31278">
        <ele>151.3</ele>
        <time>2025-05-07T12:14:40.000Z</time>
      </trkpt>
      <trkpt lat="43.49399" lon="5.3128">
        <ele>151.3</ele>
        <time>2025-05-07T12:14:43.000Z</time>
      </trkpt>
      <trkpt lat="43.49396" lon="5.31282">
        <ele>151.2</ele>
        <time>2025-05-07T12:14:46.000Z</time>
      </trkpt>
      <trkpt lat="43.49394" lon="5.31283">
        <ele>151.2</ele>
        <time>2025-05-07T12:14:49.000Z</time>
      </trkpt>
      <trkpt lat="43.49393" lon="5.31285">
        <ele>151.2</ele>
        <time>2025-05-07T12:14:51.000Z</time>
      </trkpt>
      <trkpt lat="43.49391" lon="5.31287">
        <ele>151.2</ele>
        <time>2025-05-07T12:14:53.000Z</time>
      </trkpt>
      <trkpt lat="43.49389" lon="5.31288">
        <ele>151.1</ele>
        <time>2025-05-07T12:14:55.000Z</time>
      </trkpt>
      <trkpt lat="43.49387" lon="5.31289">
        <ele>151.1</ele>
        <time>2025-05-07T12:14:57.000Z</time>
      </trkpt>
      <trkpt lat="43.49385" lon="5.3129">
        <ele>151.1</ele>
        <time>2025-05-07T12:14:59.000Z</time>
      </trkpt>
      <trkpt lat="43.49383" lon="5.31291">
        <ele>151.1</ele>
        <time>2025-05-07T12:15:01.000Z</time>
      </trkpt>
      <trkpt lat="43.49381" lon="5.31292">
        <ele>151</ele>
        <time>2025-05-07T12:15:04.000Z</time>
      </trkpt>
      <trkpt lat="43.49379" lon="5.31293">
        <ele>150.8</ele>
        <time>2025-05-07T12:15:15.000Z</time>
      </trkpt>
      <trkpt lat="43.49377" lon="5.31295">
        <ele>150.6</ele>
        <time>2025-05-07T12:15:19.000Z</time>
      </trkpt>
      <trkpt lat="43.49375" lon="5.31297">
        <ele>150.4</ele>
        <time>2025-05-07T12:15:21.000Z</time>
      </trkpt>
      <trkpt lat="43.49373" lon="5.31298">
        <ele>150</ele>
        <time>2025-05-07T12:15:24.000Z</time>
      </trkpt>
      <trkpt lat="43.49372" lon="5.313">
        <ele>149.7</ele>
        <time>2025-05-07T12:15:26.000Z</time>
      </trkpt>
      <trkpt lat="43.4937" lon="5.313">
        <ele>149.3</ele>
        <time>2025-05-07T12:15:29.000Z</time>
      </trkpt>
      <trkpt lat="43.49368" lon="5.31302">
        <ele>148.8</ele>
        <time>2025-05-07T12:15:32.000Z</time>
      </trkpt>
      <trkpt lat="43.49366" lon="5.31303">
        <ele>148.4</ele>
        <time>2025-05-07T12:15:34.000Z</time>
      </trkpt>
      <trkpt lat="43.49364" lon="5.31305">
        <ele>147.7</ele>
        <time>2025-05-07T12:15:37.000Z</time>
      </trkpt>
      <trkpt lat="43.49361" lon="5.31307">
        <ele>147.2</ele>
        <time>2025-05-07T12:15:40.000Z</time>
      </trkpt>
      <trkpt lat="43.49359" lon="5.31309">
        <ele>147.7</ele>
        <time>2025-05-07T12:15:42.000Z</time>
      </trkpt>
      <trkpt lat="43.49357" lon="5.31311">
        <ele>148.2</ele>
        <time>2025-05-07T12:15:45.000Z</time>
      </trkpt>
      <trkpt lat="43.49356" lon="5.31315">
        <ele>148.6</ele>
        <time>2025-05-07T12:15:48.000Z</time>
      </trkpt>
      <trkpt lat="43.49354" lon="5.31317">
        <ele>148.7</ele>
        <time>2025-05-07T12:15:50.000Z</time>
      </trkpt>
      <trkpt lat="43.49352" lon="5.31319">
        <ele>148.8</ele>
        <time>2025-05-07T12:15:52.000Z</time>
      </trkpt>
      <trkpt lat="43.49351" lon="5.31321">
        <ele>148.8</ele>
        <time>2025-05-07T12:15:54.000Z</time>
      </trkpt>
      <trkpt lat="43.4935" lon="5.31322">
        <ele>148.7</ele>
        <time>2025-05-07T12:15:56.000Z</time>
      </trkpt>
      <trkpt lat="43.49348" lon="5.31325">
        <ele>148.5</ele>
        <time>2025-05-07T12:15:59.000Z</time>
      </trkpt>
      <trkpt lat="43.49347" lon="5.31327">
        <ele>148.2</ele>
        <time>2025-05-07T12:16:02.000Z</time>
      </trkpt>
      <trkpt lat="43.49345" lon="5.3133">
        <ele>147.8</ele>
        <time>2025-05-07T12:16:05.000Z</time>
      </trkpt>
      <trkpt lat="43.49343" lon="5.31332">
        <ele>147.2</ele>
        <time>2025-05-07T12:16:08.000Z</time>
      </trkpt>
      <trkpt lat="43.49341" lon="5.31335">
        <ele>146.6</ele>
        <time>2025-05-07T12:16:11.000Z</time>
      </trkpt>
      <trkpt lat="43.49339" lon="5.31336">
        <ele>146.2</ele>
        <time>2025-05-07T12:16:14.000Z</time>
      </trkpt>
      <trkpt lat="43.49338" lon="5.31339">
        <ele>145.9</ele>
        <time>2025-05-07T12:16:17.000Z</time>
      </trkpt>
      <trkpt lat="43.49337" lon="5.31341">
        <ele>145.6</ele>
        <time>2025-05-07T12:16:19.000Z</time>
      </trkpt>
      <trkpt lat="43.49336" lon="5.31345">
        <ele>145.2</ele>
        <time>2025-05-07T12:16:22.000Z</time>
      </trkpt>
      <trkpt lat="43.49335" lon="5.31347">
        <ele>145</ele>
        <time>2025-05-07T12:16:24.000Z</time>
      </trkpt>
      <trkpt lat="43.49334" lon="5.31351">
        <ele>144.6</ele>
        <time>2025-05-07T12:16:27.000Z</time>
      </trkpt>
      <trkpt lat="43.49334" lon="5.31354">
        <ele>144.3</ele>
        <time>2025-05-07T12:16:42.000Z</time>
      </trkpt>
      <trkpt lat="43.49334" lon="5.31357">
        <ele>144.3</ele>
        <time>2025-05-07T12:16:47.000Z</time>
      </trkpt>
      <trkpt lat="43.49334" lon="5.31359">
        <ele>144.3</ele>
        <time>2025-05-07T12:16:57.000Z</time>
      </trkpt>
      <trkpt lat="43.49333" lon="5.31362">
        <ele>144</ele>
        <time>2025-05-07T12:17:24.000Z</time>
      </trkpt>
      <trkpt lat="43.49333" lon="5.31364">
        <ele>143.8</ele>
        <time>2025-05-07T12:17:34.000Z</time>
      </trkpt>
      <trkpt lat="43.49332" lon="5.31367">
        <ele>143.7</ele>
        <time>2025-05-07T12:18:18.000Z</time>
      </trkpt>
      <trkpt lat="43.49332" lon="5.3137">
        <ele>143.5</ele>
        <time>2025-05-07T12:18:20.000Z</time>
      </trkpt>
      <trkpt lat="43.49331" lon="5.31372">
        <ele>143.4</ele>
        <time>2025-05-07T12:18:22.000Z</time>
      </trkpt>
      <trkpt lat="43.49329" lon="5.31374">
        <ele>143.2</ele>
        <time>2025-05-07T12:18:25.000Z</time>
      </trkpt>
      <trkpt lat="43.49328" lon="5.31376">
        <ele>143.1</ele>
        <time>2025-05-07T12:18:29.000Z</time>
      </trkpt>
      <trkpt lat="43.49325" lon="5.31377">
        <ele>143</ele>
        <time>2025-05-07T12:18:32.000Z</time>
      </trkpt>
      <trkpt lat="43.49323" lon="5.31379">
        <ele>142.8</ele>
        <time>2025-05-07T12:18:35.000Z</time>
      </trkpt>
      <trkpt lat="43.49321" lon="5.3138">
        <ele>142.8</ele>
        <time>2025-05-07T12:18:37.000Z</time>
      </trkpt>
      <trkpt lat="43.49319" lon="5.3138">
        <ele>142.8</ele>
        <time>2025-05-07T12:18:39.000Z</time>
      </trkpt>
      <trkpt lat="43.49317" lon="5.31381">
        <ele>142.7</ele>
        <time>2025-05-07T12:18:41.000Z</time>
      </trkpt>
      <trkpt lat="43.49315" lon="5.31381">
        <ele>142.6</ele>
        <time>2025-05-07T12:18:43.000Z</time>
      </trkpt>
      <trkpt lat="43.49313" lon="5.31381">
        <ele>142.6</ele>
        <time>2025-05-07T12:18:45.000Z</time>
      </trkpt>
      <trkpt lat="43.49311" lon="5.31381">
        <ele>142.7</ele>
        <time>2025-05-07T12:18:47.000Z</time>
      </trkpt>
      <trkpt lat="43.49309" lon="5.31381">
        <ele>142.7</ele>
        <time>2025-05-07T12:18:49.000Z</time>
      </trkpt>
      <trkpt lat="43.49307" lon="5.31381">
        <ele>142.8</ele>
        <time>2025-05-07T12:18:51.000Z</time>
      </trkpt>
      <trkpt lat="43.49305" lon="5.3138">
        <ele>142.8</ele>
        <time>2025-05-07T12:18:55.000Z</time>
      </trkpt>
      <trkpt lat="43.49303" lon="5.3138">
        <ele>142.9</ele>
        <time>2025-05-07T12:18:57.000Z</time>
      </trkpt>
      <trkpt lat="43.49301" lon="5.3138">
        <ele>143</ele>
        <time>2025-05-07T12:18:59.000Z</time>
      </trkpt>
      <trkpt lat="43.49299" lon="5.3138">
        <ele>143</ele>
        <time>2025-05-07T12:19:01.000Z</time>
      </trkpt>
      <trkpt lat="43.49297" lon="5.31381">
        <ele>142.7</ele>
        <time>2025-05-07T12:19:03.000Z</time>
      </trkpt>
      <trkpt lat="43.49294" lon="5.31382">
        <ele>142.6</ele>
        <time>2025-05-07T12:19:05.000Z</time>
      </trkpt>
      <trkpt lat="43.49293" lon="5.31382">
        <ele>142.5</ele>
        <time>2025-05-07T12:19:07.000Z</time>
      </trkpt>
      <trkpt lat="43.49291" lon="5.31382">
        <ele>142.4</ele>
        <time>2025-05-07T12:19:09.000Z</time>
      </trkpt>
      <trkpt lat="43.49288" lon="5.31384">
        <ele>142.2</ele>
        <time>2025-05-07T12:19:11.000Z</time>
      </trkpt>
      <trkpt lat="43.49287" lon="5.31385">
        <ele>141.9</ele>
        <time>2025-05-07T12:19:13.000Z</time>
      </trkpt>
      <trkpt lat="43.49285" lon="5.31387">
        <ele>141.5</ele>
        <time>2025-05-07T12:19:15.000Z</time>
      </trkpt>
      <trkpt lat="43.49282" lon="5.31389">
        <ele>141</ele>
        <time>2025-05-07T12:19:17.000Z</time>
      </trkpt>
      <trkpt lat="43.4928" lon="5.3139">
        <ele>141</ele>
        <time>2025-05-07T12:19:19.000Z</time>
      </trkpt>
      <trkpt lat="43.49278" lon="5.31392">
        <ele>140.9</ele>
        <time>2025-05-07T12:19:21.000Z</time>
      </trkpt>
      <trkpt lat="43.49276" lon="5.31393">
        <ele>141</ele>
        <time>2025-05-07T12:19:23.000Z</time>
      </trkpt>
      <trkpt lat="43.49274" lon="5.31394">
        <ele>141</ele>
        <time>2025-05-07T12:19:25.000Z</time>
      </trkpt>
      <trkpt lat="43.49272" lon="5.31395">
        <ele>141.1</ele>
        <time>2025-05-07T12:19:27.000Z</time>
      </trkpt>
      <trkpt lat="43.49269" lon="5.31396">
        <ele>141.2</ele>
        <time>2025-05-07T12:19:29.000Z</time>
      </trkpt>
      <trkpt lat="43.49267" lon="5.31397">
        <ele>141.2</ele>
        <time>2025-05-07T12:19:31.000Z</time>
      </trkpt>
      <trkpt lat="43.49266" lon="5.31398">
        <ele>141.2</ele>
        <time>2025-05-07T12:19:33.000Z</time>
      </trkpt>
      <trkpt lat="43.49264" lon="5.31399">
        <ele>141.3</ele>
        <time>2025-05-07T12:19:35.000Z</time>
      </trkpt>
      <trkpt lat="43.49262" lon="5.314">
        <ele>141.3</ele>
        <time>2025-05-07T12:19:37.000Z</time>
      </trkpt>
      <trkpt lat="43.4926" lon="5.31401">
        <ele>141.3</ele>
        <time>2025-05-07T12:19:39.000Z</time>
      </trkpt>
      <trkpt lat="43.49258" lon="5.31402">
        <ele>141.3</ele>
        <time>2025-05-07T12:19:41.000Z</time>
      </trkpt>
      <trkpt lat="43.49256" lon="5.31403">
        <ele>141.2</ele>
        <time>2025-05-07T12:19:43.000Z</time>
      </trkpt>
      <trkpt lat="43.49254" lon="5.31405">
        <ele>141.1</ele>
        <time>2025-05-07T12:19:45.000Z</time>
      </trkpt>
      <trkpt lat="43.49253" lon="5.31409">
        <ele>140.8</ele>
        <time>2025-05-07T12:19:48.000Z</time>
      </trkpt>
      <trkpt lat="43.49251" lon="5.31411">
        <ele>140.6</ele>
        <time>2025-05-07T12:19:50.000Z</time>
      </trkpt>
      <trkpt lat="43.49249" lon="5.31413">
        <ele>140.4</ele>
        <time>2025-05-07T12:19:52.000Z</time>
      </trkpt>
      <trkpt lat="43.49247" lon="5.31415">
        <ele>140.2</ele>
        <time>2025-05-07T12:19:54.000Z</time>
      </trkpt>
      <trkpt lat="43.49245" lon="5.31417">
        <ele>140</ele>
        <time>2025-05-07T12:19:56.000Z</time>
      </trkpt>
      <trkpt lat="43.49243" lon="5.31418">
        <ele>139.9</ele>
        <time>2025-05-07T12:19:58.000Z</time>
      </trkpt>
      <trkpt lat="43.49242" lon="5.3142">
        <ele>139.8</ele>
        <time>2025-05-07T12:20:00.000Z</time>
      </trkpt>
      <trkpt lat="43.4924" lon="5.31421">
        <ele>139.7</ele>
        <time>2025-05-07T12:20:02.000Z</time>
      </trkpt>
      <trkpt lat="43.49237" lon="5.31422">
        <ele>139.6</ele>
        <time>2025-05-07T12:20:05.000Z</time>
      </trkpt>
      <trkpt lat="43.49235" lon="5.31423">
        <ele>139.6</ele>
        <time>2025-05-07T12:20:07.000Z</time>
      </trkpt>
      <trkpt lat="43.49233" lon="5.31423">
        <ele>139.5</ele>
        <time>2025-05-07T12:20:09.000Z</time>
      </trkpt>
      <trkpt lat="43.49231" lon="5.31424">
        <ele>139.5</ele>
        <time>2025-05-07T12:20:12.000Z</time>
      </trkpt>
      <trkpt lat="43.49229" lon="5.31425">
        <ele>139.4</ele>
        <time>2025-05-07T12:20:14.000Z</time>
      </trkpt>
      <trkpt lat="43.49227" lon="5.31427">
        <ele>139.2</ele>
        <time>2025-05-07T12:20:16.000Z</time>
      </trkpt>
      <trkpt lat="43.49224" lon="5.31428">
        <ele>139.2</ele>
        <time>2025-05-07T12:20:18.000Z</time>
      </trkpt>
      <trkpt lat="43.49222" lon="5.31429">
        <ele>139.1</ele>
        <time>2025-05-07T12:20:20.000Z</time>
      </trkpt>
      <trkpt lat="43.4922" lon="5.3143">
        <ele>139</ele>
        <time>2025-05-07T12:20:22.000Z</time>
      </trkpt>
      <trkpt lat="43.49218" lon="5.31432">
        <ele>138.9</ele>
        <time>2025-05-07T12:20:24.000Z</time>
      </trkpt>
      <trkpt lat="43.49217" lon="5.31432">
        <ele>138.9</ele>
        <time>2025-05-07T12:20:26.000Z</time>
      </trkpt>
      <trkpt lat="43.49214" lon="5.31432">
        <ele>138.9</ele>
        <time>2025-05-07T12:20:28.000Z</time>
      </trkpt>
      <trkpt lat="43.49212" lon="5.31433">
        <ele>138.8</ele>
        <time>2025-05-07T12:20:30.000Z</time>
      </trkpt>
      <trkpt lat="43.49209" lon="5.31434">
        <ele>138.7</ele>
        <time>2025-05-07T12:20:32.000Z</time>
      </trkpt>
      <trkpt lat="43.49207" lon="5.31436">
        <ele>138.6</ele>
        <time>2025-05-07T12:20:34.000Z</time>
      </trkpt>
      <trkpt lat="43.49204" lon="5.31437">
        <ele>138.5</ele>
        <time>2025-05-07T12:20:36.000Z</time>
      </trkpt>
      <trkpt lat="43.49202" lon="5.31437">
        <ele>138.6</ele>
        <time>2025-05-07T12:20:38.000Z</time>
      </trkpt>
      <trkpt lat="43.492" lon="5.31436">
        <ele>138.6</ele>
        <time>2025-05-07T12:20:40.000Z</time>
      </trkpt>
      <trkpt lat="43.49197" lon="5.31436">
        <ele>138.6</ele>
        <time>2025-05-07T12:20:42.000Z</time>
      </trkpt>
      <trkpt lat="43.49195" lon="5.31437">
        <ele>138.6</ele>
        <time>2025-05-07T12:20:44.000Z</time>
      </trkpt>
      <trkpt lat="43.49192" lon="5.31436">
        <ele>138.7</ele>
        <time>2025-05-07T12:20:46.000Z</time>
      </trkpt>
      <trkpt lat="43.4919" lon="5.31436">
        <ele>138.8</ele>
        <time>2025-05-07T12:20:48.000Z</time>
      </trkpt>
      <trkpt lat="43.49188" lon="5.31437">
        <ele>138.8</ele>
        <time>2025-05-07T12:20:50.000Z</time>
      </trkpt>
      <trkpt lat="43.49186" lon="5.31439">
        <ele>138.6</ele>
        <time>2025-05-07T12:20:52.000Z</time>
      </trkpt>
      <trkpt lat="43.49184" lon="5.3144">
        <ele>138.5</ele>
        <time>2025-05-07T12:20:54.000Z</time>
      </trkpt>
      <trkpt lat="43.49182" lon="5.31441">
        <ele>138.4</ele>
        <time>2025-05-07T12:20:56.000Z</time>
      </trkpt>
      <trkpt lat="43.49179" lon="5.31442">
        <ele>138.3</ele>
        <time>2025-05-07T12:20:58.000Z</time>
      </trkpt>
      <trkpt lat="43.49177" lon="5.31443">
        <ele>138.2</ele>
        <time>2025-05-07T12:21:00.000Z</time>
      </trkpt>
      <trkpt lat="43.49174" lon="5.31444">
        <ele>138</ele>
        <time>2025-05-07T12:21:02.000Z</time>
      </trkpt>
      <trkpt lat="43.49172" lon="5.31446">
        <ele>138</ele>
        <time>2025-05-07T12:21:04.000Z</time>
      </trkpt>
      <trkpt lat="43.4917" lon="5.31447">
        <ele>137.9</ele>
        <time>2025-05-07T12:21:06.000Z</time>
      </trkpt>
      <trkpt lat="43.49168" lon="5.31448">
        <ele>137.9</ele>
        <time>2025-05-07T12:21:08.000Z</time>
      </trkpt>
      <trkpt lat="43.49165" lon="5.31449">
        <ele>137.9</ele>
        <time>2025-05-07T12:21:10.000Z</time>
      </trkpt>
      <trkpt lat="43.49163" lon="5.31449">
        <ele>138.1</ele>
        <time>2025-05-07T12:21:12.000Z</time>
      </trkpt>
      <trkpt lat="43.49161" lon="5.31449">
        <ele>138.2</ele>
        <time>2025-05-07T12:21:14.000Z</time>
      </trkpt>
      <trkpt lat="43.49158" lon="5.3145">
        <ele>138.4</ele>
        <time>2025-05-07T12:21:16.000Z</time>
      </trkpt>
      <trkpt lat="43.49156" lon="5.31452">
        <ele>138.4</ele>
        <time>2025-05-07T12:21:18.000Z</time>
      </trkpt>
      <trkpt lat="43.49154" lon="5.31453">
        <ele>138.4</ele>
        <time>2025-05-07T12:21:20.000Z</time>
      </trkpt>
      <trkpt lat="43.49152" lon="5.31455">
        <ele>138.5</ele>
        <time>2025-05-07T12:21:22.000Z</time>
      </trkpt>
      <trkpt lat="43.4915" lon="5.31457">
        <ele>138.5</ele>
        <time>2025-05-07T12:21:24.000Z</time>
      </trkpt>
      <trkpt lat="43.49148" lon="5.31459">
        <ele>138.5</ele>
        <time>2025-05-07T12:21:26.000Z</time>
      </trkpt>
      <trkpt lat="43.49146" lon="5.31461">
        <ele>138.5</ele>
        <time>2025-05-07T12:21:28.000Z</time>
      </trkpt>
      <trkpt lat="43.49144" lon="5.31462">
        <ele>138.5</ele>
        <time>2025-05-07T12:21:30.000Z</time>
      </trkpt>
      <trkpt lat="43.49142" lon="5.31464">
        <ele>138.5</ele>
        <time>2025-05-07T12:21:32.000Z</time>
      </trkpt>
      <trkpt lat="43.4914" lon="5.31466">
        <ele>138.4</ele>
        <time>2025-05-07T12:21:34.000Z</time>
      </trkpt>
      <trkpt lat="43.49139" lon="5.31468">
        <ele>138.4</ele>
        <time>2025-05-07T12:21:36.000Z</time>
      </trkpt>
      <trkpt lat="43.49137" lon="5.31469">
        <ele>138.4</ele>
        <time>2025-05-07T12:21:38.000Z</time>
      </trkpt>
      <trkpt lat="43.49135" lon="5.31471">
        <ele>138.5</ele>
        <time>2025-05-07T12:21:40.000Z</time>
      </trkpt>
      <trkpt lat="43.49132" lon="5.31473">
        <ele>138.7</ele>
        <time>2025-05-07T12:21:43.000Z</time>
      </trkpt>
      <trkpt lat="43.49131" lon="5.31475">
        <ele>138.8</ele>
        <time>2025-05-07T12:21:45.000Z</time>
      </trkpt>
      <trkpt lat="43.49129" lon="5.31477">
        <ele>138.8</ele>
        <time>2025-05-07T12:21:47.000Z</time>
      </trkpt>
      <trkpt lat="43.49127" lon="5.3148">
        <ele>138.9</ele>
        <time>2025-05-07T12:21:49.000Z</time>
      </trkpt>
      <trkpt lat="43.49125" lon="5.31481">
        <ele>139</ele>
        <time>2025-05-07T12:21:51.000Z</time>
      </trkpt>
      <trkpt lat="43.49124" lon="5.31483">
        <ele>139</ele>
        <time>2025-05-07T12:21:53.000Z</time>
      </trkpt>
      <trkpt lat="43.49122" lon="5.31485">
        <ele>139.1</ele>
        <time>2025-05-07T12:21:55.000Z</time>
      </trkpt>
      <trkpt lat="43.4912" lon="5.31486">
        <ele>139.2</ele>
        <time>2025-05-07T12:21:57.000Z</time>
      </trkpt>
      <trkpt lat="43.49119" lon="5.31488">
        <ele>139.2</ele>
        <time>2025-05-07T12:21:59.000Z</time>
      </trkpt>
      <trkpt lat="43.49117" lon="5.31489">
        <ele>139.3</ele>
        <time>2025-05-07T12:22:01.000Z</time>
      </trkpt>
      <trkpt lat="43.49115" lon="5.31491">
        <ele>139.4</ele>
        <time>2025-05-07T12:22:03.000Z</time>
      </trkpt>
      <trkpt lat="43.49112" lon="5.31492">
        <ele>139.4</ele>
        <time>2025-05-07T12:22:05.000Z</time>
      </trkpt>
      <trkpt lat="43.49111" lon="5.31494">
        <ele>139.5</ele>
        <time>2025-05-07T12:22:07.000Z</time>
      </trkpt>
      <trkpt lat="43.49108" lon="5.31495">
        <ele>139.3</ele>
        <time>2025-05-07T12:22:10.000Z</time>
      </trkpt>
      <trkpt lat="43.49106" lon="5.31496">
        <ele>139.2</ele>
        <time>2025-05-07T12:22:12.000Z</time>
      </trkpt>
      <trkpt lat="43.49104" lon="5.31496">
        <ele>139</ele>
        <time>2025-05-07T12:22:14.000Z</time>
      </trkpt>
      <trkpt lat="43.49102" lon="5.31497">
        <ele>138.9</ele>
        <time>2025-05-07T12:22:17.000Z</time>
      </trkpt>
      <trkpt lat="43.49099" lon="5.31498">
        <ele>138.7</ele>
        <time>2025-05-07T12:22:19.000Z</time>
      </trkpt>
      <trkpt lat="43.49098" lon="5.31499">
        <ele>138.6</ele>
        <time>2025-05-07T12:22:21.000Z</time>
      </trkpt>
      <trkpt lat="43.49095" lon="5.31501">
        <ele>138.4</ele>
        <time>2025-05-07T12:22:24.000Z</time>
      </trkpt>
      <trkpt lat="43.49093" lon="5.31503">
        <ele>138.4</ele>
        <time>2025-05-07T12:22:26.000Z</time>
      </trkpt>
      <trkpt lat="43.49092" lon="5.31504">
        <ele>138.3</ele>
        <time>2025-05-07T12:22:28.000Z</time>
      </trkpt>
      <trkpt lat="43.49089" lon="5.31506">
        <ele>138.2</ele>
        <time>2025-05-07T12:22:31.000Z</time>
      </trkpt>
      <trkpt lat="43.49087" lon="5.31508">
        <ele>138.1</ele>
        <time>2025-05-07T12:22:34.000Z</time>
      </trkpt>
      <trkpt lat="43.49086" lon="5.31509">
        <ele>138.1</ele>
        <time>2025-05-07T12:22:36.000Z</time>
      </trkpt>
      <trkpt lat="43.49084" lon="5.31511">
        <ele>138</ele>
        <time>2025-05-07T12:22:40.000Z</time>
      </trkpt>
      <trkpt lat="43.49082" lon="5.31512">
        <ele>138</ele>
        <time>2025-05-07T12:22:42.000Z</time>
      </trkpt>
      <trkpt lat="43.49079" lon="5.31514">
        <ele>137.9</ele>
        <time>2025-05-07T12:22:45.000Z</time>
      </trkpt>
      <trkpt lat="43.49077" lon="5.31516">
        <ele>137.9</ele>
        <time>2025-05-07T12:22:47.000Z</time>
      </trkpt>
      <trkpt lat="43.49075" lon="5.31517">
        <ele>137.8</ele>
        <time>2025-05-07T12:22:50.000Z</time>
      </trkpt>
      <trkpt lat="43.49073" lon="5.31519">
        <ele>137.7</ele>
        <time>2025-05-07T12:22:53.000Z</time>
      </trkpt>
      <trkpt lat="43.49071" lon="5.31519">
        <ele>137.7</ele>
        <time>2025-05-07T12:22:55.000Z</time>
      </trkpt>
      <trkpt lat="43.49069" lon="5.31521">
        <ele>137.6</ele>
        <time>2025-05-07T12:22:58.000Z</time>
      </trkpt>
      <trkpt lat="43.49067" lon="5.31523">
        <ele>137.5</ele>
        <time>2025-05-07T12:23:00.000Z</time>
      </trkpt>
      <trkpt lat="43.49065" lon="5.31525">
        <ele>137.4</ele>
        <time>2025-05-07T12:23:02.000Z</time>
      </trkpt>
      <trkpt lat="43.49063" lon="5.31527">
        <ele>137.3</ele>
        <time>2025-05-07T12:23:05.000Z</time>
      </trkpt>
      <trkpt lat="43.49062" lon="5.31529">
        <ele>137.2</ele>
        <time>2025-05-07T12:23:07.000Z</time>
      </trkpt>
      <trkpt lat="43.4906" lon="5.31531">
        <ele>137.1</ele>
        <time>2025-05-07T12:23:09.000Z</time>
      </trkpt>
      <trkpt lat="43.49059" lon="5.31533">
        <ele>136.9</ele>
        <time>2025-05-07T12:23:11.000Z</time>
      </trkpt>
      <trkpt lat="43.49057" lon="5.31534">
        <ele>136.8</ele>
        <time>2025-05-07T12:23:13.000Z</time>
      </trkpt>
      <trkpt lat="43.49056" lon="5.31536">
        <ele>136.7</ele>
        <time>2025-05-07T12:23:15.000Z</time>
      </trkpt>
      <trkpt lat="43.49054" lon="5.31537">
        <ele>136.6</ele>
        <time>2025-05-07T12:23:17.000Z</time>
      </trkpt>
      <trkpt lat="43.49052" lon="5.31539">
        <ele>136.5</ele>
        <time>2025-05-07T12:23:19.000Z</time>
      </trkpt>
      <trkpt lat="43.4905" lon="5.3154">
        <ele>136.4</ele>
        <time>2025-05-07T12:23:21.000Z</time>
      </trkpt>
      <trkpt lat="43.49048" lon="5.31542">
        <ele>136.2</ele>
        <time>2025-05-07T12:23:23.000Z</time>
      </trkpt>
      <trkpt lat="43.49046" lon="5.31544">
        <ele>136.1</ele>
        <time>2025-05-07T12:23:26.000Z</time>
      </trkpt>
      <trkpt lat="43.49044" lon="5.31546">
        <ele>135.9</ele>
        <time>2025-05-07T12:23:28.000Z</time>
      </trkpt>
      <trkpt lat="43.49042" lon="5.31547">
        <ele>135.8</ele>
        <time>2025-05-07T12:23:30.000Z</time>
      </trkpt>
      <trkpt lat="43.49041" lon="5.31549">
        <ele>135.7</ele>
        <time>2025-05-07T12:23:32.000Z</time>
      </trkpt>
      <trkpt lat="43.49039" lon="5.31551">
        <ele>135.6</ele>
        <time>2025-05-07T12:23:34.000Z</time>
      </trkpt>
      <trkpt lat="43.49037" lon="5.31552">
        <ele>135.5</ele>
        <time>2025-05-07T12:23:36.000Z</time>
      </trkpt>
      <trkpt lat="43.49035" lon="5.31553">
        <ele>135.4</ele>
        <time>2025-05-07T12:23:38.000Z</time>
      </trkpt>
      <trkpt lat="43.49033" lon="5.31554">
        <ele>135.2</ele>
        <time>2025-05-07T12:23:40.000Z</time>
      </trkpt>
      <trkpt lat="43.49031" lon="5.31556">
        <ele>135.1</ele>
        <time>2025-05-07T12:23:42.000Z</time>
      </trkpt>
      <trkpt lat="43.49029" lon="5.31557">
        <ele>135</ele>
        <time>2025-05-07T12:23:44.000Z</time>
      </trkpt>
      <trkpt lat="43.49027" lon="5.31558">
        <ele>135</ele>
        <time>2025-05-07T12:23:46.000Z</time>
      </trkpt>
      <trkpt lat="43.49024" lon="5.31559">
        <ele>135</ele>
        <time>2025-05-07T12:23:48.000Z</time>
      </trkpt>
      <trkpt lat="43.49022" lon="5.31559">
        <ele>135</ele>
        <time>2025-05-07T12:23:50.000Z</time>
      </trkpt>
      <trkpt lat="43.49019" lon="5.3156">
        <ele>135</ele>
        <time>2025-05-07T12:23:52.000Z</time>
      </trkpt>
      <trkpt lat="43.49017" lon="5.3156">
        <ele>134.9</ele>
        <time>2025-05-07T12:23:54.000Z</time>
      </trkpt>
      <trkpt lat="43.49015" lon="5.31561">
        <ele>134.9</ele>
        <time>2025-05-07T12:23:56.000Z</time>
      </trkpt>
      <trkpt lat="43.49012" lon="5.31562">
        <ele>134.9</ele>
        <time>2025-05-07T12:23:59.000Z</time>
      </trkpt>
      <trkpt lat="43.4901" lon="5.31564">
        <ele>134.8</ele>
        <time>2025-05-07T12:24:01.000Z</time>
      </trkpt>
      <trkpt lat="43.49008" lon="5.31564">
        <ele>134.8</ele>
        <time>2025-05-07T12:24:03.000Z</time>
      </trkpt>
      <trkpt lat="43.49006" lon="5.31564">
        <ele>134.8</ele>
        <time>2025-05-07T12:24:06.000Z</time>
      </trkpt>
      <trkpt lat="43.49003" lon="5.31565">
        <ele>134.7</ele>
        <time>2025-05-07T12:24:08.000Z</time>
      </trkpt>
      <trkpt lat="43.49001" lon="5.31566">
        <ele>134.6</ele>
        <time>2025-05-07T12:24:10.000Z</time>
      </trkpt>
      <trkpt lat="43.48999" lon="5.31567">
        <ele>134.6</ele>
        <time>2025-05-07T12:24:13.000Z</time>
      </trkpt>
      <trkpt lat="43.48997" lon="5.31567">
        <ele>134.5</ele>
        <time>2025-05-07T12:24:15.000Z</time>
      </trkpt>
      <trkpt lat="43.48994" lon="5.31568">
        <ele>134.3</ele>
        <time>2025-05-07T12:24:17.000Z</time>
      </trkpt>
      <trkpt lat="43.48992" lon="5.31569">
        <ele>134.2</ele>
        <time>2025-05-07T12:24:19.000Z</time>
      </trkpt>
      <trkpt lat="43.48991" lon="5.3157">
        <ele>134.1</ele>
        <time>2025-05-07T12:24:21.000Z</time>
      </trkpt>
      <trkpt lat="43.48988" lon="5.31571">
        <ele>134</ele>
        <time>2025-05-07T12:24:23.000Z</time>
      </trkpt>
      <trkpt lat="43.48985" lon="5.31571">
        <ele>133.9</ele>
        <time>2025-05-07T12:24:26.000Z</time>
      </trkpt>
      <trkpt lat="43.48983" lon="5.31572">
        <ele>133.8</ele>
        <time>2025-05-07T12:24:28.000Z</time>
      </trkpt>
      <trkpt lat="43.48981" lon="5.31572">
        <ele>133.7</ele>
        <time>2025-05-07T12:24:30.000Z</time>
      </trkpt>
      <trkpt lat="43.48979" lon="5.31573">
        <ele>133.6</ele>
        <time>2025-05-07T12:24:32.000Z</time>
      </trkpt>
      <trkpt lat="43.48978" lon="5.31573">
        <ele>133.6</ele>
        <time>2025-05-07T12:24:34.000Z</time>
      </trkpt>
      <trkpt lat="43.48976" lon="5.31574">
        <ele>133.5</ele>
        <time>2025-05-07T12:24:36.000Z</time>
      </trkpt>
      <trkpt lat="43.48974" lon="5.31575">
        <ele>133.4</ele>
        <time>2025-05-07T12:24:38.000Z</time>
      </trkpt>
      <trkpt lat="43.48972" lon="5.31575">
        <ele>133.3</ele>
        <time>2025-05-07T12:24:40.000Z</time>
      </trkpt>
      <trkpt lat="43.48969" lon="5.31576">
        <ele>133.2</ele>
        <time>2025-05-07T12:24:42.000Z</time>
      </trkpt>
      <trkpt lat="43.48967" lon="5.31577">
        <ele>133.2</ele>
        <time>2025-05-07T12:24:44.000Z</time>
      </trkpt>
      <trkpt lat="43.48965" lon="5.31579">
        <ele>133.1</ele>
        <time>2025-05-07T12:24:46.000Z</time>
      </trkpt>
      <trkpt lat="43.48964" lon="5.3158">
        <ele>133.1</ele>
        <time>2025-05-07T12:24:48.000Z</time>
      </trkpt>
      <trkpt lat="43.48962" lon="5.31582">
        <ele>133</ele>
        <time>2025-05-07T12:24:50.000Z</time>
      </trkpt>
      <trkpt lat="43.48961" lon="5.31584">
        <ele>133</ele>
        <time>2025-05-07T12:24:52.000Z</time>
      </trkpt>
      <trkpt lat="43.4896" lon="5.31587">
        <ele>132.9</ele>
        <time>2025-05-07T12:24:54.000Z</time>
      </trkpt>
      <trkpt lat="43.48959" lon="5.3159">
        <ele>132.9</ele>
        <time>2025-05-07T12:24:56.000Z</time>
      </trkpt>
      <trkpt lat="43.48958" lon="5.31593">
        <ele>132.8</ele>
        <time>2025-05-07T12:24:58.000Z</time>
      </trkpt>
      <trkpt lat="43.48957" lon="5.31596">
        <ele>132.8</ele>
        <time>2025-05-07T12:25:00.000Z</time>
      </trkpt>
      <trkpt lat="43.48956" lon="5.31598">
        <ele>132.8</ele>
        <time>2025-05-07T12:25:02.000Z</time>
      </trkpt>
      <trkpt lat="43.48955" lon="5.31601">
        <ele>132.8</ele>
        <time>2025-05-07T12:25:04.000Z</time>
      </trkpt>
      <trkpt lat="43.48954" lon="5.31603">
        <ele>132.7</ele>
        <time>2025-05-07T12:25:06.000Z</time>
      </trkpt>
      <trkpt lat="43.48954" lon="5.31606">
        <ele>132.7</ele>
        <time>2025-05-07T12:25:08.000Z</time>
      </trkpt>
      <trkpt lat="43.48952" lon="5.31608">
        <ele>132.7</ele>
        <time>2025-05-07T12:25:10.000Z</time>
      </trkpt>
      <trkpt lat="43.48951" lon="5.31611">
        <ele>132.8</ele>
        <time>2025-05-07T12:25:12.000Z</time>
      </trkpt>
      <trkpt lat="43.4895" lon="5.31614">
        <ele>132.8</ele>
        <time>2025-05-07T12:25:14.000Z</time>
      </trkpt>
      <trkpt lat="43.48949" lon="5.31616">
        <ele>132.8</ele>
        <time>2025-05-07T12:25:16.000Z</time>
      </trkpt>
      <trkpt lat="43.48948" lon="5.31619">
        <ele>132.9</ele>
        <time>2025-05-07T12:25:18.000Z</time>
      </trkpt>
      <trkpt lat="43.48947" lon="5.31621">
        <ele>132.9</ele>
        <time>2025-05-07T12:25:23.000Z</time>
      </trkpt>
      <trkpt lat="43.48946" lon="5.31625">
        <ele>133</ele>
        <time>2025-05-07T12:25:25.000Z</time>
      </trkpt>
      <trkpt lat="43.48944" lon="5.31627">
        <ele>133</ele>
        <time>2025-05-07T12:25:27.000Z</time>
      </trkpt>
      <trkpt lat="43.48943" lon="5.3163">
        <ele>133</ele>
        <time>2025-05-07T12:25:29.000Z</time>
      </trkpt>
      <trkpt lat="43.48942" lon="5.31633">
        <ele>133</ele>
        <time>2025-05-07T12:25:32.000Z</time>
      </trkpt>
      <trkpt lat="43.48941" lon="5.31636">
        <ele>133</ele>
        <time>2025-05-07T12:25:34.000Z</time>
      </trkpt>
      <trkpt lat="43.4894" lon="5.31637">
        <ele>133</ele>
        <time>2025-05-07T12:25:36.000Z</time>
      </trkpt>
      <trkpt lat="43.48938" lon="5.3164">
        <ele>133</ele>
        <time>2025-05-07T12:25:39.000Z</time>
      </trkpt>
      <trkpt lat="43.48936" lon="5.31642">
        <ele>132.9</ele>
        <time>2025-05-07T12:25:41.000Z</time>
      </trkpt>
      <trkpt lat="43.48935" lon="5.31644">
        <ele>132.9</ele>
        <time>2025-05-07T12:25:43.000Z</time>
      </trkpt>
      <trkpt lat="43.48933" lon="5.31646">
        <ele>132.9</ele>
        <time>2025-05-07T12:25:45.000Z</time>
      </trkpt>
      <trkpt lat="43.48931" lon="5.31647">
        <ele>132.8</ele>
        <time>2025-05-07T12:25:47.000Z</time>
      </trkpt>
      <trkpt lat="43.48929" lon="5.3165">
        <ele>132.8</ele>
        <time>2025-05-07T12:25:50.000Z</time>
      </trkpt>
      <trkpt lat="43.48927" lon="5.31652">
        <ele>132.8</ele>
        <time>2025-05-07T12:25:53.000Z</time>
      </trkpt>
      <trkpt lat="43.48925" lon="5.31654">
        <ele>132.8</ele>
        <time>2025-05-07T12:25:55.000Z</time>
      </trkpt>
      <trkpt lat="43.48923" lon="5.31656">
        <ele>132.9</ele>
        <time>2025-05-07T12:25:57.000Z</time>
      </trkpt>
      <trkpt lat="43.48921" lon="5.31658">
        <ele>132.9</ele>
        <time>2025-05-07T12:25:59.000Z</time>
      </trkpt>
      <trkpt lat="43.48918" lon="5.31659">
        <ele>133</ele>
        <time>2025-05-07T12:26:01.000Z</time>
      </trkpt>
      <trkpt lat="43.48916" lon="5.31659">
        <ele>133</ele>
        <time>2025-05-07T12:26:04.000Z</time>
      </trkpt>
      <trkpt lat="43.48913" lon="5.31659">
        <ele>133</ele>
        <time>2025-05-07T12:26:07.000Z</time>
      </trkpt>
      <trkpt lat="43.48911" lon="5.31659">
        <ele>132.9</ele>
        <time>2025-05-07T12:26:09.000Z</time>
      </trkpt>
      <trkpt lat="43.4891" lon="5.3166">
        <ele>132.9</ele>
        <time>2025-05-07T12:26:12.000Z</time>
      </trkpt>
      <trkpt lat="43.48908" lon="5.3166">
        <ele>132.9</ele>
        <time>2025-05-07T12:26:15.000Z</time>
      </trkpt>
      <trkpt lat="43.48905" lon="5.31661">
        <ele>132.9</ele>
        <time>2025-05-07T12:26:17.000Z</time>
      </trkpt>
      <trkpt lat="43.48904" lon="5.31662">
        <ele>132.9</ele>
        <time>2025-05-07T12:26:19.000Z</time>
      </trkpt>
      <trkpt lat="43.48901" lon="5.31664">
        <ele>132.9</ele>
        <time>2025-05-07T12:26:22.000Z</time>
      </trkpt>
      <trkpt lat="43.48899" lon="5.31665">
        <ele>133</ele>
        <time>2025-05-07T12:26:24.000Z</time>
      </trkpt>
      <trkpt lat="43.48897" lon="5.31666">
        <ele>133</ele>
        <time>2025-05-07T12:26:27.000Z</time>
      </trkpt>
      <trkpt lat="43.48894" lon="5.31666">
        <ele>133</ele>
        <time>2025-05-07T12:26:30.000Z</time>
      </trkpt>
      <trkpt lat="43.48892" lon="5.31667">
        <ele>133</ele>
        <time>2025-05-07T12:26:33.000Z</time>
      </trkpt>
      <trkpt lat="43.4889" lon="5.31667">
        <ele>133</ele>
        <time>2025-05-07T12:26:35.000Z</time>
      </trkpt>
      <trkpt lat="43.48887" lon="5.31669">
        <ele>133</ele>
        <time>2025-05-07T12:26:38.000Z</time>
      </trkpt>
      <trkpt lat="43.48885" lon="5.31669">
        <ele>133</ele>
        <time>2025-05-07T12:26:41.000Z</time>
      </trkpt>
      <trkpt lat="43.48883" lon="5.31671">
        <ele>132.9</ele>
        <time>2025-05-07T12:26:44.000Z</time>
      </trkpt>
      <trkpt lat="43.48881" lon="5.31672">
        <ele>132.9</ele>
        <time>2025-05-07T12:26:47.000Z</time>
      </trkpt>
      <trkpt lat="43.48879" lon="5.31672">
        <ele>132.9</ele>
        <time>2025-05-07T12:26:49.000Z</time>
      </trkpt>
      <trkpt lat="43.48877" lon="5.31672">
        <ele>132.8</ele>
        <time>2025-05-07T12:26:52.000Z</time>
      </trkpt>
      <trkpt lat="43.48874" lon="5.31673">
        <ele>132.7</ele>
        <time>2025-05-07T12:26:56.000Z</time>
      </trkpt>
      <trkpt lat="43.48872" lon="5.31675">
        <ele>132.7</ele>
        <time>2025-05-07T12:27:02.000Z</time>
      </trkpt>
      <trkpt lat="43.4887" lon="5.31675">
        <ele>132.6</ele>
        <time>2025-05-07T12:27:09.000Z</time>
      </trkpt>
      <trkpt lat="43.48868" lon="5.31676">
        <ele>132.6</ele>
        <time>2025-05-07T12:27:12.000Z</time>
      </trkpt>
      <trkpt lat="43.48866" lon="5.31677">
        <ele>132.5</ele>
        <time>2025-05-07T12:27:25.000Z</time>
      </trkpt>
      <trkpt lat="43.48864" lon="5.31676">
        <ele>132.4</ele>
        <time>2025-05-07T12:27:31.000Z</time>
      </trkpt>
      <trkpt lat="43.48862" lon="5.31679">
        <ele>132.5</ele>
        <time>2025-05-07T12:27:35.000Z</time>
      </trkpt>
    </trkseg>
  </trk>
</gpx>